<?xml version="1.0" encoding="UTF-8" standalone="no" ?>
<gpx xmlns="http://www.topografix.com/GPX/1/1" xmlns:xsi="http://www.w3.org/2001/XMLSchema-instance" xsi:schemaLocation="http://www.topografix.com/GPX/1/1 http://www.topografix.com/GPX/1/1/gpx.xsd" version="1.1" creator="VisuGPX - https://www.visugpx.com">
  <metadata>
    <name>Pornichet 04/10/2020</name>
    <desc><![CDATA[Sortie VTT du dimanche 04 octobre 2020]]></desc>
  </metadata>
  <trk>
    <name><![CDATA[Pornichet Cyclisme]]></name>
    <trkseg>
      <trkpt lat="47.26417" lon="-2.31552">
        <ele>21.39999961853</ele>
        <time>2020-10-04T07:04:21.000Z</time>
      </trkpt>
      <trkpt lat="47.26417" lon="-2.31552">
        <ele>21.39999961853</ele>
        <time>2020-10-04T07:04:22.000Z</time>
      </trkpt>
      <trkpt lat="47.26415" lon="-2.31552">
        <ele>21.39999961853</ele>
        <time>2020-10-04T07:04:25.000Z</time>
      </trkpt>
      <trkpt lat="47.26412" lon="-2.31552">
        <ele>21.39999961853</ele>
        <time>2020-10-04T07:04:26.000Z</time>
      </trkpt>
      <trkpt lat="47.2641" lon="-2.31552">
        <ele>21.39999961853</ele>
        <time>2020-10-04T07:04:27.000Z</time>
      </trkpt>
      <trkpt lat="47.26407" lon="-2.31554">
        <ele>21.39999961853</ele>
        <time>2020-10-04T07:04:28.000Z</time>
      </trkpt>
      <trkpt lat="47.26404" lon="-2.31562">
        <ele>21.39999961853</ele>
        <time>2020-10-04T07:04:30.000Z</time>
      </trkpt>
      <trkpt lat="47.26405" lon="-2.31576">
        <ele>21.39999961853</ele>
        <time>2020-10-04T07:04:33.000Z</time>
      </trkpt>
      <trkpt lat="47.26405" lon="-2.31581">
        <ele>21.39999961853</ele>
        <time>2020-10-04T07:04:34.000Z</time>
      </trkpt>
      <trkpt lat="47.26407" lon="-2.31622">
        <ele>21.39999961853</ele>
        <time>2020-10-04T07:04:41.000Z</time>
      </trkpt>
      <trkpt lat="47.26407" lon="-2.31662">
        <ele>21.39999961853</ele>
        <time>2020-10-04T07:04:48.000Z</time>
      </trkpt>
      <trkpt lat="47.26405" lon="-2.31664">
        <ele>21.39999961853</ele>
        <time>2020-10-04T07:04:49.000Z</time>
      </trkpt>
      <trkpt lat="47.264" lon="-2.31668">
        <ele>21</ele>
        <time>2020-10-04T07:04:51.000Z</time>
      </trkpt>
      <trkpt lat="47.26396" lon="-2.31669">
        <ele>20.60000038147</ele>
        <time>2020-10-04T07:04:52.000Z</time>
      </trkpt>
      <trkpt lat="47.26392" lon="-2.3167">
        <ele>20.200000762939</ele>
        <time>2020-10-04T07:04:53.000Z</time>
      </trkpt>
      <trkpt lat="47.26389" lon="-2.31672">
        <ele>19.799999237061</ele>
        <time>2020-10-04T07:04:54.000Z</time>
      </trkpt>
      <trkpt lat="47.26384" lon="-2.31675">
        <ele>19.39999961853</ele>
        <time>2020-10-04T07:04:55.000Z</time>
      </trkpt>
      <trkpt lat="47.26354" lon="-2.31694">
        <ele>19.39999961853</ele>
        <time>2020-10-04T07:05:02.000Z</time>
      </trkpt>
      <trkpt lat="47.26332" lon="-2.31704">
        <ele>18.799999237061</ele>
        <time>2020-10-04T07:05:07.000Z</time>
      </trkpt>
      <trkpt lat="47.26328" lon="-2.31706">
        <ele>18.39999961853</ele>
        <time>2020-10-04T07:05:08.000Z</time>
      </trkpt>
      <trkpt lat="47.26324" lon="-2.31708">
        <ele>18</ele>
        <time>2020-10-04T07:05:09.000Z</time>
      </trkpt>
      <trkpt lat="47.26321" lon="-2.31709">
        <ele>17.60000038147</ele>
        <time>2020-10-04T07:05:10.000Z</time>
      </trkpt>
      <trkpt lat="47.26317" lon="-2.31711">
        <ele>17.200000762939</ele>
        <time>2020-10-04T07:05:11.000Z</time>
      </trkpt>
      <trkpt lat="47.2631" lon="-2.31716">
        <ele>17.200000762939</ele>
        <time>2020-10-04T07:05:13.000Z</time>
      </trkpt>
      <trkpt lat="47.26308" lon="-2.31721">
        <ele>17.200000762939</ele>
        <time>2020-10-04T07:05:14.000Z</time>
      </trkpt>
      <trkpt lat="47.26306" lon="-2.31732">
        <ele>17.200000762939</ele>
        <time>2020-10-04T07:05:16.000Z</time>
      </trkpt>
      <trkpt lat="47.26307" lon="-2.31741">
        <ele>17.200000762939</ele>
        <time>2020-10-04T07:05:18.000Z</time>
      </trkpt>
      <trkpt lat="47.26308" lon="-2.31752">
        <ele>17.200000762939</ele>
        <time>2020-10-04T07:05:20.000Z</time>
      </trkpt>
      <trkpt lat="47.2631" lon="-2.31787">
        <ele>17.200000762939</ele>
        <time>2020-10-04T07:05:26.000Z</time>
      </trkpt>
      <trkpt lat="47.26307" lon="-2.31817">
        <ele>17.200000762939</ele>
        <time>2020-10-04T07:05:31.000Z</time>
      </trkpt>
      <trkpt lat="47.26306" lon="-2.31854">
        <ele>17.200000762939</ele>
        <time>2020-10-04T07:05:37.000Z</time>
      </trkpt>
      <trkpt lat="47.26307" lon="-2.31859">
        <ele>16.799999237061</ele>
        <time>2020-10-04T07:05:38.000Z</time>
      </trkpt>
      <trkpt lat="47.26307" lon="-2.31864">
        <ele>16.39999961853</ele>
        <time>2020-10-04T07:05:39.000Z</time>
      </trkpt>
      <trkpt lat="47.26308" lon="-2.31869">
        <ele>15.800000190735</ele>
        <time>2020-10-04T07:05:40.000Z</time>
      </trkpt>
      <trkpt lat="47.26308" lon="-2.31874">
        <ele>15.39999961853</ele>
        <time>2020-10-04T07:05:41.000Z</time>
      </trkpt>
      <trkpt lat="47.26308" lon="-2.31878">
        <ele>15</ele>
        <time>2020-10-04T07:05:42.000Z</time>
      </trkpt>
      <trkpt lat="47.26307" lon="-2.31881">
        <ele>15</ele>
        <time>2020-10-04T07:05:43.000Z</time>
      </trkpt>
      <trkpt lat="47.26299" lon="-2.31889">
        <ele>15</ele>
        <time>2020-10-04T07:05:46.000Z</time>
      </trkpt>
      <trkpt lat="47.26284" lon="-2.3191">
        <ele>15</ele>
        <time>2020-10-04T07:05:51.000Z</time>
      </trkpt>
      <trkpt lat="47.26271" lon="-2.31932">
        <ele>15</ele>
        <time>2020-10-04T07:05:56.000Z</time>
      </trkpt>
      <trkpt lat="47.26256" lon="-2.31962">
        <ele>15</ele>
        <time>2020-10-04T07:06:02.000Z</time>
      </trkpt>
      <trkpt lat="47.26252" lon="-2.31964">
        <ele>15</ele>
        <time>2020-10-04T07:06:03.000Z</time>
      </trkpt>
      <trkpt lat="47.26244" lon="-2.31967">
        <ele>15</ele>
        <time>2020-10-04T07:06:05.000Z</time>
      </trkpt>
      <trkpt lat="47.26235" lon="-2.31975">
        <ele>15</ele>
        <time>2020-10-04T07:06:08.000Z</time>
      </trkpt>
      <trkpt lat="47.26229" lon="-2.31979">
        <ele>15</ele>
        <time>2020-10-04T07:06:10.000Z</time>
      </trkpt>
      <trkpt lat="47.26217" lon="-2.31989">
        <ele>15</ele>
        <time>2020-10-04T07:06:14.000Z</time>
      </trkpt>
      <trkpt lat="47.26211" lon="-2.31991">
        <ele>15</ele>
        <time>2020-10-04T07:06:16.000Z</time>
      </trkpt>
      <trkpt lat="47.2621" lon="-2.31994">
        <ele>15</ele>
        <time>2020-10-04T07:06:17.000Z</time>
      </trkpt>
      <trkpt lat="47.26207" lon="-2.32004">
        <ele>15</ele>
        <time>2020-10-04T07:06:20.000Z</time>
      </trkpt>
      <trkpt lat="47.26205" lon="-2.3201">
        <ele>15</ele>
        <time>2020-10-04T07:06:22.000Z</time>
      </trkpt>
      <trkpt lat="47.26199" lon="-2.32013">
        <ele>15</ele>
        <time>2020-10-04T07:06:25.000Z</time>
      </trkpt>
      <trkpt lat="47.26193" lon="-2.32012">
        <ele>15</ele>
        <time>2020-10-04T07:06:27.000Z</time>
      </trkpt>
      <trkpt lat="47.26182" lon="-2.32012">
        <ele>15</ele>
        <time>2020-10-04T07:06:30.000Z</time>
      </trkpt>
      <trkpt lat="47.2617" lon="-2.32023">
        <ele>15</ele>
        <time>2020-10-04T07:06:34.000Z</time>
      </trkpt>
      <trkpt lat="47.26161" lon="-2.32035">
        <ele>15</ele>
        <time>2020-10-04T07:06:37.000Z</time>
      </trkpt>
      <trkpt lat="47.26156" lon="-2.32046">
        <ele>15</ele>
        <time>2020-10-04T07:06:39.000Z</time>
      </trkpt>
      <trkpt lat="47.26152" lon="-2.32058">
        <ele>15</ele>
        <time>2020-10-04T07:06:41.000Z</time>
      </trkpt>
      <trkpt lat="47.26147" lon="-2.32076">
        <ele>15</ele>
        <time>2020-10-04T07:06:44.000Z</time>
      </trkpt>
      <trkpt lat="47.26145" lon="-2.32082">
        <ele>15</ele>
        <time>2020-10-04T07:06:45.000Z</time>
      </trkpt>
      <trkpt lat="47.26134" lon="-2.32123">
        <ele>15</ele>
        <time>2020-10-04T07:06:52.000Z</time>
      </trkpt>
      <trkpt lat="47.26123" lon="-2.32159">
        <ele>15</ele>
        <time>2020-10-04T07:06:58.000Z</time>
      </trkpt>
      <trkpt lat="47.26109" lon="-2.32193">
        <ele>15</ele>
        <time>2020-10-04T07:07:04.000Z</time>
      </trkpt>
      <trkpt lat="47.26095" lon="-2.32218">
        <ele>15</ele>
        <time>2020-10-04T07:07:09.000Z</time>
      </trkpt>
      <trkpt lat="47.26091" lon="-2.32223">
        <ele>15</ele>
        <time>2020-10-04T07:07:10.000Z</time>
      </trkpt>
      <trkpt lat="47.26078" lon="-2.3224">
        <ele>15</ele>
        <time>2020-10-04T07:07:14.000Z</time>
      </trkpt>
      <trkpt lat="47.26071" lon="-2.32249">
        <ele>15</ele>
        <time>2020-10-04T07:07:16.000Z</time>
      </trkpt>
      <trkpt lat="47.26064" lon="-2.32258">
        <ele>15</ele>
        <time>2020-10-04T07:07:18.000Z</time>
      </trkpt>
      <trkpt lat="47.26045" lon="-2.32275">
        <ele>15</ele>
        <time>2020-10-04T07:07:22.000Z</time>
      </trkpt>
      <trkpt lat="47.26018" lon="-2.32306">
        <ele>15</ele>
        <time>2020-10-04T07:07:29.000Z</time>
      </trkpt>
      <trkpt lat="47.25988" lon="-2.32345">
        <ele>15</ele>
        <time>2020-10-04T07:07:37.000Z</time>
      </trkpt>
      <trkpt lat="47.25963" lon="-2.32377">
        <ele>15</ele>
        <time>2020-10-04T07:07:44.000Z</time>
      </trkpt>
      <trkpt lat="47.25935" lon="-2.32414">
        <ele>15</ele>
        <time>2020-10-04T07:07:52.000Z</time>
      </trkpt>
      <trkpt lat="47.25918" lon="-2.32435">
        <ele>15</ele>
        <time>2020-10-04T07:07:57.000Z</time>
      </trkpt>
      <trkpt lat="47.25915" lon="-2.32439">
        <ele>15</ele>
        <time>2020-10-04T07:07:58.000Z</time>
      </trkpt>
      <trkpt lat="47.25887" lon="-2.32469">
        <ele>15</ele>
        <time>2020-10-04T07:08:06.000Z</time>
      </trkpt>
      <trkpt lat="47.25878" lon="-2.32473">
        <ele>15</ele>
        <time>2020-10-04T07:08:08.000Z</time>
      </trkpt>
      <trkpt lat="47.25865" lon="-2.32475">
        <ele>15</ele>
        <time>2020-10-04T07:08:11.000Z</time>
      </trkpt>
      <trkpt lat="47.25845" lon="-2.32474">
        <ele>15</ele>
        <time>2020-10-04T07:08:15.000Z</time>
      </trkpt>
      <trkpt lat="47.25837" lon="-2.3247">
        <ele>15</ele>
        <time>2020-10-04T07:08:17.000Z</time>
      </trkpt>
      <trkpt lat="47.25806" lon="-2.32457">
        <ele>15</ele>
        <time>2020-10-04T07:08:24.000Z</time>
      </trkpt>
      <trkpt lat="47.25802" lon="-2.32456">
        <ele>15</ele>
        <time>2020-10-04T07:08:25.000Z</time>
      </trkpt>
      <trkpt lat="47.25787" lon="-2.32456">
        <ele>15</ele>
        <time>2020-10-04T07:08:29.000Z</time>
      </trkpt>
      <trkpt lat="47.2578" lon="-2.32451">
        <ele>15</ele>
        <time>2020-10-04T07:08:31.000Z</time>
      </trkpt>
      <trkpt lat="47.25777" lon="-2.32446">
        <ele>15</ele>
        <time>2020-10-04T07:08:32.000Z</time>
      </trkpt>
      <trkpt lat="47.25771" lon="-2.32436">
        <ele>15</ele>
        <time>2020-10-04T07:08:34.000Z</time>
      </trkpt>
      <trkpt lat="47.25768" lon="-2.32432">
        <ele>15</ele>
        <time>2020-10-04T07:08:35.000Z</time>
      </trkpt>
      <trkpt lat="47.2576" lon="-2.32427">
        <ele>15</ele>
        <time>2020-10-04T07:08:37.000Z</time>
      </trkpt>
      <trkpt lat="47.25745" lon="-2.32426">
        <ele>15</ele>
        <time>2020-10-04T07:08:40.000Z</time>
      </trkpt>
      <trkpt lat="47.25734" lon="-2.32426">
        <ele>15</ele>
        <time>2020-10-04T07:08:42.000Z</time>
      </trkpt>
      <trkpt lat="47.25687" lon="-2.32423">
        <ele>15</ele>
        <time>2020-10-04T07:08:51.000Z</time>
      </trkpt>
      <trkpt lat="47.25669" lon="-2.32422">
        <ele>15</ele>
        <time>2020-10-04T07:08:55.000Z</time>
      </trkpt>
      <trkpt lat="47.25662" lon="-2.32429">
        <ele>15</ele>
        <time>2020-10-04T07:08:57.000Z</time>
      </trkpt>
      <trkpt lat="47.25662" lon="-2.32446">
        <ele>15</ele>
        <time>2020-10-04T07:09:00.000Z</time>
      </trkpt>
      <trkpt lat="47.25666" lon="-2.32458">
        <ele>15</ele>
        <time>2020-10-04T07:09:02.000Z</time>
      </trkpt>
      <trkpt lat="47.25671" lon="-2.32476">
        <ele>15.60000038147</ele>
        <time>2020-10-04T07:09:05.000Z</time>
      </trkpt>
      <trkpt lat="47.25673" lon="-2.32482">
        <ele>16.39999961853</ele>
        <time>2020-10-04T07:09:06.000Z</time>
      </trkpt>
      <trkpt lat="47.25675" lon="-2.32487">
        <ele>16.799999237061</ele>
        <time>2020-10-04T07:09:07.000Z</time>
      </trkpt>
      <trkpt lat="47.25677" lon="-2.32493">
        <ele>17.200000762939</ele>
        <time>2020-10-04T07:09:08.000Z</time>
      </trkpt>
      <trkpt lat="47.25689" lon="-2.32532">
        <ele>17.200000762939</ele>
        <time>2020-10-04T07:09:15.000Z</time>
      </trkpt>
      <trkpt lat="47.25696" lon="-2.32554">
        <ele>17.60000038147</ele>
        <time>2020-10-04T07:09:19.000Z</time>
      </trkpt>
      <trkpt lat="47.25697" lon="-2.3256">
        <ele>18.200000762939</ele>
        <time>2020-10-04T07:09:20.000Z</time>
      </trkpt>
      <trkpt lat="47.25699" lon="-2.32565">
        <ele>18.60000038147</ele>
        <time>2020-10-04T07:09:21.000Z</time>
      </trkpt>
      <trkpt lat="47.25701" lon="-2.3257">
        <ele>19</ele>
        <time>2020-10-04T07:09:22.000Z</time>
      </trkpt>
      <trkpt lat="47.25702" lon="-2.32576">
        <ele>19.39999961853</ele>
        <time>2020-10-04T07:09:23.000Z</time>
      </trkpt>
      <trkpt lat="47.25711" lon="-2.32621">
        <ele>19.39999961853</ele>
        <time>2020-10-04T07:09:31.000Z</time>
      </trkpt>
      <trkpt lat="47.25709" lon="-2.32624">
        <ele>19.39999961853</ele>
        <time>2020-10-04T07:09:32.000Z</time>
      </trkpt>
      <trkpt lat="47.25702" lon="-2.32627">
        <ele>19.39999961853</ele>
        <time>2020-10-04T07:09:34.000Z</time>
      </trkpt>
      <trkpt lat="47.25694" lon="-2.32629">
        <ele>19.39999961853</ele>
        <time>2020-10-04T07:09:36.000Z</time>
      </trkpt>
      <trkpt lat="47.25679" lon="-2.32635">
        <ele>19.39999961853</ele>
        <time>2020-10-04T07:09:40.000Z</time>
      </trkpt>
      <trkpt lat="47.25664" lon="-2.32642">
        <ele>19.799999237061</ele>
        <time>2020-10-04T07:09:44.000Z</time>
      </trkpt>
      <trkpt lat="47.25661" lon="-2.32643">
        <ele>20.200000762939</ele>
        <time>2020-10-04T07:09:45.000Z</time>
      </trkpt>
      <trkpt lat="47.25657" lon="-2.32645">
        <ele>20.60000038147</ele>
        <time>2020-10-04T07:09:46.000Z</time>
      </trkpt>
      <trkpt lat="47.25653" lon="-2.32646">
        <ele>21.200000762939</ele>
        <time>2020-10-04T07:09:47.000Z</time>
      </trkpt>
      <trkpt lat="47.2565" lon="-2.32648">
        <ele>21.60000038147</ele>
        <time>2020-10-04T07:09:48.000Z</time>
      </trkpt>
      <trkpt lat="47.25627" lon="-2.32657">
        <ele>21.60000038147</ele>
        <time>2020-10-04T07:09:54.000Z</time>
      </trkpt>
      <trkpt lat="47.25613" lon="-2.32665">
        <ele>22</ele>
        <time>2020-10-04T07:09:58.000Z</time>
      </trkpt>
      <trkpt lat="47.25609" lon="-2.32666">
        <ele>22.39999961853</ele>
        <time>2020-10-04T07:09:59.000Z</time>
      </trkpt>
      <trkpt lat="47.25605" lon="-2.32667">
        <ele>22.799999237061</ele>
        <time>2020-10-04T07:10:00.000Z</time>
      </trkpt>
      <trkpt lat="47.25602" lon="-2.32669">
        <ele>23.200000762939</ele>
        <time>2020-10-04T07:10:01.000Z</time>
      </trkpt>
      <trkpt lat="47.25598" lon="-2.3267">
        <ele>23.60000038147</ele>
        <time>2020-10-04T07:10:02.000Z</time>
      </trkpt>
      <trkpt lat="47.25569" lon="-2.32682">
        <ele>23.60000038147</ele>
        <time>2020-10-04T07:10:09.000Z</time>
      </trkpt>
      <trkpt lat="47.25539" lon="-2.32695">
        <ele>23.60000038147</ele>
        <time>2020-10-04T07:10:16.000Z</time>
      </trkpt>
      <trkpt lat="47.25512" lon="-2.32701">
        <ele>23.60000038147</ele>
        <time>2020-10-04T07:10:22.000Z</time>
      </trkpt>
      <trkpt lat="47.25503" lon="-2.32702">
        <ele>23.60000038147</ele>
        <time>2020-10-04T07:10:24.000Z</time>
      </trkpt>
      <trkpt lat="47.25489" lon="-2.32704">
        <ele>23.60000038147</ele>
        <time>2020-10-04T07:10:27.000Z</time>
      </trkpt>
      <trkpt lat="47.25477" lon="-2.32712">
        <ele>23.60000038147</ele>
        <time>2020-10-04T07:10:30.000Z</time>
      </trkpt>
      <trkpt lat="47.25463" lon="-2.3273">
        <ele>23.60000038147</ele>
        <time>2020-10-04T07:10:34.000Z</time>
      </trkpt>
      <trkpt lat="47.25457" lon="-2.32739">
        <ele>23.60000038147</ele>
        <time>2020-10-04T07:10:36.000Z</time>
      </trkpt>
      <trkpt lat="47.25438" lon="-2.32768">
        <ele>23.60000038147</ele>
        <time>2020-10-04T07:10:42.000Z</time>
      </trkpt>
      <trkpt lat="47.25436" lon="-2.32773">
        <ele>23.60000038147</ele>
        <time>2020-10-04T07:10:43.000Z</time>
      </trkpt>
      <trkpt lat="47.25422" lon="-2.32798">
        <ele>23.60000038147</ele>
        <time>2020-10-04T07:10:48.000Z</time>
      </trkpt>
      <trkpt lat="47.25415" lon="-2.32808">
        <ele>23.200000762939</ele>
        <time>2020-10-04T07:10:50.000Z</time>
      </trkpt>
      <trkpt lat="47.25411" lon="-2.32814">
        <ele>22.799999237061</ele>
        <time>2020-10-04T07:10:51.000Z</time>
      </trkpt>
      <trkpt lat="47.25407" lon="-2.32819">
        <ele>22.39999961853</ele>
        <time>2020-10-04T07:10:52.000Z</time>
      </trkpt>
      <trkpt lat="47.25403" lon="-2.32825">
        <ele>22</ele>
        <time>2020-10-04T07:10:53.000Z</time>
      </trkpt>
      <trkpt lat="47.25399" lon="-2.3283">
        <ele>21.60000038147</ele>
        <time>2020-10-04T07:10:54.000Z</time>
      </trkpt>
      <trkpt lat="47.25395" lon="-2.32835">
        <ele>21.60000038147</ele>
        <time>2020-10-04T07:10:55.000Z</time>
      </trkpt>
      <trkpt lat="47.25368" lon="-2.32866">
        <ele>21.60000038147</ele>
        <time>2020-10-04T07:11:02.000Z</time>
      </trkpt>
      <trkpt lat="47.25341" lon="-2.32892">
        <ele>21.60000038147</ele>
        <time>2020-10-04T07:11:09.000Z</time>
      </trkpt>
      <trkpt lat="47.25318" lon="-2.32915">
        <ele>21.60000038147</ele>
        <time>2020-10-04T07:11:15.000Z</time>
      </trkpt>
      <trkpt lat="47.25314" lon="-2.32918">
        <ele>21.60000038147</ele>
        <time>2020-10-04T07:11:16.000Z</time>
      </trkpt>
      <trkpt lat="47.25311" lon="-2.32922">
        <ele>21.60000038147</ele>
        <time>2020-10-04T07:11:17.000Z</time>
      </trkpt>
      <trkpt lat="47.25306" lon="-2.32938">
        <ele>21.60000038147</ele>
        <time>2020-10-04T07:11:20.000Z</time>
      </trkpt>
      <trkpt lat="47.25312" lon="-2.32962">
        <ele>21.60000038147</ele>
        <time>2020-10-04T07:11:24.000Z</time>
      </trkpt>
      <trkpt lat="47.25316" lon="-2.32974">
        <ele>21.60000038147</ele>
        <time>2020-10-04T07:11:26.000Z</time>
      </trkpt>
      <trkpt lat="47.25329" lon="-2.33004">
        <ele>21.60000038147</ele>
        <time>2020-10-04T07:11:31.000Z</time>
      </trkpt>
      <trkpt lat="47.25346" lon="-2.33046">
        <ele>21.60000038147</ele>
        <time>2020-10-04T07:11:38.000Z</time>
      </trkpt>
      <trkpt lat="47.25367" lon="-2.33096">
        <ele>21.60000038147</ele>
        <time>2020-10-04T07:11:47.000Z</time>
      </trkpt>
      <trkpt lat="47.25372" lon="-2.33107">
        <ele>21.200000762939</ele>
        <time>2020-10-04T07:11:49.000Z</time>
      </trkpt>
      <trkpt lat="47.25374" lon="-2.33112">
        <ele>20.799999237061</ele>
        <time>2020-10-04T07:11:50.000Z</time>
      </trkpt>
      <trkpt lat="47.25376" lon="-2.33118">
        <ele>20.39999961853</ele>
        <time>2020-10-04T07:11:51.000Z</time>
      </trkpt>
      <trkpt lat="47.25378" lon="-2.33123">
        <ele>20</ele>
        <time>2020-10-04T07:11:52.000Z</time>
      </trkpt>
      <trkpt lat="47.2538" lon="-2.33129">
        <ele>19.60000038147</ele>
        <time>2020-10-04T07:11:53.000Z</time>
      </trkpt>
      <trkpt lat="47.25382" lon="-2.33134">
        <ele>19.60000038147</ele>
        <time>2020-10-04T07:11:54.000Z</time>
      </trkpt>
      <trkpt lat="47.25392" lon="-2.33146">
        <ele>19.60000038147</ele>
        <time>2020-10-04T07:11:58.000Z</time>
      </trkpt>
      <trkpt lat="47.25394" lon="-2.33151">
        <ele>19.60000038147</ele>
        <time>2020-10-04T07:11:59.000Z</time>
      </trkpt>
      <trkpt lat="47.254" lon="-2.33168">
        <ele>19.60000038147</ele>
        <time>2020-10-04T07:12:02.000Z</time>
      </trkpt>
      <trkpt lat="47.25402" lon="-2.33173">
        <ele>19.60000038147</ele>
        <time>2020-10-04T07:12:03.000Z</time>
      </trkpt>
      <trkpt lat="47.25408" lon="-2.33185">
        <ele>19.60000038147</ele>
        <time>2020-10-04T07:12:05.000Z</time>
      </trkpt>
      <trkpt lat="47.25414" lon="-2.33202">
        <ele>19.60000038147</ele>
        <time>2020-10-04T07:12:08.000Z</time>
      </trkpt>
      <trkpt lat="47.25417" lon="-2.33208">
        <ele>19.60000038147</ele>
        <time>2020-10-04T07:12:09.000Z</time>
      </trkpt>
      <trkpt lat="47.25435" lon="-2.33252">
        <ele>19.60000038147</ele>
        <time>2020-10-04T07:12:17.000Z</time>
      </trkpt>
      <trkpt lat="47.25449" lon="-2.33287">
        <ele>19.60000038147</ele>
        <time>2020-10-04T07:12:23.000Z</time>
      </trkpt>
      <trkpt lat="47.2545" lon="-2.33294">
        <ele>19.60000038147</ele>
        <time>2020-10-04T07:12:24.000Z</time>
      </trkpt>
      <trkpt lat="47.25445" lon="-2.33318">
        <ele>19.60000038147</ele>
        <time>2020-10-04T07:12:28.000Z</time>
      </trkpt>
      <trkpt lat="47.25437" lon="-2.33335">
        <ele>19.60000038147</ele>
        <time>2020-10-04T07:12:31.000Z</time>
      </trkpt>
      <trkpt lat="47.25434" lon="-2.33341">
        <ele>19.60000038147</ele>
        <time>2020-10-04T07:12:32.000Z</time>
      </trkpt>
      <trkpt lat="47.25433" lon="-2.33347">
        <ele>19.60000038147</ele>
        <time>2020-10-04T07:12:33.000Z</time>
      </trkpt>
      <trkpt lat="47.25432" lon="-2.33368">
        <ele>19.60000038147</ele>
        <time>2020-10-04T07:12:36.000Z</time>
      </trkpt>
      <trkpt lat="47.25432" lon="-2.33375">
        <ele>19.60000038147</ele>
        <time>2020-10-04T07:12:37.000Z</time>
      </trkpt>
      <trkpt lat="47.2543" lon="-2.33438">
        <ele>19.60000038147</ele>
        <time>2020-10-04T07:12:46.000Z</time>
      </trkpt>
      <trkpt lat="47.25431" lon="-2.33458">
        <ele>19.60000038147</ele>
        <time>2020-10-04T07:12:49.000Z</time>
      </trkpt>
      <trkpt lat="47.25435" lon="-2.33477">
        <ele>19.60000038147</ele>
        <time>2020-10-04T07:12:52.000Z</time>
      </trkpt>
      <trkpt lat="47.25443" lon="-2.33505">
        <ele>19.60000038147</ele>
        <time>2020-10-04T07:12:57.000Z</time>
      </trkpt>
      <trkpt lat="47.25451" lon="-2.33546">
        <ele>19.60000038147</ele>
        <time>2020-10-04T07:13:04.000Z</time>
      </trkpt>
      <trkpt lat="47.25455" lon="-2.33566">
        <ele>19.60000038147</ele>
        <time>2020-10-04T07:13:07.000Z</time>
      </trkpt>
      <trkpt lat="47.25457" lon="-2.33575">
        <ele>19.60000038147</ele>
        <time>2020-10-04T07:13:09.000Z</time>
      </trkpt>
      <trkpt lat="47.25455" lon="-2.33579">
        <ele>19.60000038147</ele>
        <time>2020-10-04T07:13:11.000Z</time>
      </trkpt>
      <trkpt lat="47.25451" lon="-2.3358">
        <ele>19.60000038147</ele>
        <time>2020-10-04T07:13:12.000Z</time>
      </trkpt>
      <trkpt lat="47.25441" lon="-2.33591">
        <ele>19.60000038147</ele>
        <time>2020-10-04T07:13:16.000Z</time>
      </trkpt>
      <trkpt lat="47.25439" lon="-2.33612">
        <ele>19.60000038147</ele>
        <time>2020-10-04T07:13:20.000Z</time>
      </trkpt>
      <trkpt lat="47.25439" lon="-2.33618">
        <ele>19.60000038147</ele>
        <time>2020-10-04T07:13:21.000Z</time>
      </trkpt>
      <trkpt lat="47.25439" lon="-2.33652">
        <ele>19.60000038147</ele>
        <time>2020-10-04T07:13:27.000Z</time>
      </trkpt>
      <trkpt lat="47.25446" lon="-2.33687">
        <ele>19.60000038147</ele>
        <time>2020-10-04T07:13:33.000Z</time>
      </trkpt>
      <trkpt lat="47.25446" lon="-2.33693">
        <ele>19.60000038147</ele>
        <time>2020-10-04T07:13:34.000Z</time>
      </trkpt>
      <trkpt lat="47.2545" lon="-2.33732">
        <ele>19.60000038147</ele>
        <time>2020-10-04T07:13:40.000Z</time>
      </trkpt>
      <trkpt lat="47.25454" lon="-2.33737">
        <ele>19.60000038147</ele>
        <time>2020-10-04T07:13:41.000Z</time>
      </trkpt>
      <trkpt lat="47.25465" lon="-2.33746">
        <ele>19.60000038147</ele>
        <time>2020-10-04T07:13:44.000Z</time>
      </trkpt>
      <trkpt lat="47.25473" lon="-2.3375">
        <ele>19.60000038147</ele>
        <time>2020-10-04T07:13:46.000Z</time>
      </trkpt>
      <trkpt lat="47.25488" lon="-2.33752">
        <ele>19.60000038147</ele>
        <time>2020-10-04T07:13:49.000Z</time>
      </trkpt>
      <trkpt lat="47.25522" lon="-2.33753">
        <ele>19.60000038147</ele>
        <time>2020-10-04T07:13:56.000Z</time>
      </trkpt>
      <trkpt lat="47.25565" lon="-2.33753">
        <ele>19.60000038147</ele>
        <time>2020-10-04T07:14:06.000Z</time>
      </trkpt>
      <trkpt lat="47.25593" lon="-2.33752">
        <ele>19.60000038147</ele>
        <time>2020-10-04T07:14:12.000Z</time>
      </trkpt>
      <trkpt lat="47.25626" lon="-2.33762">
        <ele>19.60000038147</ele>
        <time>2020-10-04T07:14:20.000Z</time>
      </trkpt>
      <trkpt lat="47.25635" lon="-2.3377">
        <ele>19.60000038147</ele>
        <time>2020-10-04T07:14:22.000Z</time>
      </trkpt>
      <trkpt lat="47.25642" lon="-2.33786">
        <ele>19.60000038147</ele>
        <time>2020-10-04T07:14:25.000Z</time>
      </trkpt>
      <trkpt lat="47.25643" lon="-2.33807">
        <ele>19.60000038147</ele>
        <time>2020-10-04T07:14:28.000Z</time>
      </trkpt>
      <trkpt lat="47.25643" lon="-2.33822">
        <ele>19.60000038147</ele>
        <time>2020-10-04T07:14:30.000Z</time>
      </trkpt>
      <trkpt lat="47.25643" lon="-2.33841">
        <ele>19.60000038147</ele>
        <time>2020-10-04T07:14:33.000Z</time>
      </trkpt>
      <trkpt lat="47.25644" lon="-2.33854">
        <ele>19.60000038147</ele>
        <time>2020-10-04T07:14:35.000Z</time>
      </trkpt>
      <trkpt lat="47.25646" lon="-2.33872">
        <ele>19.60000038147</ele>
        <time>2020-10-04T07:14:38.000Z</time>
      </trkpt>
      <trkpt lat="47.25649" lon="-2.33884">
        <ele>19.60000038147</ele>
        <time>2020-10-04T07:14:40.000Z</time>
      </trkpt>
      <trkpt lat="47.25653" lon="-2.33902">
        <ele>19.60000038147</ele>
        <time>2020-10-04T07:14:43.000Z</time>
      </trkpt>
      <trkpt lat="47.25655" lon="-2.33914">
        <ele>19.60000038147</ele>
        <time>2020-10-04T07:14:45.000Z</time>
      </trkpt>
      <trkpt lat="47.25656" lon="-2.3392">
        <ele>19.60000038147</ele>
        <time>2020-10-04T07:14:46.000Z</time>
      </trkpt>
      <trkpt lat="47.25661" lon="-2.33956">
        <ele>19.60000038147</ele>
        <time>2020-10-04T07:14:52.000Z</time>
      </trkpt>
      <trkpt lat="47.25661" lon="-2.33963">
        <ele>19.60000038147</ele>
        <time>2020-10-04T07:14:53.000Z</time>
      </trkpt>
      <trkpt lat="47.25661" lon="-2.33975">
        <ele>19.60000038147</ele>
        <time>2020-10-04T07:14:55.000Z</time>
      </trkpt>
      <trkpt lat="47.25658" lon="-2.34">
        <ele>19.60000038147</ele>
        <time>2020-10-04T07:14:59.000Z</time>
      </trkpt>
      <trkpt lat="47.25647" lon="-2.34048">
        <ele>19.60000038147</ele>
        <time>2020-10-04T07:15:07.000Z</time>
      </trkpt>
      <trkpt lat="47.25642" lon="-2.34097">
        <ele>19.60000038147</ele>
        <time>2020-10-04T07:15:15.000Z</time>
      </trkpt>
      <trkpt lat="47.25644" lon="-2.34132">
        <ele>19.60000038147</ele>
        <time>2020-10-04T07:15:21.000Z</time>
      </trkpt>
      <trkpt lat="47.25646" lon="-2.34138">
        <ele>19.60000038147</ele>
        <time>2020-10-04T07:15:22.000Z</time>
      </trkpt>
      <trkpt lat="47.25661" lon="-2.3417">
        <ele>19.60000038147</ele>
        <time>2020-10-04T07:15:28.000Z</time>
      </trkpt>
      <trkpt lat="47.25673" lon="-2.34189">
        <ele>19.60000038147</ele>
        <time>2020-10-04T07:15:32.000Z</time>
      </trkpt>
      <trkpt lat="47.25681" lon="-2.34193">
        <ele>19.60000038147</ele>
        <time>2020-10-04T07:15:34.000Z</time>
      </trkpt>
      <trkpt lat="47.25686" lon="-2.34192">
        <ele>19.200000762939</ele>
        <time>2020-10-04T07:15:35.000Z</time>
      </trkpt>
      <trkpt lat="47.25691" lon="-2.34192">
        <ele>18.799999237061</ele>
        <time>2020-10-04T07:15:36.000Z</time>
      </trkpt>
      <trkpt lat="47.25696" lon="-2.3419">
        <ele>18.39999961853</ele>
        <time>2020-10-04T07:15:37.000Z</time>
      </trkpt>
      <trkpt lat="47.25701" lon="-2.3419">
        <ele>18</ele>
        <time>2020-10-04T07:15:38.000Z</time>
      </trkpt>
      <trkpt lat="47.25706" lon="-2.34189">
        <ele>17.60000038147</ele>
        <time>2020-10-04T07:15:39.000Z</time>
      </trkpt>
      <trkpt lat="47.25743" lon="-2.34181">
        <ele>17.60000038147</ele>
        <time>2020-10-04T07:15:46.000Z</time>
      </trkpt>
      <trkpt lat="47.25763" lon="-2.34178">
        <ele>17.60000038147</ele>
        <time>2020-10-04T07:15:50.000Z</time>
      </trkpt>
      <trkpt lat="47.25777" lon="-2.34176">
        <ele>17.60000038147</ele>
        <time>2020-10-04T07:15:53.000Z</time>
      </trkpt>
      <trkpt lat="47.25802" lon="-2.34175">
        <ele>17.60000038147</ele>
        <time>2020-10-04T07:15:59.000Z</time>
      </trkpt>
      <trkpt lat="47.25829" lon="-2.34179">
        <ele>17.60000038147</ele>
        <time>2020-10-04T07:16:06.000Z</time>
      </trkpt>
      <trkpt lat="47.25834" lon="-2.34173">
        <ele>17.60000038147</ele>
        <time>2020-10-04T07:16:08.000Z</time>
      </trkpt>
      <trkpt lat="47.25835" lon="-2.34168">
        <ele>17.60000038147</ele>
        <time>2020-10-04T07:16:09.000Z</time>
      </trkpt>
      <trkpt lat="47.25839" lon="-2.34159">
        <ele>17.60000038147</ele>
        <time>2020-10-04T07:16:12.000Z</time>
      </trkpt>
      <trkpt lat="47.25841" lon="-2.34159">
        <ele>17.60000038147</ele>
        <time>2020-10-04T07:16:13.000Z</time>
      </trkpt>
      <trkpt lat="47.25854" lon="-2.34164">
        <ele>17.60000038147</ele>
        <time>2020-10-04T07:16:17.000Z</time>
      </trkpt>
      <trkpt lat="47.2587" lon="-2.34169">
        <ele>17.60000038147</ele>
        <time>2020-10-04T07:16:22.000Z</time>
      </trkpt>
      <trkpt lat="47.2587" lon="-2.3417">
        <ele>17</ele>
        <time>2020-10-04T07:16:23.000Z</time>
      </trkpt>
      <trkpt lat="47.2587" lon="-2.3417">
        <ele>16.60000038147</ele>
        <time>2020-10-04T07:16:24.000Z</time>
      </trkpt>
      <trkpt lat="47.25877" lon="-2.34169">
        <ele>15.39999961853</ele>
        <time>2020-10-04T07:19:15.000Z</time>
      </trkpt>
      <trkpt lat="47.25879" lon="-2.34168">
        <ele>15.39999961853</ele>
        <time>2020-10-04T07:19:18.000Z</time>
      </trkpt>
      <trkpt lat="47.2588" lon="-2.34164">
        <ele>15.39999961853</ele>
        <time>2020-10-04T07:19:33.000Z</time>
      </trkpt>
      <trkpt lat="47.25888" lon="-2.3415">
        <ele>15.39999961853</ele>
        <time>2020-10-04T07:19:38.000Z</time>
      </trkpt>
      <trkpt lat="47.25907" lon="-2.34139">
        <ele>15.39999961853</ele>
        <time>2020-10-04T07:19:44.000Z</time>
      </trkpt>
      <trkpt lat="47.25936" lon="-2.34122">
        <ele>15.39999961853</ele>
        <time>2020-10-04T07:19:52.000Z</time>
      </trkpt>
      <trkpt lat="47.25954" lon="-2.34111">
        <ele>15.39999961853</ele>
        <time>2020-10-04T07:19:58.000Z</time>
      </trkpt>
      <trkpt lat="47.25972" lon="-2.34109">
        <ele>15.39999961853</ele>
        <time>2020-10-04T07:20:03.000Z</time>
      </trkpt>
      <trkpt lat="47.25996" lon="-2.34115">
        <ele>15.39999961853</ele>
        <time>2020-10-04T07:20:09.000Z</time>
      </trkpt>
      <trkpt lat="47.2603" lon="-2.3413">
        <ele>15.39999961853</ele>
        <time>2020-10-04T07:20:17.000Z</time>
      </trkpt>
      <trkpt lat="47.26055" lon="-2.34144">
        <ele>15.39999961853</ele>
        <time>2020-10-04T07:20:24.000Z</time>
      </trkpt>
      <trkpt lat="47.26084" lon="-2.34157">
        <ele>15.39999961853</ele>
        <time>2020-10-04T07:20:32.000Z</time>
      </trkpt>
      <trkpt lat="47.26103" lon="-2.34168">
        <ele>15.39999961853</ele>
        <time>2020-10-04T07:20:38.000Z</time>
      </trkpt>
      <trkpt lat="47.2612" lon="-2.34181">
        <ele>15.39999961853</ele>
        <time>2020-10-04T07:20:45.000Z</time>
      </trkpt>
      <trkpt lat="47.26133" lon="-2.34191">
        <ele>15.39999961853</ele>
        <time>2020-10-04T07:20:52.000Z</time>
      </trkpt>
      <trkpt lat="47.26143" lon="-2.34194">
        <ele>15.39999961853</ele>
        <time>2020-10-04T07:20:57.000Z</time>
      </trkpt>
      <trkpt lat="47.2615" lon="-2.34195">
        <ele>15.39999961853</ele>
        <time>2020-10-04T07:21:01.000Z</time>
      </trkpt>
      <trkpt lat="47.26152" lon="-2.34192">
        <ele>15.39999961853</ele>
        <time>2020-10-04T07:21:02.000Z</time>
      </trkpt>
      <trkpt lat="47.26159" lon="-2.34181">
        <ele>15.39999961853</ele>
        <time>2020-10-04T07:21:06.000Z</time>
      </trkpt>
      <trkpt lat="47.26161" lon="-2.34182">
        <ele>15.800000190735</ele>
        <time>2020-10-04T07:21:07.000Z</time>
      </trkpt>
      <trkpt lat="47.26164" lon="-2.34183">
        <ele>16.200000762939</ele>
        <time>2020-10-04T07:21:08.000Z</time>
      </trkpt>
      <trkpt lat="47.26167" lon="-2.34187">
        <ele>16.60000038147</ele>
        <time>2020-10-04T07:21:09.000Z</time>
      </trkpt>
      <trkpt lat="47.2617" lon="-2.34191">
        <ele>17</ele>
        <time>2020-10-04T07:21:10.000Z</time>
      </trkpt>
      <trkpt lat="47.26173" lon="-2.34194">
        <ele>17.39999961853</ele>
        <time>2020-10-04T07:21:11.000Z</time>
      </trkpt>
      <trkpt lat="47.26176" lon="-2.34197">
        <ele>17.39999961853</ele>
        <time>2020-10-04T07:21:12.000Z</time>
      </trkpt>
      <trkpt lat="47.262" lon="-2.34221">
        <ele>17.39999961853</ele>
        <time>2020-10-04T07:21:19.000Z</time>
      </trkpt>
      <trkpt lat="47.26227" lon="-2.34248">
        <ele>17.39999961853</ele>
        <time>2020-10-04T07:21:27.000Z</time>
      </trkpt>
      <trkpt lat="47.2623" lon="-2.34253">
        <ele>17.39999961853</ele>
        <time>2020-10-04T07:21:28.000Z</time>
      </trkpt>
      <trkpt lat="47.26237" lon="-2.34261">
        <ele>17.799999237061</ele>
        <time>2020-10-04T07:21:30.000Z</time>
      </trkpt>
      <trkpt lat="47.2624" lon="-2.34264">
        <ele>18.200000762939</ele>
        <time>2020-10-04T07:21:31.000Z</time>
      </trkpt>
      <trkpt lat="47.26243" lon="-2.34268">
        <ele>18.60000038147</ele>
        <time>2020-10-04T07:21:32.000Z</time>
      </trkpt>
      <trkpt lat="47.26246" lon="-2.3427">
        <ele>19</ele>
        <time>2020-10-04T07:21:33.000Z</time>
      </trkpt>
      <trkpt lat="47.26249" lon="-2.34273">
        <ele>19.39999961853</ele>
        <time>2020-10-04T07:21:34.000Z</time>
      </trkpt>
      <trkpt lat="47.26265" lon="-2.3429">
        <ele>19.39999961853</ele>
        <time>2020-10-04T07:21:39.000Z</time>
      </trkpt>
      <trkpt lat="47.26286" lon="-2.34313">
        <ele>19.39999961853</ele>
        <time>2020-10-04T07:21:45.000Z</time>
      </trkpt>
      <trkpt lat="47.26293" lon="-2.3432">
        <ele>19.39999961853</ele>
        <time>2020-10-04T07:21:47.000Z</time>
      </trkpt>
      <trkpt lat="47.26314" lon="-2.34342">
        <ele>19.39999961853</ele>
        <time>2020-10-04T07:21:53.000Z</time>
      </trkpt>
      <trkpt lat="47.26325" lon="-2.34351">
        <ele>19.39999961853</ele>
        <time>2020-10-04T07:21:56.000Z</time>
      </trkpt>
      <trkpt lat="47.26334" lon="-2.34355">
        <ele>19.39999961853</ele>
        <time>2020-10-04T07:21:58.000Z</time>
      </trkpt>
      <trkpt lat="47.26337" lon="-2.34358">
        <ele>19.39999961853</ele>
        <time>2020-10-04T07:21:59.000Z</time>
      </trkpt>
      <trkpt lat="47.26343" lon="-2.34368">
        <ele>19.39999961853</ele>
        <time>2020-10-04T07:22:01.000Z</time>
      </trkpt>
      <trkpt lat="47.26359" lon="-2.34381">
        <ele>19.39999961853</ele>
        <time>2020-10-04T07:22:05.000Z</time>
      </trkpt>
      <trkpt lat="47.26363" lon="-2.34384">
        <ele>19.39999961853</ele>
        <time>2020-10-04T07:22:06.000Z</time>
      </trkpt>
      <trkpt lat="47.26394" lon="-2.34409">
        <ele>19.39999961853</ele>
        <time>2020-10-04T07:22:14.000Z</time>
      </trkpt>
      <trkpt lat="47.26426" lon="-2.34434">
        <ele>19.39999961853</ele>
        <time>2020-10-04T07:22:22.000Z</time>
      </trkpt>
      <trkpt lat="47.26461" lon="-2.34461">
        <ele>19.39999961853</ele>
        <time>2020-10-04T07:22:31.000Z</time>
      </trkpt>
      <trkpt lat="47.26498" lon="-2.34487">
        <ele>19.39999961853</ele>
        <time>2020-10-04T07:22:41.000Z</time>
      </trkpt>
      <trkpt lat="47.26514" lon="-2.34498">
        <ele>19</ele>
        <time>2020-10-04T07:22:45.000Z</time>
      </trkpt>
      <trkpt lat="47.26518" lon="-2.34501">
        <ele>18.60000038147</ele>
        <time>2020-10-04T07:22:46.000Z</time>
      </trkpt>
      <trkpt lat="47.26522" lon="-2.34503">
        <ele>18.200000762939</ele>
        <time>2020-10-04T07:22:47.000Z</time>
      </trkpt>
      <trkpt lat="47.26526" lon="-2.34506">
        <ele>17.799999237061</ele>
        <time>2020-10-04T07:22:48.000Z</time>
      </trkpt>
      <trkpt lat="47.2653" lon="-2.34509">
        <ele>17.39999961853</ele>
        <time>2020-10-04T07:22:49.000Z</time>
      </trkpt>
      <trkpt lat="47.26541" lon="-2.34518">
        <ele>17.39999961853</ele>
        <time>2020-10-04T07:22:52.000Z</time>
      </trkpt>
      <trkpt lat="47.26551" lon="-2.3453">
        <ele>17.39999961853</ele>
        <time>2020-10-04T07:22:55.000Z</time>
      </trkpt>
      <trkpt lat="47.2657" lon="-2.34553">
        <ele>17.39999961853</ele>
        <time>2020-10-04T07:23:01.000Z</time>
      </trkpt>
      <trkpt lat="47.26578" lon="-2.3456">
        <ele>17.39999961853</ele>
        <time>2020-10-04T07:23:03.000Z</time>
      </trkpt>
      <trkpt lat="47.26595" lon="-2.34578">
        <ele>17.39999961853</ele>
        <time>2020-10-04T07:23:08.000Z</time>
      </trkpt>
      <trkpt lat="47.26624" lon="-2.34614">
        <ele>17.39999961853</ele>
        <time>2020-10-04T07:23:17.000Z</time>
      </trkpt>
      <trkpt lat="47.26653" lon="-2.34651">
        <ele>17.39999961853</ele>
        <time>2020-10-04T07:23:26.000Z</time>
      </trkpt>
      <trkpt lat="47.26677" lon="-2.3468">
        <ele>17.39999961853</ele>
        <time>2020-10-04T07:23:33.000Z</time>
      </trkpt>
      <trkpt lat="47.26697" lon="-2.34702">
        <ele>17.39999961853</ele>
        <time>2020-10-04T07:23:39.000Z</time>
      </trkpt>
      <trkpt lat="47.26707" lon="-2.34715">
        <ele>17.39999961853</ele>
        <time>2020-10-04T07:23:42.000Z</time>
      </trkpt>
      <trkpt lat="47.26735" lon="-2.34748">
        <ele>17.39999961853</ele>
        <time>2020-10-04T07:23:50.000Z</time>
      </trkpt>
      <trkpt lat="47.26759" lon="-2.34778">
        <ele>17.39999961853</ele>
        <time>2020-10-04T07:23:57.000Z</time>
      </trkpt>
      <trkpt lat="47.26784" lon="-2.34811">
        <ele>17.39999961853</ele>
        <time>2020-10-04T07:24:05.000Z</time>
      </trkpt>
      <trkpt lat="47.26809" lon="-2.34847">
        <ele>17.39999961853</ele>
        <time>2020-10-04T07:24:13.000Z</time>
      </trkpt>
      <trkpt lat="47.26834" lon="-2.34884">
        <ele>17.39999961853</ele>
        <time>2020-10-04T07:24:21.000Z</time>
      </trkpt>
      <trkpt lat="47.26859" lon="-2.34922">
        <ele>17.39999961853</ele>
        <time>2020-10-04T07:24:29.000Z</time>
      </trkpt>
      <trkpt lat="47.26887" lon="-2.34963">
        <ele>17.39999961853</ele>
        <time>2020-10-04T07:24:38.000Z</time>
      </trkpt>
      <trkpt lat="47.26915" lon="-2.35005">
        <ele>17.39999961853</ele>
        <time>2020-10-04T07:24:47.000Z</time>
      </trkpt>
      <trkpt lat="47.26939" lon="-2.35041">
        <ele>17.39999961853</ele>
        <time>2020-10-04T07:24:55.000Z</time>
      </trkpt>
      <trkpt lat="47.26953" lon="-2.35063">
        <ele>17.799999237061</ele>
        <time>2020-10-04T07:25:00.000Z</time>
      </trkpt>
      <trkpt lat="47.26957" lon="-2.35067">
        <ele>18.200000762939</ele>
        <time>2020-10-04T07:25:01.000Z</time>
      </trkpt>
      <trkpt lat="47.2696" lon="-2.35071">
        <ele>18.60000038147</ele>
        <time>2020-10-04T07:25:02.000Z</time>
      </trkpt>
      <trkpt lat="47.26962" lon="-2.35075">
        <ele>19</ele>
        <time>2020-10-04T07:25:03.000Z</time>
      </trkpt>
      <trkpt lat="47.26966" lon="-2.3508">
        <ele>19.39999961853</ele>
        <time>2020-10-04T07:25:04.000Z</time>
      </trkpt>
      <trkpt lat="47.2698" lon="-2.35101">
        <ele>19.39999961853</ele>
        <time>2020-10-04T07:25:09.000Z</time>
      </trkpt>
      <trkpt lat="47.27006" lon="-2.35142">
        <ele>19.39999961853</ele>
        <time>2020-10-04T07:25:18.000Z</time>
      </trkpt>
      <trkpt lat="47.27023" lon="-2.3517">
        <ele>19.39999961853</ele>
        <time>2020-10-04T07:25:24.000Z</time>
      </trkpt>
      <trkpt lat="47.27045" lon="-2.35202">
        <ele>19.39999961853</ele>
        <time>2020-10-04T07:25:31.000Z</time>
      </trkpt>
      <trkpt lat="47.27069" lon="-2.35239">
        <ele>19.39999961853</ele>
        <time>2020-10-04T07:25:39.000Z</time>
      </trkpt>
      <trkpt lat="47.2709" lon="-2.3527">
        <ele>19.39999961853</ele>
        <time>2020-10-04T07:25:46.000Z</time>
      </trkpt>
      <trkpt lat="47.27116" lon="-2.35312">
        <ele>19.39999961853</ele>
        <time>2020-10-04T07:25:55.000Z</time>
      </trkpt>
      <trkpt lat="47.2714" lon="-2.35353">
        <ele>19.39999961853</ele>
        <time>2020-10-04T07:26:04.000Z</time>
      </trkpt>
      <trkpt lat="47.27169" lon="-2.35406">
        <ele>19.39999961853</ele>
        <time>2020-10-04T07:26:15.000Z</time>
      </trkpt>
      <trkpt lat="47.27192" lon="-2.35449">
        <ele>19.39999961853</ele>
        <time>2020-10-04T07:26:24.000Z</time>
      </trkpt>
      <trkpt lat="47.27213" lon="-2.35489">
        <ele>19.39999961853</ele>
        <time>2020-10-04T07:26:32.000Z</time>
      </trkpt>
      <trkpt lat="47.2723" lon="-2.35525">
        <ele>19.39999961853</ele>
        <time>2020-10-04T07:26:39.000Z</time>
      </trkpt>
      <trkpt lat="47.2725" lon="-2.35573">
        <ele>19.39999961853</ele>
        <time>2020-10-04T07:26:48.000Z</time>
      </trkpt>
      <trkpt lat="47.27271" lon="-2.35622">
        <ele>19.39999961853</ele>
        <time>2020-10-04T07:26:57.000Z</time>
      </trkpt>
      <trkpt lat="47.27283" lon="-2.3565">
        <ele>19.39999961853</ele>
        <time>2020-10-04T07:27:02.000Z</time>
      </trkpt>
      <trkpt lat="47.27291" lon="-2.35665">
        <ele>19.39999961853</ele>
        <time>2020-10-04T07:27:05.000Z</time>
      </trkpt>
      <trkpt lat="47.27307" lon="-2.35697">
        <ele>19.39999961853</ele>
        <time>2020-10-04T07:27:11.000Z</time>
      </trkpt>
      <trkpt lat="47.27311" lon="-2.35708">
        <ele>19.39999961853</ele>
        <time>2020-10-04T07:27:13.000Z</time>
      </trkpt>
      <trkpt lat="47.27316" lon="-2.35718">
        <ele>19.39999961853</ele>
        <time>2020-10-04T07:27:15.000Z</time>
      </trkpt>
      <trkpt lat="47.27325" lon="-2.35719">
        <ele>19</ele>
        <time>2020-10-04T07:27:17.000Z</time>
      </trkpt>
      <trkpt lat="47.27329" lon="-2.35716">
        <ele>18.60000038147</ele>
        <time>2020-10-04T07:27:18.000Z</time>
      </trkpt>
      <trkpt lat="47.27334" lon="-2.35713">
        <ele>18.200000762939</ele>
        <time>2020-10-04T07:27:19.000Z</time>
      </trkpt>
      <trkpt lat="47.27339" lon="-2.35708">
        <ele>17.799999237061</ele>
        <time>2020-10-04T07:27:20.000Z</time>
      </trkpt>
      <trkpt lat="47.27343" lon="-2.35704">
        <ele>17.39999961853</ele>
        <time>2020-10-04T07:27:21.000Z</time>
      </trkpt>
      <trkpt lat="47.27371" lon="-2.35681">
        <ele>17.39999961853</ele>
        <time>2020-10-04T07:27:27.000Z</time>
      </trkpt>
      <trkpt lat="47.2741" lon="-2.35654">
        <ele>17.39999961853</ele>
        <time>2020-10-04T07:27:36.000Z</time>
      </trkpt>
      <trkpt lat="47.27414" lon="-2.35653">
        <ele>17.39999961853</ele>
        <time>2020-10-04T07:27:37.000Z</time>
      </trkpt>
      <trkpt lat="47.27422" lon="-2.35655">
        <ele>17.39999961853</ele>
        <time>2020-10-04T07:27:39.000Z</time>
      </trkpt>
      <trkpt lat="47.2743" lon="-2.35661">
        <ele>17.39999961853</ele>
        <time>2020-10-04T07:27:41.000Z</time>
      </trkpt>
      <trkpt lat="47.27438" lon="-2.35663">
        <ele>17.39999961853</ele>
        <time>2020-10-04T07:27:43.000Z</time>
      </trkpt>
      <trkpt lat="47.27447" lon="-2.35665">
        <ele>17.39999961853</ele>
        <time>2020-10-04T07:27:45.000Z</time>
      </trkpt>
      <trkpt lat="47.27474" lon="-2.35673">
        <ele>17.39999961853</ele>
        <time>2020-10-04T07:27:51.000Z</time>
      </trkpt>
      <trkpt lat="47.27511" lon="-2.35682">
        <ele>17.39999961853</ele>
        <time>2020-10-04T07:27:59.000Z</time>
      </trkpt>
      <trkpt lat="47.27538" lon="-2.35689">
        <ele>17.39999961853</ele>
        <time>2020-10-04T07:28:05.000Z</time>
      </trkpt>
      <trkpt lat="47.27555" lon="-2.35693">
        <ele>17.799999237061</ele>
        <time>2020-10-04T07:28:09.000Z</time>
      </trkpt>
      <trkpt lat="47.27559" lon="-2.35694">
        <ele>18.200000762939</ele>
        <time>2020-10-04T07:28:10.000Z</time>
      </trkpt>
      <trkpt lat="47.27563" lon="-2.35695">
        <ele>18.60000038147</ele>
        <time>2020-10-04T07:28:11.000Z</time>
      </trkpt>
      <trkpt lat="47.27568" lon="-2.35697">
        <ele>19</ele>
        <time>2020-10-04T07:28:12.000Z</time>
      </trkpt>
      <trkpt lat="47.27572" lon="-2.35698">
        <ele>19.39999961853</ele>
        <time>2020-10-04T07:28:13.000Z</time>
      </trkpt>
      <trkpt lat="47.27611" lon="-2.35708">
        <ele>19.39999961853</ele>
        <time>2020-10-04T07:28:22.000Z</time>
      </trkpt>
      <trkpt lat="47.27636" lon="-2.35714">
        <ele>19.39999961853</ele>
        <time>2020-10-04T07:28:28.000Z</time>
      </trkpt>
      <trkpt lat="47.27663" lon="-2.35725">
        <ele>19.39999961853</ele>
        <time>2020-10-04T07:28:35.000Z</time>
      </trkpt>
      <trkpt lat="47.27679" lon="-2.35727">
        <ele>19.799999237061</ele>
        <time>2020-10-04T07:28:39.000Z</time>
      </trkpt>
      <trkpt lat="47.27684" lon="-2.35727">
        <ele>20.200000762939</ele>
        <time>2020-10-04T07:28:40.000Z</time>
      </trkpt>
      <trkpt lat="47.27688" lon="-2.35727">
        <ele>20.60000038147</ele>
        <time>2020-10-04T07:28:41.000Z</time>
      </trkpt>
      <trkpt lat="47.27692" lon="-2.35725">
        <ele>21</ele>
        <time>2020-10-04T07:28:42.000Z</time>
      </trkpt>
      <trkpt lat="47.27695" lon="-2.35723">
        <ele>21.39999961853</ele>
        <time>2020-10-04T07:28:43.000Z</time>
      </trkpt>
      <trkpt lat="47.27702" lon="-2.35717">
        <ele>21.39999961853</ele>
        <time>2020-10-04T07:28:45.000Z</time>
      </trkpt>
      <trkpt lat="47.2772" lon="-2.35699">
        <ele>21.39999961853</ele>
        <time>2020-10-04T07:28:50.000Z</time>
      </trkpt>
      <trkpt lat="47.27727" lon="-2.35691">
        <ele>21.39999961853</ele>
        <time>2020-10-04T07:28:52.000Z</time>
      </trkpt>
      <trkpt lat="47.27739" lon="-2.35672">
        <ele>22</ele>
        <time>2020-10-04T07:28:56.000Z</time>
      </trkpt>
      <trkpt lat="47.27742" lon="-2.35668">
        <ele>22.39999961853</ele>
        <time>2020-10-04T07:28:57.000Z</time>
      </trkpt>
      <trkpt lat="47.27745" lon="-2.35663">
        <ele>22.799999237061</ele>
        <time>2020-10-04T07:28:58.000Z</time>
      </trkpt>
      <trkpt lat="47.27748" lon="-2.35658">
        <ele>23.200000762939</ele>
        <time>2020-10-04T07:28:59.000Z</time>
      </trkpt>
      <trkpt lat="47.27751" lon="-2.35653">
        <ele>23.60000038147</ele>
        <time>2020-10-04T07:29:00.000Z</time>
      </trkpt>
      <trkpt lat="47.27758" lon="-2.35644">
        <ele>23.60000038147</ele>
        <time>2020-10-04T07:29:02.000Z</time>
      </trkpt>
      <trkpt lat="47.27769" lon="-2.35633">
        <ele>23.60000038147</ele>
        <time>2020-10-04T07:29:05.000Z</time>
      </trkpt>
      <trkpt lat="47.27776" lon="-2.35626">
        <ele>23.60000038147</ele>
        <time>2020-10-04T07:29:07.000Z</time>
      </trkpt>
      <trkpt lat="47.27792" lon="-2.35617">
        <ele>23.60000038147</ele>
        <time>2020-10-04T07:29:11.000Z</time>
      </trkpt>
      <trkpt lat="47.27801" lon="-2.35613">
        <ele>23.60000038147</ele>
        <time>2020-10-04T07:29:13.000Z</time>
      </trkpt>
      <trkpt lat="47.27805" lon="-2.35612">
        <ele>24</ele>
        <time>2020-10-04T07:29:14.000Z</time>
      </trkpt>
      <trkpt lat="47.27809" lon="-2.35611">
        <ele>24.39999961853</ele>
        <time>2020-10-04T07:29:15.000Z</time>
      </trkpt>
      <trkpt lat="47.27814" lon="-2.3561">
        <ele>25.200000762939</ele>
        <time>2020-10-04T07:29:16.000Z</time>
      </trkpt>
      <trkpt lat="47.27818" lon="-2.35609">
        <ele>25.60000038147</ele>
        <time>2020-10-04T07:29:17.000Z</time>
      </trkpt>
      <trkpt lat="47.27851" lon="-2.35599">
        <ele>25.60000038147</ele>
        <time>2020-10-04T07:29:25.000Z</time>
      </trkpt>
      <trkpt lat="47.27875" lon="-2.35592">
        <ele>26</ele>
        <time>2020-10-04T07:29:31.000Z</time>
      </trkpt>
      <trkpt lat="47.27879" lon="-2.35592">
        <ele>26.39999961853</ele>
        <time>2020-10-04T07:29:32.000Z</time>
      </trkpt>
      <trkpt lat="47.27882" lon="-2.35591">
        <ele>27</ele>
        <time>2020-10-04T07:29:33.000Z</time>
      </trkpt>
      <trkpt lat="47.27886" lon="-2.3559">
        <ele>27.39999961853</ele>
        <time>2020-10-04T07:29:34.000Z</time>
      </trkpt>
      <trkpt lat="47.2789" lon="-2.35589">
        <ele>27.799999237061</ele>
        <time>2020-10-04T07:29:35.000Z</time>
      </trkpt>
      <trkpt lat="47.27909" lon="-2.35585">
        <ele>27.799999237061</ele>
        <time>2020-10-04T07:29:40.000Z</time>
      </trkpt>
      <trkpt lat="47.27936" lon="-2.35578">
        <ele>27.799999237061</ele>
        <time>2020-10-04T07:29:47.000Z</time>
      </trkpt>
      <trkpt lat="47.27953" lon="-2.35573">
        <ele>28.200000762939</ele>
        <time>2020-10-04T07:29:51.000Z</time>
      </trkpt>
      <trkpt lat="47.27957" lon="-2.35573">
        <ele>28.60000038147</ele>
        <time>2020-10-04T07:29:52.000Z</time>
      </trkpt>
      <trkpt lat="47.2796" lon="-2.35574">
        <ele>29</ele>
        <time>2020-10-04T07:29:53.000Z</time>
      </trkpt>
      <trkpt lat="47.27963" lon="-2.35577">
        <ele>29.39999961853</ele>
        <time>2020-10-04T07:29:54.000Z</time>
      </trkpt>
      <trkpt lat="47.27965" lon="-2.3558">
        <ele>30</ele>
        <time>2020-10-04T07:29:55.000Z</time>
      </trkpt>
      <trkpt lat="47.2797" lon="-2.35584">
        <ele>30</ele>
        <time>2020-10-04T07:29:57.000Z</time>
      </trkpt>
      <trkpt lat="47.27981" lon="-2.35587">
        <ele>30</ele>
        <time>2020-10-04T07:30:00.000Z</time>
      </trkpt>
      <trkpt lat="47.27988" lon="-2.35587">
        <ele>30</ele>
        <time>2020-10-04T07:30:02.000Z</time>
      </trkpt>
      <trkpt lat="47.28018" lon="-2.35577">
        <ele>30</ele>
        <time>2020-10-04T07:30:10.000Z</time>
      </trkpt>
      <trkpt lat="47.28042" lon="-2.35576">
        <ele>30.39999961853</ele>
        <time>2020-10-04T07:30:16.000Z</time>
      </trkpt>
      <trkpt lat="47.28046" lon="-2.35577">
        <ele>30.799999237061</ele>
        <time>2020-10-04T07:30:17.000Z</time>
      </trkpt>
      <trkpt lat="47.28049" lon="-2.35578">
        <ele>31.200000762939</ele>
        <time>2020-10-04T07:30:18.000Z</time>
      </trkpt>
      <trkpt lat="47.28053" lon="-2.35579">
        <ele>31.60000038147</ele>
        <time>2020-10-04T07:30:19.000Z</time>
      </trkpt>
      <trkpt lat="47.28056" lon="-2.3558">
        <ele>32</ele>
        <time>2020-10-04T07:30:20.000Z</time>
      </trkpt>
      <trkpt lat="47.28068" lon="-2.35588">
        <ele>32</ele>
        <time>2020-10-04T07:30:24.000Z</time>
      </trkpt>
      <trkpt lat="47.28074" lon="-2.35607">
        <ele>32</ele>
        <time>2020-10-04T07:30:28.000Z</time>
      </trkpt>
      <trkpt lat="47.2808" lon="-2.35631">
        <ele>32.400001525879</ele>
        <time>2020-10-04T07:30:33.000Z</time>
      </trkpt>
      <trkpt lat="47.28081" lon="-2.35635">
        <ele>32.799999237061</ele>
        <time>2020-10-04T07:30:34.000Z</time>
      </trkpt>
      <trkpt lat="47.28082" lon="-2.35639">
        <ele>33.200000762939</ele>
        <time>2020-10-04T07:30:35.000Z</time>
      </trkpt>
      <trkpt lat="47.28083" lon="-2.35642">
        <ele>33.799999237061</ele>
        <time>2020-10-04T07:30:36.000Z</time>
      </trkpt>
      <trkpt lat="47.28083" lon="-2.35645">
        <ele>34.200000762939</ele>
        <time>2020-10-04T07:30:37.000Z</time>
      </trkpt>
      <trkpt lat="47.28084" lon="-2.35648">
        <ele>34.599998474121</ele>
        <time>2020-10-04T07:30:38.000Z</time>
      </trkpt>
      <trkpt lat="47.28085" lon="-2.35651">
        <ele>35</ele>
        <time>2020-10-04T07:30:39.000Z</time>
      </trkpt>
      <trkpt lat="47.28087" lon="-2.35655">
        <ele>35.400001525879</ele>
        <time>2020-10-04T07:30:40.000Z</time>
      </trkpt>
      <trkpt lat="47.28088" lon="-2.35659">
        <ele>35.799999237061</ele>
        <time>2020-10-04T07:30:41.000Z</time>
      </trkpt>
      <trkpt lat="47.28089" lon="-2.35664">
        <ele>36.200000762939</ele>
        <time>2020-10-04T07:30:42.000Z</time>
      </trkpt>
      <trkpt lat="47.28093" lon="-2.35677">
        <ele>36.200000762939</ele>
        <time>2020-10-04T07:30:45.000Z</time>
      </trkpt>
      <trkpt lat="47.28094" lon="-2.35684">
        <ele>36.599998474121</ele>
        <time>2020-10-04T07:30:47.000Z</time>
      </trkpt>
      <trkpt lat="47.28095" lon="-2.35688">
        <ele>37.200000762939</ele>
        <time>2020-10-04T07:30:48.000Z</time>
      </trkpt>
      <trkpt lat="47.28096" lon="-2.3569">
        <ele>37.599998474121</ele>
        <time>2020-10-04T07:30:49.000Z</time>
      </trkpt>
      <trkpt lat="47.28097" lon="-2.35694">
        <ele>38</ele>
        <time>2020-10-04T07:30:50.000Z</time>
      </trkpt>
      <trkpt lat="47.28096" lon="-2.35699">
        <ele>38.400001525879</ele>
        <time>2020-10-04T07:30:51.000Z</time>
      </trkpt>
      <trkpt lat="47.28095" lon="-2.35712">
        <ele>38.400001525879</ele>
        <time>2020-10-04T07:30:54.000Z</time>
      </trkpt>
      <trkpt lat="47.28088" lon="-2.35737">
        <ele>38.400001525879</ele>
        <time>2020-10-04T07:30:59.000Z</time>
      </trkpt>
      <trkpt lat="47.28087" lon="-2.35744">
        <ele>38.400001525879</ele>
        <time>2020-10-04T07:31:00.000Z</time>
      </trkpt>
      <trkpt lat="47.28084" lon="-2.35764">
        <ele>38.400001525879</ele>
        <time>2020-10-04T07:31:03.000Z</time>
      </trkpt>
      <trkpt lat="47.28077" lon="-2.35784">
        <ele>38.400001525879</ele>
        <time>2020-10-04T07:31:07.000Z</time>
      </trkpt>
      <trkpt lat="47.28077" lon="-2.35798">
        <ele>38</ele>
        <time>2020-10-04T07:31:10.000Z</time>
      </trkpt>
      <trkpt lat="47.28079" lon="-2.35803">
        <ele>37.599998474121</ele>
        <time>2020-10-04T07:31:11.000Z</time>
      </trkpt>
      <trkpt lat="47.28082" lon="-2.35807">
        <ele>37</ele>
        <time>2020-10-04T07:31:12.000Z</time>
      </trkpt>
      <trkpt lat="47.28084" lon="-2.35812">
        <ele>36.599998474121</ele>
        <time>2020-10-04T07:31:13.000Z</time>
      </trkpt>
      <trkpt lat="47.28087" lon="-2.35818">
        <ele>36.200000762939</ele>
        <time>2020-10-04T07:31:14.000Z</time>
      </trkpt>
      <trkpt lat="47.28096" lon="-2.35834">
        <ele>36.200000762939</ele>
        <time>2020-10-04T07:31:17.000Z</time>
      </trkpt>
      <trkpt lat="47.28116" lon="-2.35863">
        <ele>36.200000762939</ele>
        <time>2020-10-04T07:31:24.000Z</time>
      </trkpt>
      <trkpt lat="47.28135" lon="-2.3589">
        <ele>36.200000762939</ele>
        <time>2020-10-04T07:31:31.000Z</time>
      </trkpt>
      <trkpt lat="47.28152" lon="-2.35923">
        <ele>36.200000762939</ele>
        <time>2020-10-04T07:31:38.000Z</time>
      </trkpt>
      <trkpt lat="47.28167" lon="-2.35954">
        <ele>36.200000762939</ele>
        <time>2020-10-04T07:31:44.000Z</time>
      </trkpt>
      <trkpt lat="47.28169" lon="-2.35959">
        <ele>35.799999237061</ele>
        <time>2020-10-04T07:31:45.000Z</time>
      </trkpt>
      <trkpt lat="47.28171" lon="-2.35965">
        <ele>35.400001525879</ele>
        <time>2020-10-04T07:31:46.000Z</time>
      </trkpt>
      <trkpt lat="47.28174" lon="-2.35971">
        <ele>34.799999237061</ele>
        <time>2020-10-04T07:31:47.000Z</time>
      </trkpt>
      <trkpt lat="47.28176" lon="-2.35977">
        <ele>34.400001525879</ele>
        <time>2020-10-04T07:31:48.000Z</time>
      </trkpt>
      <trkpt lat="47.28178" lon="-2.35983">
        <ele>34</ele>
        <time>2020-10-04T07:31:49.000Z</time>
      </trkpt>
      <trkpt lat="47.28191" lon="-2.36019">
        <ele>34</ele>
        <time>2020-10-04T07:31:55.000Z</time>
      </trkpt>
      <trkpt lat="47.28199" lon="-2.3604">
        <ele>34</ele>
        <time>2020-10-04T07:32:00.000Z</time>
      </trkpt>
      <trkpt lat="47.2821" lon="-2.36066">
        <ele>34</ele>
        <time>2020-10-04T07:32:06.000Z</time>
      </trkpt>
      <trkpt lat="47.28218" lon="-2.36094">
        <ele>34</ele>
        <time>2020-10-04T07:32:12.000Z</time>
      </trkpt>
      <trkpt lat="47.28229" lon="-2.36119">
        <ele>34</ele>
        <time>2020-10-04T07:32:17.000Z</time>
      </trkpt>
      <trkpt lat="47.28239" lon="-2.36141">
        <ele>34</ele>
        <time>2020-10-04T07:32:21.000Z</time>
      </trkpt>
      <trkpt lat="47.28251" lon="-2.36172">
        <ele>34</ele>
        <time>2020-10-04T07:32:26.000Z</time>
      </trkpt>
      <trkpt lat="47.28264" lon="-2.36204">
        <ele>34</ele>
        <time>2020-10-04T07:32:32.000Z</time>
      </trkpt>
      <trkpt lat="47.28279" lon="-2.36232">
        <ele>34</ele>
        <time>2020-10-04T07:32:38.000Z</time>
      </trkpt>
      <trkpt lat="47.283" lon="-2.36245">
        <ele>34</ele>
        <time>2020-10-04T07:32:44.000Z</time>
      </trkpt>
      <trkpt lat="47.28317" lon="-2.36249">
        <ele>34</ele>
        <time>2020-10-04T07:32:49.000Z</time>
      </trkpt>
      <trkpt lat="47.28337" lon="-2.36256">
        <ele>34</ele>
        <time>2020-10-04T07:32:55.000Z</time>
      </trkpt>
      <trkpt lat="47.28355" lon="-2.36262">
        <ele>34</ele>
        <time>2020-10-04T07:33:01.000Z</time>
      </trkpt>
      <trkpt lat="47.28369" lon="-2.3627">
        <ele>34.400001525879</ele>
        <time>2020-10-04T07:33:06.000Z</time>
      </trkpt>
      <trkpt lat="47.28371" lon="-2.36271">
        <ele>34.799999237061</ele>
        <time>2020-10-04T07:33:07.000Z</time>
      </trkpt>
      <trkpt lat="47.28374" lon="-2.36272">
        <ele>35.200000762939</ele>
        <time>2020-10-04T07:33:08.000Z</time>
      </trkpt>
      <trkpt lat="47.28376" lon="-2.36273">
        <ele>35.599998474121</ele>
        <time>2020-10-04T07:33:09.000Z</time>
      </trkpt>
      <trkpt lat="47.28379" lon="-2.36272">
        <ele>36</ele>
        <time>2020-10-04T07:33:10.000Z</time>
      </trkpt>
      <trkpt lat="47.28385" lon="-2.36272">
        <ele>36</ele>
        <time>2020-10-04T07:33:12.000Z</time>
      </trkpt>
      <trkpt lat="47.28399" lon="-2.36278">
        <ele>36.599998474121</ele>
        <time>2020-10-04T07:33:17.000Z</time>
      </trkpt>
      <trkpt lat="47.28401" lon="-2.3628">
        <ele>37</ele>
        <time>2020-10-04T07:33:18.000Z</time>
      </trkpt>
      <trkpt lat="47.28404" lon="-2.3628">
        <ele>37.400001525879</ele>
        <time>2020-10-04T07:33:19.000Z</time>
      </trkpt>
      <trkpt lat="47.28407" lon="-2.3628">
        <ele>37.799999237061</ele>
        <time>2020-10-04T07:33:20.000Z</time>
      </trkpt>
      <trkpt lat="47.2841" lon="-2.36282">
        <ele>38.200000762939</ele>
        <time>2020-10-04T07:33:21.000Z</time>
      </trkpt>
      <trkpt lat="47.28417" lon="-2.36283">
        <ele>38.200000762939</ele>
        <time>2020-10-04T07:33:23.000Z</time>
      </trkpt>
      <trkpt lat="47.28434" lon="-2.36291">
        <ele>38.599998474121</ele>
        <time>2020-10-04T07:33:28.000Z</time>
      </trkpt>
      <trkpt lat="47.28438" lon="-2.36294">
        <ele>39</ele>
        <time>2020-10-04T07:33:29.000Z</time>
      </trkpt>
      <trkpt lat="47.28441" lon="-2.36296">
        <ele>39.400001525879</ele>
        <time>2020-10-04T07:33:30.000Z</time>
      </trkpt>
      <trkpt lat="47.28444" lon="-2.36297">
        <ele>39.799999237061</ele>
        <time>2020-10-04T07:33:31.000Z</time>
      </trkpt>
      <trkpt lat="47.28447" lon="-2.36298">
        <ele>40.200000762939</ele>
        <time>2020-10-04T07:33:32.000Z</time>
      </trkpt>
      <trkpt lat="47.28453" lon="-2.363">
        <ele>40.200000762939</ele>
        <time>2020-10-04T07:33:34.000Z</time>
      </trkpt>
      <trkpt lat="47.28456" lon="-2.36302">
        <ele>40.200000762939</ele>
        <time>2020-10-04T07:33:35.000Z</time>
      </trkpt>
      <trkpt lat="47.28461" lon="-2.36312">
        <ele>40.200000762939</ele>
        <time>2020-10-04T07:33:38.000Z</time>
      </trkpt>
      <trkpt lat="47.28466" lon="-2.36335">
        <ele>40.200000762939</ele>
        <time>2020-10-04T07:33:43.000Z</time>
      </trkpt>
      <trkpt lat="47.28468" lon="-2.36368">
        <ele>40.200000762939</ele>
        <time>2020-10-04T07:33:49.000Z</time>
      </trkpt>
      <trkpt lat="47.28469" lon="-2.36391">
        <ele>40.200000762939</ele>
        <time>2020-10-04T07:33:54.000Z</time>
      </trkpt>
      <trkpt lat="47.28469" lon="-2.36405">
        <ele>40.599998474121</ele>
        <time>2020-10-04T07:33:57.000Z</time>
      </trkpt>
      <trkpt lat="47.28469" lon="-2.36408">
        <ele>41</ele>
        <time>2020-10-04T07:33:58.000Z</time>
      </trkpt>
      <trkpt lat="47.2847" lon="-2.36413">
        <ele>41.400001525879</ele>
        <time>2020-10-04T07:33:59.000Z</time>
      </trkpt>
      <trkpt lat="47.28472" lon="-2.36417">
        <ele>41.799999237061</ele>
        <time>2020-10-04T07:34:00.000Z</time>
      </trkpt>
      <trkpt lat="47.28474" lon="-2.36421">
        <ele>42.400001525879</ele>
        <time>2020-10-04T07:34:01.000Z</time>
      </trkpt>
      <trkpt lat="47.28483" lon="-2.36432">
        <ele>42.400001525879</ele>
        <time>2020-10-04T07:34:04.000Z</time>
      </trkpt>
      <trkpt lat="47.28492" lon="-2.36439">
        <ele>42.400001525879</ele>
        <time>2020-10-04T07:34:06.000Z</time>
      </trkpt>
      <trkpt lat="47.28501" lon="-2.36449">
        <ele>42.400001525879</ele>
        <time>2020-10-04T07:34:08.000Z</time>
      </trkpt>
      <trkpt lat="47.28516" lon="-2.36476">
        <ele>42.400001525879</ele>
        <time>2020-10-04T07:34:13.000Z</time>
      </trkpt>
      <trkpt lat="47.2852" lon="-2.36498">
        <ele>42.400001525879</ele>
        <time>2020-10-04T07:34:18.000Z</time>
      </trkpt>
      <trkpt lat="47.2852" lon="-2.36501">
        <ele>41.799999237061</ele>
        <time>2020-10-04T07:34:19.000Z</time>
      </trkpt>
      <trkpt lat="47.2852" lon="-2.36504">
        <ele>41.400001525879</ele>
        <time>2020-10-04T07:34:20.000Z</time>
      </trkpt>
      <trkpt lat="47.2852" lon="-2.36506">
        <ele>41</ele>
        <time>2020-10-04T07:34:21.000Z</time>
      </trkpt>
      <trkpt lat="47.28518" lon="-2.36507">
        <ele>40.599998474121</ele>
        <time>2020-10-04T07:34:22.000Z</time>
      </trkpt>
      <trkpt lat="47.28517" lon="-2.36509">
        <ele>40.200000762939</ele>
        <time>2020-10-04T07:34:23.000Z</time>
      </trkpt>
      <trkpt lat="47.28511" lon="-2.36516">
        <ele>40.200000762939</ele>
        <time>2020-10-04T07:34:25.000Z</time>
      </trkpt>
      <trkpt lat="47.28504" lon="-2.36523">
        <ele>40.200000762939</ele>
        <time>2020-10-04T07:34:26.000Z</time>
      </trkpt>
      <trkpt lat="47.28472" lon="-2.36566">
        <ele>40.200000762939</ele>
        <time>2020-10-04T07:34:33.000Z</time>
      </trkpt>
      <trkpt lat="47.28472" lon="-2.36587">
        <ele>39.799999237061</ele>
        <time>2020-10-04T07:34:36.000Z</time>
      </trkpt>
      <trkpt lat="47.28473" lon="-2.36594">
        <ele>39.400001525879</ele>
        <time>2020-10-04T07:34:37.000Z</time>
      </trkpt>
      <trkpt lat="47.28475" lon="-2.366">
        <ele>38.599998474121</ele>
        <time>2020-10-04T07:34:38.000Z</time>
      </trkpt>
      <trkpt lat="47.28477" lon="-2.36605">
        <ele>38.200000762939</ele>
        <time>2020-10-04T07:34:39.000Z</time>
      </trkpt>
      <trkpt lat="47.28483" lon="-2.36622">
        <ele>38.200000762939</ele>
        <time>2020-10-04T07:34:42.000Z</time>
      </trkpt>
      <trkpt lat="47.28493" lon="-2.36653">
        <ele>38.200000762939</ele>
        <time>2020-10-04T07:34:48.000Z</time>
      </trkpt>
      <trkpt lat="47.28504" lon="-2.36674">
        <ele>38.200000762939</ele>
        <time>2020-10-04T07:34:53.000Z</time>
      </trkpt>
      <trkpt lat="47.28513" lon="-2.36687">
        <ele>38.200000762939</ele>
        <time>2020-10-04T07:34:56.000Z</time>
      </trkpt>
      <trkpt lat="47.28523" lon="-2.36706">
        <ele>38.200000762939</ele>
        <time>2020-10-04T07:34:59.000Z</time>
      </trkpt>
      <trkpt lat="47.28535" lon="-2.3673">
        <ele>37.599998474121</ele>
        <time>2020-10-04T07:35:02.000Z</time>
      </trkpt>
      <trkpt lat="47.2854" lon="-2.36738">
        <ele>37.200000762939</ele>
        <time>2020-10-04T07:35:03.000Z</time>
      </trkpt>
      <trkpt lat="47.28544" lon="-2.36747">
        <ele>36.799999237061</ele>
        <time>2020-10-04T07:35:04.000Z</time>
      </trkpt>
      <trkpt lat="47.28548" lon="-2.36755">
        <ele>36.200000762939</ele>
        <time>2020-10-04T07:35:05.000Z</time>
      </trkpt>
      <trkpt lat="47.28553" lon="-2.36764">
        <ele>35.799999237061</ele>
        <time>2020-10-04T07:35:06.000Z</time>
      </trkpt>
      <trkpt lat="47.28558" lon="-2.36773">
        <ele>35.400001525879</ele>
        <time>2020-10-04T07:35:07.000Z</time>
      </trkpt>
      <trkpt lat="47.28562" lon="-2.36781">
        <ele>35</ele>
        <time>2020-10-04T07:35:08.000Z</time>
      </trkpt>
      <trkpt lat="47.28567" lon="-2.36789">
        <ele>34.599998474121</ele>
        <time>2020-10-04T07:35:09.000Z</time>
      </trkpt>
      <trkpt lat="47.28571" lon="-2.36797">
        <ele>34</ele>
        <time>2020-10-04T07:35:10.000Z</time>
      </trkpt>
      <trkpt lat="47.28576" lon="-2.36805">
        <ele>33.599998474121</ele>
        <time>2020-10-04T07:35:11.000Z</time>
      </trkpt>
      <trkpt lat="47.28584" lon="-2.36821">
        <ele>33.599998474121</ele>
        <time>2020-10-04T07:35:13.000Z</time>
      </trkpt>
      <trkpt lat="47.28596" lon="-2.3684">
        <ele>33.599998474121</ele>
        <time>2020-10-04T07:35:16.000Z</time>
      </trkpt>
      <trkpt lat="47.286" lon="-2.36842">
        <ele>33.200000762939</ele>
        <time>2020-10-04T07:35:17.000Z</time>
      </trkpt>
      <trkpt lat="47.28604" lon="-2.36843">
        <ele>32.599998474121</ele>
        <time>2020-10-04T07:35:18.000Z</time>
      </trkpt>
      <trkpt lat="47.28609" lon="-2.36842">
        <ele>32.200000762939</ele>
        <time>2020-10-04T07:35:19.000Z</time>
      </trkpt>
      <trkpt lat="47.28613" lon="-2.36839">
        <ele>31.60000038147</ele>
        <time>2020-10-04T07:35:20.000Z</time>
      </trkpt>
      <trkpt lat="47.28617" lon="-2.36837">
        <ele>31.200000762939</ele>
        <time>2020-10-04T07:35:21.000Z</time>
      </trkpt>
      <trkpt lat="47.28624" lon="-2.3683">
        <ele>31.200000762939</ele>
        <time>2020-10-04T07:35:23.000Z</time>
      </trkpt>
      <trkpt lat="47.28631" lon="-2.36823">
        <ele>31.200000762939</ele>
        <time>2020-10-04T07:35:25.000Z</time>
      </trkpt>
      <trkpt lat="47.28653" lon="-2.36795">
        <ele>31.200000762939</ele>
        <time>2020-10-04T07:35:32.000Z</time>
      </trkpt>
      <trkpt lat="47.28659" lon="-2.36792">
        <ele>31.200000762939</ele>
        <time>2020-10-04T07:35:34.000Z</time>
      </trkpt>
      <trkpt lat="47.28662" lon="-2.36792">
        <ele>31.200000762939</ele>
        <time>2020-10-04T07:35:35.000Z</time>
      </trkpt>
      <trkpt lat="47.2867" lon="-2.36802">
        <ele>31.200000762939</ele>
        <time>2020-10-04T07:35:39.000Z</time>
      </trkpt>
      <trkpt lat="47.28676" lon="-2.36814">
        <ele>31.200000762939</ele>
        <time>2020-10-04T07:35:42.000Z</time>
      </trkpt>
      <trkpt lat="47.28683" lon="-2.3683">
        <ele>31.200000762939</ele>
        <time>2020-10-04T07:35:45.000Z</time>
      </trkpt>
      <trkpt lat="47.28685" lon="-2.36836">
        <ele>31.200000762939</ele>
        <time>2020-10-04T07:35:46.000Z</time>
      </trkpt>
      <trkpt lat="47.28692" lon="-2.36854">
        <ele>31.200000762939</ele>
        <time>2020-10-04T07:35:49.000Z</time>
      </trkpt>
      <trkpt lat="47.28706" lon="-2.36885">
        <ele>31.200000762939</ele>
        <time>2020-10-04T07:35:55.000Z</time>
      </trkpt>
      <trkpt lat="47.28718" lon="-2.36903">
        <ele>30.799999237061</ele>
        <time>2020-10-04T07:35:59.000Z</time>
      </trkpt>
      <trkpt lat="47.28721" lon="-2.36906">
        <ele>30.200000762939</ele>
        <time>2020-10-04T07:36:00.000Z</time>
      </trkpt>
      <trkpt lat="47.28726" lon="-2.3691">
        <ele>29.799999237061</ele>
        <time>2020-10-04T07:36:01.000Z</time>
      </trkpt>
      <trkpt lat="47.28729" lon="-2.36914">
        <ele>29.39999961853</ele>
        <time>2020-10-04T07:36:02.000Z</time>
      </trkpt>
      <trkpt lat="47.28733" lon="-2.36918">
        <ele>28.799999237061</ele>
        <time>2020-10-04T07:36:03.000Z</time>
      </trkpt>
      <trkpt lat="47.28736" lon="-2.36922">
        <ele>28.799999237061</ele>
        <time>2020-10-04T07:36:04.000Z</time>
      </trkpt>
      <trkpt lat="47.28749" lon="-2.36943">
        <ele>28.799999237061</ele>
        <time>2020-10-04T07:36:10.000Z</time>
      </trkpt>
      <trkpt lat="47.28751" lon="-2.36951">
        <ele>29.39999961853</ele>
        <time>2020-10-04T07:36:13.000Z</time>
      </trkpt>
      <trkpt lat="47.28752" lon="-2.36954">
        <ele>29.799999237061</ele>
        <time>2020-10-04T07:36:14.000Z</time>
      </trkpt>
      <trkpt lat="47.28753" lon="-2.36957">
        <ele>30.200000762939</ele>
        <time>2020-10-04T07:36:15.000Z</time>
      </trkpt>
      <trkpt lat="47.28754" lon="-2.3696">
        <ele>31</ele>
        <time>2020-10-04T07:36:16.000Z</time>
      </trkpt>
      <trkpt lat="47.28757" lon="-2.36976">
        <ele>31.39999961853</ele>
        <time>2020-10-04T07:36:20.000Z</time>
      </trkpt>
      <trkpt lat="47.28759" lon="-2.36981">
        <ele>31.799999237061</ele>
        <time>2020-10-04T07:36:21.000Z</time>
      </trkpt>
      <trkpt lat="47.28761" lon="-2.36985">
        <ele>32.200000762939</ele>
        <time>2020-10-04T07:36:22.000Z</time>
      </trkpt>
      <trkpt lat="47.28762" lon="-2.36987">
        <ele>32.599998474121</ele>
        <time>2020-10-04T07:36:23.000Z</time>
      </trkpt>
      <trkpt lat="47.28764" lon="-2.3699">
        <ele>33</ele>
        <time>2020-10-04T07:36:24.000Z</time>
      </trkpt>
      <trkpt lat="47.28774" lon="-2.37003">
        <ele>33</ele>
        <time>2020-10-04T07:36:29.000Z</time>
      </trkpt>
      <trkpt lat="47.28783" lon="-2.37036">
        <ele>33</ele>
        <time>2020-10-04T07:36:34.000Z</time>
      </trkpt>
      <trkpt lat="47.28791" lon="-2.37065">
        <ele>32.599998474121</ele>
        <time>2020-10-04T07:36:39.000Z</time>
      </trkpt>
      <trkpt lat="47.28793" lon="-2.37071">
        <ele>32.200000762939</ele>
        <time>2020-10-04T07:36:40.000Z</time>
      </trkpt>
      <trkpt lat="47.28794" lon="-2.37078">
        <ele>31.200000762939</ele>
        <time>2020-10-04T07:36:41.000Z</time>
      </trkpt>
      <trkpt lat="47.28795" lon="-2.37085">
        <ele>30.799999237061</ele>
        <time>2020-10-04T07:36:42.000Z</time>
      </trkpt>
      <trkpt lat="47.28796" lon="-2.37091">
        <ele>30.39999961853</ele>
        <time>2020-10-04T07:36:43.000Z</time>
      </trkpt>
      <trkpt lat="47.28798" lon="-2.37096">
        <ele>30</ele>
        <time>2020-10-04T07:36:44.000Z</time>
      </trkpt>
      <trkpt lat="47.28799" lon="-2.37101">
        <ele>29.60000038147</ele>
        <time>2020-10-04T07:36:45.000Z</time>
      </trkpt>
      <trkpt lat="47.288" lon="-2.37104">
        <ele>29.200000762939</ele>
        <time>2020-10-04T07:36:46.000Z</time>
      </trkpt>
      <trkpt lat="47.28802" lon="-2.37105">
        <ele>28.60000038147</ele>
        <time>2020-10-04T07:36:47.000Z</time>
      </trkpt>
      <trkpt lat="47.28807" lon="-2.37108">
        <ele>28.200000762939</ele>
        <time>2020-10-04T07:36:49.000Z</time>
      </trkpt>
      <trkpt lat="47.28809" lon="-2.37109">
        <ele>27.799999237061</ele>
        <time>2020-10-04T07:36:50.000Z</time>
      </trkpt>
      <trkpt lat="47.28812" lon="-2.37109">
        <ele>27.39999961853</ele>
        <time>2020-10-04T07:36:51.000Z</time>
      </trkpt>
      <trkpt lat="47.28814" lon="-2.37109">
        <ele>27</ele>
        <time>2020-10-04T07:36:52.000Z</time>
      </trkpt>
      <trkpt lat="47.28817" lon="-2.37108">
        <ele>26.60000038147</ele>
        <time>2020-10-04T07:36:53.000Z</time>
      </trkpt>
      <trkpt lat="47.28819" lon="-2.37107">
        <ele>26</ele>
        <time>2020-10-04T07:36:54.000Z</time>
      </trkpt>
      <trkpt lat="47.28821" lon="-2.37105">
        <ele>25.60000038147</ele>
        <time>2020-10-04T07:36:55.000Z</time>
      </trkpt>
      <trkpt lat="47.28822" lon="-2.37104">
        <ele>25</ele>
        <time>2020-10-04T07:36:56.000Z</time>
      </trkpt>
      <trkpt lat="47.28823" lon="-2.37104">
        <ele>24.60000038147</ele>
        <time>2020-10-04T07:36:57.000Z</time>
      </trkpt>
      <trkpt lat="47.28824" lon="-2.37104">
        <ele>24</ele>
        <time>2020-10-04T07:36:58.000Z</time>
      </trkpt>
      <trkpt lat="47.28825" lon="-2.37107">
        <ele>23.60000038147</ele>
        <time>2020-10-04T07:36:59.000Z</time>
      </trkpt>
      <trkpt lat="47.28826" lon="-2.3711">
        <ele>23.200000762939</ele>
        <time>2020-10-04T07:37:00.000Z</time>
      </trkpt>
      <trkpt lat="47.28826" lon="-2.37114">
        <ele>22.799999237061</ele>
        <time>2020-10-04T07:37:01.000Z</time>
      </trkpt>
      <trkpt lat="47.28825" lon="-2.37118">
        <ele>22.39999961853</ele>
        <time>2020-10-04T07:37:02.000Z</time>
      </trkpt>
      <trkpt lat="47.28824" lon="-2.37122">
        <ele>22</ele>
        <time>2020-10-04T07:37:03.000Z</time>
      </trkpt>
      <trkpt lat="47.28823" lon="-2.37132">
        <ele>22</ele>
        <time>2020-10-04T07:37:05.000Z</time>
      </trkpt>
      <trkpt lat="47.28827" lon="-2.3716">
        <ele>22</ele>
        <time>2020-10-04T07:37:10.000Z</time>
      </trkpt>
      <trkpt lat="47.28836" lon="-2.37203">
        <ele>22</ele>
        <time>2020-10-04T07:37:17.000Z</time>
      </trkpt>
      <trkpt lat="47.28844" lon="-2.37228">
        <ele>22</ele>
        <time>2020-10-04T07:37:22.000Z</time>
      </trkpt>
      <trkpt lat="47.28848" lon="-2.37246">
        <ele>22</ele>
        <time>2020-10-04T07:37:27.000Z</time>
      </trkpt>
      <trkpt lat="47.28853" lon="-2.3727">
        <ele>22</ele>
        <time>2020-10-04T07:37:32.000Z</time>
      </trkpt>
      <trkpt lat="47.28855" lon="-2.37304">
        <ele>22</ele>
        <time>2020-10-04T07:37:38.000Z</time>
      </trkpt>
      <trkpt lat="47.28858" lon="-2.37327">
        <ele>21.60000038147</ele>
        <time>2020-10-04T07:37:42.000Z</time>
      </trkpt>
      <trkpt lat="47.28859" lon="-2.37333">
        <ele>21.200000762939</ele>
        <time>2020-10-04T07:37:43.000Z</time>
      </trkpt>
      <trkpt lat="47.28859" lon="-2.3734">
        <ele>20.799999237061</ele>
        <time>2020-10-04T07:37:44.000Z</time>
      </trkpt>
      <trkpt lat="47.2886" lon="-2.37347">
        <ele>20.39999961853</ele>
        <time>2020-10-04T07:37:45.000Z</time>
      </trkpt>
      <trkpt lat="47.28861" lon="-2.37355">
        <ele>20</ele>
        <time>2020-10-04T07:37:46.000Z</time>
      </trkpt>
      <trkpt lat="47.28865" lon="-2.37399">
        <ele>20</ele>
        <time>2020-10-04T07:37:52.000Z</time>
      </trkpt>
      <trkpt lat="47.28869" lon="-2.37438">
        <ele>20</ele>
        <time>2020-10-04T07:37:58.000Z</time>
      </trkpt>
      <trkpt lat="47.2887" lon="-2.37471">
        <ele>20</ele>
        <time>2020-10-04T07:38:04.000Z</time>
      </trkpt>
      <trkpt lat="47.28873" lon="-2.37503">
        <ele>20</ele>
        <time>2020-10-04T07:38:10.000Z</time>
      </trkpt>
      <trkpt lat="47.28877" lon="-2.37534">
        <ele>20</ele>
        <time>2020-10-04T07:38:16.000Z</time>
      </trkpt>
      <trkpt lat="47.28874" lon="-2.37554">
        <ele>20</ele>
        <time>2020-10-04T07:38:20.000Z</time>
      </trkpt>
      <trkpt lat="47.2887" lon="-2.37577">
        <ele>20</ele>
        <time>2020-10-04T07:38:24.000Z</time>
      </trkpt>
      <trkpt lat="47.28866" lon="-2.37588">
        <ele>20</ele>
        <time>2020-10-04T07:38:26.000Z</time>
      </trkpt>
      <trkpt lat="47.28861" lon="-2.37599">
        <ele>19.60000038147</ele>
        <time>2020-10-04T07:38:29.000Z</time>
      </trkpt>
      <trkpt lat="47.2886" lon="-2.37599">
        <ele>19</ele>
        <time>2020-10-04T07:38:30.000Z</time>
      </trkpt>
      <trkpt lat="47.2886" lon="-2.37599">
        <ele>18.60000038147</ele>
        <time>2020-10-04T07:38:31.000Z</time>
      </trkpt>
      <trkpt lat="47.2886" lon="-2.376">
        <ele>17.799999237061</ele>
        <time>2020-10-04T07:38:53.000Z</time>
      </trkpt>
      <trkpt lat="47.28857" lon="-2.37606">
        <ele>17.799999237061</ele>
        <time>2020-10-04T07:38:55.000Z</time>
      </trkpt>
      <trkpt lat="47.28847" lon="-2.3763">
        <ele>17.799999237061</ele>
        <time>2020-10-04T07:39:00.000Z</time>
      </trkpt>
      <trkpt lat="47.28843" lon="-2.37641">
        <ele>17.799999237061</ele>
        <time>2020-10-04T07:39:02.000Z</time>
      </trkpt>
      <trkpt lat="47.28839" lon="-2.37652">
        <ele>17.799999237061</ele>
        <time>2020-10-04T07:39:04.000Z</time>
      </trkpt>
      <trkpt lat="47.28821" lon="-2.37691">
        <ele>17.799999237061</ele>
        <time>2020-10-04T07:39:11.000Z</time>
      </trkpt>
      <trkpt lat="47.28802" lon="-2.37736">
        <ele>17.799999237061</ele>
        <time>2020-10-04T07:39:18.000Z</time>
      </trkpt>
      <trkpt lat="47.28786" lon="-2.37781">
        <ele>17.799999237061</ele>
        <time>2020-10-04T07:39:25.000Z</time>
      </trkpt>
      <trkpt lat="47.28777" lon="-2.37809">
        <ele>17.799999237061</ele>
        <time>2020-10-04T07:39:29.000Z</time>
      </trkpt>
      <trkpt lat="47.28776" lon="-2.37824">
        <ele>17.799999237061</ele>
        <time>2020-10-04T07:39:31.000Z</time>
      </trkpt>
      <trkpt lat="47.2878" lon="-2.37845">
        <ele>17.799999237061</ele>
        <time>2020-10-04T07:39:34.000Z</time>
      </trkpt>
      <trkpt lat="47.28784" lon="-2.37859">
        <ele>17.799999237061</ele>
        <time>2020-10-04T07:39:36.000Z</time>
      </trkpt>
      <trkpt lat="47.28795" lon="-2.37905">
        <ele>17.799999237061</ele>
        <time>2020-10-04T07:39:43.000Z</time>
      </trkpt>
      <trkpt lat="47.28807" lon="-2.37955">
        <ele>17.799999237061</ele>
        <time>2020-10-04T07:39:51.000Z</time>
      </trkpt>
      <trkpt lat="47.28809" lon="-2.37961">
        <ele>17.799999237061</ele>
        <time>2020-10-04T07:39:52.000Z</time>
      </trkpt>
      <trkpt lat="47.28818" lon="-2.37994">
        <ele>17.799999237061</ele>
        <time>2020-10-04T07:39:57.000Z</time>
      </trkpt>
      <trkpt lat="47.2883" lon="-2.38042">
        <ele>17.799999237061</ele>
        <time>2020-10-04T07:40:04.000Z</time>
      </trkpt>
      <trkpt lat="47.28836" lon="-2.38074">
        <ele>17.799999237061</ele>
        <time>2020-10-04T07:40:09.000Z</time>
      </trkpt>
      <trkpt lat="47.28834" lon="-2.38085">
        <ele>17.799999237061</ele>
        <time>2020-10-04T07:40:11.000Z</time>
      </trkpt>
      <trkpt lat="47.28824" lon="-2.38096">
        <ele>17.799999237061</ele>
        <time>2020-10-04T07:40:14.000Z</time>
      </trkpt>
      <trkpt lat="47.28819" lon="-2.38099">
        <ele>17.799999237061</ele>
        <time>2020-10-04T07:40:15.000Z</time>
      </trkpt>
      <trkpt lat="47.28802" lon="-2.3811">
        <ele>17.799999237061</ele>
        <time>2020-10-04T07:40:19.000Z</time>
      </trkpt>
      <trkpt lat="47.28795" lon="-2.38118">
        <ele>17.799999237061</ele>
        <time>2020-10-04T07:40:21.000Z</time>
      </trkpt>
      <trkpt lat="47.28777" lon="-2.38128">
        <ele>17.799999237061</ele>
        <time>2020-10-04T07:40:25.000Z</time>
      </trkpt>
      <trkpt lat="47.28769" lon="-2.38134">
        <ele>17.799999237061</ele>
        <time>2020-10-04T07:40:27.000Z</time>
      </trkpt>
      <trkpt lat="47.28765" lon="-2.38137">
        <ele>17.799999237061</ele>
        <time>2020-10-04T07:40:28.000Z</time>
      </trkpt>
      <trkpt lat="47.28761" lon="-2.38153">
        <ele>17.799999237061</ele>
        <time>2020-10-04T07:40:31.000Z</time>
      </trkpt>
      <trkpt lat="47.28763" lon="-2.38165">
        <ele>17.799999237061</ele>
        <time>2020-10-04T07:40:33.000Z</time>
      </trkpt>
      <trkpt lat="47.28766" lon="-2.38185">
        <ele>17.799999237061</ele>
        <time>2020-10-04T07:40:36.000Z</time>
      </trkpt>
      <trkpt lat="47.28775" lon="-2.3823">
        <ele>17.799999237061</ele>
        <time>2020-10-04T07:40:43.000Z</time>
      </trkpt>
      <trkpt lat="47.28777" lon="-2.38236">
        <ele>17.799999237061</ele>
        <time>2020-10-04T07:40:44.000Z</time>
      </trkpt>
      <trkpt lat="47.28783" lon="-2.38269">
        <ele>17.799999237061</ele>
        <time>2020-10-04T07:40:49.000Z</time>
      </trkpt>
      <trkpt lat="47.2879" lon="-2.38309">
        <ele>17.799999237061</ele>
        <time>2020-10-04T07:40:55.000Z</time>
      </trkpt>
      <trkpt lat="47.28801" lon="-2.38369">
        <ele>17.799999237061</ele>
        <time>2020-10-04T07:41:04.000Z</time>
      </trkpt>
      <trkpt lat="47.28812" lon="-2.38422">
        <ele>17.799999237061</ele>
        <time>2020-10-04T07:41:12.000Z</time>
      </trkpt>
      <trkpt lat="47.28824" lon="-2.38479">
        <ele>17.799999237061</ele>
        <time>2020-10-04T07:41:20.000Z</time>
      </trkpt>
      <trkpt lat="47.28832" lon="-2.3853">
        <ele>17.799999237061</ele>
        <time>2020-10-04T07:41:27.000Z</time>
      </trkpt>
      <trkpt lat="47.28833" lon="-2.38553">
        <ele>17.799999237061</ele>
        <time>2020-10-04T07:41:30.000Z</time>
      </trkpt>
      <trkpt lat="47.28832" lon="-2.38567">
        <ele>17.799999237061</ele>
        <time>2020-10-04T07:41:32.000Z</time>
      </trkpt>
      <trkpt lat="47.28831" lon="-2.38573">
        <ele>17.799999237061</ele>
        <time>2020-10-04T07:41:33.000Z</time>
      </trkpt>
      <trkpt lat="47.28818" lon="-2.38628">
        <ele>17.799999237061</ele>
        <time>2020-10-04T07:41:41.000Z</time>
      </trkpt>
      <trkpt lat="47.28817" lon="-2.38635">
        <ele>17.799999237061</ele>
        <time>2020-10-04T07:41:42.000Z</time>
      </trkpt>
      <trkpt lat="47.28809" lon="-2.38669">
        <ele>17.799999237061</ele>
        <time>2020-10-04T07:41:47.000Z</time>
      </trkpt>
      <trkpt lat="47.28797" lon="-2.38722">
        <ele>17.799999237061</ele>
        <time>2020-10-04T07:41:55.000Z</time>
      </trkpt>
      <trkpt lat="47.28787" lon="-2.38761">
        <ele>17.799999237061</ele>
        <time>2020-10-04T07:42:01.000Z</time>
      </trkpt>
      <trkpt lat="47.2878" lon="-2.38793">
        <ele>17.799999237061</ele>
        <time>2020-10-04T07:42:06.000Z</time>
      </trkpt>
      <trkpt lat="47.2878" lon="-2.388">
        <ele>17.799999237061</ele>
        <time>2020-10-04T07:42:07.000Z</time>
      </trkpt>
      <trkpt lat="47.28785" lon="-2.38819">
        <ele>17.799999237061</ele>
        <time>2020-10-04T07:42:10.000Z</time>
      </trkpt>
      <trkpt lat="47.28787" lon="-2.38825">
        <ele>17.799999237061</ele>
        <time>2020-10-04T07:42:11.000Z</time>
      </trkpt>
      <trkpt lat="47.28804" lon="-2.38881">
        <ele>17.799999237061</ele>
        <time>2020-10-04T07:42:20.000Z</time>
      </trkpt>
      <trkpt lat="47.28814" lon="-2.38919">
        <ele>17.799999237061</ele>
        <time>2020-10-04T07:42:26.000Z</time>
      </trkpt>
      <trkpt lat="47.28814" lon="-2.38925">
        <ele>17.799999237061</ele>
        <time>2020-10-04T07:42:27.000Z</time>
      </trkpt>
      <trkpt lat="47.28805" lon="-2.38933">
        <ele>17.799999237061</ele>
        <time>2020-10-04T07:42:30.000Z</time>
      </trkpt>
      <trkpt lat="47.28797" lon="-2.38934">
        <ele>17.799999237061</ele>
        <time>2020-10-04T07:42:32.000Z</time>
      </trkpt>
      <trkpt lat="47.28788" lon="-2.38933">
        <ele>17.799999237061</ele>
        <time>2020-10-04T07:42:34.000Z</time>
      </trkpt>
      <trkpt lat="47.28762" lon="-2.38935">
        <ele>17.799999237061</ele>
        <time>2020-10-04T07:42:41.000Z</time>
      </trkpt>
      <trkpt lat="47.28748" lon="-2.38943">
        <ele>17.799999237061</ele>
        <time>2020-10-04T07:42:46.000Z</time>
      </trkpt>
      <trkpt lat="47.28741" lon="-2.38962">
        <ele>17.799999237061</ele>
        <time>2020-10-04T07:42:50.000Z</time>
      </trkpt>
      <trkpt lat="47.28736" lon="-2.38984">
        <ele>17.799999237061</ele>
        <time>2020-10-04T07:42:54.000Z</time>
      </trkpt>
      <trkpt lat="47.28725" lon="-2.39035">
        <ele>17.799999237061</ele>
        <time>2020-10-04T07:43:02.000Z</time>
      </trkpt>
      <trkpt lat="47.28716" lon="-2.39066">
        <ele>17.799999237061</ele>
        <time>2020-10-04T07:43:07.000Z</time>
      </trkpt>
      <trkpt lat="47.28713" lon="-2.39078">
        <ele>17.799999237061</ele>
        <time>2020-10-04T07:43:09.000Z</time>
      </trkpt>
      <trkpt lat="47.28712" lon="-2.39097">
        <ele>17.799999237061</ele>
        <time>2020-10-04T07:43:12.000Z</time>
      </trkpt>
      <trkpt lat="47.28709" lon="-2.39111">
        <ele>17.799999237061</ele>
        <time>2020-10-04T07:43:14.000Z</time>
      </trkpt>
      <trkpt lat="47.28708" lon="-2.39124">
        <ele>17.799999237061</ele>
        <time>2020-10-04T07:43:16.000Z</time>
      </trkpt>
      <trkpt lat="47.28712" lon="-2.39136">
        <ele>17.799999237061</ele>
        <time>2020-10-04T07:43:18.000Z</time>
      </trkpt>
      <trkpt lat="47.28719" lon="-2.39152">
        <ele>17.799999237061</ele>
        <time>2020-10-04T07:43:21.000Z</time>
      </trkpt>
      <trkpt lat="47.28725" lon="-2.39163">
        <ele>17.799999237061</ele>
        <time>2020-10-04T07:43:23.000Z</time>
      </trkpt>
      <trkpt lat="47.28743" lon="-2.39201">
        <ele>17.799999237061</ele>
        <time>2020-10-04T07:43:30.000Z</time>
      </trkpt>
      <trkpt lat="47.28752" lon="-2.39218">
        <ele>17.799999237061</ele>
        <time>2020-10-04T07:43:35.000Z</time>
      </trkpt>
      <trkpt lat="47.28756" lon="-2.39225">
        <ele>17.799999237061</ele>
        <time>2020-10-04T07:43:42.000Z</time>
      </trkpt>
      <trkpt lat="47.28762" lon="-2.39243">
        <ele>17.799999237061</ele>
        <time>2020-10-04T07:43:47.000Z</time>
      </trkpt>
      <trkpt lat="47.28777" lon="-2.39275">
        <ele>17.799999237061</ele>
        <time>2020-10-04T07:43:53.000Z</time>
      </trkpt>
      <trkpt lat="47.28796" lon="-2.39312">
        <ele>17.799999237061</ele>
        <time>2020-10-04T07:44:00.000Z</time>
      </trkpt>
      <trkpt lat="47.28802" lon="-2.39324">
        <ele>18.200000762939</ele>
        <time>2020-10-04T07:44:02.000Z</time>
      </trkpt>
      <trkpt lat="47.28804" lon="-2.3933">
        <ele>18.60000038147</ele>
        <time>2020-10-04T07:44:03.000Z</time>
      </trkpt>
      <trkpt lat="47.28807" lon="-2.39335">
        <ele>19</ele>
        <time>2020-10-04T07:44:04.000Z</time>
      </trkpt>
      <trkpt lat="47.2881" lon="-2.39341">
        <ele>19.60000038147</ele>
        <time>2020-10-04T07:44:05.000Z</time>
      </trkpt>
      <trkpt lat="47.28812" lon="-2.39346">
        <ele>20</ele>
        <time>2020-10-04T07:44:06.000Z</time>
      </trkpt>
      <trkpt lat="47.28815" lon="-2.39352">
        <ele>20</ele>
        <time>2020-10-04T07:44:07.000Z</time>
      </trkpt>
      <trkpt lat="47.28817" lon="-2.39357">
        <ele>20</ele>
        <time>2020-10-04T07:44:08.000Z</time>
      </trkpt>
      <trkpt lat="47.28828" lon="-2.39376">
        <ele>20</ele>
        <time>2020-10-04T07:44:12.000Z</time>
      </trkpt>
      <trkpt lat="47.28831" lon="-2.39381">
        <ele>20.39999961853</ele>
        <time>2020-10-04T07:44:13.000Z</time>
      </trkpt>
      <trkpt lat="47.28835" lon="-2.39385">
        <ele>20.799999237061</ele>
        <time>2020-10-04T07:44:14.000Z</time>
      </trkpt>
      <trkpt lat="47.28838" lon="-2.39388">
        <ele>21.200000762939</ele>
        <time>2020-10-04T07:44:15.000Z</time>
      </trkpt>
      <trkpt lat="47.28842" lon="-2.39391">
        <ele>21.60000038147</ele>
        <time>2020-10-04T07:44:16.000Z</time>
      </trkpt>
      <trkpt lat="47.28846" lon="-2.39393">
        <ele>22</ele>
        <time>2020-10-04T07:44:17.000Z</time>
      </trkpt>
      <trkpt lat="47.28854" lon="-2.39396">
        <ele>22</ele>
        <time>2020-10-04T07:44:19.000Z</time>
      </trkpt>
      <trkpt lat="47.28858" lon="-2.39397">
        <ele>22</ele>
        <time>2020-10-04T07:44:20.000Z</time>
      </trkpt>
      <trkpt lat="47.28886" lon="-2.39406">
        <ele>22</ele>
        <time>2020-10-04T07:44:26.000Z</time>
      </trkpt>
      <trkpt lat="47.28918" lon="-2.39418">
        <ele>22</ele>
        <time>2020-10-04T07:44:32.000Z</time>
      </trkpt>
      <trkpt lat="47.28969" lon="-2.39434">
        <ele>22</ele>
        <time>2020-10-04T07:44:41.000Z</time>
      </trkpt>
      <trkpt lat="47.29002" lon="-2.39446">
        <ele>22</ele>
        <time>2020-10-04T07:44:47.000Z</time>
      </trkpt>
      <trkpt lat="47.29007" lon="-2.39449">
        <ele>22</ele>
        <time>2020-10-04T07:44:48.000Z</time>
      </trkpt>
      <trkpt lat="47.29038" lon="-2.39465">
        <ele>21.60000038147</ele>
        <time>2020-10-04T07:44:54.000Z</time>
      </trkpt>
      <trkpt lat="47.29043" lon="-2.39469">
        <ele>21.200000762939</ele>
        <time>2020-10-04T07:44:55.000Z</time>
      </trkpt>
      <trkpt lat="47.29049" lon="-2.39472">
        <ele>20.39999961853</ele>
        <time>2020-10-04T07:44:56.000Z</time>
      </trkpt>
      <trkpt lat="47.29054" lon="-2.39475">
        <ele>20</ele>
        <time>2020-10-04T07:44:57.000Z</time>
      </trkpt>
      <trkpt lat="47.29077" lon="-2.39488">
        <ele>19.60000038147</ele>
        <time>2020-10-04T07:45:01.000Z</time>
      </trkpt>
      <trkpt lat="47.29083" lon="-2.39492">
        <ele>19.200000762939</ele>
        <time>2020-10-04T07:45:02.000Z</time>
      </trkpt>
      <trkpt lat="47.29089" lon="-2.39495">
        <ele>18.799999237061</ele>
        <time>2020-10-04T07:45:03.000Z</time>
      </trkpt>
      <trkpt lat="47.29094" lon="-2.39499">
        <ele>18.39999961853</ele>
        <time>2020-10-04T07:45:04.000Z</time>
      </trkpt>
      <trkpt lat="47.29099" lon="-2.39502">
        <ele>18</ele>
        <time>2020-10-04T07:45:05.000Z</time>
      </trkpt>
      <trkpt lat="47.29105" lon="-2.39506">
        <ele>18</ele>
        <time>2020-10-04T07:45:06.000Z</time>
      </trkpt>
      <trkpt lat="47.2911" lon="-2.39508">
        <ele>18</ele>
        <time>2020-10-04T07:45:07.000Z</time>
      </trkpt>
      <trkpt lat="47.2912" lon="-2.39506">
        <ele>18</ele>
        <time>2020-10-04T07:45:09.000Z</time>
      </trkpt>
      <trkpt lat="47.29131" lon="-2.39489">
        <ele>17.60000038147</ele>
        <time>2020-10-04T07:45:12.000Z</time>
      </trkpt>
      <trkpt lat="47.29133" lon="-2.39482">
        <ele>17.200000762939</ele>
        <time>2020-10-04T07:45:13.000Z</time>
      </trkpt>
      <trkpt lat="47.29134" lon="-2.39476">
        <ele>16.799999237061</ele>
        <time>2020-10-04T07:45:14.000Z</time>
      </trkpt>
      <trkpt lat="47.29135" lon="-2.39471">
        <ele>16.39999961853</ele>
        <time>2020-10-04T07:45:15.000Z</time>
      </trkpt>
      <trkpt lat="47.29135" lon="-2.39466">
        <ele>16</ele>
        <time>2020-10-04T07:45:16.000Z</time>
      </trkpt>
      <trkpt lat="47.29137" lon="-2.39459">
        <ele>16</ele>
        <time>2020-10-04T07:45:18.000Z</time>
      </trkpt>
      <trkpt lat="47.29143" lon="-2.39459">
        <ele>16</ele>
        <time>2020-10-04T07:45:20.000Z</time>
      </trkpt>
      <trkpt lat="47.29156" lon="-2.39462">
        <ele>16</ele>
        <time>2020-10-04T07:45:24.000Z</time>
      </trkpt>
      <trkpt lat="47.29163" lon="-2.39465">
        <ele>16</ele>
        <time>2020-10-04T07:45:26.000Z</time>
      </trkpt>
      <trkpt lat="47.29181" lon="-2.39471">
        <ele>16</ele>
        <time>2020-10-04T07:45:30.000Z</time>
      </trkpt>
      <trkpt lat="47.29216" lon="-2.39477">
        <ele>16</ele>
        <time>2020-10-04T07:45:38.000Z</time>
      </trkpt>
      <trkpt lat="47.29241" lon="-2.39479">
        <ele>16</ele>
        <time>2020-10-04T07:45:44.000Z</time>
      </trkpt>
      <trkpt lat="47.2927" lon="-2.39486">
        <ele>16</ele>
        <time>2020-10-04T07:45:51.000Z</time>
      </trkpt>
      <trkpt lat="47.29303" lon="-2.39493">
        <ele>16</ele>
        <time>2020-10-04T07:45:58.000Z</time>
      </trkpt>
      <trkpt lat="47.29343" lon="-2.395">
        <ele>16</ele>
        <time>2020-10-04T07:46:06.000Z</time>
      </trkpt>
      <trkpt lat="47.29389" lon="-2.39509">
        <ele>16</ele>
        <time>2020-10-04T07:46:15.000Z</time>
      </trkpt>
      <trkpt lat="47.29435" lon="-2.39517">
        <ele>16</ele>
        <time>2020-10-04T07:46:24.000Z</time>
      </trkpt>
      <trkpt lat="47.2948" lon="-2.39526">
        <ele>16</ele>
        <time>2020-10-04T07:46:33.000Z</time>
      </trkpt>
      <trkpt lat="47.29521" lon="-2.39535">
        <ele>16</ele>
        <time>2020-10-04T07:46:41.000Z</time>
      </trkpt>
      <trkpt lat="47.29545" lon="-2.3954">
        <ele>16.39999961853</ele>
        <time>2020-10-04T07:46:46.000Z</time>
      </trkpt>
      <trkpt lat="47.29549" lon="-2.3954">
        <ele>16.799999237061</ele>
        <time>2020-10-04T07:46:47.000Z</time>
      </trkpt>
      <trkpt lat="47.29553" lon="-2.39541">
        <ele>17.200000762939</ele>
        <time>2020-10-04T07:46:48.000Z</time>
      </trkpt>
      <trkpt lat="47.29556" lon="-2.39541">
        <ele>17.60000038147</ele>
        <time>2020-10-04T07:46:49.000Z</time>
      </trkpt>
      <trkpt lat="47.2956" lon="-2.39542">
        <ele>18</ele>
        <time>2020-10-04T07:46:50.000Z</time>
      </trkpt>
      <trkpt lat="47.29575" lon="-2.39546">
        <ele>18.39999961853</ele>
        <time>2020-10-04T07:46:54.000Z</time>
      </trkpt>
      <trkpt lat="47.29578" lon="-2.39546">
        <ele>18.799999237061</ele>
        <time>2020-10-04T07:46:55.000Z</time>
      </trkpt>
      <trkpt lat="47.29581" lon="-2.39547">
        <ele>19.200000762939</ele>
        <time>2020-10-04T07:46:56.000Z</time>
      </trkpt>
      <trkpt lat="47.29584" lon="-2.39547">
        <ele>19.799999237061</ele>
        <time>2020-10-04T07:46:57.000Z</time>
      </trkpt>
      <trkpt lat="47.29587" lon="-2.39548">
        <ele>20.200000762939</ele>
        <time>2020-10-04T07:46:58.000Z</time>
      </trkpt>
      <trkpt lat="47.29591" lon="-2.39549">
        <ele>20.60000038147</ele>
        <time>2020-10-04T07:46:59.000Z</time>
      </trkpt>
      <trkpt lat="47.29594" lon="-2.39549">
        <ele>21.39999961853</ele>
        <time>2020-10-04T07:47:00.000Z</time>
      </trkpt>
      <trkpt lat="47.29598" lon="-2.3955">
        <ele>21.799999237061</ele>
        <time>2020-10-04T07:47:01.000Z</time>
      </trkpt>
      <trkpt lat="47.29603" lon="-2.3955">
        <ele>22.200000762939</ele>
        <time>2020-10-04T07:47:02.000Z</time>
      </trkpt>
      <trkpt lat="47.29608" lon="-2.39551">
        <ele>22.200000762939</ele>
        <time>2020-10-04T07:47:03.000Z</time>
      </trkpt>
      <trkpt lat="47.29638" lon="-2.39557">
        <ele>22.200000762939</ele>
        <time>2020-10-04T07:47:08.000Z</time>
      </trkpt>
      <trkpt lat="47.29661" lon="-2.39563">
        <ele>21.799999237061</ele>
        <time>2020-10-04T07:47:12.000Z</time>
      </trkpt>
      <trkpt lat="47.29666" lon="-2.39564">
        <ele>21.39999961853</ele>
        <time>2020-10-04T07:47:13.000Z</time>
      </trkpt>
      <trkpt lat="47.29671" lon="-2.39565">
        <ele>21</ele>
        <time>2020-10-04T07:47:14.000Z</time>
      </trkpt>
      <trkpt lat="47.29677" lon="-2.39566">
        <ele>20.60000038147</ele>
        <time>2020-10-04T07:47:15.000Z</time>
      </trkpt>
      <trkpt lat="47.29682" lon="-2.39567">
        <ele>20.200000762939</ele>
        <time>2020-10-04T07:47:16.000Z</time>
      </trkpt>
      <trkpt lat="47.29701" lon="-2.39571">
        <ele>20.200000762939</ele>
        <time>2020-10-04T07:47:20.000Z</time>
      </trkpt>
      <trkpt lat="47.29745" lon="-2.39579">
        <ele>20.200000762939</ele>
        <time>2020-10-04T07:47:29.000Z</time>
      </trkpt>
      <trkpt lat="47.29794" lon="-2.39589">
        <ele>20.200000762939</ele>
        <time>2020-10-04T07:47:39.000Z</time>
      </trkpt>
      <trkpt lat="47.29814" lon="-2.39592">
        <ele>20.60000038147</ele>
        <time>2020-10-04T07:47:43.000Z</time>
      </trkpt>
      <trkpt lat="47.29819" lon="-2.39594">
        <ele>21</ele>
        <time>2020-10-04T07:47:44.000Z</time>
      </trkpt>
      <trkpt lat="47.29824" lon="-2.39594">
        <ele>21.39999961853</ele>
        <time>2020-10-04T07:47:45.000Z</time>
      </trkpt>
      <trkpt lat="47.29829" lon="-2.39595">
        <ele>21.799999237061</ele>
        <time>2020-10-04T07:47:46.000Z</time>
      </trkpt>
      <trkpt lat="47.29834" lon="-2.39597">
        <ele>22.200000762939</ele>
        <time>2020-10-04T07:47:47.000Z</time>
      </trkpt>
      <trkpt lat="47.29879" lon="-2.39605">
        <ele>22.200000762939</ele>
        <time>2020-10-04T07:47:56.000Z</time>
      </trkpt>
      <trkpt lat="47.29913" lon="-2.39613">
        <ele>22.200000762939</ele>
        <time>2020-10-04T07:48:03.000Z</time>
      </trkpt>
      <trkpt lat="47.29935" lon="-2.39618">
        <ele>22.60000038147</ele>
        <time>2020-10-04T07:48:08.000Z</time>
      </trkpt>
      <trkpt lat="47.29939" lon="-2.39619">
        <ele>23</ele>
        <time>2020-10-04T07:48:09.000Z</time>
      </trkpt>
      <trkpt lat="47.29942" lon="-2.3962">
        <ele>23.39999961853</ele>
        <time>2020-10-04T07:48:10.000Z</time>
      </trkpt>
      <trkpt lat="47.29945" lon="-2.39619">
        <ele>23.799999237061</ele>
        <time>2020-10-04T07:48:11.000Z</time>
      </trkpt>
      <trkpt lat="47.29948" lon="-2.39618">
        <ele>24.200000762939</ele>
        <time>2020-10-04T07:48:12.000Z</time>
      </trkpt>
      <trkpt lat="47.29954" lon="-2.3962">
        <ele>24.200000762939</ele>
        <time>2020-10-04T07:48:14.000Z</time>
      </trkpt>
      <trkpt lat="47.29972" lon="-2.39623">
        <ele>24.200000762939</ele>
        <time>2020-10-04T07:48:19.000Z</time>
      </trkpt>
      <trkpt lat="47.29976" lon="-2.39623">
        <ele>24.200000762939</ele>
        <time>2020-10-04T07:48:20.000Z</time>
      </trkpt>
      <trkpt lat="47.30003" lon="-2.3963">
        <ele>24.200000762939</ele>
        <time>2020-10-04T07:48:26.000Z</time>
      </trkpt>
      <trkpt lat="47.30031" lon="-2.39634">
        <ele>24.799999237061</ele>
        <time>2020-10-04T07:48:32.000Z</time>
      </trkpt>
      <trkpt lat="47.30036" lon="-2.39635">
        <ele>25.200000762939</ele>
        <time>2020-10-04T07:48:33.000Z</time>
      </trkpt>
      <trkpt lat="47.30041" lon="-2.39637">
        <ele>25.60000038147</ele>
        <time>2020-10-04T07:48:34.000Z</time>
      </trkpt>
      <trkpt lat="47.30046" lon="-2.39638">
        <ele>26</ele>
        <time>2020-10-04T07:48:35.000Z</time>
      </trkpt>
      <trkpt lat="47.30051" lon="-2.39639">
        <ele>26.39999961853</ele>
        <time>2020-10-04T07:48:36.000Z</time>
      </trkpt>
      <trkpt lat="47.3008" lon="-2.39644">
        <ele>26.39999961853</ele>
        <time>2020-10-04T07:48:42.000Z</time>
      </trkpt>
      <trkpt lat="47.30114" lon="-2.39651">
        <ele>26.39999961853</ele>
        <time>2020-10-04T07:48:49.000Z</time>
      </trkpt>
      <trkpt lat="47.30148" lon="-2.39657">
        <ele>26.39999961853</ele>
        <time>2020-10-04T07:48:56.000Z</time>
      </trkpt>
      <trkpt lat="47.30157" lon="-2.39659">
        <ele>26.799999237061</ele>
        <time>2020-10-04T07:48:58.000Z</time>
      </trkpt>
      <trkpt lat="47.30162" lon="-2.3966">
        <ele>27.200000762939</ele>
        <time>2020-10-04T07:48:59.000Z</time>
      </trkpt>
      <trkpt lat="47.30167" lon="-2.3966">
        <ele>27.60000038147</ele>
        <time>2020-10-04T07:49:00.000Z</time>
      </trkpt>
      <trkpt lat="47.30171" lon="-2.39661">
        <ele>28</ele>
        <time>2020-10-04T07:49:01.000Z</time>
      </trkpt>
      <trkpt lat="47.30176" lon="-2.39662">
        <ele>28.39999961853</ele>
        <time>2020-10-04T07:49:02.000Z</time>
      </trkpt>
      <trkpt lat="47.30194" lon="-2.39666">
        <ele>28.39999961853</ele>
        <time>2020-10-04T07:49:06.000Z</time>
      </trkpt>
      <trkpt lat="47.30212" lon="-2.3967">
        <ele>28.39999961853</ele>
        <time>2020-10-04T07:49:10.000Z</time>
      </trkpt>
      <trkpt lat="47.30226" lon="-2.39673">
        <ele>28.39999961853</ele>
        <time>2020-10-04T07:49:13.000Z</time>
      </trkpt>
      <trkpt lat="47.30241" lon="-2.39676">
        <ele>28.39999961853</ele>
        <time>2020-10-04T07:49:16.000Z</time>
      </trkpt>
      <trkpt lat="47.30259" lon="-2.39679">
        <ele>28.39999961853</ele>
        <time>2020-10-04T07:49:20.000Z</time>
      </trkpt>
      <trkpt lat="47.30282" lon="-2.39684">
        <ele>28.39999961853</ele>
        <time>2020-10-04T07:49:25.000Z</time>
      </trkpt>
      <trkpt lat="47.30292" lon="-2.39687">
        <ele>28.39999961853</ele>
        <time>2020-10-04T07:49:27.000Z</time>
      </trkpt>
      <trkpt lat="47.30305" lon="-2.39691">
        <ele>28.799999237061</ele>
        <time>2020-10-04T07:49:30.000Z</time>
      </trkpt>
      <trkpt lat="47.3031" lon="-2.39692">
        <ele>29.200000762939</ele>
        <time>2020-10-04T07:49:31.000Z</time>
      </trkpt>
      <trkpt lat="47.30314" lon="-2.39694">
        <ele>29.60000038147</ele>
        <time>2020-10-04T07:49:32.000Z</time>
      </trkpt>
      <trkpt lat="47.30319" lon="-2.39695">
        <ele>30</ele>
        <time>2020-10-04T07:49:33.000Z</time>
      </trkpt>
      <trkpt lat="47.30323" lon="-2.39697">
        <ele>30.39999961853</ele>
        <time>2020-10-04T07:49:34.000Z</time>
      </trkpt>
      <trkpt lat="47.30354" lon="-2.39712">
        <ele>30.39999961853</ele>
        <time>2020-10-04T07:49:41.000Z</time>
      </trkpt>
      <trkpt lat="47.3039" lon="-2.39733">
        <ele>30.39999961853</ele>
        <time>2020-10-04T07:49:49.000Z</time>
      </trkpt>
      <trkpt lat="47.30424" lon="-2.39756">
        <ele>30.39999961853</ele>
        <time>2020-10-04T07:49:57.000Z</time>
      </trkpt>
      <trkpt lat="47.30428" lon="-2.39759">
        <ele>30.799999237061</ele>
        <time>2020-10-04T07:49:58.000Z</time>
      </trkpt>
      <trkpt lat="47.30432" lon="-2.39763">
        <ele>31.200000762939</ele>
        <time>2020-10-04T07:49:59.000Z</time>
      </trkpt>
      <trkpt lat="47.30437" lon="-2.39766">
        <ele>31.60000038147</ele>
        <time>2020-10-04T07:50:00.000Z</time>
      </trkpt>
      <trkpt lat="47.30441" lon="-2.39769">
        <ele>32</ele>
        <time>2020-10-04T07:50:01.000Z</time>
      </trkpt>
      <trkpt lat="47.30445" lon="-2.39773">
        <ele>32.599998474121</ele>
        <time>2020-10-04T07:50:02.000Z</time>
      </trkpt>
      <trkpt lat="47.30458" lon="-2.39785">
        <ele>32.599998474121</ele>
        <time>2020-10-04T07:50:05.000Z</time>
      </trkpt>
      <trkpt lat="47.30502" lon="-2.39833">
        <ele>32.599998474121</ele>
        <time>2020-10-04T07:50:16.000Z</time>
      </trkpt>
      <trkpt lat="47.30518" lon="-2.39852">
        <ele>33</ele>
        <time>2020-10-04T07:50:20.000Z</time>
      </trkpt>
      <trkpt lat="47.30522" lon="-2.39857">
        <ele>33.400001525879</ele>
        <time>2020-10-04T07:50:21.000Z</time>
      </trkpt>
      <trkpt lat="47.30526" lon="-2.39861">
        <ele>33.799999237061</ele>
        <time>2020-10-04T07:50:22.000Z</time>
      </trkpt>
      <trkpt lat="47.3053" lon="-2.39865">
        <ele>34.200000762939</ele>
        <time>2020-10-04T07:50:23.000Z</time>
      </trkpt>
      <trkpt lat="47.30534" lon="-2.39869">
        <ele>34.599998474121</ele>
        <time>2020-10-04T07:50:24.000Z</time>
      </trkpt>
      <trkpt lat="47.30538" lon="-2.39874">
        <ele>34.599998474121</ele>
        <time>2020-10-04T07:50:25.000Z</time>
      </trkpt>
      <trkpt lat="47.30569" lon="-2.39911">
        <ele>34.599998474121</ele>
        <time>2020-10-04T07:50:33.000Z</time>
      </trkpt>
      <trkpt lat="47.30596" lon="-2.39943">
        <ele>34.599998474121</ele>
        <time>2020-10-04T07:50:40.000Z</time>
      </trkpt>
      <trkpt lat="47.30619" lon="-2.39969">
        <ele>35</ele>
        <time>2020-10-04T07:50:46.000Z</time>
      </trkpt>
      <trkpt lat="47.30623" lon="-2.39973">
        <ele>35.400001525879</ele>
        <time>2020-10-04T07:50:47.000Z</time>
      </trkpt>
      <trkpt lat="47.30626" lon="-2.39977">
        <ele>35.799999237061</ele>
        <time>2020-10-04T07:50:48.000Z</time>
      </trkpt>
      <trkpt lat="47.3063" lon="-2.39982">
        <ele>36.200000762939</ele>
        <time>2020-10-04T07:50:49.000Z</time>
      </trkpt>
      <trkpt lat="47.30634" lon="-2.39986">
        <ele>36.599998474121</ele>
        <time>2020-10-04T07:50:50.000Z</time>
      </trkpt>
      <trkpt lat="47.30657" lon="-2.40011">
        <ele>36.599998474121</ele>
        <time>2020-10-04T07:50:56.000Z</time>
      </trkpt>
      <trkpt lat="47.30692" lon="-2.40042">
        <ele>36.599998474121</ele>
        <time>2020-10-04T07:51:04.000Z</time>
      </trkpt>
      <trkpt lat="47.30728" lon="-2.40068">
        <ele>36.599998474121</ele>
        <time>2020-10-04T07:51:12.000Z</time>
      </trkpt>
      <trkpt lat="47.30746" lon="-2.40079">
        <ele>37</ele>
        <time>2020-10-04T07:51:16.000Z</time>
      </trkpt>
      <trkpt lat="47.30751" lon="-2.40081">
        <ele>37.400001525879</ele>
        <time>2020-10-04T07:51:17.000Z</time>
      </trkpt>
      <trkpt lat="47.30756" lon="-2.40083">
        <ele>38</ele>
        <time>2020-10-04T07:51:18.000Z</time>
      </trkpt>
      <trkpt lat="47.3076" lon="-2.40086">
        <ele>38.400001525879</ele>
        <time>2020-10-04T07:51:19.000Z</time>
      </trkpt>
      <trkpt lat="47.30765" lon="-2.40089">
        <ele>38.799999237061</ele>
        <time>2020-10-04T07:51:20.000Z</time>
      </trkpt>
      <trkpt lat="47.30798" lon="-2.40102">
        <ele>38.799999237061</ele>
        <time>2020-10-04T07:51:27.000Z</time>
      </trkpt>
      <trkpt lat="47.30831" lon="-2.40113">
        <ele>39.200000762939</ele>
        <time>2020-10-04T07:51:34.000Z</time>
      </trkpt>
      <trkpt lat="47.30836" lon="-2.40114">
        <ele>39.599998474121</ele>
        <time>2020-10-04T07:51:35.000Z</time>
      </trkpt>
      <trkpt lat="47.3084" lon="-2.40115">
        <ele>40</ele>
        <time>2020-10-04T07:51:36.000Z</time>
      </trkpt>
      <trkpt lat="47.30845" lon="-2.40116">
        <ele>40.400001525879</ele>
        <time>2020-10-04T07:51:37.000Z</time>
      </trkpt>
      <trkpt lat="47.30849" lon="-2.40117">
        <ele>40.799999237061</ele>
        <time>2020-10-04T07:51:38.000Z</time>
      </trkpt>
      <trkpt lat="47.30859" lon="-2.40119">
        <ele>40.799999237061</ele>
        <time>2020-10-04T07:51:40.000Z</time>
      </trkpt>
      <trkpt lat="47.30888" lon="-2.40122">
        <ele>40.799999237061</ele>
        <time>2020-10-04T07:51:46.000Z</time>
      </trkpt>
      <trkpt lat="47.30917" lon="-2.40122">
        <ele>40.799999237061</ele>
        <time>2020-10-04T07:51:52.000Z</time>
      </trkpt>
      <trkpt lat="47.30948" lon="-2.4012">
        <ele>40.799999237061</ele>
        <time>2020-10-04T07:51:58.000Z</time>
      </trkpt>
      <trkpt lat="47.30953" lon="-2.40119">
        <ele>40.799999237061</ele>
        <time>2020-10-04T07:51:59.000Z</time>
      </trkpt>
      <trkpt lat="47.30968" lon="-2.40116">
        <ele>40.799999237061</ele>
        <time>2020-10-04T07:52:02.000Z</time>
      </trkpt>
      <trkpt lat="47.30973" lon="-2.40115">
        <ele>41.200000762939</ele>
        <time>2020-10-04T07:52:03.000Z</time>
      </trkpt>
      <trkpt lat="47.30978" lon="-2.40114">
        <ele>41.599998474121</ele>
        <time>2020-10-04T07:52:04.000Z</time>
      </trkpt>
      <trkpt lat="47.30983" lon="-2.40113">
        <ele>42</ele>
        <time>2020-10-04T07:52:05.000Z</time>
      </trkpt>
      <trkpt lat="47.30988" lon="-2.40112">
        <ele>42.599998474121</ele>
        <time>2020-10-04T07:52:06.000Z</time>
      </trkpt>
      <trkpt lat="47.30993" lon="-2.40111">
        <ele>43</ele>
        <time>2020-10-04T07:52:07.000Z</time>
      </trkpt>
      <trkpt lat="47.31017" lon="-2.40103">
        <ele>43</ele>
        <time>2020-10-04T07:52:12.000Z</time>
      </trkpt>
      <trkpt lat="47.31055" lon="-2.4009">
        <ele>43</ele>
        <time>2020-10-04T07:52:20.000Z</time>
      </trkpt>
      <trkpt lat="47.31092" lon="-2.4008">
        <ele>43</ele>
        <time>2020-10-04T07:52:28.000Z</time>
      </trkpt>
      <trkpt lat="47.31096" lon="-2.40078">
        <ele>43.400001525879</ele>
        <time>2020-10-04T07:52:29.000Z</time>
      </trkpt>
      <trkpt lat="47.31101" lon="-2.40076">
        <ele>43.799999237061</ele>
        <time>2020-10-04T07:52:30.000Z</time>
      </trkpt>
      <trkpt lat="47.31105" lon="-2.40074">
        <ele>44.200000762939</ele>
        <time>2020-10-04T07:52:31.000Z</time>
      </trkpt>
      <trkpt lat="47.3111" lon="-2.40073">
        <ele>44.599998474121</ele>
        <time>2020-10-04T07:52:32.000Z</time>
      </trkpt>
      <trkpt lat="47.31114" lon="-2.40071">
        <ele>45</ele>
        <time>2020-10-04T07:52:33.000Z</time>
      </trkpt>
      <trkpt lat="47.31122" lon="-2.40069">
        <ele>45</ele>
        <time>2020-10-04T07:52:35.000Z</time>
      </trkpt>
      <trkpt lat="47.31143" lon="-2.40063">
        <ele>45</ele>
        <time>2020-10-04T07:52:41.000Z</time>
      </trkpt>
      <trkpt lat="47.31159" lon="-2.4006">
        <ele>45</ele>
        <time>2020-10-04T07:52:46.000Z</time>
      </trkpt>
      <trkpt lat="47.31185" lon="-2.40058">
        <ele>45</ele>
        <time>2020-10-04T07:52:52.000Z</time>
      </trkpt>
      <trkpt lat="47.31194" lon="-2.40061">
        <ele>45</ele>
        <time>2020-10-04T07:52:54.000Z</time>
      </trkpt>
      <trkpt lat="47.31203" lon="-2.40069">
        <ele>45</ele>
        <time>2020-10-04T07:52:56.000Z</time>
      </trkpt>
      <trkpt lat="47.31215" lon="-2.40096">
        <ele>45</ele>
        <time>2020-10-04T07:53:00.000Z</time>
      </trkpt>
      <trkpt lat="47.31232" lon="-2.40153">
        <ele>45</ele>
        <time>2020-10-04T07:53:08.000Z</time>
      </trkpt>
      <trkpt lat="47.31248" lon="-2.40204">
        <ele>45</ele>
        <time>2020-10-04T07:53:16.000Z</time>
      </trkpt>
      <trkpt lat="47.31256" lon="-2.40229">
        <ele>45.400001525879</ele>
        <time>2020-10-04T07:53:20.000Z</time>
      </trkpt>
      <trkpt lat="47.31258" lon="-2.40235">
        <ele>45.799999237061</ele>
        <time>2020-10-04T07:53:21.000Z</time>
      </trkpt>
      <trkpt lat="47.3126" lon="-2.40241">
        <ele>46.200000762939</ele>
        <time>2020-10-04T07:53:22.000Z</time>
      </trkpt>
      <trkpt lat="47.31262" lon="-2.40247">
        <ele>46.599998474121</ele>
        <time>2020-10-04T07:53:23.000Z</time>
      </trkpt>
      <trkpt lat="47.31264" lon="-2.40253">
        <ele>47</ele>
        <time>2020-10-04T07:53:24.000Z</time>
      </trkpt>
      <trkpt lat="47.31268" lon="-2.40264">
        <ele>47</ele>
        <time>2020-10-04T07:53:26.000Z</time>
      </trkpt>
      <trkpt lat="47.31284" lon="-2.4031">
        <ele>47</ele>
        <time>2020-10-04T07:53:34.000Z</time>
      </trkpt>
      <trkpt lat="47.31292" lon="-2.40333">
        <ele>48</ele>
        <time>2020-10-04T07:53:38.000Z</time>
      </trkpt>
      <trkpt lat="47.31294" lon="-2.40338">
        <ele>48.400001525879</ele>
        <time>2020-10-04T07:53:39.000Z</time>
      </trkpt>
      <trkpt lat="47.31296" lon="-2.40344">
        <ele>48.799999237061</ele>
        <time>2020-10-04T07:53:40.000Z</time>
      </trkpt>
      <trkpt lat="47.31298" lon="-2.40349">
        <ele>49.400001525879</ele>
        <time>2020-10-04T07:53:41.000Z</time>
      </trkpt>
      <trkpt lat="47.31302" lon="-2.4036">
        <ele>49.799999237061</ele>
        <time>2020-10-04T07:53:43.000Z</time>
      </trkpt>
      <trkpt lat="47.31304" lon="-2.40365">
        <ele>50.200000762939</ele>
        <time>2020-10-04T07:53:44.000Z</time>
      </trkpt>
      <trkpt lat="47.31306" lon="-2.4037">
        <ele>50.599998474121</ele>
        <time>2020-10-04T07:53:45.000Z</time>
      </trkpt>
      <trkpt lat="47.31308" lon="-2.40376">
        <ele>51</ele>
        <time>2020-10-04T07:53:46.000Z</time>
      </trkpt>
      <trkpt lat="47.3131" lon="-2.40381">
        <ele>51.400001525879</ele>
        <time>2020-10-04T07:53:47.000Z</time>
      </trkpt>
      <trkpt lat="47.31316" lon="-2.40404">
        <ele>51.400001525879</ele>
        <time>2020-10-04T07:53:51.000Z</time>
      </trkpt>
      <trkpt lat="47.31327" lon="-2.4044">
        <ele>51.400001525879</ele>
        <time>2020-10-04T07:53:57.000Z</time>
      </trkpt>
      <trkpt lat="47.31328" lon="-2.40448">
        <ele>51.400001525879</ele>
        <time>2020-10-04T07:53:58.000Z</time>
      </trkpt>
      <trkpt lat="47.31343" lon="-2.40506">
        <ele>51.400001525879</ele>
        <time>2020-10-04T07:54:06.000Z</time>
      </trkpt>
      <trkpt lat="47.31347" lon="-2.40517">
        <ele>51</ele>
        <time>2020-10-04T07:54:08.000Z</time>
      </trkpt>
      <trkpt lat="47.3135" lon="-2.40519">
        <ele>50.400001525879</ele>
        <time>2020-10-04T07:54:09.000Z</time>
      </trkpt>
      <trkpt lat="47.31354" lon="-2.4052">
        <ele>50</ele>
        <time>2020-10-04T07:54:10.000Z</time>
      </trkpt>
      <trkpt lat="47.31358" lon="-2.4052">
        <ele>49.400001525879</ele>
        <time>2020-10-04T07:54:11.000Z</time>
      </trkpt>
      <trkpt lat="47.31362" lon="-2.40518">
        <ele>48.799999237061</ele>
        <time>2020-10-04T07:54:12.000Z</time>
      </trkpt>
      <trkpt lat="47.31367" lon="-2.40517">
        <ele>48.799999237061</ele>
        <time>2020-10-04T07:54:13.000Z</time>
      </trkpt>
      <trkpt lat="47.31376" lon="-2.40513">
        <ele>48.799999237061</ele>
        <time>2020-10-04T07:54:15.000Z</time>
      </trkpt>
      <trkpt lat="47.31395" lon="-2.40503">
        <ele>48.400001525879</ele>
        <time>2020-10-04T07:54:19.000Z</time>
      </trkpt>
      <trkpt lat="47.314" lon="-2.40501">
        <ele>48</ele>
        <time>2020-10-04T07:54:20.000Z</time>
      </trkpt>
      <trkpt lat="47.31405" lon="-2.40499">
        <ele>47.599998474121</ele>
        <time>2020-10-04T07:54:21.000Z</time>
      </trkpt>
      <trkpt lat="47.31409" lon="-2.40497">
        <ele>47.200000762939</ele>
        <time>2020-10-04T07:54:22.000Z</time>
      </trkpt>
      <trkpt lat="47.31413" lon="-2.40495">
        <ele>46.799999237061</ele>
        <time>2020-10-04T07:54:23.000Z</time>
      </trkpt>
      <trkpt lat="47.31429" lon="-2.40486">
        <ele>46.799999237061</ele>
        <time>2020-10-04T07:54:27.000Z</time>
      </trkpt>
      <trkpt lat="47.31452" lon="-2.40467">
        <ele>47.200000762939</ele>
        <time>2020-10-04T07:54:33.000Z</time>
      </trkpt>
      <trkpt lat="47.31455" lon="-2.40464">
        <ele>47.599998474121</ele>
        <time>2020-10-04T07:54:34.000Z</time>
      </trkpt>
      <trkpt lat="47.31459" lon="-2.40461">
        <ele>48</ele>
        <time>2020-10-04T07:54:35.000Z</time>
      </trkpt>
      <trkpt lat="47.31463" lon="-2.40458">
        <ele>48.400001525879</ele>
        <time>2020-10-04T07:54:36.000Z</time>
      </trkpt>
      <trkpt lat="47.31466" lon="-2.40455">
        <ele>48.799999237061</ele>
        <time>2020-10-04T07:54:37.000Z</time>
      </trkpt>
      <trkpt lat="47.31473" lon="-2.40449">
        <ele>49.400001525879</ele>
        <time>2020-10-04T07:54:39.000Z</time>
      </trkpt>
      <trkpt lat="47.31476" lon="-2.40445">
        <ele>49.799999237061</ele>
        <time>2020-10-04T07:54:40.000Z</time>
      </trkpt>
      <trkpt lat="47.31479" lon="-2.40441">
        <ele>50.200000762939</ele>
        <time>2020-10-04T07:54:41.000Z</time>
      </trkpt>
      <trkpt lat="47.31482" lon="-2.40437">
        <ele>50.599998474121</ele>
        <time>2020-10-04T07:54:42.000Z</time>
      </trkpt>
      <trkpt lat="47.31486" lon="-2.40433">
        <ele>51.200000762939</ele>
        <time>2020-10-04T07:54:43.000Z</time>
      </trkpt>
      <trkpt lat="47.31496" lon="-2.40424">
        <ele>51.599998474121</ele>
        <time>2020-10-04T07:54:46.000Z</time>
      </trkpt>
      <trkpt lat="47.315" lon="-2.40421">
        <ele>52</ele>
        <time>2020-10-04T07:54:47.000Z</time>
      </trkpt>
      <trkpt lat="47.31504" lon="-2.40418">
        <ele>52.400001525879</ele>
        <time>2020-10-04T07:54:48.000Z</time>
      </trkpt>
      <trkpt lat="47.31507" lon="-2.40414">
        <ele>53</ele>
        <time>2020-10-04T07:54:49.000Z</time>
      </trkpt>
      <trkpt lat="47.3151" lon="-2.40411">
        <ele>53.400001525879</ele>
        <time>2020-10-04T07:54:50.000Z</time>
      </trkpt>
      <trkpt lat="47.31526" lon="-2.40397">
        <ele>53.400001525879</ele>
        <time>2020-10-04T07:54:54.000Z</time>
      </trkpt>
      <trkpt lat="47.31547" lon="-2.40384">
        <ele>53.799999237061</ele>
        <time>2020-10-04T07:54:59.000Z</time>
      </trkpt>
      <trkpt lat="47.31551" lon="-2.40381">
        <ele>54.200000762939</ele>
        <time>2020-10-04T07:55:00.000Z</time>
      </trkpt>
      <trkpt lat="47.31556" lon="-2.40379">
        <ele>54.599998474121</ele>
        <time>2020-10-04T07:55:01.000Z</time>
      </trkpt>
      <trkpt lat="47.3156" lon="-2.40376">
        <ele>55</ele>
        <time>2020-10-04T07:55:02.000Z</time>
      </trkpt>
      <trkpt lat="47.31564" lon="-2.40374">
        <ele>55.400001525879</ele>
        <time>2020-10-04T07:55:03.000Z</time>
      </trkpt>
      <trkpt lat="47.31585" lon="-2.40364">
        <ele>55.400001525879</ele>
        <time>2020-10-04T07:55:08.000Z</time>
      </trkpt>
      <trkpt lat="47.31616" lon="-2.40354">
        <ele>55.400001525879</ele>
        <time>2020-10-04T07:55:15.000Z</time>
      </trkpt>
      <trkpt lat="47.31638" lon="-2.40345">
        <ele>55.400001525879</ele>
        <time>2020-10-04T07:55:21.000Z</time>
      </trkpt>
      <trkpt lat="47.31661" lon="-2.40334">
        <ele>55.400001525879</ele>
        <time>2020-10-04T07:55:27.000Z</time>
      </trkpt>
      <trkpt lat="47.31675" lon="-2.40329">
        <ele>55.400001525879</ele>
        <time>2020-10-04T07:55:30.000Z</time>
      </trkpt>
      <trkpt lat="47.31685" lon="-2.40332">
        <ele>55.400001525879</ele>
        <time>2020-10-04T07:55:32.000Z</time>
      </trkpt>
      <trkpt lat="47.31699" lon="-2.40344">
        <ele>55.400001525879</ele>
        <time>2020-10-04T07:55:35.000Z</time>
      </trkpt>
      <trkpt lat="47.31709" lon="-2.4035">
        <ele>55.400001525879</ele>
        <time>2020-10-04T07:55:37.000Z</time>
      </trkpt>
      <trkpt lat="47.31734" lon="-2.40369">
        <ele>55.400001525879</ele>
        <time>2020-10-04T07:55:43.000Z</time>
      </trkpt>
      <trkpt lat="47.31757" lon="-2.40383">
        <ele>55.400001525879</ele>
        <time>2020-10-04T07:55:49.000Z</time>
      </trkpt>
      <trkpt lat="47.3178" lon="-2.40402">
        <ele>55.400001525879</ele>
        <time>2020-10-04T07:55:55.000Z</time>
      </trkpt>
      <trkpt lat="47.3181" lon="-2.40426">
        <ele>55.400001525879</ele>
        <time>2020-10-04T07:56:02.000Z</time>
      </trkpt>
      <trkpt lat="47.31828" lon="-2.40439">
        <ele>56.200000762939</ele>
        <time>2020-10-04T07:56:06.000Z</time>
      </trkpt>
      <trkpt lat="47.31832" lon="-2.40442">
        <ele>56.599998474121</ele>
        <time>2020-10-04T07:56:07.000Z</time>
      </trkpt>
      <trkpt lat="47.31836" lon="-2.40445">
        <ele>57</ele>
        <time>2020-10-04T07:56:08.000Z</time>
      </trkpt>
      <trkpt lat="47.3184" lon="-2.40448">
        <ele>57.400001525879</ele>
        <time>2020-10-04T07:56:09.000Z</time>
      </trkpt>
      <trkpt lat="47.31861" lon="-2.40461">
        <ele>57.400001525879</ele>
        <time>2020-10-04T07:56:14.000Z</time>
      </trkpt>
      <trkpt lat="47.31888" lon="-2.40483">
        <ele>57.400001525879</ele>
        <time>2020-10-04T07:56:20.000Z</time>
      </trkpt>
      <trkpt lat="47.31918" lon="-2.40507">
        <ele>57.400001525879</ele>
        <time>2020-10-04T07:56:27.000Z</time>
      </trkpt>
      <trkpt lat="47.31926" lon="-2.40514">
        <ele>58</ele>
        <time>2020-10-04T07:56:29.000Z</time>
      </trkpt>
      <trkpt lat="47.3193" lon="-2.40517">
        <ele>58.400001525879</ele>
        <time>2020-10-04T07:56:30.000Z</time>
      </trkpt>
      <trkpt lat="47.31934" lon="-2.40521">
        <ele>59.200000762939</ele>
        <time>2020-10-04T07:56:31.000Z</time>
      </trkpt>
      <trkpt lat="47.31939" lon="-2.40524">
        <ele>59.599998474121</ele>
        <time>2020-10-04T07:56:32.000Z</time>
      </trkpt>
      <trkpt lat="47.31948" lon="-2.40531">
        <ele>59.599998474121</ele>
        <time>2020-10-04T07:56:34.000Z</time>
      </trkpt>
      <trkpt lat="47.31952" lon="-2.40534">
        <ele>59.599998474121</ele>
        <time>2020-10-04T07:56:35.000Z</time>
      </trkpt>
      <trkpt lat="47.31975" lon="-2.40551">
        <ele>59.599998474121</ele>
        <time>2020-10-04T07:56:40.000Z</time>
      </trkpt>
      <trkpt lat="47.32008" lon="-2.4058">
        <ele>59.599998474121</ele>
        <time>2020-10-04T07:56:47.000Z</time>
      </trkpt>
      <trkpt lat="47.32033" lon="-2.406">
        <ele>60</ele>
        <time>2020-10-04T07:56:53.000Z</time>
      </trkpt>
      <trkpt lat="47.32038" lon="-2.40603">
        <ele>60.400001525879</ele>
        <time>2020-10-04T07:56:54.000Z</time>
      </trkpt>
      <trkpt lat="47.32042" lon="-2.40605">
        <ele>61.400001525879</ele>
        <time>2020-10-04T07:56:55.000Z</time>
      </trkpt>
      <trkpt lat="47.32046" lon="-2.4061">
        <ele>61.799999237061</ele>
        <time>2020-10-04T07:56:56.000Z</time>
      </trkpt>
      <trkpt lat="47.32062" lon="-2.40627">
        <ele>61.799999237061</ele>
        <time>2020-10-04T07:57:00.000Z</time>
      </trkpt>
      <trkpt lat="47.32085" lon="-2.40648">
        <ele>61.799999237061</ele>
        <time>2020-10-04T07:57:05.000Z</time>
      </trkpt>
      <trkpt lat="47.32115" lon="-2.40678">
        <ele>61.799999237061</ele>
        <time>2020-10-04T07:57:12.000Z</time>
      </trkpt>
      <trkpt lat="47.32145" lon="-2.40711">
        <ele>61.799999237061</ele>
        <time>2020-10-04T07:57:19.000Z</time>
      </trkpt>
      <trkpt lat="47.32183" lon="-2.40758">
        <ele>61.799999237061</ele>
        <time>2020-10-04T07:57:28.000Z</time>
      </trkpt>
      <trkpt lat="47.32205" lon="-2.4079">
        <ele>61.799999237061</ele>
        <time>2020-10-04T07:57:35.000Z</time>
      </trkpt>
      <trkpt lat="47.32215" lon="-2.40807">
        <ele>61.799999237061</ele>
        <time>2020-10-04T07:57:40.000Z</time>
      </trkpt>
      <trkpt lat="47.32228" lon="-2.40823">
        <ele>61.799999237061</ele>
        <time>2020-10-04T07:57:45.000Z</time>
      </trkpt>
      <trkpt lat="47.32231" lon="-2.40828">
        <ele>62.200000762939</ele>
        <time>2020-10-04T07:57:46.000Z</time>
      </trkpt>
      <trkpt lat="47.32234" lon="-2.40832">
        <ele>62.599998474121</ele>
        <time>2020-10-04T07:57:47.000Z</time>
      </trkpt>
      <trkpt lat="47.32237" lon="-2.40837">
        <ele>63.200000762939</ele>
        <time>2020-10-04T07:57:48.000Z</time>
      </trkpt>
      <trkpt lat="47.32239" lon="-2.40842">
        <ele>63.599998474121</ele>
        <time>2020-10-04T07:57:49.000Z</time>
      </trkpt>
      <trkpt lat="47.32242" lon="-2.40847">
        <ele>64</ele>
        <time>2020-10-04T07:57:50.000Z</time>
      </trkpt>
      <trkpt lat="47.32245" lon="-2.40853">
        <ele>64</ele>
        <time>2020-10-04T07:57:51.000Z</time>
      </trkpt>
      <trkpt lat="47.32272" lon="-2.40901">
        <ele>64</ele>
        <time>2020-10-04T07:58:00.000Z</time>
      </trkpt>
      <trkpt lat="47.32297" lon="-2.40947">
        <ele>64</ele>
        <time>2020-10-04T07:58:08.000Z</time>
      </trkpt>
      <trkpt lat="47.32317" lon="-2.40986">
        <ele>64</ele>
        <time>2020-10-04T07:58:15.000Z</time>
      </trkpt>
      <trkpt lat="47.32329" lon="-2.41008">
        <ele>64.400001525879</ele>
        <time>2020-10-04T07:58:19.000Z</time>
      </trkpt>
      <trkpt lat="47.32332" lon="-2.41014">
        <ele>64.800003051758</ele>
        <time>2020-10-04T07:58:20.000Z</time>
      </trkpt>
      <trkpt lat="47.32335" lon="-2.41019">
        <ele>65.199996948242</ele>
        <time>2020-10-04T07:58:21.000Z</time>
      </trkpt>
      <trkpt lat="47.32338" lon="-2.41024">
        <ele>65.599998474121</ele>
        <time>2020-10-04T07:58:22.000Z</time>
      </trkpt>
      <trkpt lat="47.32341" lon="-2.4103">
        <ele>66.199996948242</ele>
        <time>2020-10-04T07:58:23.000Z</time>
      </trkpt>
      <trkpt lat="47.32364" lon="-2.41073">
        <ele>66.199996948242</ele>
        <time>2020-10-04T07:58:31.000Z</time>
      </trkpt>
      <trkpt lat="47.32369" lon="-2.41079">
        <ele>66.199996948242</ele>
        <time>2020-10-04T07:58:33.000Z</time>
      </trkpt>
      <trkpt lat="47.32373" lon="-2.41088">
        <ele>66.199996948242</ele>
        <time>2020-10-04T07:58:35.000Z</time>
      </trkpt>
      <trkpt lat="47.32391" lon="-2.41124">
        <ele>66.199996948242</ele>
        <time>2020-10-04T07:58:42.000Z</time>
      </trkpt>
      <trkpt lat="47.32415" lon="-2.41169">
        <ele>66.199996948242</ele>
        <time>2020-10-04T07:58:51.000Z</time>
      </trkpt>
      <trkpt lat="47.32431" lon="-2.41198">
        <ele>66.199996948242</ele>
        <time>2020-10-04T07:58:57.000Z</time>
      </trkpt>
      <trkpt lat="47.32434" lon="-2.41204">
        <ele>66.199996948242</ele>
        <time>2020-10-04T07:58:58.000Z</time>
      </trkpt>
      <trkpt lat="47.32445" lon="-2.41226">
        <ele>66.199996948242</ele>
        <time>2020-10-04T07:59:02.000Z</time>
      </trkpt>
      <trkpt lat="47.32466" lon="-2.41267">
        <ele>66.199996948242</ele>
        <time>2020-10-04T07:59:09.000Z</time>
      </trkpt>
      <trkpt lat="47.32495" lon="-2.41322">
        <ele>66.199996948242</ele>
        <time>2020-10-04T07:59:18.000Z</time>
      </trkpt>
      <trkpt lat="47.32526" lon="-2.41378">
        <ele>66.199996948242</ele>
        <time>2020-10-04T07:59:27.000Z</time>
      </trkpt>
      <trkpt lat="47.3255" lon="-2.41425">
        <ele>66.199996948242</ele>
        <time>2020-10-04T07:59:35.000Z</time>
      </trkpt>
      <trkpt lat="47.32568" lon="-2.41457">
        <ele>66.199996948242</ele>
        <time>2020-10-04T07:59:42.000Z</time>
      </trkpt>
      <trkpt lat="47.3257" lon="-2.41462">
        <ele>66.199996948242</ele>
        <time>2020-10-04T07:59:43.000Z</time>
      </trkpt>
      <trkpt lat="47.32573" lon="-2.41472">
        <ele>66.199996948242</ele>
        <time>2020-10-04T07:59:46.000Z</time>
      </trkpt>
      <trkpt lat="47.32575" lon="-2.41498">
        <ele>66.199996948242</ele>
        <time>2020-10-04T07:59:51.000Z</time>
      </trkpt>
      <trkpt lat="47.32577" lon="-2.4151">
        <ele>66.199996948242</ele>
        <time>2020-10-04T07:59:53.000Z</time>
      </trkpt>
      <trkpt lat="47.32583" lon="-2.41518">
        <ele>66.199996948242</ele>
        <time>2020-10-04T07:59:55.000Z</time>
      </trkpt>
      <trkpt lat="47.32598" lon="-2.41522">
        <ele>66.199996948242</ele>
        <time>2020-10-04T07:59:58.000Z</time>
      </trkpt>
      <trkpt lat="47.32636" lon="-2.41528">
        <ele>65.599998474121</ele>
        <time>2020-10-04T08:00:06.000Z</time>
      </trkpt>
      <trkpt lat="47.3264" lon="-2.41529">
        <ele>65.199996948242</ele>
        <time>2020-10-04T08:00:07.000Z</time>
      </trkpt>
      <trkpt lat="47.32645" lon="-2.41531">
        <ele>64.800003051758</ele>
        <time>2020-10-04T08:00:08.000Z</time>
      </trkpt>
      <trkpt lat="47.32649" lon="-2.41532">
        <ele>64.400001525879</ele>
        <time>2020-10-04T08:00:09.000Z</time>
      </trkpt>
      <trkpt lat="47.32654" lon="-2.41533">
        <ele>64</ele>
        <time>2020-10-04T08:00:10.000Z</time>
      </trkpt>
      <trkpt lat="47.32668" lon="-2.41536">
        <ele>64</ele>
        <time>2020-10-04T08:00:13.000Z</time>
      </trkpt>
      <trkpt lat="47.32672" lon="-2.41535">
        <ele>64</ele>
        <time>2020-10-04T08:00:14.000Z</time>
      </trkpt>
      <trkpt lat="47.32682" lon="-2.41537">
        <ele>64</ele>
        <time>2020-10-04T08:00:16.000Z</time>
      </trkpt>
      <trkpt lat="47.32686" lon="-2.41538">
        <ele>63.599998474121</ele>
        <time>2020-10-04T08:00:17.000Z</time>
      </trkpt>
      <trkpt lat="47.3269" lon="-2.41539">
        <ele>63.200000762939</ele>
        <time>2020-10-04T08:00:18.000Z</time>
      </trkpt>
      <trkpt lat="47.32694" lon="-2.4154">
        <ele>62.799999237061</ele>
        <time>2020-10-04T08:00:19.000Z</time>
      </trkpt>
      <trkpt lat="47.32697" lon="-2.41541">
        <ele>62.400001525879</ele>
        <time>2020-10-04T08:00:20.000Z</time>
      </trkpt>
      <trkpt lat="47.327" lon="-2.41541">
        <ele>62</ele>
        <time>2020-10-04T08:00:21.000Z</time>
      </trkpt>
      <trkpt lat="47.32705" lon="-2.41546">
        <ele>62</ele>
        <time>2020-10-04T08:00:23.000Z</time>
      </trkpt>
      <trkpt lat="47.32705" lon="-2.41551">
        <ele>62</ele>
        <time>2020-10-04T08:00:24.000Z</time>
      </trkpt>
      <trkpt lat="47.32703" lon="-2.41559">
        <ele>62</ele>
        <time>2020-10-04T08:00:26.000Z</time>
      </trkpt>
      <trkpt lat="47.32703" lon="-2.41578">
        <ele>62</ele>
        <time>2020-10-04T08:00:31.000Z</time>
      </trkpt>
      <trkpt lat="47.32705" lon="-2.41579">
        <ele>62</ele>
        <time>2020-10-04T08:00:32.000Z</time>
      </trkpt>
      <trkpt lat="47.32706" lon="-2.41592">
        <ele>62</ele>
        <time>2020-10-04T08:00:35.000Z</time>
      </trkpt>
      <trkpt lat="47.32713" lon="-2.41615">
        <ele>62</ele>
        <time>2020-10-04T08:00:39.000Z</time>
      </trkpt>
      <trkpt lat="47.32716" lon="-2.41621">
        <ele>62</ele>
        <time>2020-10-04T08:00:40.000Z</time>
      </trkpt>
      <trkpt lat="47.32719" lon="-2.41634">
        <ele>62</ele>
        <time>2020-10-04T08:00:42.000Z</time>
      </trkpt>
      <trkpt lat="47.32718" lon="-2.41649">
        <ele>62</ele>
        <time>2020-10-04T08:00:44.000Z</time>
      </trkpt>
      <trkpt lat="47.32716" lon="-2.41662">
        <ele>62</ele>
        <time>2020-10-04T08:00:46.000Z</time>
      </trkpt>
      <trkpt lat="47.32713" lon="-2.41697">
        <ele>62</ele>
        <time>2020-10-04T08:00:51.000Z</time>
      </trkpt>
      <trkpt lat="47.32708" lon="-2.41738">
        <ele>62</ele>
        <time>2020-10-04T08:00:57.000Z</time>
      </trkpt>
      <trkpt lat="47.32708" lon="-2.41751">
        <ele>61.599998474121</ele>
        <time>2020-10-04T08:00:59.000Z</time>
      </trkpt>
      <trkpt lat="47.32707" lon="-2.41757">
        <ele>61</ele>
        <time>2020-10-04T08:01:00.000Z</time>
      </trkpt>
      <trkpt lat="47.32707" lon="-2.41763">
        <ele>60.599998474121</ele>
        <time>2020-10-04T08:01:01.000Z</time>
      </trkpt>
      <trkpt lat="47.32709" lon="-2.41769">
        <ele>60.200000762939</ele>
        <time>2020-10-04T08:01:02.000Z</time>
      </trkpt>
      <trkpt lat="47.32712" lon="-2.41773">
        <ele>59.799999237061</ele>
        <time>2020-10-04T08:01:03.000Z</time>
      </trkpt>
      <trkpt lat="47.32719" lon="-2.41779">
        <ele>59.799999237061</ele>
        <time>2020-10-04T08:01:05.000Z</time>
      </trkpt>
      <trkpt lat="47.32723" lon="-2.41784">
        <ele>59.799999237061</ele>
        <time>2020-10-04T08:01:06.000Z</time>
      </trkpt>
      <trkpt lat="47.32726" lon="-2.41788">
        <ele>59.799999237061</ele>
        <time>2020-10-04T08:01:07.000Z</time>
      </trkpt>
      <trkpt lat="47.32744" lon="-2.41821">
        <ele>59.799999237061</ele>
        <time>2020-10-04T08:01:13.000Z</time>
      </trkpt>
      <trkpt lat="47.32766" lon="-2.41871">
        <ele>59.799999237061</ele>
        <time>2020-10-04T08:01:21.000Z</time>
      </trkpt>
      <trkpt lat="47.32789" lon="-2.41924">
        <ele>59.799999237061</ele>
        <time>2020-10-04T08:01:29.000Z</time>
      </trkpt>
      <trkpt lat="47.32797" lon="-2.41941">
        <ele>59.400001525879</ele>
        <time>2020-10-04T08:01:32.000Z</time>
      </trkpt>
      <trkpt lat="47.328" lon="-2.41947">
        <ele>59</ele>
        <time>2020-10-04T08:01:33.000Z</time>
      </trkpt>
      <trkpt lat="47.32802" lon="-2.41953">
        <ele>58.599998474121</ele>
        <time>2020-10-04T08:01:34.000Z</time>
      </trkpt>
      <trkpt lat="47.32803" lon="-2.4196">
        <ele>58.200000762939</ele>
        <time>2020-10-04T08:01:35.000Z</time>
      </trkpt>
      <trkpt lat="47.32804" lon="-2.41967">
        <ele>57.799999237061</ele>
        <time>2020-10-04T08:01:36.000Z</time>
      </trkpt>
      <trkpt lat="47.32804" lon="-2.41973">
        <ele>57.799999237061</ele>
        <time>2020-10-04T08:01:37.000Z</time>
      </trkpt>
      <trkpt lat="47.3281" lon="-2.41997">
        <ele>57.799999237061</ele>
        <time>2020-10-04T08:01:41.000Z</time>
      </trkpt>
      <trkpt lat="47.32813" lon="-2.41998">
        <ele>57.799999237061</ele>
        <time>2020-10-04T08:01:42.000Z</time>
      </trkpt>
      <trkpt lat="47.32821" lon="-2.42002">
        <ele>57.799999237061</ele>
        <time>2020-10-04T08:01:44.000Z</time>
      </trkpt>
      <trkpt lat="47.32829" lon="-2.42014">
        <ele>57.799999237061</ele>
        <time>2020-10-04T08:01:47.000Z</time>
      </trkpt>
      <trkpt lat="47.32832" lon="-2.4202">
        <ele>57.799999237061</ele>
        <time>2020-10-04T08:01:48.000Z</time>
      </trkpt>
      <trkpt lat="47.32844" lon="-2.42052">
        <ele>57.799999237061</ele>
        <time>2020-10-04T08:01:53.000Z</time>
      </trkpt>
      <trkpt lat="47.32847" lon="-2.42058">
        <ele>57.400001525879</ele>
        <time>2020-10-04T08:01:54.000Z</time>
      </trkpt>
      <trkpt lat="47.32849" lon="-2.42065">
        <ele>57</ele>
        <time>2020-10-04T08:01:55.000Z</time>
      </trkpt>
      <trkpt lat="47.32852" lon="-2.42071">
        <ele>56.599998474121</ele>
        <time>2020-10-04T08:01:56.000Z</time>
      </trkpt>
      <trkpt lat="47.32854" lon="-2.42077">
        <ele>56.200000762939</ele>
        <time>2020-10-04T08:01:57.000Z</time>
      </trkpt>
      <trkpt lat="47.32857" lon="-2.42083">
        <ele>55.799999237061</ele>
        <time>2020-10-04T08:01:58.000Z</time>
      </trkpt>
      <trkpt lat="47.32864" lon="-2.421">
        <ele>55.799999237061</ele>
        <time>2020-10-04T08:02:01.000Z</time>
      </trkpt>
      <trkpt lat="47.32865" lon="-2.42106">
        <ele>55.799999237061</ele>
        <time>2020-10-04T08:02:02.000Z</time>
      </trkpt>
      <trkpt lat="47.3287" lon="-2.42124">
        <ele>55.799999237061</ele>
        <time>2020-10-04T08:02:05.000Z</time>
      </trkpt>
      <trkpt lat="47.32873" lon="-2.42131">
        <ele>55.799999237061</ele>
        <time>2020-10-04T08:02:06.000Z</time>
      </trkpt>
      <trkpt lat="47.32882" lon="-2.42155">
        <ele>55.799999237061</ele>
        <time>2020-10-04T08:02:10.000Z</time>
      </trkpt>
      <trkpt lat="47.32891" lon="-2.42177">
        <ele>55.799999237061</ele>
        <time>2020-10-04T08:02:14.000Z</time>
      </trkpt>
      <trkpt lat="47.32894" lon="-2.42181">
        <ele>55.799999237061</ele>
        <time>2020-10-04T08:02:15.000Z</time>
      </trkpt>
      <trkpt lat="47.32906" lon="-2.42188">
        <ele>55.799999237061</ele>
        <time>2020-10-04T08:02:18.000Z</time>
      </trkpt>
      <trkpt lat="47.32909" lon="-2.42191">
        <ele>55.799999237061</ele>
        <time>2020-10-04T08:02:19.000Z</time>
      </trkpt>
      <trkpt lat="47.32912" lon="-2.42195">
        <ele>55.799999237061</ele>
        <time>2020-10-04T08:02:20.000Z</time>
      </trkpt>
      <trkpt lat="47.3292" lon="-2.42212">
        <ele>55.799999237061</ele>
        <time>2020-10-04T08:02:23.000Z</time>
      </trkpt>
      <trkpt lat="47.32922" lon="-2.42218">
        <ele>56.200000762939</ele>
        <time>2020-10-04T08:02:24.000Z</time>
      </trkpt>
      <trkpt lat="47.32925" lon="-2.42223">
        <ele>56.599998474121</ele>
        <time>2020-10-04T08:02:25.000Z</time>
      </trkpt>
      <trkpt lat="47.32927" lon="-2.42229">
        <ele>57</ele>
        <time>2020-10-04T08:02:26.000Z</time>
      </trkpt>
      <trkpt lat="47.3293" lon="-2.42235">
        <ele>57.400001525879</ele>
        <time>2020-10-04T08:02:27.000Z</time>
      </trkpt>
      <trkpt lat="47.32932" lon="-2.42241">
        <ele>57.799999237061</ele>
        <time>2020-10-04T08:02:28.000Z</time>
      </trkpt>
      <trkpt lat="47.3294" lon="-2.42259">
        <ele>57.799999237061</ele>
        <time>2020-10-04T08:02:31.000Z</time>
      </trkpt>
      <trkpt lat="47.32957" lon="-2.42299">
        <ele>57.799999237061</ele>
        <time>2020-10-04T08:02:38.000Z</time>
      </trkpt>
      <trkpt lat="47.32975" lon="-2.42345">
        <ele>57.799999237061</ele>
        <time>2020-10-04T08:02:46.000Z</time>
      </trkpt>
      <trkpt lat="47.32992" lon="-2.42386">
        <ele>57.799999237061</ele>
        <time>2020-10-04T08:02:53.000Z</time>
      </trkpt>
      <trkpt lat="47.32996" lon="-2.42397">
        <ele>58.200000762939</ele>
        <time>2020-10-04T08:02:55.000Z</time>
      </trkpt>
      <trkpt lat="47.32998" lon="-2.42402">
        <ele>58.599998474121</ele>
        <time>2020-10-04T08:02:56.000Z</time>
      </trkpt>
      <trkpt lat="47.33" lon="-2.42407">
        <ele>59</ele>
        <time>2020-10-04T08:02:57.000Z</time>
      </trkpt>
      <trkpt lat="47.33001" lon="-2.42413">
        <ele>59.400001525879</ele>
        <time>2020-10-04T08:02:58.000Z</time>
      </trkpt>
      <trkpt lat="47.33002" lon="-2.42418">
        <ele>59.799999237061</ele>
        <time>2020-10-04T08:02:59.000Z</time>
      </trkpt>
      <trkpt lat="47.33003" lon="-2.42447">
        <ele>59.799999237061</ele>
        <time>2020-10-04T08:03:04.000Z</time>
      </trkpt>
      <trkpt lat="47.33001" lon="-2.42451">
        <ele>59.799999237061</ele>
        <time>2020-10-04T08:03:05.000Z</time>
      </trkpt>
      <trkpt lat="47.32999" lon="-2.42454">
        <ele>60.400001525879</ele>
        <time>2020-10-04T08:03:06.000Z</time>
      </trkpt>
      <trkpt lat="47.32998" lon="-2.42458">
        <ele>61</ele>
        <time>2020-10-04T08:03:07.000Z</time>
      </trkpt>
      <trkpt lat="47.32998" lon="-2.42462">
        <ele>61.400001525879</ele>
        <time>2020-10-04T08:03:08.000Z</time>
      </trkpt>
      <trkpt lat="47.32996" lon="-2.42467">
        <ele>62</ele>
        <time>2020-10-04T08:03:09.000Z</time>
      </trkpt>
      <trkpt lat="47.32994" lon="-2.42471">
        <ele>61.599998474121</ele>
        <time>2020-10-04T08:03:10.000Z</time>
      </trkpt>
      <trkpt lat="47.32991" lon="-2.42475">
        <ele>61.400001525879</ele>
        <time>2020-10-04T08:03:11.000Z</time>
      </trkpt>
      <trkpt lat="47.32987" lon="-2.42478">
        <ele>61</ele>
        <time>2020-10-04T08:03:12.000Z</time>
      </trkpt>
      <trkpt lat="47.32983" lon="-2.42481">
        <ele>60.599998474121</ele>
        <time>2020-10-04T08:03:13.000Z</time>
      </trkpt>
      <trkpt lat="47.32979" lon="-2.42485">
        <ele>60.400001525879</ele>
        <time>2020-10-04T08:03:14.000Z</time>
      </trkpt>
      <trkpt lat="47.32966" lon="-2.42495">
        <ele>60.400001525879</ele>
        <time>2020-10-04T08:03:17.000Z</time>
      </trkpt>
      <trkpt lat="47.32932" lon="-2.42527">
        <ele>60.400001525879</ele>
        <time>2020-10-04T08:03:25.000Z</time>
      </trkpt>
      <trkpt lat="47.3291" lon="-2.42556">
        <ele>60.400001525879</ele>
        <time>2020-10-04T08:03:31.000Z</time>
      </trkpt>
      <trkpt lat="47.32896" lon="-2.42577">
        <ele>60.400001525879</ele>
        <time>2020-10-04T08:03:35.000Z</time>
      </trkpt>
      <trkpt lat="47.32893" lon="-2.4259">
        <ele>60.400001525879</ele>
        <time>2020-10-04T08:03:37.000Z</time>
      </trkpt>
      <trkpt lat="47.32886" lon="-2.42634">
        <ele>60.400001525879</ele>
        <time>2020-10-04T08:03:44.000Z</time>
      </trkpt>
      <trkpt lat="47.32878" lon="-2.42681">
        <ele>60.400001525879</ele>
        <time>2020-10-04T08:03:51.000Z</time>
      </trkpt>
      <trkpt lat="47.32875" lon="-2.42705">
        <ele>60.400001525879</ele>
        <time>2020-10-04T08:03:56.000Z</time>
      </trkpt>
      <trkpt lat="47.32877" lon="-2.42708">
        <ele>60.400001525879</ele>
        <time>2020-10-04T08:03:57.000Z</time>
      </trkpt>
      <trkpt lat="47.32882" lon="-2.42713">
        <ele>60.400001525879</ele>
        <time>2020-10-04T08:03:59.000Z</time>
      </trkpt>
      <trkpt lat="47.32889" lon="-2.42718">
        <ele>60.400001525879</ele>
        <time>2020-10-04T08:04:01.000Z</time>
      </trkpt>
      <trkpt lat="47.32902" lon="-2.42726">
        <ele>60.799999237061</ele>
        <time>2020-10-04T08:04:04.000Z</time>
      </trkpt>
      <trkpt lat="47.32906" lon="-2.42729">
        <ele>61.200000762939</ele>
        <time>2020-10-04T08:04:05.000Z</time>
      </trkpt>
      <trkpt lat="47.32911" lon="-2.42732">
        <ele>61.599998474121</ele>
        <time>2020-10-04T08:04:06.000Z</time>
      </trkpt>
      <trkpt lat="47.32915" lon="-2.42736">
        <ele>62</ele>
        <time>2020-10-04T08:04:07.000Z</time>
      </trkpt>
      <trkpt lat="47.32919" lon="-2.42739">
        <ele>62.400001525879</ele>
        <time>2020-10-04T08:04:08.000Z</time>
      </trkpt>
      <trkpt lat="47.32928" lon="-2.42745">
        <ele>62.400001525879</ele>
        <time>2020-10-04T08:04:10.000Z</time>
      </trkpt>
      <trkpt lat="47.32933" lon="-2.42748">
        <ele>62.400001525879</ele>
        <time>2020-10-04T08:04:11.000Z</time>
      </trkpt>
      <trkpt lat="47.32948" lon="-2.4276">
        <ele>62.400001525879</ele>
        <time>2020-10-04T08:04:14.000Z</time>
      </trkpt>
      <trkpt lat="47.32955" lon="-2.42771">
        <ele>62.400001525879</ele>
        <time>2020-10-04T08:04:16.000Z</time>
      </trkpt>
      <trkpt lat="47.32962" lon="-2.42783">
        <ele>62.400001525879</ele>
        <time>2020-10-04T08:04:18.000Z</time>
      </trkpt>
      <trkpt lat="47.3297" lon="-2.42803">
        <ele>62.400001525879</ele>
        <time>2020-10-04T08:04:21.000Z</time>
      </trkpt>
      <trkpt lat="47.32974" lon="-2.42817">
        <ele>62.400001525879</ele>
        <time>2020-10-04T08:04:23.000Z</time>
      </trkpt>
      <trkpt lat="47.32981" lon="-2.42852">
        <ele>62.400001525879</ele>
        <time>2020-10-04T08:04:28.000Z</time>
      </trkpt>
      <trkpt lat="47.32982" lon="-2.4286">
        <ele>62.400001525879</ele>
        <time>2020-10-04T08:04:29.000Z</time>
      </trkpt>
      <trkpt lat="47.32983" lon="-2.42902">
        <ele>62.400001525879</ele>
        <time>2020-10-04T08:04:35.000Z</time>
      </trkpt>
      <trkpt lat="47.32984" lon="-2.42923">
        <ele>62.400001525879</ele>
        <time>2020-10-04T08:04:39.000Z</time>
      </trkpt>
      <trkpt lat="47.32985" lon="-2.42926">
        <ele>61.799999237061</ele>
        <time>2020-10-04T08:04:40.000Z</time>
      </trkpt>
      <trkpt lat="47.32985" lon="-2.42931">
        <ele>61.400001525879</ele>
        <time>2020-10-04T08:04:41.000Z</time>
      </trkpt>
      <trkpt lat="47.32985" lon="-2.42936">
        <ele>60.799999237061</ele>
        <time>2020-10-04T08:04:42.000Z</time>
      </trkpt>
      <trkpt lat="47.32984" lon="-2.42941">
        <ele>60.400001525879</ele>
        <time>2020-10-04T08:04:43.000Z</time>
      </trkpt>
      <trkpt lat="47.32984" lon="-2.42947">
        <ele>60</ele>
        <time>2020-10-04T08:04:44.000Z</time>
      </trkpt>
      <trkpt lat="47.32982" lon="-2.42981">
        <ele>60</ele>
        <time>2020-10-04T08:04:49.000Z</time>
      </trkpt>
      <trkpt lat="47.32982" lon="-2.42995">
        <ele>60</ele>
        <time>2020-10-04T08:04:51.000Z</time>
      </trkpt>
      <trkpt lat="47.32984" lon="-2.43052">
        <ele>60</ele>
        <time>2020-10-04T08:04:59.000Z</time>
      </trkpt>
      <trkpt lat="47.32983" lon="-2.43074">
        <ele>60</ele>
        <time>2020-10-04T08:05:02.000Z</time>
      </trkpt>
      <trkpt lat="47.3298" lon="-2.43088">
        <ele>60</ele>
        <time>2020-10-04T08:05:04.000Z</time>
      </trkpt>
      <trkpt lat="47.32976" lon="-2.43102">
        <ele>60</ele>
        <time>2020-10-04T08:05:06.000Z</time>
      </trkpt>
      <trkpt lat="47.32965" lon="-2.43127">
        <ele>60</ele>
        <time>2020-10-04T08:05:10.000Z</time>
      </trkpt>
      <trkpt lat="47.32939" lon="-2.43163">
        <ele>60</ele>
        <time>2020-10-04T08:05:17.000Z</time>
      </trkpt>
      <trkpt lat="47.32917" lon="-2.43186">
        <ele>60</ele>
        <time>2020-10-04T08:05:22.000Z</time>
      </trkpt>
      <trkpt lat="47.32908" lon="-2.43193">
        <ele>60</ele>
        <time>2020-10-04T08:05:24.000Z</time>
      </trkpt>
      <trkpt lat="47.32867" lon="-2.43225">
        <ele>59.400001525879</ele>
        <time>2020-10-04T08:05:33.000Z</time>
      </trkpt>
      <trkpt lat="47.32862" lon="-2.43228">
        <ele>58.599998474121</ele>
        <time>2020-10-04T08:05:34.000Z</time>
      </trkpt>
      <trkpt lat="47.32857" lon="-2.43232">
        <ele>58.200000762939</ele>
        <time>2020-10-04T08:05:35.000Z</time>
      </trkpt>
      <trkpt lat="47.32853" lon="-2.43235">
        <ele>57.599998474121</ele>
        <time>2020-10-04T08:05:36.000Z</time>
      </trkpt>
      <trkpt lat="47.32828" lon="-2.4325">
        <ele>57.599998474121</ele>
        <time>2020-10-04T08:05:41.000Z</time>
      </trkpt>
      <trkpt lat="47.32794" lon="-2.43268">
        <ele>57.599998474121</ele>
        <time>2020-10-04T08:05:48.000Z</time>
      </trkpt>
      <trkpt lat="47.32775" lon="-2.43266">
        <ele>57.599998474121</ele>
        <time>2020-10-04T08:05:52.000Z</time>
      </trkpt>
      <trkpt lat="47.32764" lon="-2.43267">
        <ele>57.599998474121</ele>
        <time>2020-10-04T08:05:54.000Z</time>
      </trkpt>
      <trkpt lat="47.32744" lon="-2.43269">
        <ele>57.599998474121</ele>
        <time>2020-10-04T08:05:58.000Z</time>
      </trkpt>
      <trkpt lat="47.32727" lon="-2.43268">
        <ele>57.599998474121</ele>
        <time>2020-10-04T08:06:03.000Z</time>
      </trkpt>
      <trkpt lat="47.32715" lon="-2.4327">
        <ele>57.599998474121</ele>
        <time>2020-10-04T08:06:08.000Z</time>
      </trkpt>
      <trkpt lat="47.32714" lon="-2.43261">
        <ele>57.599998474121</ele>
        <time>2020-10-04T08:06:12.000Z</time>
      </trkpt>
      <trkpt lat="47.32714" lon="-2.43244">
        <ele>57.599998474121</ele>
        <time>2020-10-04T08:06:18.000Z</time>
      </trkpt>
      <trkpt lat="47.32714" lon="-2.43243">
        <ele>57.599998474121</ele>
        <time>2020-10-04T08:06:19.000Z</time>
      </trkpt>
      <trkpt lat="47.32713" lon="-2.43239">
        <ele>57.599998474121</ele>
        <time>2020-10-04T08:06:23.000Z</time>
      </trkpt>
      <trkpt lat="47.32711" lon="-2.43246">
        <ele>57.599998474121</ele>
        <time>2020-10-04T08:06:31.000Z</time>
      </trkpt>
      <trkpt lat="47.3271" lon="-2.43251">
        <ele>57.599998474121</ele>
        <time>2020-10-04T08:06:33.000Z</time>
      </trkpt>
      <trkpt lat="47.32711" lon="-2.4327">
        <ele>57.599998474121</ele>
        <time>2020-10-04T08:06:38.000Z</time>
      </trkpt>
      <trkpt lat="47.32715" lon="-2.43279">
        <ele>57.599998474121</ele>
        <time>2020-10-04T08:06:40.000Z</time>
      </trkpt>
      <trkpt lat="47.32719" lon="-2.43281">
        <ele>57.599998474121</ele>
        <time>2020-10-04T08:06:41.000Z</time>
      </trkpt>
      <trkpt lat="47.32731" lon="-2.4328">
        <ele>57.599998474121</ele>
        <time>2020-10-04T08:06:44.000Z</time>
      </trkpt>
      <trkpt lat="47.32739" lon="-2.43278">
        <ele>57.599998474121</ele>
        <time>2020-10-04T08:06:46.000Z</time>
      </trkpt>
      <trkpt lat="47.32754" lon="-2.43277">
        <ele>57.599998474121</ele>
        <time>2020-10-04T08:06:50.000Z</time>
      </trkpt>
      <trkpt lat="47.32756" lon="-2.43281">
        <ele>57.599998474121</ele>
        <time>2020-10-04T08:06:51.000Z</time>
      </trkpt>
      <trkpt lat="47.32761" lon="-2.43299">
        <ele>57.599998474121</ele>
        <time>2020-10-04T08:06:55.000Z</time>
      </trkpt>
      <trkpt lat="47.3276" lon="-2.43307">
        <ele>57.599998474121</ele>
        <time>2020-10-04T08:06:58.000Z</time>
      </trkpt>
      <trkpt lat="47.3276" lon="-2.43308">
        <ele>57.200000762939</ele>
        <time>2020-10-04T08:06:59.000Z</time>
      </trkpt>
      <trkpt lat="47.3276" lon="-2.43309">
        <ele>56.799999237061</ele>
        <time>2020-10-04T08:07:00.000Z</time>
      </trkpt>
      <trkpt lat="47.3276" lon="-2.43309">
        <ele>56.400001525879</ele>
        <time>2020-10-04T08:07:01.000Z</time>
      </trkpt>
      <trkpt lat="47.3276" lon="-2.43297">
        <ele>57.599998474121</ele>
        <time>2020-10-04T08:16:45.000Z</time>
      </trkpt>
      <trkpt lat="47.3276" lon="-2.43294">
        <ele>57.599998474121</ele>
        <time>2020-10-04T08:16:46.000Z</time>
      </trkpt>
      <trkpt lat="47.32755" lon="-2.43283">
        <ele>57.599998474121</ele>
        <time>2020-10-04T08:16:51.000Z</time>
      </trkpt>
      <trkpt lat="47.32745" lon="-2.43284">
        <ele>57.599998474121</ele>
        <time>2020-10-04T08:16:54.000Z</time>
      </trkpt>
      <trkpt lat="47.32742" lon="-2.43285">
        <ele>57.599998474121</ele>
        <time>2020-10-04T08:16:55.000Z</time>
      </trkpt>
      <trkpt lat="47.32709" lon="-2.4329">
        <ele>57.599998474121</ele>
        <time>2020-10-04T08:17:03.000Z</time>
      </trkpt>
      <trkpt lat="47.32693" lon="-2.43286">
        <ele>57.599998474121</ele>
        <time>2020-10-04T08:17:07.000Z</time>
      </trkpt>
      <trkpt lat="47.32684" lon="-2.43281">
        <ele>57.599998474121</ele>
        <time>2020-10-04T08:17:09.000Z</time>
      </trkpt>
      <trkpt lat="47.32676" lon="-2.43273">
        <ele>57.599998474121</ele>
        <time>2020-10-04T08:17:11.000Z</time>
      </trkpt>
      <trkpt lat="47.32663" lon="-2.43255">
        <ele>57.599998474121</ele>
        <time>2020-10-04T08:17:15.000Z</time>
      </trkpt>
      <trkpt lat="47.32648" lon="-2.43221">
        <ele>57.599998474121</ele>
        <time>2020-10-04T08:17:21.000Z</time>
      </trkpt>
      <trkpt lat="47.32644" lon="-2.4321">
        <ele>57.599998474121</ele>
        <time>2020-10-04T08:17:23.000Z</time>
      </trkpt>
      <trkpt lat="47.32641" lon="-2.43198">
        <ele>58</ele>
        <time>2020-10-04T08:17:25.000Z</time>
      </trkpt>
      <trkpt lat="47.32639" lon="-2.43194">
        <ele>58.400001525879</ele>
        <time>2020-10-04T08:17:26.000Z</time>
      </trkpt>
      <trkpt lat="47.32636" lon="-2.43191">
        <ele>59</ele>
        <time>2020-10-04T08:17:27.000Z</time>
      </trkpt>
      <trkpt lat="47.32632" lon="-2.43191">
        <ele>59.400001525879</ele>
        <time>2020-10-04T08:17:28.000Z</time>
      </trkpt>
      <trkpt lat="47.32628" lon="-2.43193">
        <ele>59.799999237061</ele>
        <time>2020-10-04T08:17:29.000Z</time>
      </trkpt>
      <trkpt lat="47.32605" lon="-2.43208">
        <ele>59.799999237061</ele>
        <time>2020-10-04T08:17:34.000Z</time>
      </trkpt>
      <trkpt lat="47.32589" lon="-2.43221">
        <ele>59.799999237061</ele>
        <time>2020-10-04T08:17:37.000Z</time>
      </trkpt>
      <trkpt lat="47.32581" lon="-2.43233">
        <ele>59.799999237061</ele>
        <time>2020-10-04T08:17:39.000Z</time>
      </trkpt>
      <trkpt lat="47.32567" lon="-2.43252">
        <ele>59.799999237061</ele>
        <time>2020-10-04T08:17:42.000Z</time>
      </trkpt>
      <trkpt lat="47.32557" lon="-2.43274">
        <ele>59.799999237061</ele>
        <time>2020-10-04T08:17:45.000Z</time>
      </trkpt>
      <trkpt lat="47.32555" lon="-2.43282">
        <ele>59.799999237061</ele>
        <time>2020-10-04T08:17:46.000Z</time>
      </trkpt>
      <trkpt lat="47.32552" lon="-2.43291">
        <ele>59.200000762939</ele>
        <time>2020-10-04T08:17:47.000Z</time>
      </trkpt>
      <trkpt lat="47.32551" lon="-2.43299">
        <ele>58.799999237061</ele>
        <time>2020-10-04T08:17:48.000Z</time>
      </trkpt>
      <trkpt lat="47.32548" lon="-2.43307">
        <ele>58.200000762939</ele>
        <time>2020-10-04T08:17:49.000Z</time>
      </trkpt>
      <trkpt lat="47.32547" lon="-2.43315">
        <ele>57.799999237061</ele>
        <time>2020-10-04T08:17:50.000Z</time>
      </trkpt>
      <trkpt lat="47.32545" lon="-2.43322">
        <ele>57.400001525879</ele>
        <time>2020-10-04T08:17:51.000Z</time>
      </trkpt>
      <trkpt lat="47.32539" lon="-2.43371">
        <ele>57</ele>
        <time>2020-10-04T08:17:57.000Z</time>
      </trkpt>
      <trkpt lat="47.32537" lon="-2.43379">
        <ele>56.400001525879</ele>
        <time>2020-10-04T08:17:58.000Z</time>
      </trkpt>
      <trkpt lat="47.32535" lon="-2.43387">
        <ele>56</ele>
        <time>2020-10-04T08:17:59.000Z</time>
      </trkpt>
      <trkpt lat="47.32533" lon="-2.43395">
        <ele>55.599998474121</ele>
        <time>2020-10-04T08:18:00.000Z</time>
      </trkpt>
      <trkpt lat="47.3253" lon="-2.43403">
        <ele>55.200000762939</ele>
        <time>2020-10-04T08:18:01.000Z</time>
      </trkpt>
      <trkpt lat="47.32523" lon="-2.43416">
        <ele>55.200000762939</ele>
        <time>2020-10-04T08:18:03.000Z</time>
      </trkpt>
      <trkpt lat="47.32515" lon="-2.43425">
        <ele>54.799999237061</ele>
        <time>2020-10-04T08:18:05.000Z</time>
      </trkpt>
      <trkpt lat="47.32512" lon="-2.4343">
        <ele>54.400001525879</ele>
        <time>2020-10-04T08:18:06.000Z</time>
      </trkpt>
      <trkpt lat="47.32509" lon="-2.43433">
        <ele>54</ele>
        <time>2020-10-04T08:18:07.000Z</time>
      </trkpt>
      <trkpt lat="47.32505" lon="-2.43434">
        <ele>53.400001525879</ele>
        <time>2020-10-04T08:18:08.000Z</time>
      </trkpt>
      <trkpt lat="47.32502" lon="-2.43436">
        <ele>53</ele>
        <time>2020-10-04T08:18:09.000Z</time>
      </trkpt>
      <trkpt lat="47.32495" lon="-2.43447">
        <ele>53</ele>
        <time>2020-10-04T08:18:12.000Z</time>
      </trkpt>
      <trkpt lat="47.32493" lon="-2.43452">
        <ele>53</ele>
        <time>2020-10-04T08:18:13.000Z</time>
      </trkpt>
      <trkpt lat="47.32483" lon="-2.43466">
        <ele>53</ele>
        <time>2020-10-04T08:18:16.000Z</time>
      </trkpt>
      <trkpt lat="47.32476" lon="-2.43476">
        <ele>53</ele>
        <time>2020-10-04T08:18:19.000Z</time>
      </trkpt>
      <trkpt lat="47.32447" lon="-2.43502">
        <ele>53</ele>
        <time>2020-10-04T08:18:26.000Z</time>
      </trkpt>
      <trkpt lat="47.32418" lon="-2.43534">
        <ele>53</ele>
        <time>2020-10-04T08:18:33.000Z</time>
      </trkpt>
      <trkpt lat="47.32408" lon="-2.43561">
        <ele>53</ele>
        <time>2020-10-04T08:18:37.000Z</time>
      </trkpt>
      <trkpt lat="47.32405" lon="-2.43568">
        <ele>53</ele>
        <time>2020-10-04T08:18:38.000Z</time>
      </trkpt>
      <trkpt lat="47.32391" lon="-2.43624">
        <ele>53</ele>
        <time>2020-10-04T08:18:45.000Z</time>
      </trkpt>
      <trkpt lat="47.32379" lon="-2.43691">
        <ele>53</ele>
        <time>2020-10-04T08:18:53.000Z</time>
      </trkpt>
      <trkpt lat="47.32368" lon="-2.43749">
        <ele>53</ele>
        <time>2020-10-04T08:19:00.000Z</time>
      </trkpt>
      <trkpt lat="47.32345" lon="-2.43819">
        <ele>53</ele>
        <time>2020-10-04T08:19:09.000Z</time>
      </trkpt>
      <trkpt lat="47.32328" lon="-2.43884">
        <ele>53</ele>
        <time>2020-10-04T08:19:17.000Z</time>
      </trkpt>
      <trkpt lat="47.32326" lon="-2.43893">
        <ele>52.599998474121</ele>
        <time>2020-10-04T08:19:18.000Z</time>
      </trkpt>
      <trkpt lat="47.32324" lon="-2.43901">
        <ele>52.200000762939</ele>
        <time>2020-10-04T08:19:19.000Z</time>
      </trkpt>
      <trkpt lat="47.32322" lon="-2.4391">
        <ele>51.799999237061</ele>
        <time>2020-10-04T08:19:20.000Z</time>
      </trkpt>
      <trkpt lat="47.32321" lon="-2.43919">
        <ele>51.200000762939</ele>
        <time>2020-10-04T08:19:21.000Z</time>
      </trkpt>
      <trkpt lat="47.32319" lon="-2.43927">
        <ele>50.799999237061</ele>
        <time>2020-10-04T08:19:22.000Z</time>
      </trkpt>
      <trkpt lat="47.32312" lon="-2.43962">
        <ele>50.799999237061</ele>
        <time>2020-10-04T08:19:26.000Z</time>
      </trkpt>
      <trkpt lat="47.32307" lon="-2.43979">
        <ele>50.799999237061</ele>
        <time>2020-10-04T08:19:28.000Z</time>
      </trkpt>
      <trkpt lat="47.32299" lon="-2.43996">
        <ele>50.799999237061</ele>
        <time>2020-10-04T08:19:30.000Z</time>
      </trkpt>
      <trkpt lat="47.32293" lon="-2.44002">
        <ele>50.400001525879</ele>
        <time>2020-10-04T08:19:31.000Z</time>
      </trkpt>
      <trkpt lat="47.32288" lon="-2.44008">
        <ele>50</ele>
        <time>2020-10-04T08:19:32.000Z</time>
      </trkpt>
      <trkpt lat="47.32282" lon="-2.44014">
        <ele>49.400001525879</ele>
        <time>2020-10-04T08:19:33.000Z</time>
      </trkpt>
      <trkpt lat="47.32276" lon="-2.44019">
        <ele>49</ele>
        <time>2020-10-04T08:19:34.000Z</time>
      </trkpt>
      <trkpt lat="47.3227" lon="-2.44024">
        <ele>48.400001525879</ele>
        <time>2020-10-04T08:19:35.000Z</time>
      </trkpt>
      <trkpt lat="47.32261" lon="-2.44031">
        <ele>48</ele>
        <time>2020-10-04T08:19:37.000Z</time>
      </trkpt>
      <trkpt lat="47.32259" lon="-2.44034">
        <ele>47.400001525879</ele>
        <time>2020-10-04T08:19:38.000Z</time>
      </trkpt>
      <trkpt lat="47.32257" lon="-2.44038">
        <ele>47</ele>
        <time>2020-10-04T08:19:39.000Z</time>
      </trkpt>
      <trkpt lat="47.32257" lon="-2.44043">
        <ele>46.599998474121</ele>
        <time>2020-10-04T08:19:40.000Z</time>
      </trkpt>
      <trkpt lat="47.32259" lon="-2.44046">
        <ele>46</ele>
        <time>2020-10-04T08:19:41.000Z</time>
      </trkpt>
      <trkpt lat="47.3227" lon="-2.4405">
        <ele>46</ele>
        <time>2020-10-04T08:19:45.000Z</time>
      </trkpt>
      <trkpt lat="47.32292" lon="-2.44054">
        <ele>46</ele>
        <time>2020-10-04T08:19:51.000Z</time>
      </trkpt>
      <trkpt lat="47.3232" lon="-2.44065">
        <ele>46</ele>
        <time>2020-10-04T08:19:57.000Z</time>
      </trkpt>
      <trkpt lat="47.32347" lon="-2.44072">
        <ele>46</ele>
        <time>2020-10-04T08:20:03.000Z</time>
      </trkpt>
      <trkpt lat="47.32357" lon="-2.44072">
        <ele>46</ele>
        <time>2020-10-04T08:20:05.000Z</time>
      </trkpt>
      <trkpt lat="47.3237" lon="-2.44068">
        <ele>46.400001525879</ele>
        <time>2020-10-04T08:20:08.000Z</time>
      </trkpt>
      <trkpt lat="47.32375" lon="-2.44066">
        <ele>46.799999237061</ele>
        <time>2020-10-04T08:20:09.000Z</time>
      </trkpt>
      <trkpt lat="47.32379" lon="-2.44064">
        <ele>47.200000762939</ele>
        <time>2020-10-04T08:20:10.000Z</time>
      </trkpt>
      <trkpt lat="47.32383" lon="-2.44062">
        <ele>47.599998474121</ele>
        <time>2020-10-04T08:20:11.000Z</time>
      </trkpt>
      <trkpt lat="47.32388" lon="-2.4406">
        <ele>48.200000762939</ele>
        <time>2020-10-04T08:20:12.000Z</time>
      </trkpt>
      <trkpt lat="47.32415" lon="-2.44043">
        <ele>48.599998474121</ele>
        <time>2020-10-04T08:20:19.000Z</time>
      </trkpt>
      <trkpt lat="47.32419" lon="-2.4404">
        <ele>49</ele>
        <time>2020-10-04T08:20:20.000Z</time>
      </trkpt>
      <trkpt lat="47.32423" lon="-2.44037">
        <ele>49.400001525879</ele>
        <time>2020-10-04T08:20:21.000Z</time>
      </trkpt>
      <trkpt lat="47.32427" lon="-2.44035">
        <ele>49.799999237061</ele>
        <time>2020-10-04T08:20:22.000Z</time>
      </trkpt>
      <trkpt lat="47.32431" lon="-2.44032">
        <ele>50.200000762939</ele>
        <time>2020-10-04T08:20:23.000Z</time>
      </trkpt>
      <trkpt lat="47.32439" lon="-2.44027">
        <ele>50.200000762939</ele>
        <time>2020-10-04T08:20:25.000Z</time>
      </trkpt>
      <trkpt lat="47.32443" lon="-2.44024">
        <ele>50.200000762939</ele>
        <time>2020-10-04T08:20:26.000Z</time>
      </trkpt>
      <trkpt lat="47.32473" lon="-2.44003">
        <ele>50.599998474121</ele>
        <time>2020-10-04T08:20:34.000Z</time>
      </trkpt>
      <trkpt lat="47.32476" lon="-2.44">
        <ele>51</ele>
        <time>2020-10-04T08:20:35.000Z</time>
      </trkpt>
      <trkpt lat="47.32479" lon="-2.43999">
        <ele>51.599998474121</ele>
        <time>2020-10-04T08:20:36.000Z</time>
      </trkpt>
      <trkpt lat="47.32482" lon="-2.43996">
        <ele>52</ele>
        <time>2020-10-04T08:20:37.000Z</time>
      </trkpt>
      <trkpt lat="47.32485" lon="-2.43994">
        <ele>52.400001525879</ele>
        <time>2020-10-04T08:20:38.000Z</time>
      </trkpt>
      <trkpt lat="47.32488" lon="-2.43993">
        <ele>52.400001525879</ele>
        <time>2020-10-04T08:20:39.000Z</time>
      </trkpt>
      <trkpt lat="47.32507" lon="-2.43982">
        <ele>52.400001525879</ele>
        <time>2020-10-04T08:20:46.000Z</time>
      </trkpt>
      <trkpt lat="47.32521" lon="-2.43978">
        <ele>52.400001525879</ele>
        <time>2020-10-04T08:20:52.000Z</time>
      </trkpt>
      <trkpt lat="47.32538" lon="-2.43971">
        <ele>52.400001525879</ele>
        <time>2020-10-04T08:20:58.000Z</time>
      </trkpt>
      <trkpt lat="47.32542" lon="-2.43969">
        <ele>52.799999237061</ele>
        <time>2020-10-04T08:20:59.000Z</time>
      </trkpt>
      <trkpt lat="47.32546" lon="-2.43969">
        <ele>53.200000762939</ele>
        <time>2020-10-04T08:21:00.000Z</time>
      </trkpt>
      <trkpt lat="47.3255" lon="-2.43969">
        <ele>53.599998474121</ele>
        <time>2020-10-04T08:21:01.000Z</time>
      </trkpt>
      <trkpt lat="47.32554" lon="-2.43968">
        <ele>54.200000762939</ele>
        <time>2020-10-04T08:21:02.000Z</time>
      </trkpt>
      <trkpt lat="47.32557" lon="-2.43967">
        <ele>54.599998474121</ele>
        <time>2020-10-04T08:21:03.000Z</time>
      </trkpt>
      <trkpt lat="47.32561" lon="-2.43965">
        <ele>54.599998474121</ele>
        <time>2020-10-04T08:21:04.000Z</time>
      </trkpt>
      <trkpt lat="47.32585" lon="-2.43962">
        <ele>54.599998474121</ele>
        <time>2020-10-04T08:21:10.000Z</time>
      </trkpt>
      <trkpt lat="47.32618" lon="-2.43967">
        <ele>54.599998474121</ele>
        <time>2020-10-04T08:21:18.000Z</time>
      </trkpt>
      <trkpt lat="47.32625" lon="-2.43976">
        <ele>54.599998474121</ele>
        <time>2020-10-04T08:21:21.000Z</time>
      </trkpt>
      <trkpt lat="47.32626" lon="-2.43981">
        <ele>54.599998474121</ele>
        <time>2020-10-04T08:21:22.000Z</time>
      </trkpt>
      <trkpt lat="47.3262" lon="-2.43998">
        <ele>54.599998474121</ele>
        <time>2020-10-04T08:21:26.000Z</time>
      </trkpt>
      <trkpt lat="47.32613" lon="-2.44004">
        <ele>54.599998474121</ele>
        <time>2020-10-04T08:21:28.000Z</time>
      </trkpt>
      <trkpt lat="47.32604" lon="-2.4401">
        <ele>54.599998474121</ele>
        <time>2020-10-04T08:21:30.000Z</time>
      </trkpt>
      <trkpt lat="47.32588" lon="-2.44025">
        <ele>54.599998474121</ele>
        <time>2020-10-04T08:21:34.000Z</time>
      </trkpt>
      <trkpt lat="47.32575" lon="-2.44038">
        <ele>54.599998474121</ele>
        <time>2020-10-04T08:21:37.000Z</time>
      </trkpt>
      <trkpt lat="47.32564" lon="-2.44059">
        <ele>54.599998474121</ele>
        <time>2020-10-04T08:21:41.000Z</time>
      </trkpt>
      <trkpt lat="47.32559" lon="-2.44068">
        <ele>54.599998474121</ele>
        <time>2020-10-04T08:21:43.000Z</time>
      </trkpt>
      <trkpt lat="47.32557" lon="-2.44074">
        <ele>54.599998474121</ele>
        <time>2020-10-04T08:21:44.000Z</time>
      </trkpt>
      <trkpt lat="47.32548" lon="-2.44105">
        <ele>54.599998474121</ele>
        <time>2020-10-04T08:21:49.000Z</time>
      </trkpt>
      <trkpt lat="47.32533" lon="-2.4416">
        <ele>54.599998474121</ele>
        <time>2020-10-04T08:21:57.000Z</time>
      </trkpt>
      <trkpt lat="47.32527" lon="-2.44181">
        <ele>54.599998474121</ele>
        <time>2020-10-04T08:22:00.000Z</time>
      </trkpt>
      <trkpt lat="47.32525" lon="-2.44195">
        <ele>54.599998474121</ele>
        <time>2020-10-04T08:22:02.000Z</time>
      </trkpt>
      <trkpt lat="47.32525" lon="-2.44202">
        <ele>54.599998474121</ele>
        <time>2020-10-04T08:22:03.000Z</time>
      </trkpt>
      <trkpt lat="47.32524" lon="-2.44226">
        <ele>54.599998474121</ele>
        <time>2020-10-04T08:22:07.000Z</time>
      </trkpt>
      <trkpt lat="47.32532" lon="-2.44251">
        <ele>54.599998474121</ele>
        <time>2020-10-04T08:22:11.000Z</time>
      </trkpt>
      <trkpt lat="47.32539" lon="-2.44262">
        <ele>54.599998474121</ele>
        <time>2020-10-04T08:22:13.000Z</time>
      </trkpt>
      <trkpt lat="47.32553" lon="-2.44289">
        <ele>54.599998474121</ele>
        <time>2020-10-04T08:22:17.000Z</time>
      </trkpt>
      <trkpt lat="47.32569" lon="-2.44333">
        <ele>54.200000762939</ele>
        <time>2020-10-04T08:22:22.000Z</time>
      </trkpt>
      <trkpt lat="47.32572" lon="-2.44342">
        <ele>53.799999237061</ele>
        <time>2020-10-04T08:22:23.000Z</time>
      </trkpt>
      <trkpt lat="47.32575" lon="-2.44351">
        <ele>53.400001525879</ele>
        <time>2020-10-04T08:22:24.000Z</time>
      </trkpt>
      <trkpt lat="47.32579" lon="-2.44359">
        <ele>52.799999237061</ele>
        <time>2020-10-04T08:22:25.000Z</time>
      </trkpt>
      <trkpt lat="47.32583" lon="-2.44365">
        <ele>52.400001525879</ele>
        <time>2020-10-04T08:22:26.000Z</time>
      </trkpt>
      <trkpt lat="47.32588" lon="-2.44371">
        <ele>52.400001525879</ele>
        <time>2020-10-04T08:22:27.000Z</time>
      </trkpt>
      <trkpt lat="47.32601" lon="-2.44382">
        <ele>52.400001525879</ele>
        <time>2020-10-04T08:22:30.000Z</time>
      </trkpt>
      <trkpt lat="47.32604" lon="-2.44384">
        <ele>52.400001525879</ele>
        <time>2020-10-04T08:22:31.000Z</time>
      </trkpt>
      <trkpt lat="47.32618" lon="-2.44392">
        <ele>52.400001525879</ele>
        <time>2020-10-04T08:22:36.000Z</time>
      </trkpt>
      <trkpt lat="47.32629" lon="-2.44412">
        <ele>52.400001525879</ele>
        <time>2020-10-04T08:22:40.000Z</time>
      </trkpt>
      <trkpt lat="47.32641" lon="-2.44441">
        <ele>52.400001525879</ele>
        <time>2020-10-04T08:22:45.000Z</time>
      </trkpt>
      <trkpt lat="47.32643" lon="-2.44448">
        <ele>52.799999237061</ele>
        <time>2020-10-04T08:22:46.000Z</time>
      </trkpt>
      <trkpt lat="47.32645" lon="-2.44454">
        <ele>53.200000762939</ele>
        <time>2020-10-04T08:22:47.000Z</time>
      </trkpt>
      <trkpt lat="47.32647" lon="-2.44461">
        <ele>53.599998474121</ele>
        <time>2020-10-04T08:22:48.000Z</time>
      </trkpt>
      <trkpt lat="47.32649" lon="-2.44468">
        <ele>54</ele>
        <time>2020-10-04T08:22:49.000Z</time>
      </trkpt>
      <trkpt lat="47.32651" lon="-2.44476">
        <ele>54.400001525879</ele>
        <time>2020-10-04T08:22:50.000Z</time>
      </trkpt>
      <trkpt lat="47.32657" lon="-2.44487">
        <ele>54.400001525879</ele>
        <time>2020-10-04T08:22:52.000Z</time>
      </trkpt>
      <trkpt lat="47.3267" lon="-2.445">
        <ele>54.400001525879</ele>
        <time>2020-10-04T08:22:56.000Z</time>
      </trkpt>
      <trkpt lat="47.32668" lon="-2.44511">
        <ele>54.400001525879</ele>
        <time>2020-10-04T08:23:00.000Z</time>
      </trkpt>
      <trkpt lat="47.32667" lon="-2.44514">
        <ele>54.400001525879</ele>
        <time>2020-10-04T08:23:01.000Z</time>
      </trkpt>
      <trkpt lat="47.32656" lon="-2.44533">
        <ele>54.400001525879</ele>
        <time>2020-10-04T08:23:05.000Z</time>
      </trkpt>
      <trkpt lat="47.32637" lon="-2.44568">
        <ele>54.400001525879</ele>
        <time>2020-10-04T08:23:11.000Z</time>
      </trkpt>
      <trkpt lat="47.32612" lon="-2.44608">
        <ele>54.400001525879</ele>
        <time>2020-10-04T08:23:18.000Z</time>
      </trkpt>
      <trkpt lat="47.32609" lon="-2.44614">
        <ele>54.400001525879</ele>
        <time>2020-10-04T08:23:19.000Z</time>
      </trkpt>
      <trkpt lat="47.32606" lon="-2.44619">
        <ele>54</ele>
        <time>2020-10-04T08:23:20.000Z</time>
      </trkpt>
      <trkpt lat="47.32602" lon="-2.44624">
        <ele>53.599998474121</ele>
        <time>2020-10-04T08:23:21.000Z</time>
      </trkpt>
      <trkpt lat="47.32599" lon="-2.44629">
        <ele>53.200000762939</ele>
        <time>2020-10-04T08:23:22.000Z</time>
      </trkpt>
      <trkpt lat="47.32595" lon="-2.44633">
        <ele>52.799999237061</ele>
        <time>2020-10-04T08:23:23.000Z</time>
      </trkpt>
      <trkpt lat="47.32591" lon="-2.44637">
        <ele>52.400001525879</ele>
        <time>2020-10-04T08:23:24.000Z</time>
      </trkpt>
      <trkpt lat="47.32587" lon="-2.44642">
        <ele>52.400001525879</ele>
        <time>2020-10-04T08:23:25.000Z</time>
      </trkpt>
      <trkpt lat="47.32568" lon="-2.4467">
        <ele>52</ele>
        <time>2020-10-04T08:23:30.000Z</time>
      </trkpt>
      <trkpt lat="47.32564" lon="-2.44676">
        <ele>51.599998474121</ele>
        <time>2020-10-04T08:23:31.000Z</time>
      </trkpt>
      <trkpt lat="47.32561" lon="-2.44682">
        <ele>51</ele>
        <time>2020-10-04T08:23:32.000Z</time>
      </trkpt>
      <trkpt lat="47.32557" lon="-2.44689">
        <ele>50.599998474121</ele>
        <time>2020-10-04T08:23:33.000Z</time>
      </trkpt>
      <trkpt lat="47.32553" lon="-2.44695">
        <ele>50.200000762939</ele>
        <time>2020-10-04T08:23:34.000Z</time>
      </trkpt>
      <trkpt lat="47.32542" lon="-2.44711">
        <ele>49.799999237061</ele>
        <time>2020-10-04T08:23:37.000Z</time>
      </trkpt>
      <trkpt lat="47.3254" lon="-2.44715">
        <ele>49.400001525879</ele>
        <time>2020-10-04T08:23:38.000Z</time>
      </trkpt>
      <trkpt lat="47.32537" lon="-2.44719">
        <ele>48.799999237061</ele>
        <time>2020-10-04T08:23:39.000Z</time>
      </trkpt>
      <trkpt lat="47.32534" lon="-2.44724">
        <ele>48.400001525879</ele>
        <time>2020-10-04T08:23:40.000Z</time>
      </trkpt>
      <trkpt lat="47.32533" lon="-2.44729">
        <ele>47.799999237061</ele>
        <time>2020-10-04T08:23:41.000Z</time>
      </trkpt>
      <trkpt lat="47.32532" lon="-2.44734">
        <ele>47</ele>
        <time>2020-10-04T08:23:42.000Z</time>
      </trkpt>
      <trkpt lat="47.3253" lon="-2.44738">
        <ele>46.599998474121</ele>
        <time>2020-10-04T08:23:43.000Z</time>
      </trkpt>
      <trkpt lat="47.32527" lon="-2.44741">
        <ele>46.200000762939</ele>
        <time>2020-10-04T08:23:44.000Z</time>
      </trkpt>
      <trkpt lat="47.32523" lon="-2.44743">
        <ele>45.799999237061</ele>
        <time>2020-10-04T08:23:45.000Z</time>
      </trkpt>
      <trkpt lat="47.32501" lon="-2.44755">
        <ele>45.799999237061</ele>
        <time>2020-10-04T08:23:51.000Z</time>
      </trkpt>
      <trkpt lat="47.32496" lon="-2.44759">
        <ele>45.400001525879</ele>
        <time>2020-10-04T08:23:52.000Z</time>
      </trkpt>
      <trkpt lat="47.32491" lon="-2.44763">
        <ele>45</ele>
        <time>2020-10-04T08:23:53.000Z</time>
      </trkpt>
      <trkpt lat="47.32486" lon="-2.44766">
        <ele>44.599998474121</ele>
        <time>2020-10-04T08:23:54.000Z</time>
      </trkpt>
      <trkpt lat="47.3248" lon="-2.4477">
        <ele>44.200000762939</ele>
        <time>2020-10-04T08:23:55.000Z</time>
      </trkpt>
      <trkpt lat="47.32474" lon="-2.44775">
        <ele>43.799999237061</ele>
        <time>2020-10-04T08:23:56.000Z</time>
      </trkpt>
      <trkpt lat="47.32447" lon="-2.44795">
        <ele>43.400001525879</ele>
        <time>2020-10-04T08:24:00.000Z</time>
      </trkpt>
      <trkpt lat="47.3244" lon="-2.44801">
        <ele>43</ele>
        <time>2020-10-04T08:24:01.000Z</time>
      </trkpt>
      <trkpt lat="47.32432" lon="-2.44807">
        <ele>42.599998474121</ele>
        <time>2020-10-04T08:24:02.000Z</time>
      </trkpt>
      <trkpt lat="47.32425" lon="-2.44812">
        <ele>42.200000762939</ele>
        <time>2020-10-04T08:24:03.000Z</time>
      </trkpt>
      <trkpt lat="47.32418" lon="-2.44817">
        <ele>41.799999237061</ele>
        <time>2020-10-04T08:24:04.000Z</time>
      </trkpt>
      <trkpt lat="47.32403" lon="-2.44827">
        <ele>41.400001525879</ele>
        <time>2020-10-04T08:24:06.000Z</time>
      </trkpt>
      <trkpt lat="47.32397" lon="-2.44832">
        <ele>40.400001525879</ele>
        <time>2020-10-04T08:24:07.000Z</time>
      </trkpt>
      <trkpt lat="47.3239" lon="-2.44838">
        <ele>40</ele>
        <time>2020-10-04T08:24:08.000Z</time>
      </trkpt>
      <trkpt lat="47.32384" lon="-2.44843">
        <ele>39.599998474121</ele>
        <time>2020-10-04T08:24:09.000Z</time>
      </trkpt>
      <trkpt lat="47.3236" lon="-2.44861">
        <ele>39.599998474121</ele>
        <time>2020-10-04T08:24:13.000Z</time>
      </trkpt>
      <trkpt lat="47.32355" lon="-2.44867">
        <ele>39.599998474121</ele>
        <time>2020-10-04T08:24:14.000Z</time>
      </trkpt>
      <trkpt lat="47.32341" lon="-2.44885">
        <ele>39.200000762939</ele>
        <time>2020-10-04T08:24:17.000Z</time>
      </trkpt>
      <trkpt lat="47.32336" lon="-2.44891">
        <ele>38.799999237061</ele>
        <time>2020-10-04T08:24:18.000Z</time>
      </trkpt>
      <trkpt lat="47.32331" lon="-2.44897">
        <ele>38.400001525879</ele>
        <time>2020-10-04T08:24:19.000Z</time>
      </trkpt>
      <trkpt lat="47.32326" lon="-2.44903">
        <ele>38</ele>
        <time>2020-10-04T08:24:20.000Z</time>
      </trkpt>
      <trkpt lat="47.32322" lon="-2.44909">
        <ele>37.599998474121</ele>
        <time>2020-10-04T08:24:21.000Z</time>
      </trkpt>
      <trkpt lat="47.32307" lon="-2.44927">
        <ele>37.599998474121</ele>
        <time>2020-10-04T08:24:24.000Z</time>
      </trkpt>
      <trkpt lat="47.32272" lon="-2.44967">
        <ele>37.599998474121</ele>
        <time>2020-10-04T08:24:31.000Z</time>
      </trkpt>
      <trkpt lat="47.32263" lon="-2.44978">
        <ele>37.200000762939</ele>
        <time>2020-10-04T08:24:33.000Z</time>
      </trkpt>
      <trkpt lat="47.32258" lon="-2.44983">
        <ele>36.799999237061</ele>
        <time>2020-10-04T08:24:34.000Z</time>
      </trkpt>
      <trkpt lat="47.32254" lon="-2.44988">
        <ele>36.400001525879</ele>
        <time>2020-10-04T08:24:35.000Z</time>
      </trkpt>
      <trkpt lat="47.32249" lon="-2.44993">
        <ele>35.799999237061</ele>
        <time>2020-10-04T08:24:36.000Z</time>
      </trkpt>
      <trkpt lat="47.32245" lon="-2.44998">
        <ele>35.400001525879</ele>
        <time>2020-10-04T08:24:37.000Z</time>
      </trkpt>
      <trkpt lat="47.3224" lon="-2.45003">
        <ele>34.799999237061</ele>
        <time>2020-10-04T08:24:38.000Z</time>
      </trkpt>
      <trkpt lat="47.32236" lon="-2.45008">
        <ele>34.400001525879</ele>
        <time>2020-10-04T08:24:39.000Z</time>
      </trkpt>
      <trkpt lat="47.32232" lon="-2.45013">
        <ele>33.799999237061</ele>
        <time>2020-10-04T08:24:40.000Z</time>
      </trkpt>
      <trkpt lat="47.32228" lon="-2.45017">
        <ele>33.200000762939</ele>
        <time>2020-10-04T08:24:41.000Z</time>
      </trkpt>
      <trkpt lat="47.32224" lon="-2.45021">
        <ele>32.400001525879</ele>
        <time>2020-10-04T08:24:42.000Z</time>
      </trkpt>
      <trkpt lat="47.32221" lon="-2.45025">
        <ele>31.799999237061</ele>
        <time>2020-10-04T08:24:43.000Z</time>
      </trkpt>
      <trkpt lat="47.32219" lon="-2.45029">
        <ele>31.200000762939</ele>
        <time>2020-10-04T08:24:44.000Z</time>
      </trkpt>
      <trkpt lat="47.32219" lon="-2.45034">
        <ele>30.60000038147</ele>
        <time>2020-10-04T08:24:45.000Z</time>
      </trkpt>
      <trkpt lat="47.3222" lon="-2.4504">
        <ele>29.799999237061</ele>
        <time>2020-10-04T08:24:46.000Z</time>
      </trkpt>
      <trkpt lat="47.32222" lon="-2.45045">
        <ele>29.200000762939</ele>
        <time>2020-10-04T08:24:47.000Z</time>
      </trkpt>
      <trkpt lat="47.32224" lon="-2.45051">
        <ele>28.60000038147</ele>
        <time>2020-10-04T08:24:48.000Z</time>
      </trkpt>
      <trkpt lat="47.32227" lon="-2.45057">
        <ele>28.60000038147</ele>
        <time>2020-10-04T08:24:49.000Z</time>
      </trkpt>
      <trkpt lat="47.32241" lon="-2.45088">
        <ele>28.60000038147</ele>
        <time>2020-10-04T08:24:54.000Z</time>
      </trkpt>
      <trkpt lat="47.3226" lon="-2.45141">
        <ele>28.60000038147</ele>
        <time>2020-10-04T08:25:01.000Z</time>
      </trkpt>
      <trkpt lat="47.3227" lon="-2.45181">
        <ele>28</ele>
        <time>2020-10-04T08:25:06.000Z</time>
      </trkpt>
      <trkpt lat="47.32271" lon="-2.45188">
        <ele>27.60000038147</ele>
        <time>2020-10-04T08:25:07.000Z</time>
      </trkpt>
      <trkpt lat="47.32274" lon="-2.45196">
        <ele>27</ele>
        <time>2020-10-04T08:25:08.000Z</time>
      </trkpt>
      <trkpt lat="47.32278" lon="-2.45204">
        <ele>26.60000038147</ele>
        <time>2020-10-04T08:25:09.000Z</time>
      </trkpt>
      <trkpt lat="47.32282" lon="-2.45212">
        <ele>26.200000762939</ele>
        <time>2020-10-04T08:25:10.000Z</time>
      </trkpt>
      <trkpt lat="47.32285" lon="-2.45219">
        <ele>26.200000762939</ele>
        <time>2020-10-04T08:25:11.000Z</time>
      </trkpt>
      <trkpt lat="47.32289" lon="-2.45225">
        <ele>25.60000038147</ele>
        <time>2020-10-04T08:25:12.000Z</time>
      </trkpt>
      <trkpt lat="47.32293" lon="-2.45231">
        <ele>25.200000762939</ele>
        <time>2020-10-04T08:25:13.000Z</time>
      </trkpt>
      <trkpt lat="47.32297" lon="-2.45238">
        <ele>24.60000038147</ele>
        <time>2020-10-04T08:25:14.000Z</time>
      </trkpt>
      <trkpt lat="47.323" lon="-2.45244">
        <ele>24.200000762939</ele>
        <time>2020-10-04T08:25:15.000Z</time>
      </trkpt>
      <trkpt lat="47.32302" lon="-2.45251">
        <ele>23.60000038147</ele>
        <time>2020-10-04T08:25:16.000Z</time>
      </trkpt>
      <trkpt lat="47.32306" lon="-2.45263">
        <ele>23.60000038147</ele>
        <time>2020-10-04T08:25:18.000Z</time>
      </trkpt>
      <trkpt lat="47.32309" lon="-2.45275">
        <ele>23.60000038147</ele>
        <time>2020-10-04T08:25:20.000Z</time>
      </trkpt>
      <trkpt lat="47.32316" lon="-2.45304">
        <ele>24</ele>
        <time>2020-10-04T08:25:25.000Z</time>
      </trkpt>
      <trkpt lat="47.32317" lon="-2.4531">
        <ele>24.39999961853</ele>
        <time>2020-10-04T08:25:26.000Z</time>
      </trkpt>
      <trkpt lat="47.32317" lon="-2.45315">
        <ele>25</ele>
        <time>2020-10-04T08:25:27.000Z</time>
      </trkpt>
      <trkpt lat="47.32317" lon="-2.45321">
        <ele>25.39999961853</ele>
        <time>2020-10-04T08:25:28.000Z</time>
      </trkpt>
      <trkpt lat="47.32317" lon="-2.45327">
        <ele>25.799999237061</ele>
        <time>2020-10-04T08:25:29.000Z</time>
      </trkpt>
      <trkpt lat="47.32317" lon="-2.45339">
        <ele>25.799999237061</ele>
        <time>2020-10-04T08:25:31.000Z</time>
      </trkpt>
      <trkpt lat="47.3232" lon="-2.45377">
        <ele>25.799999237061</ele>
        <time>2020-10-04T08:25:36.000Z</time>
      </trkpt>
      <trkpt lat="47.32321" lon="-2.4539">
        <ele>25.200000762939</ele>
        <time>2020-10-04T08:25:39.000Z</time>
      </trkpt>
      <trkpt lat="47.32321" lon="-2.45393">
        <ele>24.60000038147</ele>
        <time>2020-10-04T08:25:40.000Z</time>
      </trkpt>
      <trkpt lat="47.32321" lon="-2.45397">
        <ele>24.200000762939</ele>
        <time>2020-10-04T08:25:41.000Z</time>
      </trkpt>
      <trkpt lat="47.32319" lon="-2.45401">
        <ele>23.60000038147</ele>
        <time>2020-10-04T08:25:42.000Z</time>
      </trkpt>
      <trkpt lat="47.32317" lon="-2.45403">
        <ele>23</ele>
        <time>2020-10-04T08:25:43.000Z</time>
      </trkpt>
      <trkpt lat="47.32315" lon="-2.45408">
        <ele>23</ele>
        <time>2020-10-04T08:25:44.000Z</time>
      </trkpt>
      <trkpt lat="47.32313" lon="-2.45417">
        <ele>22.200000762939</ele>
        <time>2020-10-04T08:25:46.000Z</time>
      </trkpt>
      <trkpt lat="47.32315" lon="-2.45422">
        <ele>21.799999237061</ele>
        <time>2020-10-04T08:25:47.000Z</time>
      </trkpt>
      <trkpt lat="47.32317" lon="-2.45426">
        <ele>21.39999961853</ele>
        <time>2020-10-04T08:25:48.000Z</time>
      </trkpt>
      <trkpt lat="47.32319" lon="-2.45431">
        <ele>20.799999237061</ele>
        <time>2020-10-04T08:25:49.000Z</time>
      </trkpt>
      <trkpt lat="47.32325" lon="-2.45441">
        <ele>20.799999237061</ele>
        <time>2020-10-04T08:25:51.000Z</time>
      </trkpt>
      <trkpt lat="47.32332" lon="-2.45452">
        <ele>20.799999237061</ele>
        <time>2020-10-04T08:25:53.000Z</time>
      </trkpt>
      <trkpt lat="47.32346" lon="-2.45479">
        <ele>20.799999237061</ele>
        <time>2020-10-04T08:25:58.000Z</time>
      </trkpt>
      <trkpt lat="47.32354" lon="-2.45488">
        <ele>20.799999237061</ele>
        <time>2020-10-04T08:26:00.000Z</time>
      </trkpt>
      <trkpt lat="47.32365" lon="-2.45502">
        <ele>20.799999237061</ele>
        <time>2020-10-04T08:26:03.000Z</time>
      </trkpt>
      <trkpt lat="47.32378" lon="-2.45523">
        <ele>20.799999237061</ele>
        <time>2020-10-04T08:26:07.000Z</time>
      </trkpt>
      <trkpt lat="47.32382" lon="-2.45528">
        <ele>21.200000762939</ele>
        <time>2020-10-04T08:26:08.000Z</time>
      </trkpt>
      <trkpt lat="47.32384" lon="-2.45534">
        <ele>21.60000038147</ele>
        <time>2020-10-04T08:26:09.000Z</time>
      </trkpt>
      <trkpt lat="47.32387" lon="-2.4554">
        <ele>22.200000762939</ele>
        <time>2020-10-04T08:26:10.000Z</time>
      </trkpt>
      <trkpt lat="47.32389" lon="-2.45546">
        <ele>23</ele>
        <time>2020-10-04T08:26:11.000Z</time>
      </trkpt>
      <trkpt lat="47.32392" lon="-2.45552">
        <ele>23</ele>
        <time>2020-10-04T08:26:12.000Z</time>
      </trkpt>
      <trkpt lat="47.32395" lon="-2.45557">
        <ele>23</ele>
        <time>2020-10-04T08:26:13.000Z</time>
      </trkpt>
      <trkpt lat="47.32407" lon="-2.45568">
        <ele>23</ele>
        <time>2020-10-04T08:26:16.000Z</time>
      </trkpt>
      <trkpt lat="47.32415" lon="-2.45576">
        <ele>23</ele>
        <time>2020-10-04T08:26:19.000Z</time>
      </trkpt>
      <trkpt lat="47.32415" lon="-2.45581">
        <ele>23</ele>
        <time>2020-10-04T08:26:20.000Z</time>
      </trkpt>
      <trkpt lat="47.32409" lon="-2.45597">
        <ele>23</ele>
        <time>2020-10-04T08:26:23.000Z</time>
      </trkpt>
      <trkpt lat="47.3239" lon="-2.45613">
        <ele>23</ele>
        <time>2020-10-04T08:26:27.000Z</time>
      </trkpt>
      <trkpt lat="47.32348" lon="-2.45648">
        <ele>22.60000038147</ele>
        <time>2020-10-04T08:26:35.000Z</time>
      </trkpt>
      <trkpt lat="47.32343" lon="-2.45653">
        <ele>22</ele>
        <time>2020-10-04T08:26:36.000Z</time>
      </trkpt>
      <trkpt lat="47.32338" lon="-2.45659">
        <ele>21.60000038147</ele>
        <time>2020-10-04T08:26:37.000Z</time>
      </trkpt>
      <trkpt lat="47.32333" lon="-2.45665">
        <ele>21.200000762939</ele>
        <time>2020-10-04T08:26:38.000Z</time>
      </trkpt>
      <trkpt lat="47.32328" lon="-2.4567">
        <ele>20.799999237061</ele>
        <time>2020-10-04T08:26:39.000Z</time>
      </trkpt>
      <trkpt lat="47.32313" lon="-2.45688">
        <ele>20.799999237061</ele>
        <time>2020-10-04T08:26:42.000Z</time>
      </trkpt>
      <trkpt lat="47.3229" lon="-2.45725">
        <ele>20.799999237061</ele>
        <time>2020-10-04T08:26:47.000Z</time>
      </trkpt>
      <trkpt lat="47.3226" lon="-2.45783">
        <ele>20.39999961853</ele>
        <time>2020-10-04T08:26:54.000Z</time>
      </trkpt>
      <trkpt lat="47.32255" lon="-2.4579">
        <ele>20</ele>
        <time>2020-10-04T08:26:55.000Z</time>
      </trkpt>
      <trkpt lat="47.32251" lon="-2.45798">
        <ele>19.39999961853</ele>
        <time>2020-10-04T08:26:56.000Z</time>
      </trkpt>
      <trkpt lat="47.32247" lon="-2.45806">
        <ele>19</ele>
        <time>2020-10-04T08:26:57.000Z</time>
      </trkpt>
      <trkpt lat="47.32243" lon="-2.45813">
        <ele>18.60000038147</ele>
        <time>2020-10-04T08:26:58.000Z</time>
      </trkpt>
      <trkpt lat="47.32221" lon="-2.45847">
        <ele>18.60000038147</ele>
        <time>2020-10-04T08:27:03.000Z</time>
      </trkpt>
      <trkpt lat="47.32203" lon="-2.45872">
        <ele>18.200000762939</ele>
        <time>2020-10-04T08:27:08.000Z</time>
      </trkpt>
      <trkpt lat="47.32202" lon="-2.45874">
        <ele>17.60000038147</ele>
        <time>2020-10-04T08:27:09.000Z</time>
      </trkpt>
      <trkpt lat="47.32202" lon="-2.45877">
        <ele>17.200000762939</ele>
        <time>2020-10-04T08:27:10.000Z</time>
      </trkpt>
      <trkpt lat="47.32202" lon="-2.4588">
        <ele>16.799999237061</ele>
        <time>2020-10-04T08:27:11.000Z</time>
      </trkpt>
      <trkpt lat="47.32203" lon="-2.45884">
        <ele>16.39999961853</ele>
        <time>2020-10-04T08:27:12.000Z</time>
      </trkpt>
      <trkpt lat="47.32209" lon="-2.45899">
        <ele>16.39999961853</ele>
        <time>2020-10-04T08:27:15.000Z</time>
      </trkpt>
      <trkpt lat="47.32227" lon="-2.45944">
        <ele>16.39999961853</ele>
        <time>2020-10-04T08:27:22.000Z</time>
      </trkpt>
      <trkpt lat="47.32234" lon="-2.45957">
        <ele>16.39999961853</ele>
        <time>2020-10-04T08:27:24.000Z</time>
      </trkpt>
      <trkpt lat="47.32243" lon="-2.45969">
        <ele>16.39999961853</ele>
        <time>2020-10-04T08:27:26.000Z</time>
      </trkpt>
      <trkpt lat="47.32248" lon="-2.45974">
        <ele>16.39999961853</ele>
        <time>2020-10-04T08:27:27.000Z</time>
      </trkpt>
      <trkpt lat="47.32263" lon="-2.4599">
        <ele>16.39999961853</ele>
        <time>2020-10-04T08:27:30.000Z</time>
      </trkpt>
      <trkpt lat="47.32274" lon="-2.46012">
        <ele>16.39999961853</ele>
        <time>2020-10-04T08:27:33.000Z</time>
      </trkpt>
      <trkpt lat="47.3228" lon="-2.46028">
        <ele>16.39999961853</ele>
        <time>2020-10-04T08:27:35.000Z</time>
      </trkpt>
      <trkpt lat="47.32298" lon="-2.46067">
        <ele>16.39999961853</ele>
        <time>2020-10-04T08:27:40.000Z</time>
      </trkpt>
      <trkpt lat="47.3233" lon="-2.46121">
        <ele>16.39999961853</ele>
        <time>2020-10-04T08:27:48.000Z</time>
      </trkpt>
      <trkpt lat="47.32368" lon="-2.4618">
        <ele>16.39999961853</ele>
        <time>2020-10-04T08:27:57.000Z</time>
      </trkpt>
      <trkpt lat="47.32372" lon="-2.46187">
        <ele>16.39999961853</ele>
        <time>2020-10-04T08:27:58.000Z</time>
      </trkpt>
      <trkpt lat="47.32376" lon="-2.46193">
        <ele>16.799999237061</ele>
        <time>2020-10-04T08:27:59.000Z</time>
      </trkpt>
      <trkpt lat="47.3238" lon="-2.462">
        <ele>17.200000762939</ele>
        <time>2020-10-04T08:28:00.000Z</time>
      </trkpt>
      <trkpt lat="47.32384" lon="-2.46207">
        <ele>17.60000038147</ele>
        <time>2020-10-04T08:28:01.000Z</time>
      </trkpt>
      <trkpt lat="47.32388" lon="-2.46214">
        <ele>18</ele>
        <time>2020-10-04T08:28:02.000Z</time>
      </trkpt>
      <trkpt lat="47.32392" lon="-2.46221">
        <ele>18.39999961853</ele>
        <time>2020-10-04T08:28:03.000Z</time>
      </trkpt>
      <trkpt lat="47.32408" lon="-2.46248">
        <ele>18.39999961853</ele>
        <time>2020-10-04T08:28:07.000Z</time>
      </trkpt>
      <trkpt lat="47.32435" lon="-2.46308">
        <ele>18.39999961853</ele>
        <time>2020-10-04T08:28:15.000Z</time>
      </trkpt>
      <trkpt lat="47.32458" lon="-2.46368">
        <ele>18.39999961853</ele>
        <time>2020-10-04T08:28:23.000Z</time>
      </trkpt>
      <trkpt lat="47.32488" lon="-2.4641">
        <ele>18.39999961853</ele>
        <time>2020-10-04T08:28:30.000Z</time>
      </trkpt>
      <trkpt lat="47.32518" lon="-2.46463">
        <ele>18.39999961853</ele>
        <time>2020-10-04T08:28:38.000Z</time>
      </trkpt>
      <trkpt lat="47.32543" lon="-2.46523">
        <ele>18.39999961853</ele>
        <time>2020-10-04T08:28:46.000Z</time>
      </trkpt>
      <trkpt lat="47.32566" lon="-2.46554">
        <ele>18.39999961853</ele>
        <time>2020-10-04T08:28:51.000Z</time>
      </trkpt>
      <trkpt lat="47.326" lon="-2.46603">
        <ele>18.39999961853</ele>
        <time>2020-10-04T08:28:59.000Z</time>
      </trkpt>
      <trkpt lat="47.32633" lon="-2.46652">
        <ele>18.39999961853</ele>
        <time>2020-10-04T08:29:07.000Z</time>
      </trkpt>
      <trkpt lat="47.32664" lon="-2.46677">
        <ele>18.39999961853</ele>
        <time>2020-10-04T08:29:13.000Z</time>
      </trkpt>
      <trkpt lat="47.32705" lon="-2.46711">
        <ele>18.39999961853</ele>
        <time>2020-10-04T08:29:21.000Z</time>
      </trkpt>
      <trkpt lat="47.32732" lon="-2.46745">
        <ele>18.39999961853</ele>
        <time>2020-10-04T08:29:27.000Z</time>
      </trkpt>
      <trkpt lat="47.32753" lon="-2.46788">
        <ele>18.39999961853</ele>
        <time>2020-10-04T08:29:33.000Z</time>
      </trkpt>
      <trkpt lat="47.32779" lon="-2.46848">
        <ele>18.39999961853</ele>
        <time>2020-10-04T08:29:41.000Z</time>
      </trkpt>
      <trkpt lat="47.32787" lon="-2.46899">
        <ele>18.39999961853</ele>
        <time>2020-10-04T08:29:47.000Z</time>
      </trkpt>
      <trkpt lat="47.32802" lon="-2.46947">
        <ele>18.39999961853</ele>
        <time>2020-10-04T08:29:53.000Z</time>
      </trkpt>
      <trkpt lat="47.3283" lon="-2.47015">
        <ele>18.39999961853</ele>
        <time>2020-10-04T08:30:02.000Z</time>
      </trkpt>
      <trkpt lat="47.32833" lon="-2.47023">
        <ele>18.39999961853</ele>
        <time>2020-10-04T08:30:03.000Z</time>
      </trkpt>
      <trkpt lat="47.32851" lon="-2.47082">
        <ele>18.39999961853</ele>
        <time>2020-10-04T08:30:10.000Z</time>
      </trkpt>
      <trkpt lat="47.32862" lon="-2.47145">
        <ele>18.39999961853</ele>
        <time>2020-10-04T08:30:17.000Z</time>
      </trkpt>
      <trkpt lat="47.32872" lon="-2.47207">
        <ele>18.39999961853</ele>
        <time>2020-10-04T08:30:24.000Z</time>
      </trkpt>
      <trkpt lat="47.32885" lon="-2.47292">
        <ele>18.39999961853</ele>
        <time>2020-10-04T08:30:34.000Z</time>
      </trkpt>
      <trkpt lat="47.32892" lon="-2.47339">
        <ele>18.39999961853</ele>
        <time>2020-10-04T08:30:40.000Z</time>
      </trkpt>
      <trkpt lat="47.32899" lon="-2.4739">
        <ele>18.39999961853</ele>
        <time>2020-10-04T08:30:46.000Z</time>
      </trkpt>
      <trkpt lat="47.32911" lon="-2.47455">
        <ele>18.39999961853</ele>
        <time>2020-10-04T08:30:54.000Z</time>
      </trkpt>
      <trkpt lat="47.32922" lon="-2.47503">
        <ele>18.39999961853</ele>
        <time>2020-10-04T08:31:00.000Z</time>
      </trkpt>
      <trkpt lat="47.32924" lon="-2.47519">
        <ele>18.39999961853</ele>
        <time>2020-10-04T08:31:02.000Z</time>
      </trkpt>
      <trkpt lat="47.32924" lon="-2.47551">
        <ele>18.39999961853</ele>
        <time>2020-10-04T08:31:06.000Z</time>
      </trkpt>
      <trkpt lat="47.32923" lon="-2.476">
        <ele>18.39999961853</ele>
        <time>2020-10-04T08:31:12.000Z</time>
      </trkpt>
      <trkpt lat="47.32932" lon="-2.47647">
        <ele>18.39999961853</ele>
        <time>2020-10-04T08:31:18.000Z</time>
      </trkpt>
      <trkpt lat="47.32945" lon="-2.47708">
        <ele>18.39999961853</ele>
        <time>2020-10-04T08:31:26.000Z</time>
      </trkpt>
      <trkpt lat="47.32949" lon="-2.47714">
        <ele>18.39999961853</ele>
        <time>2020-10-04T08:31:27.000Z</time>
      </trkpt>
      <trkpt lat="47.3296" lon="-2.47731">
        <ele>18.39999961853</ele>
        <time>2020-10-04T08:31:30.000Z</time>
      </trkpt>
      <trkpt lat="47.3299" lon="-2.47764">
        <ele>18.39999961853</ele>
        <time>2020-10-04T08:31:37.000Z</time>
      </trkpt>
      <trkpt lat="47.33023" lon="-2.47787">
        <ele>18.39999961853</ele>
        <time>2020-10-04T08:31:43.000Z</time>
      </trkpt>
      <trkpt lat="47.33029" lon="-2.47789">
        <ele>18.39999961853</ele>
        <time>2020-10-04T08:31:44.000Z</time>
      </trkpt>
      <trkpt lat="47.33059" lon="-2.47797">
        <ele>18.39999961853</ele>
        <time>2020-10-04T08:31:49.000Z</time>
      </trkpt>
      <trkpt lat="47.33065" lon="-2.47799">
        <ele>18</ele>
        <time>2020-10-04T08:31:50.000Z</time>
      </trkpt>
      <trkpt lat="47.33071" lon="-2.47801">
        <ele>17.60000038147</ele>
        <time>2020-10-04T08:31:51.000Z</time>
      </trkpt>
      <trkpt lat="47.33076" lon="-2.47804">
        <ele>17.200000762939</ele>
        <time>2020-10-04T08:31:52.000Z</time>
      </trkpt>
      <trkpt lat="47.33082" lon="-2.47806">
        <ele>16.799999237061</ele>
        <time>2020-10-04T08:31:53.000Z</time>
      </trkpt>
      <trkpt lat="47.33088" lon="-2.47809">
        <ele>16.39999961853</ele>
        <time>2020-10-04T08:31:54.000Z</time>
      </trkpt>
      <trkpt lat="47.33099" lon="-2.47816">
        <ele>16.39999961853</ele>
        <time>2020-10-04T08:31:56.000Z</time>
      </trkpt>
      <trkpt lat="47.33118" lon="-2.47833">
        <ele>16.39999961853</ele>
        <time>2020-10-04T08:32:00.000Z</time>
      </trkpt>
      <trkpt lat="47.33126" lon="-2.47846">
        <ele>16.39999961853</ele>
        <time>2020-10-04T08:32:02.000Z</time>
      </trkpt>
      <trkpt lat="47.33141" lon="-2.47884">
        <ele>16.39999961853</ele>
        <time>2020-10-04T08:32:07.000Z</time>
      </trkpt>
      <trkpt lat="47.33153" lon="-2.47946">
        <ele>16.39999961853</ele>
        <time>2020-10-04T08:32:15.000Z</time>
      </trkpt>
      <trkpt lat="47.33151" lon="-2.48005">
        <ele>16.39999961853</ele>
        <time>2020-10-04T08:32:22.000Z</time>
      </trkpt>
      <trkpt lat="47.33147" lon="-2.48087">
        <ele>16.39999961853</ele>
        <time>2020-10-04T08:32:32.000Z</time>
      </trkpt>
      <trkpt lat="47.33144" lon="-2.48154">
        <ele>16.39999961853</ele>
        <time>2020-10-04T08:32:40.000Z</time>
      </trkpt>
      <trkpt lat="47.33143" lon="-2.48214">
        <ele>16.39999961853</ele>
        <time>2020-10-04T08:32:48.000Z</time>
      </trkpt>
      <trkpt lat="47.33149" lon="-2.48279">
        <ele>16.39999961853</ele>
        <time>2020-10-04T08:32:57.000Z</time>
      </trkpt>
      <trkpt lat="47.33151" lon="-2.48287">
        <ele>16.39999961853</ele>
        <time>2020-10-04T08:33:00.000Z</time>
      </trkpt>
      <trkpt lat="47.33149" lon="-2.48287">
        <ele>16.39999961853</ele>
        <time>2020-10-04T08:33:03.000Z</time>
      </trkpt>
      <trkpt lat="47.33145" lon="-2.48287">
        <ele>16.39999961853</ele>
        <time>2020-10-04T08:33:06.000Z</time>
      </trkpt>
      <trkpt lat="47.33143" lon="-2.48275">
        <ele>16.39999961853</ele>
        <time>2020-10-04T08:33:09.000Z</time>
      </trkpt>
      <trkpt lat="47.33142" lon="-2.4827">
        <ele>16.39999961853</ele>
        <time>2020-10-04T08:33:10.000Z</time>
      </trkpt>
      <trkpt lat="47.33141" lon="-2.48237">
        <ele>16.39999961853</ele>
        <time>2020-10-04T08:33:15.000Z</time>
      </trkpt>
      <trkpt lat="47.3314" lon="-2.48217">
        <ele>16.39999961853</ele>
        <time>2020-10-04T08:33:18.000Z</time>
      </trkpt>
      <trkpt lat="47.3314" lon="-2.48198">
        <ele>16.39999961853</ele>
        <time>2020-10-04T08:33:21.000Z</time>
      </trkpt>
      <trkpt lat="47.33141" lon="-2.48168">
        <ele>16.39999961853</ele>
        <time>2020-10-04T08:33:26.000Z</time>
      </trkpt>
      <trkpt lat="47.33141" lon="-2.4815">
        <ele>16.39999961853</ele>
        <time>2020-10-04T08:33:29.000Z</time>
      </trkpt>
      <trkpt lat="47.33143" lon="-2.48097">
        <ele>16.39999961853</ele>
        <time>2020-10-04T08:33:38.000Z</time>
      </trkpt>
      <trkpt lat="47.33146" lon="-2.48039">
        <ele>16.39999961853</ele>
        <time>2020-10-04T08:33:47.000Z</time>
      </trkpt>
      <trkpt lat="47.33143" lon="-2.4803">
        <ele>16.39999961853</ele>
        <time>2020-10-04T08:33:50.000Z</time>
      </trkpt>
      <trkpt lat="47.33141" lon="-2.4803">
        <ele>16.39999961853</ele>
        <time>2020-10-04T08:33:51.000Z</time>
      </trkpt>
      <trkpt lat="47.33139" lon="-2.48031">
        <ele>16.39999961853</ele>
        <time>2020-10-04T08:33:54.000Z</time>
      </trkpt>
      <trkpt lat="47.33143" lon="-2.48031">
        <ele>16.39999961853</ele>
        <time>2020-10-04T08:34:01.000Z</time>
      </trkpt>
      <trkpt lat="47.3315" lon="-2.4804">
        <ele>16.39999961853</ele>
        <time>2020-10-04T08:34:06.000Z</time>
      </trkpt>
      <trkpt lat="47.33148" lon="-2.48057">
        <ele>16.39999961853</ele>
        <time>2020-10-04T08:34:09.000Z</time>
      </trkpt>
      <trkpt lat="47.33148" lon="-2.48063">
        <ele>16.39999961853</ele>
        <time>2020-10-04T08:34:10.000Z</time>
      </trkpt>
      <trkpt lat="47.33148" lon="-2.4807">
        <ele>16.39999961853</ele>
        <time>2020-10-04T08:34:11.000Z</time>
      </trkpt>
      <trkpt lat="47.33146" lon="-2.481">
        <ele>16.39999961853</ele>
        <time>2020-10-04T08:34:15.000Z</time>
      </trkpt>
      <trkpt lat="47.33143" lon="-2.48155">
        <ele>16.39999961853</ele>
        <time>2020-10-04T08:34:22.000Z</time>
      </trkpt>
      <trkpt lat="47.33142" lon="-2.48224">
        <ele>16.39999961853</ele>
        <time>2020-10-04T08:34:31.000Z</time>
      </trkpt>
      <trkpt lat="47.33146" lon="-2.4828">
        <ele>16.799999237061</ele>
        <time>2020-10-04T08:34:38.000Z</time>
      </trkpt>
      <trkpt lat="47.33146" lon="-2.48288">
        <ele>17.200000762939</ele>
        <time>2020-10-04T08:34:39.000Z</time>
      </trkpt>
      <trkpt lat="47.33146" lon="-2.48296">
        <ele>17.60000038147</ele>
        <time>2020-10-04T08:34:40.000Z</time>
      </trkpt>
      <trkpt lat="47.33147" lon="-2.48303">
        <ele>18</ele>
        <time>2020-10-04T08:34:41.000Z</time>
      </trkpt>
      <trkpt lat="47.33147" lon="-2.4831">
        <ele>18.39999961853</ele>
        <time>2020-10-04T08:34:42.000Z</time>
      </trkpt>
      <trkpt lat="47.33145" lon="-2.48331">
        <ele>18.39999961853</ele>
        <time>2020-10-04T08:34:45.000Z</time>
      </trkpt>
      <trkpt lat="47.33139" lon="-2.48374">
        <ele>18.39999961853</ele>
        <time>2020-10-04T08:34:51.000Z</time>
      </trkpt>
      <trkpt lat="47.33137" lon="-2.48381">
        <ele>18.39999961853</ele>
        <time>2020-10-04T08:34:52.000Z</time>
      </trkpt>
      <trkpt lat="47.33123" lon="-2.48403">
        <ele>18.39999961853</ele>
        <time>2020-10-04T08:34:56.000Z</time>
      </trkpt>
      <trkpt lat="47.33119" lon="-2.48407">
        <ele>18.39999961853</ele>
        <time>2020-10-04T08:34:57.000Z</time>
      </trkpt>
      <trkpt lat="47.3311" lon="-2.48416">
        <ele>18.39999961853</ele>
        <time>2020-10-04T08:34:59.000Z</time>
      </trkpt>
      <trkpt lat="47.33095" lon="-2.48425">
        <ele>18.39999961853</ele>
        <time>2020-10-04T08:35:02.000Z</time>
      </trkpt>
      <trkpt lat="47.33044" lon="-2.4846">
        <ele>18.39999961853</ele>
        <time>2020-10-04T08:35:12.000Z</time>
      </trkpt>
      <trkpt lat="47.32994" lon="-2.48492">
        <ele>18.39999961853</ele>
        <time>2020-10-04T08:35:21.000Z</time>
      </trkpt>
      <trkpt lat="47.32983" lon="-2.485">
        <ele>18</ele>
        <time>2020-10-04T08:35:23.000Z</time>
      </trkpt>
      <trkpt lat="47.32978" lon="-2.48504">
        <ele>17.60000038147</ele>
        <time>2020-10-04T08:35:24.000Z</time>
      </trkpt>
      <trkpt lat="47.32972" lon="-2.48508">
        <ele>17.200000762939</ele>
        <time>2020-10-04T08:35:25.000Z</time>
      </trkpt>
      <trkpt lat="47.32967" lon="-2.48513">
        <ele>16.799999237061</ele>
        <time>2020-10-04T08:35:26.000Z</time>
      </trkpt>
      <trkpt lat="47.32962" lon="-2.48518">
        <ele>16.200000762939</ele>
        <time>2020-10-04T08:35:27.000Z</time>
      </trkpt>
      <trkpt lat="47.32957" lon="-2.48523">
        <ele>16.200000762939</ele>
        <time>2020-10-04T08:35:28.000Z</time>
      </trkpt>
      <trkpt lat="47.32951" lon="-2.48528">
        <ele>16.200000762939</ele>
        <time>2020-10-04T08:35:29.000Z</time>
      </trkpt>
      <trkpt lat="47.32928" lon="-2.48555">
        <ele>16.200000762939</ele>
        <time>2020-10-04T08:35:34.000Z</time>
      </trkpt>
      <trkpt lat="47.32904" lon="-2.48583">
        <ele>16.200000762939</ele>
        <time>2020-10-04T08:35:39.000Z</time>
      </trkpt>
      <trkpt lat="47.32894" lon="-2.48591">
        <ele>16.200000762939</ele>
        <time>2020-10-04T08:35:41.000Z</time>
      </trkpt>
      <trkpt lat="47.3287" lon="-2.48596">
        <ele>16.200000762939</ele>
        <time>2020-10-04T08:35:45.000Z</time>
      </trkpt>
      <trkpt lat="47.32858" lon="-2.48596">
        <ele>16.200000762939</ele>
        <time>2020-10-04T08:35:47.000Z</time>
      </trkpt>
      <trkpt lat="47.32839" lon="-2.48595">
        <ele>16.200000762939</ele>
        <time>2020-10-04T08:35:50.000Z</time>
      </trkpt>
      <trkpt lat="47.32788" lon="-2.48593">
        <ele>16.200000762939</ele>
        <time>2020-10-04T08:35:58.000Z</time>
      </trkpt>
      <trkpt lat="47.32781" lon="-2.48594">
        <ele>16.200000762939</ele>
        <time>2020-10-04T08:35:59.000Z</time>
      </trkpt>
      <trkpt lat="47.32756" lon="-2.48602">
        <ele>16.200000762939</ele>
        <time>2020-10-04T08:36:03.000Z</time>
      </trkpt>
      <trkpt lat="47.32751" lon="-2.48606">
        <ele>16.200000762939</ele>
        <time>2020-10-04T08:36:04.000Z</time>
      </trkpt>
      <trkpt lat="47.32723" lon="-2.48623">
        <ele>16.200000762939</ele>
        <time>2020-10-04T08:36:09.000Z</time>
      </trkpt>
      <trkpt lat="47.327" lon="-2.48636">
        <ele>16.200000762939</ele>
        <time>2020-10-04T08:36:13.000Z</time>
      </trkpt>
      <trkpt lat="47.32677" lon="-2.48648">
        <ele>16.200000762939</ele>
        <time>2020-10-04T08:36:17.000Z</time>
      </trkpt>
      <trkpt lat="47.3262" lon="-2.48673">
        <ele>16.200000762939</ele>
        <time>2020-10-04T08:36:27.000Z</time>
      </trkpt>
      <trkpt lat="47.32597" lon="-2.48679">
        <ele>16.200000762939</ele>
        <time>2020-10-04T08:36:31.000Z</time>
      </trkpt>
      <trkpt lat="47.32584" lon="-2.48677">
        <ele>16.200000762939</ele>
        <time>2020-10-04T08:36:33.000Z</time>
      </trkpt>
      <trkpt lat="47.32548" lon="-2.48664">
        <ele>16.200000762939</ele>
        <time>2020-10-04T08:36:39.000Z</time>
      </trkpt>
      <trkpt lat="47.32542" lon="-2.48659">
        <ele>16.200000762939</ele>
        <time>2020-10-04T08:36:40.000Z</time>
      </trkpt>
      <trkpt lat="47.32521" lon="-2.48639">
        <ele>16.200000762939</ele>
        <time>2020-10-04T08:36:44.000Z</time>
      </trkpt>
      <trkpt lat="47.32476" lon="-2.48595">
        <ele>16.200000762939</ele>
        <time>2020-10-04T08:36:53.000Z</time>
      </trkpt>
      <trkpt lat="47.32436" lon="-2.48576">
        <ele>16.200000762939</ele>
        <time>2020-10-04T08:37:00.000Z</time>
      </trkpt>
      <trkpt lat="47.32392" lon="-2.48571">
        <ele>16.200000762939</ele>
        <time>2020-10-04T08:37:07.000Z</time>
      </trkpt>
      <trkpt lat="47.32386" lon="-2.48573">
        <ele>16.200000762939</ele>
        <time>2020-10-04T08:37:08.000Z</time>
      </trkpt>
      <trkpt lat="47.32363" lon="-2.48585">
        <ele>16.200000762939</ele>
        <time>2020-10-04T08:37:12.000Z</time>
      </trkpt>
      <trkpt lat="47.32358" lon="-2.48589">
        <ele>16.200000762939</ele>
        <time>2020-10-04T08:37:13.000Z</time>
      </trkpt>
      <trkpt lat="47.32306" lon="-2.48627">
        <ele>16.200000762939</ele>
        <time>2020-10-04T08:37:23.000Z</time>
      </trkpt>
      <trkpt lat="47.3226" lon="-2.48666">
        <ele>16.200000762939</ele>
        <time>2020-10-04T08:37:32.000Z</time>
      </trkpt>
      <trkpt lat="47.32246" lon="-2.48693">
        <ele>16.200000762939</ele>
        <time>2020-10-04T08:37:36.000Z</time>
      </trkpt>
      <trkpt lat="47.32243" lon="-2.48701">
        <ele>16.200000762939</ele>
        <time>2020-10-04T08:37:37.000Z</time>
      </trkpt>
      <trkpt lat="47.32234" lon="-2.48744">
        <ele>16.200000762939</ele>
        <time>2020-10-04T08:37:43.000Z</time>
      </trkpt>
      <trkpt lat="47.32216" lon="-2.48784">
        <ele>16.200000762939</ele>
        <time>2020-10-04T08:37:49.000Z</time>
      </trkpt>
      <trkpt lat="47.32195" lon="-2.48823">
        <ele>16.200000762939</ele>
        <time>2020-10-04T08:37:55.000Z</time>
      </trkpt>
      <trkpt lat="47.32164" lon="-2.4888">
        <ele>16.200000762939</ele>
        <time>2020-10-04T08:38:04.000Z</time>
      </trkpt>
      <trkpt lat="47.32142" lon="-2.48929">
        <ele>16.200000762939</ele>
        <time>2020-10-04T08:38:11.000Z</time>
      </trkpt>
      <trkpt lat="47.32141" lon="-2.48937">
        <ele>16.200000762939</ele>
        <time>2020-10-04T08:38:12.000Z</time>
      </trkpt>
      <trkpt lat="47.32139" lon="-2.48962">
        <ele>16.200000762939</ele>
        <time>2020-10-04T08:38:15.000Z</time>
      </trkpt>
      <trkpt lat="47.32139" lon="-2.4897">
        <ele>16.200000762939</ele>
        <time>2020-10-04T08:38:16.000Z</time>
      </trkpt>
      <trkpt lat="47.32141" lon="-2.48994">
        <ele>16.200000762939</ele>
        <time>2020-10-04T08:38:19.000Z</time>
      </trkpt>
      <trkpt lat="47.32141" lon="-2.49001">
        <ele>16.200000762939</ele>
        <time>2020-10-04T08:38:20.000Z</time>
      </trkpt>
      <trkpt lat="47.32137" lon="-2.49051">
        <ele>16.200000762939</ele>
        <time>2020-10-04T08:38:27.000Z</time>
      </trkpt>
      <trkpt lat="47.32136" lon="-2.49058">
        <ele>16.200000762939</ele>
        <time>2020-10-04T08:38:28.000Z</time>
      </trkpt>
      <trkpt lat="47.32128" lon="-2.49084">
        <ele>16.200000762939</ele>
        <time>2020-10-04T08:38:32.000Z</time>
      </trkpt>
      <trkpt lat="47.32123" lon="-2.49095">
        <ele>16.200000762939</ele>
        <time>2020-10-04T08:38:34.000Z</time>
      </trkpt>
      <trkpt lat="47.32117" lon="-2.49104">
        <ele>16.200000762939</ele>
        <time>2020-10-04T08:38:36.000Z</time>
      </trkpt>
      <trkpt lat="47.32113" lon="-2.49108">
        <ele>16.200000762939</ele>
        <time>2020-10-04T08:38:37.000Z</time>
      </trkpt>
      <trkpt lat="47.32093" lon="-2.49122">
        <ele>16.200000762939</ele>
        <time>2020-10-04T08:38:43.000Z</time>
      </trkpt>
      <trkpt lat="47.32075" lon="-2.49146">
        <ele>16.200000762939</ele>
        <time>2020-10-04T08:38:49.000Z</time>
      </trkpt>
      <trkpt lat="47.32053" lon="-2.49179">
        <ele>16.200000762939</ele>
        <time>2020-10-04T08:38:56.000Z</time>
      </trkpt>
      <trkpt lat="47.32033" lon="-2.49209">
        <ele>16.200000762939</ele>
        <time>2020-10-04T08:39:02.000Z</time>
      </trkpt>
      <trkpt lat="47.3203" lon="-2.49214">
        <ele>16.200000762939</ele>
        <time>2020-10-04T08:39:03.000Z</time>
      </trkpt>
      <trkpt lat="47.32011" lon="-2.49246">
        <ele>16.200000762939</ele>
        <time>2020-10-04T08:39:09.000Z</time>
      </trkpt>
      <trkpt lat="47.31988" lon="-2.49283">
        <ele>16.200000762939</ele>
        <time>2020-10-04T08:39:16.000Z</time>
      </trkpt>
      <trkpt lat="47.3196" lon="-2.49329">
        <ele>16.200000762939</ele>
        <time>2020-10-04T08:39:24.000Z</time>
      </trkpt>
      <trkpt lat="47.31932" lon="-2.49375">
        <ele>16.200000762939</ele>
        <time>2020-10-04T08:39:32.000Z</time>
      </trkpt>
      <trkpt lat="47.31903" lon="-2.4942">
        <ele>16.200000762939</ele>
        <time>2020-10-04T08:39:40.000Z</time>
      </trkpt>
      <trkpt lat="47.31873" lon="-2.49465">
        <ele>16.200000762939</ele>
        <time>2020-10-04T08:39:48.000Z</time>
      </trkpt>
      <trkpt lat="47.31843" lon="-2.49512">
        <ele>16.200000762939</ele>
        <time>2020-10-04T08:39:56.000Z</time>
      </trkpt>
      <trkpt lat="47.31832" lon="-2.49529">
        <ele>16.60000038147</ele>
        <time>2020-10-04T08:39:59.000Z</time>
      </trkpt>
      <trkpt lat="47.31828" lon="-2.49535">
        <ele>17</ele>
        <time>2020-10-04T08:40:00.000Z</time>
      </trkpt>
      <trkpt lat="47.31824" lon="-2.49541">
        <ele>17.39999961853</ele>
        <time>2020-10-04T08:40:01.000Z</time>
      </trkpt>
      <trkpt lat="47.31821" lon="-2.49546">
        <ele>18</ele>
        <time>2020-10-04T08:40:02.000Z</time>
      </trkpt>
      <trkpt lat="47.31817" lon="-2.49552">
        <ele>18.39999961853</ele>
        <time>2020-10-04T08:40:03.000Z</time>
      </trkpt>
      <trkpt lat="47.31813" lon="-2.49557">
        <ele>18.39999961853</ele>
        <time>2020-10-04T08:40:04.000Z</time>
      </trkpt>
      <trkpt lat="47.3178" lon="-2.49608">
        <ele>18.39999961853</ele>
        <time>2020-10-04T08:40:13.000Z</time>
      </trkpt>
      <trkpt lat="47.31748" lon="-2.49653">
        <ele>18.39999961853</ele>
        <time>2020-10-04T08:40:21.000Z</time>
      </trkpt>
      <trkpt lat="47.31717" lon="-2.497">
        <ele>18.39999961853</ele>
        <time>2020-10-04T08:40:29.000Z</time>
      </trkpt>
      <trkpt lat="47.31683" lon="-2.49751">
        <ele>18.39999961853</ele>
        <time>2020-10-04T08:40:38.000Z</time>
      </trkpt>
      <trkpt lat="47.31654" lon="-2.49796">
        <ele>18.39999961853</ele>
        <time>2020-10-04T08:40:46.000Z</time>
      </trkpt>
      <trkpt lat="47.31626" lon="-2.4984">
        <ele>18.39999961853</ele>
        <time>2020-10-04T08:40:54.000Z</time>
      </trkpt>
      <trkpt lat="47.31593" lon="-2.4989">
        <ele>18.39999961853</ele>
        <time>2020-10-04T08:41:03.000Z</time>
      </trkpt>
      <trkpt lat="47.31563" lon="-2.49934">
        <ele>18.39999961853</ele>
        <time>2020-10-04T08:41:11.000Z</time>
      </trkpt>
      <trkpt lat="47.31529" lon="-2.49984">
        <ele>18.39999961853</ele>
        <time>2020-10-04T08:41:20.000Z</time>
      </trkpt>
      <trkpt lat="47.31506" lon="-2.5002">
        <ele>18.39999961853</ele>
        <time>2020-10-04T08:41:26.000Z</time>
      </trkpt>
      <trkpt lat="47.31472" lon="-2.50074">
        <ele>18.39999961853</ele>
        <time>2020-10-04T08:41:35.000Z</time>
      </trkpt>
      <trkpt lat="47.31445" lon="-2.50115">
        <ele>18.39999961853</ele>
        <time>2020-10-04T08:41:42.000Z</time>
      </trkpt>
      <trkpt lat="47.31418" lon="-2.50156">
        <ele>18.39999961853</ele>
        <time>2020-10-04T08:41:49.000Z</time>
      </trkpt>
      <trkpt lat="47.31406" lon="-2.50172">
        <ele>17.799999237061</ele>
        <time>2020-10-04T08:41:52.000Z</time>
      </trkpt>
      <trkpt lat="47.31402" lon="-2.50178">
        <ele>17.39999961853</ele>
        <time>2020-10-04T08:41:53.000Z</time>
      </trkpt>
      <trkpt lat="47.31399" lon="-2.50184">
        <ele>17</ele>
        <time>2020-10-04T08:41:54.000Z</time>
      </trkpt>
      <trkpt lat="47.31395" lon="-2.50189">
        <ele>16.60000038147</ele>
        <time>2020-10-04T08:41:55.000Z</time>
      </trkpt>
      <trkpt lat="47.31391" lon="-2.50195">
        <ele>16.200000762939</ele>
        <time>2020-10-04T08:41:56.000Z</time>
      </trkpt>
      <trkpt lat="47.31376" lon="-2.50215">
        <ele>16.200000762939</ele>
        <time>2020-10-04T08:42:00.000Z</time>
      </trkpt>
      <trkpt lat="47.31373" lon="-2.5022">
        <ele>16.200000762939</ele>
        <time>2020-10-04T08:42:01.000Z</time>
      </trkpt>
      <trkpt lat="47.31345" lon="-2.50262">
        <ele>16.200000762939</ele>
        <time>2020-10-04T08:42:09.000Z</time>
      </trkpt>
      <trkpt lat="47.31322" lon="-2.50296">
        <ele>16.200000762939</ele>
        <time>2020-10-04T08:42:16.000Z</time>
      </trkpt>
      <trkpt lat="47.31299" lon="-2.50329">
        <ele>16.200000762939</ele>
        <time>2020-10-04T08:42:23.000Z</time>
      </trkpt>
      <trkpt lat="47.31296" lon="-2.50333">
        <ele>16.200000762939</ele>
        <time>2020-10-04T08:42:24.000Z</time>
      </trkpt>
      <trkpt lat="47.3127" lon="-2.50367">
        <ele>16.200000762939</ele>
        <time>2020-10-04T08:42:32.000Z</time>
      </trkpt>
      <trkpt lat="47.31238" lon="-2.50408">
        <ele>16.200000762939</ele>
        <time>2020-10-04T08:42:41.000Z</time>
      </trkpt>
      <trkpt lat="47.31205" lon="-2.50454">
        <ele>16.200000762939</ele>
        <time>2020-10-04T08:42:51.000Z</time>
      </trkpt>
      <trkpt lat="47.31181" lon="-2.50483">
        <ele>16.60000038147</ele>
        <time>2020-10-04T08:42:58.000Z</time>
      </trkpt>
      <trkpt lat="47.31178" lon="-2.50487">
        <ele>17</ele>
        <time>2020-10-04T08:42:59.000Z</time>
      </trkpt>
      <trkpt lat="47.31175" lon="-2.5049">
        <ele>17.39999961853</ele>
        <time>2020-10-04T08:43:00.000Z</time>
      </trkpt>
      <trkpt lat="47.31171" lon="-2.50494">
        <ele>17.799999237061</ele>
        <time>2020-10-04T08:43:01.000Z</time>
      </trkpt>
      <trkpt lat="47.31168" lon="-2.50498">
        <ele>18.39999961853</ele>
        <time>2020-10-04T08:43:02.000Z</time>
      </trkpt>
      <trkpt lat="47.31161" lon="-2.50505">
        <ele>18.39999961853</ele>
        <time>2020-10-04T08:43:04.000Z</time>
      </trkpt>
      <trkpt lat="47.31151" lon="-2.50516">
        <ele>18.39999961853</ele>
        <time>2020-10-04T08:43:07.000Z</time>
      </trkpt>
      <trkpt lat="47.3114" lon="-2.50526">
        <ele>18.39999961853</ele>
        <time>2020-10-04T08:43:10.000Z</time>
      </trkpt>
      <trkpt lat="47.31133" lon="-2.50534">
        <ele>18.39999961853</ele>
        <time>2020-10-04T08:43:12.000Z</time>
      </trkpt>
      <trkpt lat="47.31117" lon="-2.50548">
        <ele>18.39999961853</ele>
        <time>2020-10-04T08:43:16.000Z</time>
      </trkpt>
      <trkpt lat="47.3108" lon="-2.50578">
        <ele>18.39999961853</ele>
        <time>2020-10-04T08:43:25.000Z</time>
      </trkpt>
      <trkpt lat="47.31065" lon="-2.5059">
        <ele>18.39999961853</ele>
        <time>2020-10-04T08:43:29.000Z</time>
      </trkpt>
      <trkpt lat="47.31053" lon="-2.50598">
        <ele>18.39999961853</ele>
        <time>2020-10-04T08:43:32.000Z</time>
      </trkpt>
      <trkpt lat="47.31042" lon="-2.50607">
        <ele>18.39999961853</ele>
        <time>2020-10-04T08:43:35.000Z</time>
      </trkpt>
      <trkpt lat="47.31036" lon="-2.50613">
        <ele>18.39999961853</ele>
        <time>2020-10-04T08:43:37.000Z</time>
      </trkpt>
      <trkpt lat="47.31028" lon="-2.50619">
        <ele>18.39999961853</ele>
        <time>2020-10-04T08:43:39.000Z</time>
      </trkpt>
      <trkpt lat="47.30998" lon="-2.50643">
        <ele>18.39999961853</ele>
        <time>2020-10-04T08:43:47.000Z</time>
      </trkpt>
      <trkpt lat="47.30981" lon="-2.50655">
        <ele>18.39999961853</ele>
        <time>2020-10-04T08:43:51.000Z</time>
      </trkpt>
      <trkpt lat="47.30964" lon="-2.50666">
        <ele>18.39999961853</ele>
        <time>2020-10-04T08:43:55.000Z</time>
      </trkpt>
      <trkpt lat="47.30943" lon="-2.50681">
        <ele>18.39999961853</ele>
        <time>2020-10-04T08:44:01.000Z</time>
      </trkpt>
      <trkpt lat="47.30931" lon="-2.5069">
        <ele>18.799999237061</ele>
        <time>2020-10-04T08:44:04.000Z</time>
      </trkpt>
      <trkpt lat="47.30927" lon="-2.50692">
        <ele>19.200000762939</ele>
        <time>2020-10-04T08:44:05.000Z</time>
      </trkpt>
      <trkpt lat="47.30924" lon="-2.50696">
        <ele>19.60000038147</ele>
        <time>2020-10-04T08:44:06.000Z</time>
      </trkpt>
      <trkpt lat="47.3092" lon="-2.50699">
        <ele>20</ele>
        <time>2020-10-04T08:44:07.000Z</time>
      </trkpt>
      <trkpt lat="47.30916" lon="-2.50702">
        <ele>20.39999961853</ele>
        <time>2020-10-04T08:44:08.000Z</time>
      </trkpt>
      <trkpt lat="47.30889" lon="-2.50722">
        <ele>20.39999961853</ele>
        <time>2020-10-04T08:44:15.000Z</time>
      </trkpt>
      <trkpt lat="47.30859" lon="-2.50746">
        <ele>20.39999961853</ele>
        <time>2020-10-04T08:44:23.000Z</time>
      </trkpt>
      <trkpt lat="47.30824" lon="-2.50773">
        <ele>20.39999961853</ele>
        <time>2020-10-04T08:44:32.000Z</time>
      </trkpt>
      <trkpt lat="47.30813" lon="-2.50782">
        <ele>20</ele>
        <time>2020-10-04T08:44:35.000Z</time>
      </trkpt>
      <trkpt lat="47.30809" lon="-2.50785">
        <ele>19.60000038147</ele>
        <time>2020-10-04T08:44:36.000Z</time>
      </trkpt>
      <trkpt lat="47.30805" lon="-2.50788">
        <ele>19.200000762939</ele>
        <time>2020-10-04T08:44:37.000Z</time>
      </trkpt>
      <trkpt lat="47.30802" lon="-2.50791">
        <ele>18.799999237061</ele>
        <time>2020-10-04T08:44:38.000Z</time>
      </trkpt>
      <trkpt lat="47.30798" lon="-2.50793">
        <ele>18.39999961853</ele>
        <time>2020-10-04T08:44:39.000Z</time>
      </trkpt>
      <trkpt lat="47.30795" lon="-2.50795">
        <ele>18.39999961853</ele>
        <time>2020-10-04T08:44:40.000Z</time>
      </trkpt>
      <trkpt lat="47.30771" lon="-2.50816">
        <ele>18.39999961853</ele>
        <time>2020-10-04T08:44:48.000Z</time>
      </trkpt>
      <trkpt lat="47.30764" lon="-2.50822">
        <ele>18.39999961853</ele>
        <time>2020-10-04T08:44:50.000Z</time>
      </trkpt>
      <trkpt lat="47.30748" lon="-2.5083">
        <ele>18.39999961853</ele>
        <time>2020-10-04T08:44:54.000Z</time>
      </trkpt>
      <trkpt lat="47.30732" lon="-2.50831">
        <ele>18.39999961853</ele>
        <time>2020-10-04T08:44:58.000Z</time>
      </trkpt>
      <trkpt lat="47.3072" lon="-2.50841">
        <ele>18.39999961853</ele>
        <time>2020-10-04T08:45:02.000Z</time>
      </trkpt>
      <trkpt lat="47.30704" lon="-2.50857">
        <ele>18.39999961853</ele>
        <time>2020-10-04T08:45:09.000Z</time>
      </trkpt>
      <trkpt lat="47.3069" lon="-2.50869">
        <ele>18.39999961853</ele>
        <time>2020-10-04T08:45:15.000Z</time>
      </trkpt>
      <trkpt lat="47.30688" lon="-2.50873">
        <ele>18.39999961853</ele>
        <time>2020-10-04T08:45:16.000Z</time>
      </trkpt>
      <trkpt lat="47.30686" lon="-2.50879">
        <ele>18.39999961853</ele>
        <time>2020-10-04T08:45:18.000Z</time>
      </trkpt>
      <trkpt lat="47.30674" lon="-2.50893">
        <ele>18.39999961853</ele>
        <time>2020-10-04T08:45:22.000Z</time>
      </trkpt>
      <trkpt lat="47.30648" lon="-2.50913">
        <ele>18.39999961853</ele>
        <time>2020-10-04T08:45:29.000Z</time>
      </trkpt>
      <trkpt lat="47.3062" lon="-2.50936">
        <ele>18.39999961853</ele>
        <time>2020-10-04T08:45:37.000Z</time>
      </trkpt>
      <trkpt lat="47.30608" lon="-2.50945">
        <ele>18.39999961853</ele>
        <time>2020-10-04T08:45:40.000Z</time>
      </trkpt>
      <trkpt lat="47.30597" lon="-2.50954">
        <ele>18.39999961853</ele>
        <time>2020-10-04T08:45:43.000Z</time>
      </trkpt>
      <trkpt lat="47.3057" lon="-2.50976">
        <ele>18.39999961853</ele>
        <time>2020-10-04T08:45:50.000Z</time>
      </trkpt>
      <trkpt lat="47.30552" lon="-2.50984">
        <ele>18.39999961853</ele>
        <time>2020-10-04T08:45:54.000Z</time>
      </trkpt>
      <trkpt lat="47.30539" lon="-2.50991">
        <ele>18.39999961853</ele>
        <time>2020-10-04T08:45:57.000Z</time>
      </trkpt>
      <trkpt lat="47.30511" lon="-2.51007">
        <ele>18.39999961853</ele>
        <time>2020-10-04T08:46:03.000Z</time>
      </trkpt>
      <trkpt lat="47.30496" lon="-2.51014">
        <ele>18.39999961853</ele>
        <time>2020-10-04T08:46:06.000Z</time>
      </trkpt>
      <trkpt lat="47.30487" lon="-2.51018">
        <ele>18.39999961853</ele>
        <time>2020-10-04T08:46:08.000Z</time>
      </trkpt>
      <trkpt lat="47.30478" lon="-2.51023">
        <ele>18.39999961853</ele>
        <time>2020-10-04T08:46:10.000Z</time>
      </trkpt>
      <trkpt lat="47.30464" lon="-2.5103">
        <ele>18.39999961853</ele>
        <time>2020-10-04T08:46:13.000Z</time>
      </trkpt>
      <trkpt lat="47.30437" lon="-2.51045">
        <ele>18.39999961853</ele>
        <time>2020-10-04T08:46:19.000Z</time>
      </trkpt>
      <trkpt lat="47.30433" lon="-2.51047">
        <ele>18.39999961853</ele>
        <time>2020-10-04T08:46:20.000Z</time>
      </trkpt>
      <trkpt lat="47.30404" lon="-2.51059">
        <ele>18.39999961853</ele>
        <time>2020-10-04T08:46:27.000Z</time>
      </trkpt>
      <trkpt lat="47.30395" lon="-2.51062">
        <ele>18</ele>
        <time>2020-10-04T08:46:29.000Z</time>
      </trkpt>
      <trkpt lat="47.30391" lon="-2.51062">
        <ele>17.60000038147</ele>
        <time>2020-10-04T08:46:30.000Z</time>
      </trkpt>
      <trkpt lat="47.30387" lon="-2.51063">
        <ele>17.200000762939</ele>
        <time>2020-10-04T08:46:31.000Z</time>
      </trkpt>
      <trkpt lat="47.30384" lon="-2.51064">
        <ele>16.60000038147</ele>
        <time>2020-10-04T08:46:32.000Z</time>
      </trkpt>
      <trkpt lat="47.3038" lon="-2.51064">
        <ele>16.200000762939</ele>
        <time>2020-10-04T08:46:33.000Z</time>
      </trkpt>
      <trkpt lat="47.30376" lon="-2.51064">
        <ele>16.200000762939</ele>
        <time>2020-10-04T08:46:34.000Z</time>
      </trkpt>
      <trkpt lat="47.30359" lon="-2.51061">
        <ele>16.200000762939</ele>
        <time>2020-10-04T08:46:39.000Z</time>
      </trkpt>
      <trkpt lat="47.30336" lon="-2.5106">
        <ele>16.200000762939</ele>
        <time>2020-10-04T08:46:45.000Z</time>
      </trkpt>
      <trkpt lat="47.30305" lon="-2.51059">
        <ele>16.200000762939</ele>
        <time>2020-10-04T08:46:52.000Z</time>
      </trkpt>
      <trkpt lat="47.30279" lon="-2.51058">
        <ele>16.200000762939</ele>
        <time>2020-10-04T08:46:58.000Z</time>
      </trkpt>
      <trkpt lat="47.30275" lon="-2.51058">
        <ele>16.200000762939</ele>
        <time>2020-10-04T08:46:59.000Z</time>
      </trkpt>
      <trkpt lat="47.3025" lon="-2.51065">
        <ele>16.200000762939</ele>
        <time>2020-10-04T08:47:05.000Z</time>
      </trkpt>
      <trkpt lat="47.30228" lon="-2.51068">
        <ele>16.200000762939</ele>
        <time>2020-10-04T08:47:11.000Z</time>
      </trkpt>
      <trkpt lat="47.30205" lon="-2.51078">
        <ele>16.200000762939</ele>
        <time>2020-10-04T08:47:18.000Z</time>
      </trkpt>
      <trkpt lat="47.30196" lon="-2.51081">
        <ele>16.200000762939</ele>
        <time>2020-10-04T08:47:21.000Z</time>
      </trkpt>
      <trkpt lat="47.30186" lon="-2.51084">
        <ele>16.200000762939</ele>
        <time>2020-10-04T08:47:25.000Z</time>
      </trkpt>
      <trkpt lat="47.30164" lon="-2.51093">
        <ele>16.200000762939</ele>
        <time>2020-10-04T08:47:33.000Z</time>
      </trkpt>
      <trkpt lat="47.30158" lon="-2.51097">
        <ele>16.200000762939</ele>
        <time>2020-10-04T08:47:37.000Z</time>
      </trkpt>
      <trkpt lat="47.30167" lon="-2.51098">
        <ele>16.200000762939</ele>
        <time>2020-10-04T08:57:02.000Z</time>
      </trkpt>
      <trkpt lat="47.30168" lon="-2.51097">
        <ele>16.200000762939</ele>
        <time>2020-10-04T08:57:04.000Z</time>
      </trkpt>
      <trkpt lat="47.30174" lon="-2.51095">
        <ele>16.200000762939</ele>
        <time>2020-10-04T08:57:33.000Z</time>
      </trkpt>
      <trkpt lat="47.30175" lon="-2.51094">
        <ele>16.200000762939</ele>
        <time>2020-10-04T08:57:34.000Z</time>
      </trkpt>
      <trkpt lat="47.30187" lon="-2.51087">
        <ele>16.200000762939</ele>
        <time>2020-10-04T08:57:39.000Z</time>
      </trkpt>
      <trkpt lat="47.30203" lon="-2.51077">
        <ele>16.200000762939</ele>
        <time>2020-10-04T08:57:45.000Z</time>
      </trkpt>
      <trkpt lat="47.30219" lon="-2.51072">
        <ele>16.200000762939</ele>
        <time>2020-10-04T08:57:50.000Z</time>
      </trkpt>
      <trkpt lat="47.30239" lon="-2.51067">
        <ele>16.200000762939</ele>
        <time>2020-10-04T08:57:56.000Z</time>
      </trkpt>
      <trkpt lat="47.30265" lon="-2.5106">
        <ele>16.200000762939</ele>
        <time>2020-10-04T08:58:03.000Z</time>
      </trkpt>
      <trkpt lat="47.30294" lon="-2.51056">
        <ele>16.200000762939</ele>
        <time>2020-10-04T08:58:10.000Z</time>
      </trkpt>
      <trkpt lat="47.30319" lon="-2.51057">
        <ele>16.200000762939</ele>
        <time>2020-10-04T08:58:16.000Z</time>
      </trkpt>
      <trkpt lat="47.30327" lon="-2.51059">
        <ele>16.200000762939</ele>
        <time>2020-10-04T08:58:18.000Z</time>
      </trkpt>
      <trkpt lat="47.30356" lon="-2.51064">
        <ele>16.200000762939</ele>
        <time>2020-10-04T08:58:25.000Z</time>
      </trkpt>
      <trkpt lat="47.30361" lon="-2.51064">
        <ele>16.200000762939</ele>
        <time>2020-10-04T08:58:26.000Z</time>
      </trkpt>
      <trkpt lat="47.30373" lon="-2.51058">
        <ele>16.200000762939</ele>
        <time>2020-10-04T08:58:29.000Z</time>
      </trkpt>
      <trkpt lat="47.30389" lon="-2.51059">
        <ele>16.200000762939</ele>
        <time>2020-10-04T08:58:33.000Z</time>
      </trkpt>
      <trkpt lat="47.30401" lon="-2.5106">
        <ele>16.200000762939</ele>
        <time>2020-10-04T08:58:36.000Z</time>
      </trkpt>
      <trkpt lat="47.30433" lon="-2.51047">
        <ele>16.200000762939</ele>
        <time>2020-10-04T08:58:43.000Z</time>
      </trkpt>
      <trkpt lat="47.30466" lon="-2.51029">
        <ele>16.200000762939</ele>
        <time>2020-10-04T08:58:50.000Z</time>
      </trkpt>
      <trkpt lat="47.30493" lon="-2.51012">
        <ele>16.200000762939</ele>
        <time>2020-10-04T08:58:56.000Z</time>
      </trkpt>
      <trkpt lat="47.30522" lon="-2.50997">
        <ele>16.200000762939</ele>
        <time>2020-10-04T08:59:02.000Z</time>
      </trkpt>
      <trkpt lat="47.30546" lon="-2.50983">
        <ele>16.60000038147</ele>
        <time>2020-10-04T08:59:07.000Z</time>
      </trkpt>
      <trkpt lat="47.30551" lon="-2.5098">
        <ele>17.200000762939</ele>
        <time>2020-10-04T08:59:08.000Z</time>
      </trkpt>
      <trkpt lat="47.30557" lon="-2.50977">
        <ele>17.60000038147</ele>
        <time>2020-10-04T08:59:09.000Z</time>
      </trkpt>
      <trkpt lat="47.30562" lon="-2.50974">
        <ele>18</ele>
        <time>2020-10-04T08:59:10.000Z</time>
      </trkpt>
      <trkpt lat="47.30567" lon="-2.50971">
        <ele>18.39999961853</ele>
        <time>2020-10-04T08:59:11.000Z</time>
      </trkpt>
      <trkpt lat="47.30601" lon="-2.50948">
        <ele>18.39999961853</ele>
        <time>2020-10-04T08:59:18.000Z</time>
      </trkpt>
      <trkpt lat="47.30631" lon="-2.50924">
        <ele>18.39999961853</ele>
        <time>2020-10-04T08:59:25.000Z</time>
      </trkpt>
      <trkpt lat="47.30657" lon="-2.509">
        <ele>18.39999961853</ele>
        <time>2020-10-04T08:59:31.000Z</time>
      </trkpt>
      <trkpt lat="47.30677" lon="-2.50887">
        <ele>18.39999961853</ele>
        <time>2020-10-04T08:59:35.000Z</time>
      </trkpt>
      <trkpt lat="47.30691" lon="-2.50877">
        <ele>18.39999961853</ele>
        <time>2020-10-04T08:59:38.000Z</time>
      </trkpt>
      <trkpt lat="47.30728" lon="-2.50847">
        <ele>18.39999961853</ele>
        <time>2020-10-04T08:59:46.000Z</time>
      </trkpt>
      <trkpt lat="47.30773" lon="-2.50813">
        <ele>18.39999961853</ele>
        <time>2020-10-04T08:59:55.000Z</time>
      </trkpt>
      <trkpt lat="47.30822" lon="-2.50776">
        <ele>18.39999961853</ele>
        <time>2020-10-04T09:00:05.000Z</time>
      </trkpt>
      <trkpt lat="47.30861" lon="-2.50748">
        <ele>18.39999961853</ele>
        <time>2020-10-04T09:00:13.000Z</time>
      </trkpt>
      <trkpt lat="47.30896" lon="-2.5072">
        <ele>18.39999961853</ele>
        <time>2020-10-04T09:00:20.000Z</time>
      </trkpt>
      <trkpt lat="47.3091" lon="-2.50709">
        <ele>18.39999961853</ele>
        <time>2020-10-04T09:00:23.000Z</time>
      </trkpt>
      <trkpt lat="47.30918" lon="-2.507">
        <ele>18.39999961853</ele>
        <time>2020-10-04T09:00:25.000Z</time>
      </trkpt>
      <trkpt lat="47.30927" lon="-2.50693">
        <ele>18.39999961853</ele>
        <time>2020-10-04T09:00:27.000Z</time>
      </trkpt>
      <trkpt lat="47.3095" lon="-2.50674">
        <ele>18.39999961853</ele>
        <time>2020-10-04T09:00:32.000Z</time>
      </trkpt>
      <trkpt lat="47.30964" lon="-2.50662">
        <ele>18.799999237061</ele>
        <time>2020-10-04T09:00:35.000Z</time>
      </trkpt>
      <trkpt lat="47.30969" lon="-2.50659">
        <ele>19.200000762939</ele>
        <time>2020-10-04T09:00:36.000Z</time>
      </trkpt>
      <trkpt lat="47.30973" lon="-2.50655">
        <ele>19.799999237061</ele>
        <time>2020-10-04T09:00:37.000Z</time>
      </trkpt>
      <trkpt lat="47.30978" lon="-2.50652">
        <ele>20.200000762939</ele>
        <time>2020-10-04T09:00:38.000Z</time>
      </trkpt>
      <trkpt lat="47.30982" lon="-2.50648">
        <ele>20.60000038147</ele>
        <time>2020-10-04T09:00:39.000Z</time>
      </trkpt>
      <trkpt lat="47.31024" lon="-2.50616">
        <ele>20.60000038147</ele>
        <time>2020-10-04T09:00:48.000Z</time>
      </trkpt>
      <trkpt lat="47.31057" lon="-2.50591">
        <ele>20.60000038147</ele>
        <time>2020-10-04T09:00:55.000Z</time>
      </trkpt>
      <trkpt lat="47.31072" lon="-2.5058">
        <ele>20.60000038147</ele>
        <time>2020-10-04T09:00:58.000Z</time>
      </trkpt>
      <trkpt lat="47.31092" lon="-2.50564">
        <ele>20.60000038147</ele>
        <time>2020-10-04T09:01:02.000Z</time>
      </trkpt>
      <trkpt lat="47.31122" lon="-2.50541">
        <ele>20.60000038147</ele>
        <time>2020-10-04T09:01:08.000Z</time>
      </trkpt>
      <trkpt lat="47.3114" lon="-2.50524">
        <ele>20.60000038147</ele>
        <time>2020-10-04T09:01:12.000Z</time>
      </trkpt>
      <trkpt lat="47.31169" lon="-2.50496">
        <ele>20.200000762939</ele>
        <time>2020-10-04T09:01:18.000Z</time>
      </trkpt>
      <trkpt lat="47.31174" lon="-2.5049">
        <ele>19.799999237061</ele>
        <time>2020-10-04T09:01:19.000Z</time>
      </trkpt>
      <trkpt lat="47.31179" lon="-2.50484">
        <ele>19.39999961853</ele>
        <time>2020-10-04T09:01:20.000Z</time>
      </trkpt>
      <trkpt lat="47.31183" lon="-2.50479">
        <ele>19</ele>
        <time>2020-10-04T09:01:21.000Z</time>
      </trkpt>
      <trkpt lat="47.31188" lon="-2.50473">
        <ele>18.60000038147</ele>
        <time>2020-10-04T09:01:22.000Z</time>
      </trkpt>
      <trkpt lat="47.31211" lon="-2.50446">
        <ele>18.60000038147</ele>
        <time>2020-10-04T09:01:27.000Z</time>
      </trkpt>
      <trkpt lat="47.31237" lon="-2.50412">
        <ele>18.60000038147</ele>
        <time>2020-10-04T09:01:33.000Z</time>
      </trkpt>
      <trkpt lat="47.31278" lon="-2.5036">
        <ele>18.60000038147</ele>
        <time>2020-10-04T09:01:42.000Z</time>
      </trkpt>
      <trkpt lat="47.31283" lon="-2.50353">
        <ele>18.60000038147</ele>
        <time>2020-10-04T09:01:43.000Z</time>
      </trkpt>
      <trkpt lat="47.31296" lon="-2.50333">
        <ele>18.200000762939</ele>
        <time>2020-10-04T09:01:46.000Z</time>
      </trkpt>
      <trkpt lat="47.31301" lon="-2.50327">
        <ele>17.799999237061</ele>
        <time>2020-10-04T09:01:47.000Z</time>
      </trkpt>
      <trkpt lat="47.31306" lon="-2.5032">
        <ele>17.39999961853</ele>
        <time>2020-10-04T09:01:48.000Z</time>
      </trkpt>
      <trkpt lat="47.31311" lon="-2.50313">
        <ele>17</ele>
        <time>2020-10-04T09:01:49.000Z</time>
      </trkpt>
      <trkpt lat="47.31316" lon="-2.50305">
        <ele>16.60000038147</ele>
        <time>2020-10-04T09:01:50.000Z</time>
      </trkpt>
      <trkpt lat="47.31355" lon="-2.50247">
        <ele>16.60000038147</ele>
        <time>2020-10-04T09:01:59.000Z</time>
      </trkpt>
      <trkpt lat="47.31382" lon="-2.50204">
        <ele>16.60000038147</ele>
        <time>2020-10-04T09:02:05.000Z</time>
      </trkpt>
      <trkpt lat="47.31413" lon="-2.50159">
        <ele>16.60000038147</ele>
        <time>2020-10-04T09:02:12.000Z</time>
      </trkpt>
      <trkpt lat="47.3144" lon="-2.50119">
        <ele>16.60000038147</ele>
        <time>2020-10-04T09:02:18.000Z</time>
      </trkpt>
      <trkpt lat="47.31462" lon="-2.50079">
        <ele>16.60000038147</ele>
        <time>2020-10-04T09:02:24.000Z</time>
      </trkpt>
      <trkpt lat="47.31499" lon="-2.50023">
        <ele>16.60000038147</ele>
        <time>2020-10-04T09:02:33.000Z</time>
      </trkpt>
      <trkpt lat="47.31538" lon="-2.49968">
        <ele>16.60000038147</ele>
        <time>2020-10-04T09:02:42.000Z</time>
      </trkpt>
      <trkpt lat="47.31542" lon="-2.49962">
        <ele>16.60000038147</ele>
        <time>2020-10-04T09:02:43.000Z</time>
      </trkpt>
      <trkpt lat="47.31576" lon="-2.49912">
        <ele>16.60000038147</ele>
        <time>2020-10-04T09:02:51.000Z</time>
      </trkpt>
      <trkpt lat="47.31604" lon="-2.49868">
        <ele>16.60000038147</ele>
        <time>2020-10-04T09:02:58.000Z</time>
      </trkpt>
      <trkpt lat="47.31608" lon="-2.49863">
        <ele>16.60000038147</ele>
        <time>2020-10-04T09:02:59.000Z</time>
      </trkpt>
      <trkpt lat="47.31629" lon="-2.49835">
        <ele>16.60000038147</ele>
        <time>2020-10-04T09:03:04.000Z</time>
      </trkpt>
      <trkpt lat="47.3166" lon="-2.49783">
        <ele>16.60000038147</ele>
        <time>2020-10-04T09:03:12.000Z</time>
      </trkpt>
      <trkpt lat="47.31665" lon="-2.49777">
        <ele>16.60000038147</ele>
        <time>2020-10-04T09:03:13.000Z</time>
      </trkpt>
      <trkpt lat="47.31685" lon="-2.49746">
        <ele>16.60000038147</ele>
        <time>2020-10-04T09:03:18.000Z</time>
      </trkpt>
      <trkpt lat="47.31725" lon="-2.49685">
        <ele>16.60000038147</ele>
        <time>2020-10-04T09:03:27.000Z</time>
      </trkpt>
      <trkpt lat="47.31761" lon="-2.49632">
        <ele>16.60000038147</ele>
        <time>2020-10-04T09:03:35.000Z</time>
      </trkpt>
      <trkpt lat="47.31791" lon="-2.49586">
        <ele>16.60000038147</ele>
        <time>2020-10-04T09:03:42.000Z</time>
      </trkpt>
      <trkpt lat="47.31827" lon="-2.49533">
        <ele>16.60000038147</ele>
        <time>2020-10-04T09:03:50.000Z</time>
      </trkpt>
      <trkpt lat="47.31866" lon="-2.49471">
        <ele>16.60000038147</ele>
        <time>2020-10-04T09:03:59.000Z</time>
      </trkpt>
      <trkpt lat="47.31891" lon="-2.49432">
        <ele>16.60000038147</ele>
        <time>2020-10-04T09:04:05.000Z</time>
      </trkpt>
      <trkpt lat="47.319" lon="-2.49418">
        <ele>16.60000038147</ele>
        <time>2020-10-04T09:04:07.000Z</time>
      </trkpt>
      <trkpt lat="47.31928" lon="-2.49375">
        <ele>16.60000038147</ele>
        <time>2020-10-04T09:04:14.000Z</time>
      </trkpt>
      <trkpt lat="47.31942" lon="-2.49359">
        <ele>16.60000038147</ele>
        <time>2020-10-04T09:04:18.000Z</time>
      </trkpt>
      <trkpt lat="47.31946" lon="-2.49353">
        <ele>16.60000038147</ele>
        <time>2020-10-04T09:04:19.000Z</time>
      </trkpt>
      <trkpt lat="47.31966" lon="-2.49322">
        <ele>16.60000038147</ele>
        <time>2020-10-04T09:04:24.000Z</time>
      </trkpt>
      <trkpt lat="47.31982" lon="-2.49292">
        <ele>16.60000038147</ele>
        <time>2020-10-04T09:04:29.000Z</time>
      </trkpt>
      <trkpt lat="47.31984" lon="-2.49287">
        <ele>16.60000038147</ele>
        <time>2020-10-04T09:04:30.000Z</time>
      </trkpt>
      <trkpt lat="47.31999" lon="-2.49264">
        <ele>16.60000038147</ele>
        <time>2020-10-04T09:04:34.000Z</time>
      </trkpt>
      <trkpt lat="47.32023" lon="-2.49225">
        <ele>16.60000038147</ele>
        <time>2020-10-04T09:04:40.000Z</time>
      </trkpt>
      <trkpt lat="47.32061" lon="-2.49166">
        <ele>16.60000038147</ele>
        <time>2020-10-04T09:04:49.000Z</time>
      </trkpt>
      <trkpt lat="47.32069" lon="-2.49153">
        <ele>16.60000038147</ele>
        <time>2020-10-04T09:04:51.000Z</time>
      </trkpt>
      <trkpt lat="47.32104" lon="-2.49109">
        <ele>16.60000038147</ele>
        <time>2020-10-04T09:04:59.000Z</time>
      </trkpt>
      <trkpt lat="47.32116" lon="-2.49095">
        <ele>15.800000190735</ele>
        <time>2020-10-04T09:05:02.000Z</time>
      </trkpt>
      <trkpt lat="47.32119" lon="-2.4909">
        <ele>15.39999961853</ele>
        <time>2020-10-04T09:05:03.000Z</time>
      </trkpt>
      <trkpt lat="47.32122" lon="-2.49085">
        <ele>15</ele>
        <time>2020-10-04T09:05:04.000Z</time>
      </trkpt>
      <trkpt lat="47.32124" lon="-2.49079">
        <ele>14.39999961853</ele>
        <time>2020-10-04T09:05:05.000Z</time>
      </trkpt>
      <trkpt lat="47.32127" lon="-2.49065">
        <ele>14.39999961853</ele>
        <time>2020-10-04T09:05:07.000Z</time>
      </trkpt>
      <trkpt lat="47.32129" lon="-2.49059">
        <ele>14.39999961853</ele>
        <time>2020-10-04T09:05:08.000Z</time>
      </trkpt>
      <trkpt lat="47.32131" lon="-2.49053">
        <ele>14.39999961853</ele>
        <time>2020-10-04T09:05:09.000Z</time>
      </trkpt>
      <trkpt lat="47.32139" lon="-2.49036">
        <ele>14.39999961853</ele>
        <time>2020-10-04T09:05:12.000Z</time>
      </trkpt>
      <trkpt lat="47.3214" lon="-2.49015">
        <ele>14.39999961853</ele>
        <time>2020-10-04T09:05:15.000Z</time>
      </trkpt>
      <trkpt lat="47.3214" lon="-2.49007">
        <ele>14.39999961853</ele>
        <time>2020-10-04T09:05:16.000Z</time>
      </trkpt>
      <trkpt lat="47.32138" lon="-2.48947">
        <ele>14.39999961853</ele>
        <time>2020-10-04T09:05:23.000Z</time>
      </trkpt>
      <trkpt lat="47.32139" lon="-2.48938">
        <ele>14.39999961853</ele>
        <time>2020-10-04T09:05:24.000Z</time>
      </trkpt>
      <trkpt lat="47.32144" lon="-2.48914">
        <ele>14.39999961853</ele>
        <time>2020-10-04T09:05:27.000Z</time>
      </trkpt>
      <trkpt lat="47.32154" lon="-2.48891">
        <ele>14.39999961853</ele>
        <time>2020-10-04T09:05:30.000Z</time>
      </trkpt>
      <trkpt lat="47.32161" lon="-2.48877">
        <ele>14.39999961853</ele>
        <time>2020-10-04T09:05:32.000Z</time>
      </trkpt>
      <trkpt lat="47.32195" lon="-2.48815">
        <ele>14.39999961853</ele>
        <time>2020-10-04T09:05:41.000Z</time>
      </trkpt>
      <trkpt lat="47.32212" lon="-2.48789">
        <ele>14.39999961853</ele>
        <time>2020-10-04T09:05:45.000Z</time>
      </trkpt>
      <trkpt lat="47.32218" lon="-2.48775">
        <ele>14.39999961853</ele>
        <time>2020-10-04T09:05:47.000Z</time>
      </trkpt>
      <trkpt lat="47.32234" lon="-2.48734">
        <ele>14.39999961853</ele>
        <time>2020-10-04T09:05:52.000Z</time>
      </trkpt>
      <trkpt lat="47.32235" lon="-2.48725">
        <ele>14.39999961853</ele>
        <time>2020-10-04T09:05:53.000Z</time>
      </trkpt>
      <trkpt lat="47.32245" lon="-2.48683">
        <ele>14.39999961853</ele>
        <time>2020-10-04T09:05:58.000Z</time>
      </trkpt>
      <trkpt lat="47.32248" lon="-2.48675">
        <ele>14.39999961853</ele>
        <time>2020-10-04T09:05:59.000Z</time>
      </trkpt>
      <trkpt lat="47.32261" lon="-2.48656">
        <ele>14.39999961853</ele>
        <time>2020-10-04T09:06:02.000Z</time>
      </trkpt>
      <trkpt lat="47.32267" lon="-2.4865">
        <ele>14.39999961853</ele>
        <time>2020-10-04T09:06:03.000Z</time>
      </trkpt>
      <trkpt lat="47.32296" lon="-2.48629">
        <ele>14.39999961853</ele>
        <time>2020-10-04T09:06:08.000Z</time>
      </trkpt>
      <trkpt lat="47.32348" lon="-2.48592">
        <ele>14.39999961853</ele>
        <time>2020-10-04T09:06:17.000Z</time>
      </trkpt>
      <trkpt lat="47.32396" lon="-2.48566">
        <ele>14.39999961853</ele>
        <time>2020-10-04T09:06:25.000Z</time>
      </trkpt>
      <trkpt lat="47.32433" lon="-2.48569">
        <ele>14.39999961853</ele>
        <time>2020-10-04T09:06:31.000Z</time>
      </trkpt>
      <trkpt lat="47.32466" lon="-2.48581">
        <ele>14.800000190735</ele>
        <time>2020-10-04T09:06:37.000Z</time>
      </trkpt>
      <trkpt lat="47.32471" lon="-2.48585">
        <ele>15.199999809265</ele>
        <time>2020-10-04T09:06:38.000Z</time>
      </trkpt>
      <trkpt lat="47.32476" lon="-2.48588">
        <ele>15.60000038147</ele>
        <time>2020-10-04T09:06:39.000Z</time>
      </trkpt>
      <trkpt lat="47.32481" lon="-2.48593">
        <ele>16</ele>
        <time>2020-10-04T09:06:40.000Z</time>
      </trkpt>
      <trkpt lat="47.32486" lon="-2.48597">
        <ele>16.39999961853</ele>
        <time>2020-10-04T09:06:41.000Z</time>
      </trkpt>
      <trkpt lat="47.32512" lon="-2.4862">
        <ele>16.39999961853</ele>
        <time>2020-10-04T09:06:46.000Z</time>
      </trkpt>
      <trkpt lat="47.32551" lon="-2.48657">
        <ele>16.39999961853</ele>
        <time>2020-10-04T09:06:54.000Z</time>
      </trkpt>
      <trkpt lat="47.3256" lon="-2.48664">
        <ele>16.39999961853</ele>
        <time>2020-10-04T09:06:56.000Z</time>
      </trkpt>
      <trkpt lat="47.32582" lon="-2.48672">
        <ele>16.39999961853</ele>
        <time>2020-10-04T09:07:00.000Z</time>
      </trkpt>
      <trkpt lat="47.32592" lon="-2.48673">
        <ele>16.39999961853</ele>
        <time>2020-10-04T09:07:02.000Z</time>
      </trkpt>
      <trkpt lat="47.32614" lon="-2.48669">
        <ele>15.60000038147</ele>
        <time>2020-10-04T09:07:06.000Z</time>
      </trkpt>
      <trkpt lat="47.3262" lon="-2.48668">
        <ele>15.199999809265</ele>
        <time>2020-10-04T09:07:07.000Z</time>
      </trkpt>
      <trkpt lat="47.32625" lon="-2.48666">
        <ele>14.800000190735</ele>
        <time>2020-10-04T09:07:08.000Z</time>
      </trkpt>
      <trkpt lat="47.32631" lon="-2.48664">
        <ele>14.39999961853</ele>
        <time>2020-10-04T09:07:09.000Z</time>
      </trkpt>
      <trkpt lat="47.32659" lon="-2.48651">
        <ele>14.39999961853</ele>
        <time>2020-10-04T09:07:14.000Z</time>
      </trkpt>
      <trkpt lat="47.327" lon="-2.48631">
        <ele>14.39999961853</ele>
        <time>2020-10-04T09:07:21.000Z</time>
      </trkpt>
      <trkpt lat="47.32746" lon="-2.48604">
        <ele>14.39999961853</ele>
        <time>2020-10-04T09:07:29.000Z</time>
      </trkpt>
      <trkpt lat="47.32788" lon="-2.48589">
        <ele>14.39999961853</ele>
        <time>2020-10-04T09:07:36.000Z</time>
      </trkpt>
      <trkpt lat="47.32837" lon="-2.4859">
        <ele>14.39999961853</ele>
        <time>2020-10-04T09:07:44.000Z</time>
      </trkpt>
      <trkpt lat="47.32848" lon="-2.48591">
        <ele>14.39999961853</ele>
        <time>2020-10-04T09:07:46.000Z</time>
      </trkpt>
      <trkpt lat="47.32883" lon="-2.48589">
        <ele>14.39999961853</ele>
        <time>2020-10-04T09:07:52.000Z</time>
      </trkpt>
      <trkpt lat="47.32889" lon="-2.48587">
        <ele>14.39999961853</ele>
        <time>2020-10-04T09:07:53.000Z</time>
      </trkpt>
      <trkpt lat="47.32905" lon="-2.48576">
        <ele>14.39999961853</ele>
        <time>2020-10-04T09:07:56.000Z</time>
      </trkpt>
      <trkpt lat="47.32918" lon="-2.4856">
        <ele>14.39999961853</ele>
        <time>2020-10-04T09:07:59.000Z</time>
      </trkpt>
      <trkpt lat="47.32931" lon="-2.48544">
        <ele>14.39999961853</ele>
        <time>2020-10-04T09:08:02.000Z</time>
      </trkpt>
      <trkpt lat="47.32963" lon="-2.48508">
        <ele>14.39999961853</ele>
        <time>2020-10-04T09:08:09.000Z</time>
      </trkpt>
      <trkpt lat="47.33001" lon="-2.48478">
        <ele>14.39999961853</ele>
        <time>2020-10-04T09:08:16.000Z</time>
      </trkpt>
      <trkpt lat="47.33051" lon="-2.48447">
        <ele>14.39999961853</ele>
        <time>2020-10-04T09:08:25.000Z</time>
      </trkpt>
      <trkpt lat="47.33095" lon="-2.48419">
        <ele>14.39999961853</ele>
        <time>2020-10-04T09:08:33.000Z</time>
      </trkpt>
      <trkpt lat="47.33126" lon="-2.48395">
        <ele>14.39999961853</ele>
        <time>2020-10-04T09:08:39.000Z</time>
      </trkpt>
      <trkpt lat="47.3313" lon="-2.48388">
        <ele>14.39999961853</ele>
        <time>2020-10-04T09:08:40.000Z</time>
      </trkpt>
      <trkpt lat="47.33143" lon="-2.48358">
        <ele>14.39999961853</ele>
        <time>2020-10-04T09:08:44.000Z</time>
      </trkpt>
      <trkpt lat="47.33146" lon="-2.48324">
        <ele>14.39999961853</ele>
        <time>2020-10-04T09:08:48.000Z</time>
      </trkpt>
      <trkpt lat="47.33146" lon="-2.48315">
        <ele>14.39999961853</ele>
        <time>2020-10-04T09:08:49.000Z</time>
      </trkpt>
      <trkpt lat="47.33145" lon="-2.48261">
        <ele>14.39999961853</ele>
        <time>2020-10-04T09:08:55.000Z</time>
      </trkpt>
      <trkpt lat="47.33142" lon="-2.48188">
        <ele>14.39999961853</ele>
        <time>2020-10-04T09:09:03.000Z</time>
      </trkpt>
      <trkpt lat="47.33144" lon="-2.48101">
        <ele>14.39999961853</ele>
        <time>2020-10-04T09:09:12.000Z</time>
      </trkpt>
      <trkpt lat="47.33146" lon="-2.48043">
        <ele>14.39999961853</ele>
        <time>2020-10-04T09:09:18.000Z</time>
      </trkpt>
      <trkpt lat="47.33147" lon="-2.48023">
        <ele>14.39999961853</ele>
        <time>2020-10-04T09:09:20.000Z</time>
      </trkpt>
      <trkpt lat="47.33149" lon="-2.47943">
        <ele>14.39999961853</ele>
        <time>2020-10-04T09:09:28.000Z</time>
      </trkpt>
      <trkpt lat="47.33147" lon="-2.47923">
        <ele>14.39999961853</ele>
        <time>2020-10-04T09:09:30.000Z</time>
      </trkpt>
      <trkpt lat="47.33137" lon="-2.47885">
        <ele>14.39999961853</ele>
        <time>2020-10-04T09:09:34.000Z</time>
      </trkpt>
      <trkpt lat="47.33133" lon="-2.47875">
        <ele>14.39999961853</ele>
        <time>2020-10-04T09:09:35.000Z</time>
      </trkpt>
      <trkpt lat="47.33113" lon="-2.47831">
        <ele>14.39999961853</ele>
        <time>2020-10-04T09:09:40.000Z</time>
      </trkpt>
      <trkpt lat="47.33107" lon="-2.47824">
        <ele>14.39999961853</ele>
        <time>2020-10-04T09:09:41.000Z</time>
      </trkpt>
      <trkpt lat="47.33082" lon="-2.47807">
        <ele>14.39999961853</ele>
        <time>2020-10-04T09:09:45.000Z</time>
      </trkpt>
      <trkpt lat="47.33068" lon="-2.47802">
        <ele>14.39999961853</ele>
        <time>2020-10-04T09:09:47.000Z</time>
      </trkpt>
      <trkpt lat="47.33041" lon="-2.47795">
        <ele>14.39999961853</ele>
        <time>2020-10-04T09:09:51.000Z</time>
      </trkpt>
      <trkpt lat="47.3301" lon="-2.47782">
        <ele>14.39999961853</ele>
        <time>2020-10-04T09:09:56.000Z</time>
      </trkpt>
      <trkpt lat="47.32998" lon="-2.47774">
        <ele>14.39999961853</ele>
        <time>2020-10-04T09:09:58.000Z</time>
      </trkpt>
      <trkpt lat="47.32967" lon="-2.47745">
        <ele>14.39999961853</ele>
        <time>2020-10-04T09:10:04.000Z</time>
      </trkpt>
      <trkpt lat="47.32944" lon="-2.47711">
        <ele>14.39999961853</ele>
        <time>2020-10-04T09:10:09.000Z</time>
      </trkpt>
      <trkpt lat="47.3294" lon="-2.47703">
        <ele>14.39999961853</ele>
        <time>2020-10-04T09:10:10.000Z</time>
      </trkpt>
      <trkpt lat="47.32932" lon="-2.47665">
        <ele>14.39999961853</ele>
        <time>2020-10-04T09:10:14.000Z</time>
      </trkpt>
      <trkpt lat="47.32918" lon="-2.4759">
        <ele>14.39999961853</ele>
        <time>2020-10-04T09:10:22.000Z</time>
      </trkpt>
      <trkpt lat="47.32918" lon="-2.47561">
        <ele>14.39999961853</ele>
        <time>2020-10-04T09:10:25.000Z</time>
      </trkpt>
      <trkpt lat="47.3292" lon="-2.47543">
        <ele>14.39999961853</ele>
        <time>2020-10-04T09:10:27.000Z</time>
      </trkpt>
      <trkpt lat="47.32921" lon="-2.47524">
        <ele>14.39999961853</ele>
        <time>2020-10-04T09:10:29.000Z</time>
      </trkpt>
      <trkpt lat="47.32917" lon="-2.47497">
        <ele>14.39999961853</ele>
        <time>2020-10-04T09:10:32.000Z</time>
      </trkpt>
      <trkpt lat="47.32915" lon="-2.47489">
        <ele>14.39999961853</ele>
        <time>2020-10-04T09:10:33.000Z</time>
      </trkpt>
      <trkpt lat="47.32912" lon="-2.47475">
        <ele>14.39999961853</ele>
        <time>2020-10-04T09:10:36.000Z</time>
      </trkpt>
      <trkpt lat="47.32908" lon="-2.47452">
        <ele>14.39999961853</ele>
        <time>2020-10-04T09:10:42.000Z</time>
      </trkpt>
      <trkpt lat="47.32899" lon="-2.47417">
        <ele>14.39999961853</ele>
        <time>2020-10-04T09:10:47.000Z</time>
      </trkpt>
      <trkpt lat="47.32892" lon="-2.47369">
        <ele>14</ele>
        <time>2020-10-04T09:10:53.000Z</time>
      </trkpt>
      <trkpt lat="47.3289" lon="-2.47361">
        <ele>13.60000038147</ele>
        <time>2020-10-04T09:10:54.000Z</time>
      </trkpt>
      <trkpt lat="47.32889" lon="-2.47353">
        <ele>13.199999809265</ele>
        <time>2020-10-04T09:10:55.000Z</time>
      </trkpt>
      <trkpt lat="47.32888" lon="-2.47345">
        <ele>12.800000190735</ele>
        <time>2020-10-04T09:10:56.000Z</time>
      </trkpt>
      <trkpt lat="47.32887" lon="-2.47336">
        <ele>12.39999961853</ele>
        <time>2020-10-04T09:10:57.000Z</time>
      </trkpt>
      <trkpt lat="47.32884" lon="-2.4731">
        <ele>12.39999961853</ele>
        <time>2020-10-04T09:11:00.000Z</time>
      </trkpt>
      <trkpt lat="47.32883" lon="-2.47301">
        <ele>12.39999961853</ele>
        <time>2020-10-04T09:11:01.000Z</time>
      </trkpt>
      <trkpt lat="47.32877" lon="-2.47275">
        <ele>12.39999961853</ele>
        <time>2020-10-04T09:11:04.000Z</time>
      </trkpt>
      <trkpt lat="47.32874" lon="-2.47257">
        <ele>12.39999961853</ele>
        <time>2020-10-04T09:11:06.000Z</time>
      </trkpt>
      <trkpt lat="47.32861" lon="-2.47172">
        <ele>12.39999961853</ele>
        <time>2020-10-04T09:11:15.000Z</time>
      </trkpt>
      <trkpt lat="47.32858" lon="-2.47154">
        <ele>12.39999961853</ele>
        <time>2020-10-04T09:11:17.000Z</time>
      </trkpt>
      <trkpt lat="47.32844" lon="-2.47075">
        <ele>12.39999961853</ele>
        <time>2020-10-04T09:11:26.000Z</time>
      </trkpt>
      <trkpt lat="47.32827" lon="-2.47017">
        <ele>12.39999961853</ele>
        <time>2020-10-04T09:11:33.000Z</time>
      </trkpt>
      <trkpt lat="47.32804" lon="-2.46963">
        <ele>12.800000190735</ele>
        <time>2020-10-04T09:11:40.000Z</time>
      </trkpt>
      <trkpt lat="47.328" lon="-2.46955">
        <ele>13.39999961853</ele>
        <time>2020-10-04T09:11:41.000Z</time>
      </trkpt>
      <trkpt lat="47.32797" lon="-2.46947">
        <ele>13.800000190735</ele>
        <time>2020-10-04T09:11:42.000Z</time>
      </trkpt>
      <trkpt lat="47.32794" lon="-2.4694">
        <ele>14.199999809265</ele>
        <time>2020-10-04T09:11:43.000Z</time>
      </trkpt>
      <trkpt lat="47.32791" lon="-2.46931">
        <ele>14.60000038147</ele>
        <time>2020-10-04T09:11:44.000Z</time>
      </trkpt>
      <trkpt lat="47.3278" lon="-2.46888">
        <ele>14.60000038147</ele>
        <time>2020-10-04T09:11:49.000Z</time>
      </trkpt>
      <trkpt lat="47.32762" lon="-2.46817">
        <ele>14.60000038147</ele>
        <time>2020-10-04T09:11:57.000Z</time>
      </trkpt>
      <trkpt lat="47.3274" lon="-2.46773">
        <ele>14.60000038147</ele>
        <time>2020-10-04T09:12:03.000Z</time>
      </trkpt>
      <trkpt lat="47.32714" lon="-2.46729">
        <ele>14.60000038147</ele>
        <time>2020-10-04T09:12:09.000Z</time>
      </trkpt>
      <trkpt lat="47.32682" lon="-2.46696">
        <ele>14.60000038147</ele>
        <time>2020-10-04T09:12:15.000Z</time>
      </trkpt>
      <trkpt lat="47.32635" lon="-2.46661">
        <ele>14.60000038147</ele>
        <time>2020-10-04T09:12:23.000Z</time>
      </trkpt>
      <trkpt lat="47.32611" lon="-2.46634">
        <ele>14.60000038147</ele>
        <time>2020-10-04T09:12:28.000Z</time>
      </trkpt>
      <trkpt lat="47.32607" lon="-2.46628">
        <ele>14.60000038147</ele>
        <time>2020-10-04T09:12:29.000Z</time>
      </trkpt>
      <trkpt lat="47.32597" lon="-2.46608">
        <ele>14.199999809265</ele>
        <time>2020-10-04T09:12:32.000Z</time>
      </trkpt>
      <trkpt lat="47.32593" lon="-2.46601">
        <ele>13.800000190735</ele>
        <time>2020-10-04T09:12:33.000Z</time>
      </trkpt>
      <trkpt lat="47.32589" lon="-2.46595">
        <ele>13.39999961853</ele>
        <time>2020-10-04T09:12:34.000Z</time>
      </trkpt>
      <trkpt lat="47.32585" lon="-2.46588">
        <ele>13</ele>
        <time>2020-10-04T09:12:35.000Z</time>
      </trkpt>
      <trkpt lat="47.32581" lon="-2.46581">
        <ele>12.60000038147</ele>
        <time>2020-10-04T09:12:36.000Z</time>
      </trkpt>
      <trkpt lat="47.32577" lon="-2.46575">
        <ele>12.60000038147</ele>
        <time>2020-10-04T09:12:37.000Z</time>
      </trkpt>
      <trkpt lat="47.32553" lon="-2.46546">
        <ele>12.60000038147</ele>
        <time>2020-10-04T09:12:43.000Z</time>
      </trkpt>
      <trkpt lat="47.32548" lon="-2.46545">
        <ele>12.60000038147</ele>
        <time>2020-10-04T09:12:46.000Z</time>
      </trkpt>
      <trkpt lat="47.32548" lon="-2.46546">
        <ele>12.60000038147</ele>
        <time>2020-10-04T09:12:47.000Z</time>
      </trkpt>
      <trkpt lat="47.32548" lon="-2.46549">
        <ele>12.60000038147</ele>
        <time>2020-10-04T09:13:04.000Z</time>
      </trkpt>
      <trkpt lat="47.32547" lon="-2.46553">
        <ele>12.60000038147</ele>
        <time>2020-10-04T09:13:06.000Z</time>
      </trkpt>
      <trkpt lat="47.3254" lon="-2.46565">
        <ele>12.60000038147</ele>
        <time>2020-10-04T09:13:14.000Z</time>
      </trkpt>
      <trkpt lat="47.32537" lon="-2.46571">
        <ele>12.60000038147</ele>
        <time>2020-10-04T09:13:21.000Z</time>
      </trkpt>
      <trkpt lat="47.32537" lon="-2.46571">
        <ele>12.60000038147</ele>
        <time>2020-10-04T09:13:22.000Z</time>
      </trkpt>
      <trkpt lat="47.32542" lon="-2.46566">
        <ele>12.60000038147</ele>
        <time>2020-10-04T09:18:03.000Z</time>
      </trkpt>
      <trkpt lat="47.32544" lon="-2.4656">
        <ele>12.60000038147</ele>
        <time>2020-10-04T09:18:05.000Z</time>
      </trkpt>
      <trkpt lat="47.32547" lon="-2.46542">
        <ele>12.60000038147</ele>
        <time>2020-10-04T09:18:09.000Z</time>
      </trkpt>
      <trkpt lat="47.32538" lon="-2.46524">
        <ele>12.60000038147</ele>
        <time>2020-10-04T09:18:13.000Z</time>
      </trkpt>
      <trkpt lat="47.32533" lon="-2.46513">
        <ele>12.60000038147</ele>
        <time>2020-10-04T09:18:15.000Z</time>
      </trkpt>
      <trkpt lat="47.32523" lon="-2.46487">
        <ele>12.60000038147</ele>
        <time>2020-10-04T09:18:19.000Z</time>
      </trkpt>
      <trkpt lat="47.32497" lon="-2.46431">
        <ele>12.60000038147</ele>
        <time>2020-10-04T09:18:27.000Z</time>
      </trkpt>
      <trkpt lat="47.32472" lon="-2.46395">
        <ele>12.60000038147</ele>
        <time>2020-10-04T09:18:33.000Z</time>
      </trkpt>
      <trkpt lat="47.3244" lon="-2.46339">
        <ele>12.60000038147</ele>
        <time>2020-10-04T09:18:41.000Z</time>
      </trkpt>
      <trkpt lat="47.3242" lon="-2.46279">
        <ele>12.60000038147</ele>
        <time>2020-10-04T09:18:48.000Z</time>
      </trkpt>
      <trkpt lat="47.32395" lon="-2.46236">
        <ele>12.60000038147</ele>
        <time>2020-10-04T09:18:54.000Z</time>
      </trkpt>
      <trkpt lat="47.32357" lon="-2.46169">
        <ele>12.60000038147</ele>
        <time>2020-10-04T09:19:03.000Z</time>
      </trkpt>
      <trkpt lat="47.32348" lon="-2.46155">
        <ele>12.60000038147</ele>
        <time>2020-10-04T09:19:05.000Z</time>
      </trkpt>
      <trkpt lat="47.32309" lon="-2.46094">
        <ele>12.60000038147</ele>
        <time>2020-10-04T09:19:14.000Z</time>
      </trkpt>
      <trkpt lat="47.32305" lon="-2.46086">
        <ele>12.60000038147</ele>
        <time>2020-10-04T09:19:15.000Z</time>
      </trkpt>
      <trkpt lat="47.32275" lon="-2.46023">
        <ele>12.60000038147</ele>
        <time>2020-10-04T09:19:23.000Z</time>
      </trkpt>
      <trkpt lat="47.32261" lon="-2.4599">
        <ele>12.60000038147</ele>
        <time>2020-10-04T09:19:27.000Z</time>
      </trkpt>
      <trkpt lat="47.32251" lon="-2.45978">
        <ele>12.60000038147</ele>
        <time>2020-10-04T09:19:29.000Z</time>
      </trkpt>
      <trkpt lat="47.3223" lon="-2.45957">
        <ele>12.60000038147</ele>
        <time>2020-10-04T09:19:33.000Z</time>
      </trkpt>
      <trkpt lat="47.32226" lon="-2.4595">
        <ele>12.60000038147</ele>
        <time>2020-10-04T09:19:34.000Z</time>
      </trkpt>
      <trkpt lat="47.32222" lon="-2.45944">
        <ele>12.60000038147</ele>
        <time>2020-10-04T09:19:35.000Z</time>
      </trkpt>
      <trkpt lat="47.32215" lon="-2.45929">
        <ele>12.60000038147</ele>
        <time>2020-10-04T09:19:37.000Z</time>
      </trkpt>
      <trkpt lat="47.32209" lon="-2.45912">
        <ele>12.60000038147</ele>
        <time>2020-10-04T09:19:39.000Z</time>
      </trkpt>
      <trkpt lat="47.32186" lon="-2.45852">
        <ele>12.60000038147</ele>
        <time>2020-10-04T09:19:46.000Z</time>
      </trkpt>
      <trkpt lat="47.32165" lon="-2.45816">
        <ele>12.60000038147</ele>
        <time>2020-10-04T09:19:52.000Z</time>
      </trkpt>
      <trkpt lat="47.32159" lon="-2.45814">
        <ele>12.60000038147</ele>
        <time>2020-10-04T09:19:55.000Z</time>
      </trkpt>
      <trkpt lat="47.3216" lon="-2.45814">
        <ele>12.60000038147</ele>
        <time>2020-10-04T09:19:56.000Z</time>
      </trkpt>
      <trkpt lat="47.3216" lon="-2.45814">
        <ele>12.60000038147</ele>
        <time>2020-10-04T09:21:46.000Z</time>
      </trkpt>
      <trkpt lat="47.3216" lon="-2.45813">
        <ele>12.60000038147</ele>
        <time>2020-10-04T09:21:47.000Z</time>
      </trkpt>
      <trkpt lat="47.3216" lon="-2.45813">
        <ele>12.60000038147</ele>
        <time>2020-10-04T09:21:48.000Z</time>
      </trkpt>
      <trkpt lat="47.32161" lon="-2.45808">
        <ele>12.60000038147</ele>
        <time>2020-10-04T09:21:57.000Z</time>
      </trkpt>
      <trkpt lat="47.32159" lon="-2.45804">
        <ele>12.60000038147</ele>
        <time>2020-10-04T09:21:59.000Z</time>
      </trkpt>
      <trkpt lat="47.32153" lon="-2.45792">
        <ele>12.60000038147</ele>
        <time>2020-10-04T09:22:03.000Z</time>
      </trkpt>
      <trkpt lat="47.32139" lon="-2.45769">
        <ele>12.60000038147</ele>
        <time>2020-10-04T09:22:07.000Z</time>
      </trkpt>
      <trkpt lat="47.32134" lon="-2.45764">
        <ele>12.60000038147</ele>
        <time>2020-10-04T09:22:08.000Z</time>
      </trkpt>
      <trkpt lat="47.32112" lon="-2.45749">
        <ele>12.60000038147</ele>
        <time>2020-10-04T09:22:12.000Z</time>
      </trkpt>
      <trkpt lat="47.32106" lon="-2.45746">
        <ele>12.60000038147</ele>
        <time>2020-10-04T09:22:13.000Z</time>
      </trkpt>
      <trkpt lat="47.32068" lon="-2.4573">
        <ele>12.60000038147</ele>
        <time>2020-10-04T09:22:19.000Z</time>
      </trkpt>
      <trkpt lat="47.32026" lon="-2.457">
        <ele>12.60000038147</ele>
        <time>2020-10-04T09:22:26.000Z</time>
      </trkpt>
      <trkpt lat="47.31992" lon="-2.45669">
        <ele>12.60000038147</ele>
        <time>2020-10-04T09:22:32.000Z</time>
      </trkpt>
      <trkpt lat="47.31965" lon="-2.45623">
        <ele>12.60000038147</ele>
        <time>2020-10-04T09:22:38.000Z</time>
      </trkpt>
      <trkpt lat="47.31939" lon="-2.45561">
        <ele>12.60000038147</ele>
        <time>2020-10-04T09:22:45.000Z</time>
      </trkpt>
      <trkpt lat="47.31916" lon="-2.4552">
        <ele>12.60000038147</ele>
        <time>2020-10-04T09:22:50.000Z</time>
      </trkpt>
      <trkpt lat="47.31875" lon="-2.45465">
        <ele>12.60000038147</ele>
        <time>2020-10-04T09:22:58.000Z</time>
      </trkpt>
      <trkpt lat="47.31835" lon="-2.45403">
        <ele>12.60000038147</ele>
        <time>2020-10-04T09:23:06.000Z</time>
      </trkpt>
      <trkpt lat="47.31825" lon="-2.45388">
        <ele>12.60000038147</ele>
        <time>2020-10-04T09:23:08.000Z</time>
      </trkpt>
      <trkpt lat="47.3179" lon="-2.45345">
        <ele>12.60000038147</ele>
        <time>2020-10-04T09:23:14.000Z</time>
      </trkpt>
      <trkpt lat="47.31768" lon="-2.45334">
        <ele>12.60000038147</ele>
        <time>2020-10-04T09:23:17.000Z</time>
      </trkpt>
      <trkpt lat="47.31761" lon="-2.45332">
        <ele>12.60000038147</ele>
        <time>2020-10-04T09:23:18.000Z</time>
      </trkpt>
      <trkpt lat="47.3174" lon="-2.45341">
        <ele>12.60000038147</ele>
        <time>2020-10-04T09:23:21.000Z</time>
      </trkpt>
      <trkpt lat="47.31734" lon="-2.45345">
        <ele>12.60000038147</ele>
        <time>2020-10-04T09:23:22.000Z</time>
      </trkpt>
      <trkpt lat="47.31721" lon="-2.45351">
        <ele>12.60000038147</ele>
        <time>2020-10-04T09:23:24.000Z</time>
      </trkpt>
      <trkpt lat="47.31707" lon="-2.45353">
        <ele>12.60000038147</ele>
        <time>2020-10-04T09:23:26.000Z</time>
      </trkpt>
      <trkpt lat="47.31689" lon="-2.45341">
        <ele>12.60000038147</ele>
        <time>2020-10-04T09:23:29.000Z</time>
      </trkpt>
      <trkpt lat="47.31674" lon="-2.45319">
        <ele>12.60000038147</ele>
        <time>2020-10-04T09:23:32.000Z</time>
      </trkpt>
      <trkpt lat="47.31668" lon="-2.45313">
        <ele>12.60000038147</ele>
        <time>2020-10-04T09:23:33.000Z</time>
      </trkpt>
      <trkpt lat="47.31663" lon="-2.45307">
        <ele>12.60000038147</ele>
        <time>2020-10-04T09:23:34.000Z</time>
      </trkpt>
      <trkpt lat="47.31642" lon="-2.45298">
        <ele>12.60000038147</ele>
        <time>2020-10-04T09:23:37.000Z</time>
      </trkpt>
      <trkpt lat="47.31635" lon="-2.45297">
        <ele>12.60000038147</ele>
        <time>2020-10-04T09:23:38.000Z</time>
      </trkpt>
      <trkpt lat="47.31588" lon="-2.45291">
        <ele>12.60000038147</ele>
        <time>2020-10-04T09:23:45.000Z</time>
      </trkpt>
      <trkpt lat="47.31556" lon="-2.45278">
        <ele>12.60000038147</ele>
        <time>2020-10-04T09:23:50.000Z</time>
      </trkpt>
      <trkpt lat="47.31524" lon="-2.45265">
        <ele>12.60000038147</ele>
        <time>2020-10-04T09:23:55.000Z</time>
      </trkpt>
      <trkpt lat="47.31517" lon="-2.45266">
        <ele>12.60000038147</ele>
        <time>2020-10-04T09:23:56.000Z</time>
      </trkpt>
      <trkpt lat="47.31477" lon="-2.45273">
        <ele>12.60000038147</ele>
        <time>2020-10-04T09:24:02.000Z</time>
      </trkpt>
      <trkpt lat="47.31425" lon="-2.4527">
        <ele>12.60000038147</ele>
        <time>2020-10-04T09:24:10.000Z</time>
      </trkpt>
      <trkpt lat="47.31419" lon="-2.45269">
        <ele>12.60000038147</ele>
        <time>2020-10-04T09:24:11.000Z</time>
      </trkpt>
      <trkpt lat="47.31392" lon="-2.4527">
        <ele>12.60000038147</ele>
        <time>2020-10-04T09:24:15.000Z</time>
      </trkpt>
      <trkpt lat="47.31339" lon="-2.45274">
        <ele>12.60000038147</ele>
        <time>2020-10-04T09:24:23.000Z</time>
      </trkpt>
      <trkpt lat="47.3129" lon="-2.4529">
        <ele>12.60000038147</ele>
        <time>2020-10-04T09:24:31.000Z</time>
      </trkpt>
      <trkpt lat="47.31245" lon="-2.45318">
        <ele>12.60000038147</ele>
        <time>2020-10-04T09:24:39.000Z</time>
      </trkpt>
      <trkpt lat="47.3124" lon="-2.45323">
        <ele>12.60000038147</ele>
        <time>2020-10-04T09:24:40.000Z</time>
      </trkpt>
      <trkpt lat="47.31229" lon="-2.45344">
        <ele>12.60000038147</ele>
        <time>2020-10-04T09:24:43.000Z</time>
      </trkpt>
      <trkpt lat="47.31224" lon="-2.4536">
        <ele>12.60000038147</ele>
        <time>2020-10-04T09:24:45.000Z</time>
      </trkpt>
      <trkpt lat="47.31216" lon="-2.45392">
        <ele>12.60000038147</ele>
        <time>2020-10-04T09:24:49.000Z</time>
      </trkpt>
      <trkpt lat="47.31211" lon="-2.45408">
        <ele>12.60000038147</ele>
        <time>2020-10-04T09:24:51.000Z</time>
      </trkpt>
      <trkpt lat="47.312" lon="-2.45439">
        <ele>12.60000038147</ele>
        <time>2020-10-04T09:24:55.000Z</time>
      </trkpt>
      <trkpt lat="47.31177" lon="-2.45488">
        <ele>12.60000038147</ele>
        <time>2020-10-04T09:25:02.000Z</time>
      </trkpt>
      <trkpt lat="47.31158" lon="-2.45505">
        <ele>12.60000038147</ele>
        <time>2020-10-04T09:25:06.000Z</time>
      </trkpt>
      <trkpt lat="47.31152" lon="-2.45507">
        <ele>12.60000038147</ele>
        <time>2020-10-04T09:25:07.000Z</time>
      </trkpt>
      <trkpt lat="47.31125" lon="-2.45526">
        <ele>12.60000038147</ele>
        <time>2020-10-04T09:25:12.000Z</time>
      </trkpt>
      <trkpt lat="47.31113" lon="-2.45533">
        <ele>12.60000038147</ele>
        <time>2020-10-04T09:25:14.000Z</time>
      </trkpt>
      <trkpt lat="47.31102" lon="-2.45537">
        <ele>12.60000038147</ele>
        <time>2020-10-04T09:25:16.000Z</time>
      </trkpt>
      <trkpt lat="47.31078" lon="-2.45543">
        <ele>12.60000038147</ele>
        <time>2020-10-04T09:25:20.000Z</time>
      </trkpt>
      <trkpt lat="47.31072" lon="-2.45547">
        <ele>12.60000038147</ele>
        <time>2020-10-04T09:25:21.000Z</time>
      </trkpt>
      <trkpt lat="47.31032" lon="-2.45566">
        <ele>12.60000038147</ele>
        <time>2020-10-04T09:25:28.000Z</time>
      </trkpt>
      <trkpt lat="47.3099" lon="-2.45566">
        <ele>12.60000038147</ele>
        <time>2020-10-04T09:25:35.000Z</time>
      </trkpt>
      <trkpt lat="47.30966" lon="-2.45563">
        <ele>12.60000038147</ele>
        <time>2020-10-04T09:25:39.000Z</time>
      </trkpt>
      <trkpt lat="47.30947" lon="-2.45566">
        <ele>12.60000038147</ele>
        <time>2020-10-04T09:25:42.000Z</time>
      </trkpt>
      <trkpt lat="47.30908" lon="-2.45584">
        <ele>12.60000038147</ele>
        <time>2020-10-04T09:25:49.000Z</time>
      </trkpt>
      <trkpt lat="47.30865" lon="-2.45611">
        <ele>12.60000038147</ele>
        <time>2020-10-04T09:25:57.000Z</time>
      </trkpt>
      <trkpt lat="47.30829" lon="-2.45637">
        <ele>12.60000038147</ele>
        <time>2020-10-04T09:26:04.000Z</time>
      </trkpt>
      <trkpt lat="47.30789" lon="-2.4566">
        <ele>12.60000038147</ele>
        <time>2020-10-04T09:26:12.000Z</time>
      </trkpt>
      <trkpt lat="47.30778" lon="-2.45662">
        <ele>12.60000038147</ele>
        <time>2020-10-04T09:26:14.000Z</time>
      </trkpt>
      <trkpt lat="47.30767" lon="-2.4566">
        <ele>12.60000038147</ele>
        <time>2020-10-04T09:26:16.000Z</time>
      </trkpt>
      <trkpt lat="47.30756" lon="-2.45654">
        <ele>12.60000038147</ele>
        <time>2020-10-04T09:26:18.000Z</time>
      </trkpt>
      <trkpt lat="47.30739" lon="-2.45642">
        <ele>12.60000038147</ele>
        <time>2020-10-04T09:26:21.000Z</time>
      </trkpt>
      <trkpt lat="47.307" lon="-2.45607">
        <ele>12.60000038147</ele>
        <time>2020-10-04T09:26:28.000Z</time>
      </trkpt>
      <trkpt lat="47.30657" lon="-2.45566">
        <ele>12.60000038147</ele>
        <time>2020-10-04T09:26:36.000Z</time>
      </trkpt>
      <trkpt lat="47.30631" lon="-2.4556">
        <ele>12.60000038147</ele>
        <time>2020-10-04T09:26:40.000Z</time>
      </trkpt>
      <trkpt lat="47.30601" lon="-2.45573">
        <ele>12.60000038147</ele>
        <time>2020-10-04T09:26:45.000Z</time>
      </trkpt>
      <trkpt lat="47.30595" lon="-2.45577">
        <ele>12.60000038147</ele>
        <time>2020-10-04T09:26:46.000Z</time>
      </trkpt>
      <trkpt lat="47.30568" lon="-2.45595">
        <ele>12.60000038147</ele>
        <time>2020-10-04T09:26:51.000Z</time>
      </trkpt>
      <trkpt lat="47.30544" lon="-2.4559">
        <ele>12.60000038147</ele>
        <time>2020-10-04T09:26:55.000Z</time>
      </trkpt>
      <trkpt lat="47.30533" lon="-2.45582">
        <ele>12.60000038147</ele>
        <time>2020-10-04T09:26:57.000Z</time>
      </trkpt>
      <trkpt lat="47.30509" lon="-2.45566">
        <ele>12.60000038147</ele>
        <time>2020-10-04T09:27:01.000Z</time>
      </trkpt>
      <trkpt lat="47.30473" lon="-2.4555">
        <ele>12.60000038147</ele>
        <time>2020-10-04T09:27:07.000Z</time>
      </trkpt>
      <trkpt lat="47.30467" lon="-2.45549">
        <ele>12.60000038147</ele>
        <time>2020-10-04T09:27:08.000Z</time>
      </trkpt>
      <trkpt lat="47.30449" lon="-2.45554">
        <ele>12.60000038147</ele>
        <time>2020-10-04T09:27:11.000Z</time>
      </trkpt>
      <trkpt lat="47.30438" lon="-2.45563">
        <ele>12.60000038147</ele>
        <time>2020-10-04T09:27:13.000Z</time>
      </trkpt>
      <trkpt lat="47.30417" lon="-2.45579">
        <ele>12.60000038147</ele>
        <time>2020-10-04T09:27:17.000Z</time>
      </trkpt>
      <trkpt lat="47.30386" lon="-2.45597">
        <ele>12.60000038147</ele>
        <time>2020-10-04T09:27:23.000Z</time>
      </trkpt>
      <trkpt lat="47.30375" lon="-2.45587">
        <ele>12.60000038147</ele>
        <time>2020-10-04T09:27:26.000Z</time>
      </trkpt>
      <trkpt lat="47.30375" lon="-2.45566">
        <ele>12.60000038147</ele>
        <time>2020-10-04T09:27:29.000Z</time>
      </trkpt>
      <trkpt lat="47.30376" lon="-2.45558">
        <ele>12.60000038147</ele>
        <time>2020-10-04T09:27:30.000Z</time>
      </trkpt>
      <trkpt lat="47.3038" lon="-2.45511">
        <ele>12.60000038147</ele>
        <time>2020-10-04T09:27:36.000Z</time>
      </trkpt>
      <trkpt lat="47.30383" lon="-2.45464">
        <ele>12.60000038147</ele>
        <time>2020-10-04T09:27:41.000Z</time>
      </trkpt>
      <trkpt lat="47.30381" lon="-2.45446">
        <ele>12.60000038147</ele>
        <time>2020-10-04T09:27:43.000Z</time>
      </trkpt>
      <trkpt lat="47.30373" lon="-2.4541">
        <ele>12.60000038147</ele>
        <time>2020-10-04T09:27:47.000Z</time>
      </trkpt>
      <trkpt lat="47.3037" lon="-2.45402">
        <ele>12.60000038147</ele>
        <time>2020-10-04T09:27:48.000Z</time>
      </trkpt>
      <trkpt lat="47.30348" lon="-2.45357">
        <ele>12.60000038147</ele>
        <time>2020-10-04T09:27:54.000Z</time>
      </trkpt>
      <trkpt lat="47.30316" lon="-2.45304">
        <ele>12.60000038147</ele>
        <time>2020-10-04T09:28:01.000Z</time>
      </trkpt>
      <trkpt lat="47.30285" lon="-2.45262">
        <ele>12.60000038147</ele>
        <time>2020-10-04T09:28:07.000Z</time>
      </trkpt>
      <trkpt lat="47.3026" lon="-2.4521">
        <ele>12.60000038147</ele>
        <time>2020-10-04T09:28:13.000Z</time>
      </trkpt>
      <trkpt lat="47.30223" lon="-2.45146">
        <ele>12.60000038147</ele>
        <time>2020-10-04T09:28:21.000Z</time>
      </trkpt>
      <trkpt lat="47.30219" lon="-2.45138">
        <ele>12.60000038147</ele>
        <time>2020-10-04T09:28:22.000Z</time>
      </trkpt>
      <trkpt lat="47.30204" lon="-2.45091">
        <ele>12.60000038147</ele>
        <time>2020-10-04T09:28:27.000Z</time>
      </trkpt>
      <trkpt lat="47.30191" lon="-2.45053">
        <ele>12.60000038147</ele>
        <time>2020-10-04T09:28:31.000Z</time>
      </trkpt>
      <trkpt lat="47.30187" lon="-2.45044">
        <ele>12.60000038147</ele>
        <time>2020-10-04T09:28:32.000Z</time>
      </trkpt>
      <trkpt lat="47.30172" lon="-2.44998">
        <ele>12.60000038147</ele>
        <time>2020-10-04T09:28:37.000Z</time>
      </trkpt>
      <trkpt lat="47.30154" lon="-2.44919">
        <ele>12.60000038147</ele>
        <time>2020-10-04T09:28:45.000Z</time>
      </trkpt>
      <trkpt lat="47.30137" lon="-2.4484">
        <ele>12.60000038147</ele>
        <time>2020-10-04T09:28:53.000Z</time>
      </trkpt>
      <trkpt lat="47.30125" lon="-2.44769">
        <ele>12.60000038147</ele>
        <time>2020-10-04T09:29:00.000Z</time>
      </trkpt>
      <trkpt lat="47.30107" lon="-2.44691">
        <ele>12.60000038147</ele>
        <time>2020-10-04T09:29:08.000Z</time>
      </trkpt>
      <trkpt lat="47.30088" lon="-2.44648">
        <ele>12.60000038147</ele>
        <time>2020-10-04T09:29:13.000Z</time>
      </trkpt>
      <trkpt lat="47.30057" lon="-2.44578">
        <ele>12.60000038147</ele>
        <time>2020-10-04T09:29:21.000Z</time>
      </trkpt>
      <trkpt lat="47.30032" lon="-2.44503">
        <ele>12.60000038147</ele>
        <time>2020-10-04T09:29:29.000Z</time>
      </trkpt>
      <trkpt lat="47.30002" lon="-2.4443">
        <ele>12.60000038147</ele>
        <time>2020-10-04T09:29:37.000Z</time>
      </trkpt>
      <trkpt lat="47.29966" lon="-2.44367">
        <ele>12.60000038147</ele>
        <time>2020-10-04T09:29:45.000Z</time>
      </trkpt>
      <trkpt lat="47.29935" lon="-2.44314">
        <ele>12.60000038147</ele>
        <time>2020-10-04T09:29:52.000Z</time>
      </trkpt>
      <trkpt lat="47.299" lon="-2.44253">
        <ele>12.60000038147</ele>
        <time>2020-10-04T09:30:00.000Z</time>
      </trkpt>
      <trkpt lat="47.29882" lon="-2.44199">
        <ele>12.60000038147</ele>
        <time>2020-10-04T09:30:06.000Z</time>
      </trkpt>
      <trkpt lat="47.29858" lon="-2.44126">
        <ele>12.60000038147</ele>
        <time>2020-10-04T09:30:14.000Z</time>
      </trkpt>
      <trkpt lat="47.29834" lon="-2.44054">
        <ele>12.60000038147</ele>
        <time>2020-10-04T09:30:22.000Z</time>
      </trkpt>
      <trkpt lat="47.29831" lon="-2.44045">
        <ele>12.60000038147</ele>
        <time>2020-10-04T09:30:23.000Z</time>
      </trkpt>
      <trkpt lat="47.29804" lon="-2.43966">
        <ele>12.60000038147</ele>
        <time>2020-10-04T09:30:32.000Z</time>
      </trkpt>
      <trkpt lat="47.29776" lon="-2.43901">
        <ele>12.60000038147</ele>
        <time>2020-10-04T09:30:40.000Z</time>
      </trkpt>
      <trkpt lat="47.29753" lon="-2.43869">
        <ele>12.60000038147</ele>
        <time>2020-10-04T09:30:45.000Z</time>
      </trkpt>
      <trkpt lat="47.29734" lon="-2.4385">
        <ele>12.60000038147</ele>
        <time>2020-10-04T09:30:49.000Z</time>
      </trkpt>
      <trkpt lat="47.29727" lon="-2.43839">
        <ele>12.60000038147</ele>
        <time>2020-10-04T09:30:51.000Z</time>
      </trkpt>
      <trkpt lat="47.2972" lon="-2.43828">
        <ele>12.60000038147</ele>
        <time>2020-10-04T09:30:55.000Z</time>
      </trkpt>
      <trkpt lat="47.2972" lon="-2.43828">
        <ele>12.60000038147</ele>
        <time>2020-10-04T09:30:56.000Z</time>
      </trkpt>
      <trkpt lat="47.2972" lon="-2.43825">
        <ele>12.60000038147</ele>
        <time>2020-10-04T09:32:49.000Z</time>
      </trkpt>
      <trkpt lat="47.29719" lon="-2.43819">
        <ele>12.60000038147</ele>
        <time>2020-10-04T09:32:51.000Z</time>
      </trkpt>
      <trkpt lat="47.29712" lon="-2.43799">
        <ele>12.60000038147</ele>
        <time>2020-10-04T09:32:55.000Z</time>
      </trkpt>
      <trkpt lat="47.29701" lon="-2.43764">
        <ele>12.60000038147</ele>
        <time>2020-10-04T09:33:00.000Z</time>
      </trkpt>
      <trkpt lat="47.29678" lon="-2.43693">
        <ele>12.60000038147</ele>
        <time>2020-10-04T09:33:09.000Z</time>
      </trkpt>
      <trkpt lat="47.29656" lon="-2.43626">
        <ele>12.60000038147</ele>
        <time>2020-10-04T09:33:17.000Z</time>
      </trkpt>
      <trkpt lat="47.29637" lon="-2.43568">
        <ele>12.60000038147</ele>
        <time>2020-10-04T09:33:24.000Z</time>
      </trkpt>
      <trkpt lat="47.29634" lon="-2.43562">
        <ele>12.60000038147</ele>
        <time>2020-10-04T09:33:25.000Z</time>
      </trkpt>
      <trkpt lat="47.29623" lon="-2.43539">
        <ele>12.60000038147</ele>
        <time>2020-10-04T09:33:29.000Z</time>
      </trkpt>
      <trkpt lat="47.29626" lon="-2.43515">
        <ele>12.60000038147</ele>
        <time>2020-10-04T09:33:32.000Z</time>
      </trkpt>
      <trkpt lat="47.29626" lon="-2.43507">
        <ele>12.60000038147</ele>
        <time>2020-10-04T09:33:33.000Z</time>
      </trkpt>
      <trkpt lat="47.29617" lon="-2.4349">
        <ele>12.60000038147</ele>
        <time>2020-10-04T09:33:36.000Z</time>
      </trkpt>
      <trkpt lat="47.29603" lon="-2.43493">
        <ele>12.60000038147</ele>
        <time>2020-10-04T09:33:39.000Z</time>
      </trkpt>
      <trkpt lat="47.29591" lon="-2.43496">
        <ele>12.60000038147</ele>
        <time>2020-10-04T09:33:41.000Z</time>
      </trkpt>
      <trkpt lat="47.29573" lon="-2.43496">
        <ele>12.60000038147</ele>
        <time>2020-10-04T09:33:44.000Z</time>
      </trkpt>
      <trkpt lat="47.29529" lon="-2.4349">
        <ele>12.60000038147</ele>
        <time>2020-10-04T09:33:51.000Z</time>
      </trkpt>
      <trkpt lat="47.29495" lon="-2.43478">
        <ele>12.60000038147</ele>
        <time>2020-10-04T09:33:57.000Z</time>
      </trkpt>
      <trkpt lat="47.29471" lon="-2.43462">
        <ele>12.60000038147</ele>
        <time>2020-10-04T09:34:02.000Z</time>
      </trkpt>
      <trkpt lat="47.29455" lon="-2.43467">
        <ele>12.60000038147</ele>
        <time>2020-10-04T09:34:06.000Z</time>
      </trkpt>
      <trkpt lat="47.29451" lon="-2.43465">
        <ele>12.60000038147</ele>
        <time>2020-10-04T09:34:07.000Z</time>
      </trkpt>
      <trkpt lat="47.29445" lon="-2.43456">
        <ele>12.60000038147</ele>
        <time>2020-10-04T09:34:09.000Z</time>
      </trkpt>
      <trkpt lat="47.29441" lon="-2.43445">
        <ele>12.60000038147</ele>
        <time>2020-10-04T09:34:11.000Z</time>
      </trkpt>
      <trkpt lat="47.29439" lon="-2.43439">
        <ele>12.60000038147</ele>
        <time>2020-10-04T09:34:12.000Z</time>
      </trkpt>
      <trkpt lat="47.29437" lon="-2.43428">
        <ele>12.60000038147</ele>
        <time>2020-10-04T09:34:14.000Z</time>
      </trkpt>
      <trkpt lat="47.29431" lon="-2.43397">
        <ele>12.60000038147</ele>
        <time>2020-10-04T09:34:19.000Z</time>
      </trkpt>
      <trkpt lat="47.29425" lon="-2.43391">
        <ele>12.60000038147</ele>
        <time>2020-10-04T09:34:21.000Z</time>
      </trkpt>
      <trkpt lat="47.29421" lon="-2.43389">
        <ele>12.60000038147</ele>
        <time>2020-10-04T09:34:22.000Z</time>
      </trkpt>
      <trkpt lat="47.2941" lon="-2.4338">
        <ele>12.60000038147</ele>
        <time>2020-10-04T09:34:26.000Z</time>
      </trkpt>
      <trkpt lat="47.29409" lon="-2.43364">
        <ele>12.60000038147</ele>
        <time>2020-10-04T09:34:29.000Z</time>
      </trkpt>
      <trkpt lat="47.29407" lon="-2.43358">
        <ele>12.60000038147</ele>
        <time>2020-10-04T09:34:30.000Z</time>
      </trkpt>
      <trkpt lat="47.29396" lon="-2.43338">
        <ele>12.60000038147</ele>
        <time>2020-10-04T09:34:34.000Z</time>
      </trkpt>
      <trkpt lat="47.29378" lon="-2.43312">
        <ele>12.60000038147</ele>
        <time>2020-10-04T09:34:39.000Z</time>
      </trkpt>
      <trkpt lat="47.29374" lon="-2.43308">
        <ele>12.60000038147</ele>
        <time>2020-10-04T09:34:40.000Z</time>
      </trkpt>
      <trkpt lat="47.29364" lon="-2.43292">
        <ele>12.60000038147</ele>
        <time>2020-10-04T09:34:43.000Z</time>
      </trkpt>
      <trkpt lat="47.29363" lon="-2.43286">
        <ele>12.60000038147</ele>
        <time>2020-10-04T09:34:44.000Z</time>
      </trkpt>
      <trkpt lat="47.29361" lon="-2.43256">
        <ele>12.60000038147</ele>
        <time>2020-10-04T09:34:49.000Z</time>
      </trkpt>
      <trkpt lat="47.29366" lon="-2.43235">
        <ele>12.60000038147</ele>
        <time>2020-10-04T09:34:53.000Z</time>
      </trkpt>
      <trkpt lat="47.29371" lon="-2.43224">
        <ele>12.60000038147</ele>
        <time>2020-10-04T09:34:55.000Z</time>
      </trkpt>
      <trkpt lat="47.29375" lon="-2.43211">
        <ele>12.60000038147</ele>
        <time>2020-10-04T09:34:57.000Z</time>
      </trkpt>
      <trkpt lat="47.29375" lon="-2.43204">
        <ele>12.60000038147</ele>
        <time>2020-10-04T09:34:58.000Z</time>
      </trkpt>
      <trkpt lat="47.29372" lon="-2.43175">
        <ele>12.60000038147</ele>
        <time>2020-10-04T09:35:02.000Z</time>
      </trkpt>
      <trkpt lat="47.2937" lon="-2.43161">
        <ele>12.60000038147</ele>
        <time>2020-10-04T09:35:04.000Z</time>
      </trkpt>
      <trkpt lat="47.29361" lon="-2.43133">
        <ele>12.60000038147</ele>
        <time>2020-10-04T09:35:08.000Z</time>
      </trkpt>
      <trkpt lat="47.29355" lon="-2.4312">
        <ele>12.60000038147</ele>
        <time>2020-10-04T09:35:10.000Z</time>
      </trkpt>
      <trkpt lat="47.29345" lon="-2.431">
        <ele>12.60000038147</ele>
        <time>2020-10-04T09:35:13.000Z</time>
      </trkpt>
      <trkpt lat="47.29333" lon="-2.43086">
        <ele>12.60000038147</ele>
        <time>2020-10-04T09:35:16.000Z</time>
      </trkpt>
      <trkpt lat="47.29323" lon="-2.4308">
        <ele>12.60000038147</ele>
        <time>2020-10-04T09:35:18.000Z</time>
      </trkpt>
      <trkpt lat="47.29312" lon="-2.43073">
        <ele>12.60000038147</ele>
        <time>2020-10-04T09:35:21.000Z</time>
      </trkpt>
      <trkpt lat="47.29304" lon="-2.43057">
        <ele>12.60000038147</ele>
        <time>2020-10-04T09:35:24.000Z</time>
      </trkpt>
      <trkpt lat="47.29304" lon="-2.43034">
        <ele>12.60000038147</ele>
        <time>2020-10-04T09:35:27.000Z</time>
      </trkpt>
      <trkpt lat="47.29307" lon="-2.43019">
        <ele>12.60000038147</ele>
        <time>2020-10-04T09:35:29.000Z</time>
      </trkpt>
      <trkpt lat="47.29312" lon="-2.42988">
        <ele>12.60000038147</ele>
        <time>2020-10-04T09:35:33.000Z</time>
      </trkpt>
      <trkpt lat="47.29312" lon="-2.4298">
        <ele>12.60000038147</ele>
        <time>2020-10-04T09:35:34.000Z</time>
      </trkpt>
      <trkpt lat="47.29313" lon="-2.42956">
        <ele>12.60000038147</ele>
        <time>2020-10-04T09:35:37.000Z</time>
      </trkpt>
      <trkpt lat="47.29311" lon="-2.42936">
        <ele>12.60000038147</ele>
        <time>2020-10-04T09:35:40.000Z</time>
      </trkpt>
      <trkpt lat="47.29313" lon="-2.42922">
        <ele>12.60000038147</ele>
        <time>2020-10-04T09:35:42.000Z</time>
      </trkpt>
      <trkpt lat="47.2932" lon="-2.42893">
        <ele>12.60000038147</ele>
        <time>2020-10-04T09:35:46.000Z</time>
      </trkpt>
      <trkpt lat="47.29335" lon="-2.42848">
        <ele>12.60000038147</ele>
        <time>2020-10-04T09:35:52.000Z</time>
      </trkpt>
      <trkpt lat="47.2935" lon="-2.42825">
        <ele>12.60000038147</ele>
        <time>2020-10-04T09:35:56.000Z</time>
      </trkpt>
      <trkpt lat="47.29354" lon="-2.4282">
        <ele>12.60000038147</ele>
        <time>2020-10-04T09:35:57.000Z</time>
      </trkpt>
      <trkpt lat="47.29366" lon="-2.42808">
        <ele>12.60000038147</ele>
        <time>2020-10-04T09:36:01.000Z</time>
      </trkpt>
      <trkpt lat="47.2937" lon="-2.42805">
        <ele>12.60000038147</ele>
        <time>2020-10-04T09:36:02.000Z</time>
      </trkpt>
      <trkpt lat="47.29373" lon="-2.42801">
        <ele>12.60000038147</ele>
        <time>2020-10-04T09:36:03.000Z</time>
      </trkpt>
      <trkpt lat="47.2938" lon="-2.42781">
        <ele>12.60000038147</ele>
        <time>2020-10-04T09:36:06.000Z</time>
      </trkpt>
      <trkpt lat="47.29383" lon="-2.4276">
        <ele>12.60000038147</ele>
        <time>2020-10-04T09:36:09.000Z</time>
      </trkpt>
      <trkpt lat="47.29389" lon="-2.42739">
        <ele>12.60000038147</ele>
        <time>2020-10-04T09:36:12.000Z</time>
      </trkpt>
      <trkpt lat="47.29405" lon="-2.42699">
        <ele>12.60000038147</ele>
        <time>2020-10-04T09:36:18.000Z</time>
      </trkpt>
      <trkpt lat="47.29415" lon="-2.42672">
        <ele>12.60000038147</ele>
        <time>2020-10-04T09:36:22.000Z</time>
      </trkpt>
      <trkpt lat="47.29417" lon="-2.42657">
        <ele>12.60000038147</ele>
        <time>2020-10-04T09:36:24.000Z</time>
      </trkpt>
      <trkpt lat="47.29421" lon="-2.42608">
        <ele>12.60000038147</ele>
        <time>2020-10-04T09:36:31.000Z</time>
      </trkpt>
      <trkpt lat="47.29423" lon="-2.42589">
        <ele>12.60000038147</ele>
        <time>2020-10-04T09:36:34.000Z</time>
      </trkpt>
      <trkpt lat="47.29426" lon="-2.42584">
        <ele>12.60000038147</ele>
        <time>2020-10-04T09:36:35.000Z</time>
      </trkpt>
      <trkpt lat="47.29437" lon="-2.42569">
        <ele>12.60000038147</ele>
        <time>2020-10-04T09:36:38.000Z</time>
      </trkpt>
      <trkpt lat="47.29444" lon="-2.4256">
        <ele>12.60000038147</ele>
        <time>2020-10-04T09:36:40.000Z</time>
      </trkpt>
      <trkpt lat="47.29451" lon="-2.42551">
        <ele>12.60000038147</ele>
        <time>2020-10-04T09:36:42.000Z</time>
      </trkpt>
      <trkpt lat="47.29463" lon="-2.42542">
        <ele>12.60000038147</ele>
        <time>2020-10-04T09:36:45.000Z</time>
      </trkpt>
      <trkpt lat="47.29467" lon="-2.42538">
        <ele>12.60000038147</ele>
        <time>2020-10-04T09:36:46.000Z</time>
      </trkpt>
      <trkpt lat="47.29489" lon="-2.42513">
        <ele>12.60000038147</ele>
        <time>2020-10-04T09:36:52.000Z</time>
      </trkpt>
      <trkpt lat="47.29517" lon="-2.42483">
        <ele>12.60000038147</ele>
        <time>2020-10-04T09:36:59.000Z</time>
      </trkpt>
      <trkpt lat="47.29521" lon="-2.4248">
        <ele>12.60000038147</ele>
        <time>2020-10-04T09:37:00.000Z</time>
      </trkpt>
      <trkpt lat="47.29534" lon="-2.42468">
        <ele>12.60000038147</ele>
        <time>2020-10-04T09:37:03.000Z</time>
      </trkpt>
      <trkpt lat="47.29538" lon="-2.42463">
        <ele>12.60000038147</ele>
        <time>2020-10-04T09:37:04.000Z</time>
      </trkpt>
      <trkpt lat="47.29544" lon="-2.42451">
        <ele>12.60000038147</ele>
        <time>2020-10-04T09:37:06.000Z</time>
      </trkpt>
      <trkpt lat="47.29553" lon="-2.42435">
        <ele>12.60000038147</ele>
        <time>2020-10-04T09:37:09.000Z</time>
      </trkpt>
      <trkpt lat="47.29556" lon="-2.42432">
        <ele>12.60000038147</ele>
        <time>2020-10-04T09:37:10.000Z</time>
      </trkpt>
      <trkpt lat="47.29573" lon="-2.42422">
        <ele>12.60000038147</ele>
        <time>2020-10-04T09:37:15.000Z</time>
      </trkpt>
      <trkpt lat="47.29599" lon="-2.42427">
        <ele>12.60000038147</ele>
        <time>2020-10-04T09:37:21.000Z</time>
      </trkpt>
      <trkpt lat="47.29608" lon="-2.42431">
        <ele>12.60000038147</ele>
        <time>2020-10-04T09:37:23.000Z</time>
      </trkpt>
      <trkpt lat="47.29619" lon="-2.42434">
        <ele>12.60000038147</ele>
        <time>2020-10-04T09:37:26.000Z</time>
      </trkpt>
      <trkpt lat="47.29625" lon="-2.42431">
        <ele>12.60000038147</ele>
        <time>2020-10-04T09:37:28.000Z</time>
      </trkpt>
      <trkpt lat="47.29626" lon="-2.42426">
        <ele>12.60000038147</ele>
        <time>2020-10-04T09:37:29.000Z</time>
      </trkpt>
      <trkpt lat="47.29633" lon="-2.42392">
        <ele>12.60000038147</ele>
        <time>2020-10-04T09:37:34.000Z</time>
      </trkpt>
      <trkpt lat="47.29644" lon="-2.42346">
        <ele>12.60000038147</ele>
        <time>2020-10-04T09:37:40.000Z</time>
      </trkpt>
      <trkpt lat="47.29651" lon="-2.42318">
        <ele>12.60000038147</ele>
        <time>2020-10-04T09:37:44.000Z</time>
      </trkpt>
      <trkpt lat="47.29655" lon="-2.4231">
        <ele>12.60000038147</ele>
        <time>2020-10-04T09:37:46.000Z</time>
      </trkpt>
      <trkpt lat="47.29655" lon="-2.4231">
        <ele>12.60000038147</ele>
        <time>2020-10-04T09:37:47.000Z</time>
      </trkpt>
      <trkpt lat="47.29657" lon="-2.42306">
        <ele>12.60000038147</ele>
        <time>2020-10-04T09:37:52.000Z</time>
      </trkpt>
      <trkpt lat="47.29657" lon="-2.42305">
        <ele>12.60000038147</ele>
        <time>2020-10-04T09:37:53.000Z</time>
      </trkpt>
      <trkpt lat="47.29657" lon="-2.42305">
        <ele>12.60000038147</ele>
        <time>2020-10-04T09:37:54.000Z</time>
      </trkpt>
      <trkpt lat="47.29657" lon="-2.42302">
        <ele>12.60000038147</ele>
        <time>2020-10-04T09:40:15.000Z</time>
      </trkpt>
      <trkpt lat="47.29657" lon="-2.42301">
        <ele>12.60000038147</ele>
        <time>2020-10-04T09:40:16.000Z</time>
      </trkpt>
      <trkpt lat="47.29657" lon="-2.42285">
        <ele>12.60000038147</ele>
        <time>2020-10-04T09:40:22.000Z</time>
      </trkpt>
      <trkpt lat="47.29661" lon="-2.42266">
        <ele>12.60000038147</ele>
        <time>2020-10-04T09:40:27.000Z</time>
      </trkpt>
      <trkpt lat="47.29671" lon="-2.4223">
        <ele>12.60000038147</ele>
        <time>2020-10-04T09:40:33.000Z</time>
      </trkpt>
      <trkpt lat="47.29673" lon="-2.42226">
        <ele>12.60000038147</ele>
        <time>2020-10-04T09:40:34.000Z</time>
      </trkpt>
      <trkpt lat="47.29682" lon="-2.42208">
        <ele>12.60000038147</ele>
        <time>2020-10-04T09:40:38.000Z</time>
      </trkpt>
      <trkpt lat="47.29703" lon="-2.42173">
        <ele>12.60000038147</ele>
        <time>2020-10-04T09:40:45.000Z</time>
      </trkpt>
      <trkpt lat="47.29726" lon="-2.4213">
        <ele>12.60000038147</ele>
        <time>2020-10-04T09:40:52.000Z</time>
      </trkpt>
      <trkpt lat="47.29747" lon="-2.42094">
        <ele>12.60000038147</ele>
        <time>2020-10-04T09:40:58.000Z</time>
      </trkpt>
      <trkpt lat="47.29769" lon="-2.42052">
        <ele>12.60000038147</ele>
        <time>2020-10-04T09:41:05.000Z</time>
      </trkpt>
      <trkpt lat="47.29785" lon="-2.42019">
        <ele>12.60000038147</ele>
        <time>2020-10-04T09:41:10.000Z</time>
      </trkpt>
      <trkpt lat="47.29788" lon="-2.42003">
        <ele>12.60000038147</ele>
        <time>2020-10-04T09:41:12.000Z</time>
      </trkpt>
      <trkpt lat="47.29786" lon="-2.41977">
        <ele>12.60000038147</ele>
        <time>2020-10-04T09:41:15.000Z</time>
      </trkpt>
      <trkpt lat="47.29782" lon="-2.41961">
        <ele>12.60000038147</ele>
        <time>2020-10-04T09:41:17.000Z</time>
      </trkpt>
      <trkpt lat="47.29775" lon="-2.41928">
        <ele>12.60000038147</ele>
        <time>2020-10-04T09:41:21.000Z</time>
      </trkpt>
      <trkpt lat="47.29767" lon="-2.4187">
        <ele>12.60000038147</ele>
        <time>2020-10-04T09:41:28.000Z</time>
      </trkpt>
      <trkpt lat="47.29769" lon="-2.41836">
        <ele>12.60000038147</ele>
        <time>2020-10-04T09:41:32.000Z</time>
      </trkpt>
      <trkpt lat="47.2977" lon="-2.41828">
        <ele>12.60000038147</ele>
        <time>2020-10-04T09:41:33.000Z</time>
      </trkpt>
      <trkpt lat="47.2977" lon="-2.41783">
        <ele>12.60000038147</ele>
        <time>2020-10-04T09:41:39.000Z</time>
      </trkpt>
      <trkpt lat="47.29768" lon="-2.41755">
        <ele>12.60000038147</ele>
        <time>2020-10-04T09:41:43.000Z</time>
      </trkpt>
      <trkpt lat="47.2976" lon="-2.41747">
        <ele>12.60000038147</ele>
        <time>2020-10-04T09:41:45.000Z</time>
      </trkpt>
      <trkpt lat="47.29746" lon="-2.4175">
        <ele>12.60000038147</ele>
        <time>2020-10-04T09:41:48.000Z</time>
      </trkpt>
      <trkpt lat="47.29733" lon="-2.41764">
        <ele>12.60000038147</ele>
        <time>2020-10-04T09:41:51.000Z</time>
      </trkpt>
      <trkpt lat="47.29729" lon="-2.41769">
        <ele>12.60000038147</ele>
        <time>2020-10-04T09:41:52.000Z</time>
      </trkpt>
      <trkpt lat="47.29716" lon="-2.41785">
        <ele>12.60000038147</ele>
        <time>2020-10-04T09:41:55.000Z</time>
      </trkpt>
      <trkpt lat="47.29706" lon="-2.41804">
        <ele>12.60000038147</ele>
        <time>2020-10-04T09:41:58.000Z</time>
      </trkpt>
      <trkpt lat="47.29695" lon="-2.41819">
        <ele>12.60000038147</ele>
        <time>2020-10-04T09:42:01.000Z</time>
      </trkpt>
      <trkpt lat="47.2969" lon="-2.41821">
        <ele>12.60000038147</ele>
        <time>2020-10-04T09:42:02.000Z</time>
      </trkpt>
      <trkpt lat="47.29686" lon="-2.41821">
        <ele>12.60000038147</ele>
        <time>2020-10-04T09:42:03.000Z</time>
      </trkpt>
      <trkpt lat="47.29671" lon="-2.41824">
        <ele>12.60000038147</ele>
        <time>2020-10-04T09:42:06.000Z</time>
      </trkpt>
      <trkpt lat="47.29666" lon="-2.41825">
        <ele>12.60000038147</ele>
        <time>2020-10-04T09:42:07.000Z</time>
      </trkpt>
      <trkpt lat="47.29662" lon="-2.41826">
        <ele>12.60000038147</ele>
        <time>2020-10-04T09:42:08.000Z</time>
      </trkpt>
      <trkpt lat="47.2965" lon="-2.41827">
        <ele>12.60000038147</ele>
        <time>2020-10-04T09:42:11.000Z</time>
      </trkpt>
      <trkpt lat="47.29642" lon="-2.41822">
        <ele>12.60000038147</ele>
        <time>2020-10-04T09:42:13.000Z</time>
      </trkpt>
      <trkpt lat="47.29637" lon="-2.41805">
        <ele>12.60000038147</ele>
        <time>2020-10-04T09:42:16.000Z</time>
      </trkpt>
      <trkpt lat="47.29636" lon="-2.41798">
        <ele>12.60000038147</ele>
        <time>2020-10-04T09:42:17.000Z</time>
      </trkpt>
      <trkpt lat="47.29633" lon="-2.41777">
        <ele>12.60000038147</ele>
        <time>2020-10-04T09:42:20.000Z</time>
      </trkpt>
      <trkpt lat="47.29628" lon="-2.41766">
        <ele>12.60000038147</ele>
        <time>2020-10-04T09:42:22.000Z</time>
      </trkpt>
      <trkpt lat="47.29614" lon="-2.41747">
        <ele>12.60000038147</ele>
        <time>2020-10-04T09:42:26.000Z</time>
      </trkpt>
      <trkpt lat="47.29611" lon="-2.41743">
        <ele>12.60000038147</ele>
        <time>2020-10-04T09:42:27.000Z</time>
      </trkpt>
      <trkpt lat="47.29598" lon="-2.41729">
        <ele>12.60000038147</ele>
        <time>2020-10-04T09:42:31.000Z</time>
      </trkpt>
      <trkpt lat="47.29594" lon="-2.41725">
        <ele>12.60000038147</ele>
        <time>2020-10-04T09:42:32.000Z</time>
      </trkpt>
      <trkpt lat="47.29582" lon="-2.41716">
        <ele>12.60000038147</ele>
        <time>2020-10-04T09:42:35.000Z</time>
      </trkpt>
      <trkpt lat="47.29573" lon="-2.41711">
        <ele>12.60000038147</ele>
        <time>2020-10-04T09:42:37.000Z</time>
      </trkpt>
      <trkpt lat="47.29563" lon="-2.41708">
        <ele>12.60000038147</ele>
        <time>2020-10-04T09:42:39.000Z</time>
      </trkpt>
      <trkpt lat="47.29553" lon="-2.41701">
        <ele>12.60000038147</ele>
        <time>2020-10-04T09:42:42.000Z</time>
      </trkpt>
      <trkpt lat="47.29544" lon="-2.41681">
        <ele>12.60000038147</ele>
        <time>2020-10-04T09:42:46.000Z</time>
      </trkpt>
      <trkpt lat="47.2953" lon="-2.41645">
        <ele>12.60000038147</ele>
        <time>2020-10-04T09:42:52.000Z</time>
      </trkpt>
      <trkpt lat="47.29529" lon="-2.41638">
        <ele>12.60000038147</ele>
        <time>2020-10-04T09:42:53.000Z</time>
      </trkpt>
      <trkpt lat="47.29527" lon="-2.41616">
        <ele>12.60000038147</ele>
        <time>2020-10-04T09:42:56.000Z</time>
      </trkpt>
      <trkpt lat="47.29526" lon="-2.41608">
        <ele>12.60000038147</ele>
        <time>2020-10-04T09:42:57.000Z</time>
      </trkpt>
      <trkpt lat="47.29527" lon="-2.41591">
        <ele>12.60000038147</ele>
        <time>2020-10-04T09:42:59.000Z</time>
      </trkpt>
      <trkpt lat="47.29532" lon="-2.41569">
        <ele>12.60000038147</ele>
        <time>2020-10-04T09:43:02.000Z</time>
      </trkpt>
      <trkpt lat="47.29537" lon="-2.41554">
        <ele>12.60000038147</ele>
        <time>2020-10-04T09:43:04.000Z</time>
      </trkpt>
      <trkpt lat="47.29542" lon="-2.4154">
        <ele>12.60000038147</ele>
        <time>2020-10-04T09:43:06.000Z</time>
      </trkpt>
      <trkpt lat="47.29541" lon="-2.41525">
        <ele>12.60000038147</ele>
        <time>2020-10-04T09:43:08.000Z</time>
      </trkpt>
      <trkpt lat="47.29528" lon="-2.41492">
        <ele>12.60000038147</ele>
        <time>2020-10-04T09:43:13.000Z</time>
      </trkpt>
      <trkpt lat="47.29517" lon="-2.41476">
        <ele>12.60000038147</ele>
        <time>2020-10-04T09:43:16.000Z</time>
      </trkpt>
      <trkpt lat="47.29508" lon="-2.41474">
        <ele>12.60000038147</ele>
        <time>2020-10-04T09:43:18.000Z</time>
      </trkpt>
      <trkpt lat="47.29493" lon="-2.4148">
        <ele>12.60000038147</ele>
        <time>2020-10-04T09:43:21.000Z</time>
      </trkpt>
      <trkpt lat="47.29488" lon="-2.41483">
        <ele>12.60000038147</ele>
        <time>2020-10-04T09:43:22.000Z</time>
      </trkpt>
      <trkpt lat="47.29483" lon="-2.41485">
        <ele>12.60000038147</ele>
        <time>2020-10-04T09:43:23.000Z</time>
      </trkpt>
      <trkpt lat="47.29474" lon="-2.41484">
        <ele>12.60000038147</ele>
        <time>2020-10-04T09:43:25.000Z</time>
      </trkpt>
      <trkpt lat="47.29464" lon="-2.41483">
        <ele>12.60000038147</ele>
        <time>2020-10-04T09:43:27.000Z</time>
      </trkpt>
      <trkpt lat="47.29449" lon="-2.41485">
        <ele>12.60000038147</ele>
        <time>2020-10-04T09:43:30.000Z</time>
      </trkpt>
      <trkpt lat="47.29435" lon="-2.41485">
        <ele>12.60000038147</ele>
        <time>2020-10-04T09:43:33.000Z</time>
      </trkpt>
      <trkpt lat="47.29428" lon="-2.4148">
        <ele>12.60000038147</ele>
        <time>2020-10-04T09:43:35.000Z</time>
      </trkpt>
      <trkpt lat="47.29417" lon="-2.41468">
        <ele>12.60000038147</ele>
        <time>2020-10-04T09:43:38.000Z</time>
      </trkpt>
      <trkpt lat="47.29411" lon="-2.4146">
        <ele>12.60000038147</ele>
        <time>2020-10-04T09:43:40.000Z</time>
      </trkpt>
      <trkpt lat="47.29391" lon="-2.41424">
        <ele>12.60000038147</ele>
        <time>2020-10-04T09:43:48.000Z</time>
      </trkpt>
      <trkpt lat="47.29374" lon="-2.41386">
        <ele>12.60000038147</ele>
        <time>2020-10-04T09:43:56.000Z</time>
      </trkpt>
      <trkpt lat="47.29358" lon="-2.41365">
        <ele>12.60000038147</ele>
        <time>2020-10-04T09:44:01.000Z</time>
      </trkpt>
      <trkpt lat="47.29354" lon="-2.41361">
        <ele>12.60000038147</ele>
        <time>2020-10-04T09:44:02.000Z</time>
      </trkpt>
      <trkpt lat="47.29351" lon="-2.41357">
        <ele>12.60000038147</ele>
        <time>2020-10-04T09:44:03.000Z</time>
      </trkpt>
      <trkpt lat="47.29347" lon="-2.4134">
        <ele>12.60000038147</ele>
        <time>2020-10-04T09:44:06.000Z</time>
      </trkpt>
      <trkpt lat="47.29352" lon="-2.41322">
        <ele>12.60000038147</ele>
        <time>2020-10-04T09:44:09.000Z</time>
      </trkpt>
      <trkpt lat="47.29354" lon="-2.41317">
        <ele>12.60000038147</ele>
        <time>2020-10-04T09:44:10.000Z</time>
      </trkpt>
      <trkpt lat="47.29359" lon="-2.41299">
        <ele>12.60000038147</ele>
        <time>2020-10-04T09:44:13.000Z</time>
      </trkpt>
      <trkpt lat="47.29358" lon="-2.41287">
        <ele>12.60000038147</ele>
        <time>2020-10-04T09:44:15.000Z</time>
      </trkpt>
      <trkpt lat="47.29354" lon="-2.4125">
        <ele>12.60000038147</ele>
        <time>2020-10-04T09:44:21.000Z</time>
      </trkpt>
      <trkpt lat="47.29352" lon="-2.41245">
        <ele>12.60000038147</ele>
        <time>2020-10-04T09:44:22.000Z</time>
      </trkpt>
      <trkpt lat="47.2934" lon="-2.41229">
        <ele>12.60000038147</ele>
        <time>2020-10-04T09:44:26.000Z</time>
      </trkpt>
      <trkpt lat="47.29317" lon="-2.41203">
        <ele>12.60000038147</ele>
        <time>2020-10-04T09:44:33.000Z</time>
      </trkpt>
      <trkpt lat="47.29299" lon="-2.41177">
        <ele>12.60000038147</ele>
        <time>2020-10-04T09:44:40.000Z</time>
      </trkpt>
      <trkpt lat="47.29289" lon="-2.41149">
        <ele>12.60000038147</ele>
        <time>2020-10-04T09:44:46.000Z</time>
      </trkpt>
      <trkpt lat="47.29273" lon="-2.41124">
        <ele>12.60000038147</ele>
        <time>2020-10-04T09:44:53.000Z</time>
      </trkpt>
      <trkpt lat="47.29251" lon="-2.41096">
        <ele>12.60000038147</ele>
        <time>2020-10-04T09:45:02.000Z</time>
      </trkpt>
      <trkpt lat="47.29245" lon="-2.41078">
        <ele>12.60000038147</ele>
        <time>2020-10-04T09:45:06.000Z</time>
      </trkpt>
      <trkpt lat="47.29248" lon="-2.41068">
        <ele>12.60000038147</ele>
        <time>2020-10-04T09:45:08.000Z</time>
      </trkpt>
      <trkpt lat="47.29256" lon="-2.41049">
        <ele>12.60000038147</ele>
        <time>2020-10-04T09:45:12.000Z</time>
      </trkpt>
      <trkpt lat="47.29249" lon="-2.41031">
        <ele>12.60000038147</ele>
        <time>2020-10-04T09:45:16.000Z</time>
      </trkpt>
      <trkpt lat="47.29241" lon="-2.41024">
        <ele>12.60000038147</ele>
        <time>2020-10-04T09:45:20.000Z</time>
      </trkpt>
      <trkpt lat="47.29235" lon="-2.41013">
        <ele>12.60000038147</ele>
        <time>2020-10-04T09:45:23.000Z</time>
      </trkpt>
      <trkpt lat="47.29233" lon="-2.41009">
        <ele>12.60000038147</ele>
        <time>2020-10-04T09:45:24.000Z</time>
      </trkpt>
      <trkpt lat="47.29219" lon="-2.40975">
        <ele>12.60000038147</ele>
        <time>2020-10-04T09:45:31.000Z</time>
      </trkpt>
      <trkpt lat="47.29203" lon="-2.40951">
        <ele>12.60000038147</ele>
        <time>2020-10-04T09:45:37.000Z</time>
      </trkpt>
      <trkpt lat="47.29199" lon="-2.40949">
        <ele>12.60000038147</ele>
        <time>2020-10-04T09:45:38.000Z</time>
      </trkpt>
      <trkpt lat="47.29181" lon="-2.40944">
        <ele>12.60000038147</ele>
        <time>2020-10-04T09:45:42.000Z</time>
      </trkpt>
      <trkpt lat="47.29164" lon="-2.40931">
        <ele>12.60000038147</ele>
        <time>2020-10-04T09:45:47.000Z</time>
      </trkpt>
      <trkpt lat="47.29162" lon="-2.4091">
        <ele>12.60000038147</ele>
        <time>2020-10-04T09:45:51.000Z</time>
      </trkpt>
      <trkpt lat="47.29169" lon="-2.40884">
        <ele>12.60000038147</ele>
        <time>2020-10-04T09:45:56.000Z</time>
      </trkpt>
      <trkpt lat="47.29174" lon="-2.40854">
        <ele>12.60000038147</ele>
        <time>2020-10-04T09:46:02.000Z</time>
      </trkpt>
      <trkpt lat="47.29172" lon="-2.40843">
        <ele>12.60000038147</ele>
        <time>2020-10-04T09:46:04.000Z</time>
      </trkpt>
      <trkpt lat="47.29171" lon="-2.4083">
        <ele>12.60000038147</ele>
        <time>2020-10-04T09:46:06.000Z</time>
      </trkpt>
      <trkpt lat="47.29171" lon="-2.40823">
        <ele>12.60000038147</ele>
        <time>2020-10-04T09:46:07.000Z</time>
      </trkpt>
      <trkpt lat="47.29174" lon="-2.40804">
        <ele>12.60000038147</ele>
        <time>2020-10-04T09:46:10.000Z</time>
      </trkpt>
      <trkpt lat="47.29184" lon="-2.40777">
        <ele>12.60000038147</ele>
        <time>2020-10-04T09:46:15.000Z</time>
      </trkpt>
      <trkpt lat="47.29185" lon="-2.40773">
        <ele>12.60000038147</ele>
        <time>2020-10-04T09:46:16.000Z</time>
      </trkpt>
      <trkpt lat="47.29195" lon="-2.40749">
        <ele>12.60000038147</ele>
        <time>2020-10-04T09:46:21.000Z</time>
      </trkpt>
      <trkpt lat="47.29198" lon="-2.40744">
        <ele>12.60000038147</ele>
        <time>2020-10-04T09:46:22.000Z</time>
      </trkpt>
      <trkpt lat="47.29213" lon="-2.40723">
        <ele>12.60000038147</ele>
        <time>2020-10-04T09:46:28.000Z</time>
      </trkpt>
      <trkpt lat="47.29228" lon="-2.40694">
        <ele>12.60000038147</ele>
        <time>2020-10-04T09:46:35.000Z</time>
      </trkpt>
      <trkpt lat="47.29233" lon="-2.40678">
        <ele>12.60000038147</ele>
        <time>2020-10-04T09:46:38.000Z</time>
      </trkpt>
      <trkpt lat="47.29233" lon="-2.4066">
        <ele>12.60000038147</ele>
        <time>2020-10-04T09:46:41.000Z</time>
      </trkpt>
      <trkpt lat="47.29227" lon="-2.40644">
        <ele>12.60000038147</ele>
        <time>2020-10-04T09:46:44.000Z</time>
      </trkpt>
      <trkpt lat="47.29225" lon="-2.40639">
        <ele>12.199999809265</ele>
        <time>2020-10-04T09:46:45.000Z</time>
      </trkpt>
      <trkpt lat="47.29222" lon="-2.40635">
        <ele>11.800000190735</ele>
        <time>2020-10-04T09:46:46.000Z</time>
      </trkpt>
      <trkpt lat="47.2922" lon="-2.40631">
        <ele>11.39999961853</ele>
        <time>2020-10-04T09:46:47.000Z</time>
      </trkpt>
      <trkpt lat="47.29218" lon="-2.40628">
        <ele>10.800000190735</ele>
        <time>2020-10-04T09:46:48.000Z</time>
      </trkpt>
      <trkpt lat="47.29216" lon="-2.40625">
        <ele>10.39999961853</ele>
        <time>2020-10-04T09:46:49.000Z</time>
      </trkpt>
      <trkpt lat="47.29212" lon="-2.40619">
        <ele>10.39999961853</ele>
        <time>2020-10-04T09:46:51.000Z</time>
      </trkpt>
      <trkpt lat="47.29195" lon="-2.40612">
        <ele>10.39999961853</ele>
        <time>2020-10-04T09:46:56.000Z</time>
      </trkpt>
      <trkpt lat="47.29182" lon="-2.40623">
        <ele>10.39999961853</ele>
        <time>2020-10-04T09:47:00.000Z</time>
      </trkpt>
      <trkpt lat="47.29162" lon="-2.40636">
        <ele>10.39999961853</ele>
        <time>2020-10-04T09:47:06.000Z</time>
      </trkpt>
      <trkpt lat="47.29145" lon="-2.40645">
        <ele>10.39999961853</ele>
        <time>2020-10-04T09:47:12.000Z</time>
      </trkpt>
      <trkpt lat="47.29143" lon="-2.40633">
        <ele>10.39999961853</ele>
        <time>2020-10-04T09:47:15.000Z</time>
      </trkpt>
      <trkpt lat="47.29142" lon="-2.40629">
        <ele>10.39999961853</ele>
        <time>2020-10-04T09:47:16.000Z</time>
      </trkpt>
      <trkpt lat="47.2914" lon="-2.40607">
        <ele>10.39999961853</ele>
        <time>2020-10-04T09:47:20.000Z</time>
      </trkpt>
      <trkpt lat="47.29128" lon="-2.40578">
        <ele>10.39999961853</ele>
        <time>2020-10-04T09:47:26.000Z</time>
      </trkpt>
      <trkpt lat="47.29109" lon="-2.40555">
        <ele>10.39999961853</ele>
        <time>2020-10-04T09:47:33.000Z</time>
      </trkpt>
      <trkpt lat="47.29098" lon="-2.40536">
        <ele>10.39999961853</ele>
        <time>2020-10-04T09:47:38.000Z</time>
      </trkpt>
      <trkpt lat="47.29098" lon="-2.4053">
        <ele>10.39999961853</ele>
        <time>2020-10-04T09:47:39.000Z</time>
      </trkpt>
      <trkpt lat="47.29102" lon="-2.40516">
        <ele>10.39999961853</ele>
        <time>2020-10-04T09:47:42.000Z</time>
      </trkpt>
      <trkpt lat="47.29104" lon="-2.40511">
        <ele>10.39999961853</ele>
        <time>2020-10-04T09:47:43.000Z</time>
      </trkpt>
      <trkpt lat="47.29118" lon="-2.40498">
        <ele>10.39999961853</ele>
        <time>2020-10-04T09:47:48.000Z</time>
      </trkpt>
      <trkpt lat="47.29121" lon="-2.40496">
        <ele>11.39999961853</ele>
        <time>2020-10-04T09:47:49.000Z</time>
      </trkpt>
      <trkpt lat="47.29125" lon="-2.40494">
        <ele>11.800000190735</ele>
        <time>2020-10-04T09:47:50.000Z</time>
      </trkpt>
      <trkpt lat="47.29129" lon="-2.40492">
        <ele>12.199999809265</ele>
        <time>2020-10-04T09:47:51.000Z</time>
      </trkpt>
      <trkpt lat="47.29133" lon="-2.4049">
        <ele>12.60000038147</ele>
        <time>2020-10-04T09:47:52.000Z</time>
      </trkpt>
      <trkpt lat="47.29144" lon="-2.40484">
        <ele>12.60000038147</ele>
        <time>2020-10-04T09:47:55.000Z</time>
      </trkpt>
      <trkpt lat="47.2916" lon="-2.40489">
        <ele>12.60000038147</ele>
        <time>2020-10-04T09:48:00.000Z</time>
      </trkpt>
      <trkpt lat="47.29167" lon="-2.40506">
        <ele>12.60000038147</ele>
        <time>2020-10-04T09:48:04.000Z</time>
      </trkpt>
      <trkpt lat="47.29178" lon="-2.40518">
        <ele>12.60000038147</ele>
        <time>2020-10-04T09:48:08.000Z</time>
      </trkpt>
      <trkpt lat="47.29192" lon="-2.40514">
        <ele>12.60000038147</ele>
        <time>2020-10-04T09:48:12.000Z</time>
      </trkpt>
      <trkpt lat="47.29196" lon="-2.40512">
        <ele>12.60000038147</ele>
        <time>2020-10-04T09:48:13.000Z</time>
      </trkpt>
      <trkpt lat="47.29219" lon="-2.40499">
        <ele>12.60000038147</ele>
        <time>2020-10-04T09:48:19.000Z</time>
      </trkpt>
      <trkpt lat="47.29226" lon="-2.40493">
        <ele>12.60000038147</ele>
        <time>2020-10-04T09:48:21.000Z</time>
      </trkpt>
      <trkpt lat="47.2923" lon="-2.40491">
        <ele>12.60000038147</ele>
        <time>2020-10-04T09:48:22.000Z</time>
      </trkpt>
      <trkpt lat="47.29253" lon="-2.40479">
        <ele>12.60000038147</ele>
        <time>2020-10-04T09:48:28.000Z</time>
      </trkpt>
      <trkpt lat="47.29279" lon="-2.40468">
        <ele>12.60000038147</ele>
        <time>2020-10-04T09:48:35.000Z</time>
      </trkpt>
      <trkpt lat="47.29294" lon="-2.4045">
        <ele>12.60000038147</ele>
        <time>2020-10-04T09:48:40.000Z</time>
      </trkpt>
      <trkpt lat="47.29295" lon="-2.40445">
        <ele>12.60000038147</ele>
        <time>2020-10-04T09:48:41.000Z</time>
      </trkpt>
      <trkpt lat="47.29302" lon="-2.40425">
        <ele>12.60000038147</ele>
        <time>2020-10-04T09:48:45.000Z</time>
      </trkpt>
      <trkpt lat="47.29306" lon="-2.40403">
        <ele>12.60000038147</ele>
        <time>2020-10-04T09:48:50.000Z</time>
      </trkpt>
      <trkpt lat="47.29305" lon="-2.40397">
        <ele>12.199999809265</ele>
        <time>2020-10-04T09:48:51.000Z</time>
      </trkpt>
      <trkpt lat="47.29302" lon="-2.40392">
        <ele>11.800000190735</ele>
        <time>2020-10-04T09:48:52.000Z</time>
      </trkpt>
      <trkpt lat="47.293" lon="-2.40388">
        <ele>11.39999961853</ele>
        <time>2020-10-04T09:48:53.000Z</time>
      </trkpt>
      <trkpt lat="47.29297" lon="-2.40385">
        <ele>11</ele>
        <time>2020-10-04T09:48:54.000Z</time>
      </trkpt>
      <trkpt lat="47.29294" lon="-2.40381">
        <ele>10.60000038147</ele>
        <time>2020-10-04T09:48:55.000Z</time>
      </trkpt>
      <trkpt lat="47.29284" lon="-2.40353">
        <ele>10.60000038147</ele>
        <time>2020-10-04T09:49:01.000Z</time>
      </trkpt>
      <trkpt lat="47.29286" lon="-2.40343">
        <ele>10.60000038147</ele>
        <time>2020-10-04T09:49:03.000Z</time>
      </trkpt>
      <trkpt lat="47.2929" lon="-2.40336">
        <ele>10.60000038147</ele>
        <time>2020-10-04T09:49:05.000Z</time>
      </trkpt>
      <trkpt lat="47.29296" lon="-2.40329">
        <ele>10.60000038147</ele>
        <time>2020-10-04T09:49:07.000Z</time>
      </trkpt>
      <trkpt lat="47.2931" lon="-2.40315">
        <ele>10.60000038147</ele>
        <time>2020-10-04T09:49:11.000Z</time>
      </trkpt>
      <trkpt lat="47.29319" lon="-2.40304">
        <ele>10.60000038147</ele>
        <time>2020-10-04T09:49:14.000Z</time>
      </trkpt>
      <trkpt lat="47.29327" lon="-2.40293">
        <ele>10.60000038147</ele>
        <time>2020-10-04T09:49:17.000Z</time>
      </trkpt>
      <trkpt lat="47.29339" lon="-2.4028">
        <ele>11</ele>
        <time>2020-10-04T09:49:21.000Z</time>
      </trkpt>
      <trkpt lat="47.29342" lon="-2.40278">
        <ele>11.39999961853</ele>
        <time>2020-10-04T09:49:22.000Z</time>
      </trkpt>
      <trkpt lat="47.29345" lon="-2.40275">
        <ele>11.800000190735</ele>
        <time>2020-10-04T09:49:23.000Z</time>
      </trkpt>
      <trkpt lat="47.29349" lon="-2.40272">
        <ele>12.199999809265</ele>
        <time>2020-10-04T09:49:24.000Z</time>
      </trkpt>
      <trkpt lat="47.29352" lon="-2.40269">
        <ele>12.60000038147</ele>
        <time>2020-10-04T09:49:25.000Z</time>
      </trkpt>
      <trkpt lat="47.29374" lon="-2.40248">
        <ele>12.60000038147</ele>
        <time>2020-10-04T09:49:32.000Z</time>
      </trkpt>
      <trkpt lat="47.29393" lon="-2.40235">
        <ele>12.60000038147</ele>
        <time>2020-10-04T09:49:38.000Z</time>
      </trkpt>
      <trkpt lat="47.2941" lon="-2.40224">
        <ele>12.60000038147</ele>
        <time>2020-10-04T09:49:44.000Z</time>
      </trkpt>
      <trkpt lat="47.29435" lon="-2.40217">
        <ele>12.60000038147</ele>
        <time>2020-10-04T09:49:51.000Z</time>
      </trkpt>
      <trkpt lat="47.29447" lon="-2.4021">
        <ele>12.60000038147</ele>
        <time>2020-10-04T09:49:55.000Z</time>
      </trkpt>
      <trkpt lat="47.29451" lon="-2.40188">
        <ele>12.60000038147</ele>
        <time>2020-10-04T09:49:59.000Z</time>
      </trkpt>
      <trkpt lat="47.29455" lon="-2.40147">
        <ele>12.60000038147</ele>
        <time>2020-10-04T09:50:07.000Z</time>
      </trkpt>
      <trkpt lat="47.29457" lon="-2.40117">
        <ele>12.60000038147</ele>
        <time>2020-10-04T09:50:12.000Z</time>
      </trkpt>
      <trkpt lat="47.29462" lon="-2.40078">
        <ele>12.60000038147</ele>
        <time>2020-10-04T09:50:19.000Z</time>
      </trkpt>
      <trkpt lat="47.29462" lon="-2.40037">
        <ele>12.60000038147</ele>
        <time>2020-10-04T09:50:26.000Z</time>
      </trkpt>
      <trkpt lat="47.29462" lon="-2.40004">
        <ele>12.60000038147</ele>
        <time>2020-10-04T09:50:32.000Z</time>
      </trkpt>
      <trkpt lat="47.29462" lon="-2.39999">
        <ele>12.199999809265</ele>
        <time>2020-10-04T09:50:33.000Z</time>
      </trkpt>
      <trkpt lat="47.29462" lon="-2.39994">
        <ele>11.800000190735</ele>
        <time>2020-10-04T09:50:34.000Z</time>
      </trkpt>
      <trkpt lat="47.29462" lon="-2.39988">
        <ele>11.39999961853</ele>
        <time>2020-10-04T09:50:35.000Z</time>
      </trkpt>
      <trkpt lat="47.29463" lon="-2.39983">
        <ele>11</ele>
        <time>2020-10-04T09:50:36.000Z</time>
      </trkpt>
      <trkpt lat="47.29464" lon="-2.39978">
        <ele>10.60000038147</ele>
        <time>2020-10-04T09:50:37.000Z</time>
      </trkpt>
      <trkpt lat="47.29467" lon="-2.39969">
        <ele>10.60000038147</ele>
        <time>2020-10-04T09:50:39.000Z</time>
      </trkpt>
      <trkpt lat="47.29477" lon="-2.39942">
        <ele>10.60000038147</ele>
        <time>2020-10-04T09:50:45.000Z</time>
      </trkpt>
      <trkpt lat="47.29484" lon="-2.39923">
        <ele>10.60000038147</ele>
        <time>2020-10-04T09:50:51.000Z</time>
      </trkpt>
      <trkpt lat="47.29485" lon="-2.39917">
        <ele>10.60000038147</ele>
        <time>2020-10-04T09:50:55.000Z</time>
      </trkpt>
      <trkpt lat="47.29486" lon="-2.39914">
        <ele>10.60000038147</ele>
        <time>2020-10-04T09:51:08.000Z</time>
      </trkpt>
      <trkpt lat="47.29496" lon="-2.39898">
        <ele>10.60000038147</ele>
        <time>2020-10-04T09:51:13.000Z</time>
      </trkpt>
      <trkpt lat="47.29503" lon="-2.39891">
        <ele>10.60000038147</ele>
        <time>2020-10-04T09:51:15.000Z</time>
      </trkpt>
      <trkpt lat="47.29509" lon="-2.39881">
        <ele>10.60000038147</ele>
        <time>2020-10-04T09:51:17.000Z</time>
      </trkpt>
      <trkpt lat="47.29518" lon="-2.39865">
        <ele>10.60000038147</ele>
        <time>2020-10-04T09:51:20.000Z</time>
      </trkpt>
      <trkpt lat="47.29527" lon="-2.39845">
        <ele>10.60000038147</ele>
        <time>2020-10-04T09:51:23.000Z</time>
      </trkpt>
      <trkpt lat="47.29547" lon="-2.39804">
        <ele>10.60000038147</ele>
        <time>2020-10-04T09:51:29.000Z</time>
      </trkpt>
      <trkpt lat="47.29567" lon="-2.39758">
        <ele>10.60000038147</ele>
        <time>2020-10-04T09:51:36.000Z</time>
      </trkpt>
      <trkpt lat="47.2959" lon="-2.39715">
        <ele>10.60000038147</ele>
        <time>2020-10-04T09:51:43.000Z</time>
      </trkpt>
      <trkpt lat="47.2961" lon="-2.39678">
        <ele>10.60000038147</ele>
        <time>2020-10-04T09:51:49.000Z</time>
      </trkpt>
      <trkpt lat="47.29616" lon="-2.39667">
        <ele>10.60000038147</ele>
        <time>2020-10-04T09:51:51.000Z</time>
      </trkpt>
      <trkpt lat="47.29622" lon="-2.39654">
        <ele>10.60000038147</ele>
        <time>2020-10-04T09:51:53.000Z</time>
      </trkpt>
      <trkpt lat="47.29627" lon="-2.39634">
        <ele>10.60000038147</ele>
        <time>2020-10-04T09:51:56.000Z</time>
      </trkpt>
      <trkpt lat="47.29627" lon="-2.39627">
        <ele>10.60000038147</ele>
        <time>2020-10-04T09:51:57.000Z</time>
      </trkpt>
      <trkpt lat="47.29627" lon="-2.39614">
        <ele>10.60000038147</ele>
        <time>2020-10-04T09:51:59.000Z</time>
      </trkpt>
      <trkpt lat="47.29627" lon="-2.39602">
        <ele>10.60000038147</ele>
        <time>2020-10-04T09:52:01.000Z</time>
      </trkpt>
      <trkpt lat="47.29627" lon="-2.39574">
        <ele>10.60000038147</ele>
        <time>2020-10-04T09:52:07.000Z</time>
      </trkpt>
      <trkpt lat="47.29619" lon="-2.39573">
        <ele>10.60000038147</ele>
        <time>2020-10-04T09:52:11.000Z</time>
      </trkpt>
      <trkpt lat="47.29617" lon="-2.39573">
        <ele>10.60000038147</ele>
        <time>2020-10-04T09:52:12.000Z</time>
      </trkpt>
      <trkpt lat="47.29615" lon="-2.39571">
        <ele>11</ele>
        <time>2020-10-04T09:52:13.000Z</time>
      </trkpt>
      <trkpt lat="47.29612" lon="-2.3957">
        <ele>11.39999961853</ele>
        <time>2020-10-04T09:52:14.000Z</time>
      </trkpt>
      <trkpt lat="47.29611" lon="-2.39568">
        <ele>11.800000190735</ele>
        <time>2020-10-04T09:52:15.000Z</time>
      </trkpt>
      <trkpt lat="47.29612" lon="-2.39565">
        <ele>12.199999809265</ele>
        <time>2020-10-04T09:52:16.000Z</time>
      </trkpt>
      <trkpt lat="47.29615" lon="-2.39564">
        <ele>12.60000038147</ele>
        <time>2020-10-04T09:52:17.000Z</time>
      </trkpt>
      <trkpt lat="47.29619" lon="-2.39563">
        <ele>12.60000038147</ele>
        <time>2020-10-04T09:52:19.000Z</time>
      </trkpt>
      <trkpt lat="47.29622" lon="-2.39563">
        <ele>13</ele>
        <time>2020-10-04T09:52:20.000Z</time>
      </trkpt>
      <trkpt lat="47.29623" lon="-2.39561">
        <ele>13.60000038147</ele>
        <time>2020-10-04T09:52:21.000Z</time>
      </trkpt>
      <trkpt lat="47.29625" lon="-2.3956">
        <ele>14</ele>
        <time>2020-10-04T09:52:22.000Z</time>
      </trkpt>
      <trkpt lat="47.29626" lon="-2.39557">
        <ele>14.39999961853</ele>
        <time>2020-10-04T09:52:23.000Z</time>
      </trkpt>
      <trkpt lat="47.29626" lon="-2.39557">
        <ele>14.800000190735</ele>
        <time>2020-10-04T09:52:24.000Z</time>
      </trkpt>
      <trkpt lat="47.29626" lon="-2.39558">
        <ele>14.800000190735</ele>
        <time>2020-10-04T09:52:25.000Z</time>
      </trkpt>
      <trkpt lat="47.29623" lon="-2.39555">
        <ele>14.800000190735</ele>
        <time>2020-10-04T09:52:30.000Z</time>
      </trkpt>
      <trkpt lat="47.29617" lon="-2.39553">
        <ele>14.800000190735</ele>
        <time>2020-10-04T09:52:32.000Z</time>
      </trkpt>
      <trkpt lat="47.2961" lon="-2.39553">
        <ele>14.800000190735</ele>
        <time>2020-10-04T09:52:34.000Z</time>
      </trkpt>
      <trkpt lat="47.29604" lon="-2.39552">
        <ele>15.199999809265</ele>
        <time>2020-10-04T09:52:36.000Z</time>
      </trkpt>
      <trkpt lat="47.296" lon="-2.39552">
        <ele>15.60000038147</ele>
        <time>2020-10-04T09:52:37.000Z</time>
      </trkpt>
      <trkpt lat="47.29597" lon="-2.39551">
        <ele>16</ele>
        <time>2020-10-04T09:52:38.000Z</time>
      </trkpt>
      <trkpt lat="47.29595" lon="-2.3955">
        <ele>16.60000038147</ele>
        <time>2020-10-04T09:52:39.000Z</time>
      </trkpt>
      <trkpt lat="47.29592" lon="-2.3955">
        <ele>17</ele>
        <time>2020-10-04T09:52:40.000Z</time>
      </trkpt>
      <trkpt lat="47.29583" lon="-2.39547">
        <ele>17</ele>
        <time>2020-10-04T09:52:43.000Z</time>
      </trkpt>
      <trkpt lat="47.2956" lon="-2.39542">
        <ele>17</ele>
        <time>2020-10-04T09:52:49.000Z</time>
      </trkpt>
      <trkpt lat="47.29556" lon="-2.39536">
        <ele>17</ele>
        <time>2020-10-04T09:52:51.000Z</time>
      </trkpt>
      <trkpt lat="47.29557" lon="-2.39531">
        <ele>17</ele>
        <time>2020-10-04T09:52:52.000Z</time>
      </trkpt>
      <trkpt lat="47.29555" lon="-2.39511">
        <ele>16.60000038147</ele>
        <time>2020-10-04T09:52:56.000Z</time>
      </trkpt>
      <trkpt lat="47.29556" lon="-2.39505">
        <ele>16</ele>
        <time>2020-10-04T09:52:57.000Z</time>
      </trkpt>
      <trkpt lat="47.29557" lon="-2.39499">
        <ele>15.60000038147</ele>
        <time>2020-10-04T09:52:58.000Z</time>
      </trkpt>
      <trkpt lat="47.29558" lon="-2.39495">
        <ele>15.199999809265</ele>
        <time>2020-10-04T09:52:59.000Z</time>
      </trkpt>
      <trkpt lat="47.29561" lon="-2.3949">
        <ele>14.800000190735</ele>
        <time>2020-10-04T09:53:00.000Z</time>
      </trkpt>
      <trkpt lat="47.29564" lon="-2.39488">
        <ele>14.199999809265</ele>
        <time>2020-10-04T09:53:01.000Z</time>
      </trkpt>
      <trkpt lat="47.29566" lon="-2.39488">
        <ele>13.60000038147</ele>
        <time>2020-10-04T09:53:02.000Z</time>
      </trkpt>
      <trkpt lat="47.29571" lon="-2.39492">
        <ele>13</ele>
        <time>2020-10-04T09:53:03.000Z</time>
      </trkpt>
      <trkpt lat="47.29575" lon="-2.39494">
        <ele>12.60000038147</ele>
        <time>2020-10-04T09:53:04.000Z</time>
      </trkpt>
      <trkpt lat="47.29585" lon="-2.39496">
        <ele>12.60000038147</ele>
        <time>2020-10-04T09:53:06.000Z</time>
      </trkpt>
      <trkpt lat="47.29595" lon="-2.3949">
        <ele>12.60000038147</ele>
        <time>2020-10-04T09:53:08.000Z</time>
      </trkpt>
      <trkpt lat="47.2961" lon="-2.39468">
        <ele>12.60000038147</ele>
        <time>2020-10-04T09:53:12.000Z</time>
      </trkpt>
      <trkpt lat="47.29631" lon="-2.39427">
        <ele>12.60000038147</ele>
        <time>2020-10-04T09:53:18.000Z</time>
      </trkpt>
      <trkpt lat="47.29633" lon="-2.39411">
        <ele>12.60000038147</ele>
        <time>2020-10-04T09:53:20.000Z</time>
      </trkpt>
      <trkpt lat="47.29636" lon="-2.39394">
        <ele>12.60000038147</ele>
        <time>2020-10-04T09:53:22.000Z</time>
      </trkpt>
      <trkpt lat="47.2964" lon="-2.39381">
        <ele>12.60000038147</ele>
        <time>2020-10-04T09:53:24.000Z</time>
      </trkpt>
      <trkpt lat="47.29641" lon="-2.39373">
        <ele>12.60000038147</ele>
        <time>2020-10-04T09:53:25.000Z</time>
      </trkpt>
      <trkpt lat="47.29643" lon="-2.39348">
        <ele>12.60000038147</ele>
        <time>2020-10-04T09:53:28.000Z</time>
      </trkpt>
      <trkpt lat="47.29644" lon="-2.3934">
        <ele>12.60000038147</ele>
        <time>2020-10-04T09:53:29.000Z</time>
      </trkpt>
      <trkpt lat="47.29647" lon="-2.39291">
        <ele>12.60000038147</ele>
        <time>2020-10-04T09:53:35.000Z</time>
      </trkpt>
      <trkpt lat="47.29649" lon="-2.39277">
        <ele>12.60000038147</ele>
        <time>2020-10-04T09:53:37.000Z</time>
      </trkpt>
      <trkpt lat="47.29656" lon="-2.39227">
        <ele>12.60000038147</ele>
        <time>2020-10-04T09:53:44.000Z</time>
      </trkpt>
      <trkpt lat="47.2966" lon="-2.39213">
        <ele>12.60000038147</ele>
        <time>2020-10-04T09:53:46.000Z</time>
      </trkpt>
      <trkpt lat="47.29663" lon="-2.39202">
        <ele>12.60000038147</ele>
        <time>2020-10-04T09:53:48.000Z</time>
      </trkpt>
      <trkpt lat="47.29665" lon="-2.39196">
        <ele>12.60000038147</ele>
        <time>2020-10-04T09:53:49.000Z</time>
      </trkpt>
      <trkpt lat="47.29659" lon="-2.39179">
        <ele>12.60000038147</ele>
        <time>2020-10-04T09:53:53.000Z</time>
      </trkpt>
      <trkpt lat="47.29642" lon="-2.39168">
        <ele>12.60000038147</ele>
        <time>2020-10-04T09:53:57.000Z</time>
      </trkpt>
      <trkpt lat="47.29631" lon="-2.39141">
        <ele>12.60000038147</ele>
        <time>2020-10-04T09:54:01.000Z</time>
      </trkpt>
      <trkpt lat="47.29629" lon="-2.39125">
        <ele>12.60000038147</ele>
        <time>2020-10-04T09:54:03.000Z</time>
      </trkpt>
      <trkpt lat="47.29626" lon="-2.39102">
        <ele>12.60000038147</ele>
        <time>2020-10-04T09:54:06.000Z</time>
      </trkpt>
      <trkpt lat="47.29625" lon="-2.39051">
        <ele>12.60000038147</ele>
        <time>2020-10-04T09:54:12.000Z</time>
      </trkpt>
      <trkpt lat="47.29623" lon="-2.3902">
        <ele>13</ele>
        <time>2020-10-04T09:54:16.000Z</time>
      </trkpt>
      <trkpt lat="47.2962" lon="-2.39014">
        <ele>13.39999961853</ele>
        <time>2020-10-04T09:54:17.000Z</time>
      </trkpt>
      <trkpt lat="47.29616" lon="-2.3901">
        <ele>13.800000190735</ele>
        <time>2020-10-04T09:54:18.000Z</time>
      </trkpt>
      <trkpt lat="47.29612" lon="-2.39006">
        <ele>14.199999809265</ele>
        <time>2020-10-04T09:54:19.000Z</time>
      </trkpt>
      <trkpt lat="47.29608" lon="-2.39004">
        <ele>14.60000038147</ele>
        <time>2020-10-04T09:54:20.000Z</time>
      </trkpt>
      <trkpt lat="47.296" lon="-2.39">
        <ele>14.60000038147</ele>
        <time>2020-10-04T09:54:22.000Z</time>
      </trkpt>
      <trkpt lat="47.29591" lon="-2.38997">
        <ele>14.60000038147</ele>
        <time>2020-10-04T09:54:24.000Z</time>
      </trkpt>
      <trkpt lat="47.29571" lon="-2.3899">
        <ele>14.60000038147</ele>
        <time>2020-10-04T09:54:28.000Z</time>
      </trkpt>
      <trkpt lat="47.29531" lon="-2.38964">
        <ele>14.60000038147</ele>
        <time>2020-10-04T09:54:36.000Z</time>
      </trkpt>
      <trkpt lat="47.29505" lon="-2.38935">
        <ele>14.60000038147</ele>
        <time>2020-10-04T09:54:42.000Z</time>
      </trkpt>
      <trkpt lat="47.29502" lon="-2.38928">
        <ele>14.60000038147</ele>
        <time>2020-10-04T09:54:43.000Z</time>
      </trkpt>
      <trkpt lat="47.29491" lon="-2.38898">
        <ele>14.60000038147</ele>
        <time>2020-10-04T09:54:47.000Z</time>
      </trkpt>
      <trkpt lat="47.29489" lon="-2.38891">
        <ele>14.60000038147</ele>
        <time>2020-10-04T09:54:48.000Z</time>
      </trkpt>
      <trkpt lat="47.29482" lon="-2.38871">
        <ele>14.60000038147</ele>
        <time>2020-10-04T09:54:51.000Z</time>
      </trkpt>
      <trkpt lat="47.29475" lon="-2.38852">
        <ele>14.60000038147</ele>
        <time>2020-10-04T09:54:54.000Z</time>
      </trkpt>
      <trkpt lat="47.29472" lon="-2.3884">
        <ele>14.60000038147</ele>
        <time>2020-10-04T09:54:56.000Z</time>
      </trkpt>
      <trkpt lat="47.29471" lon="-2.38825">
        <ele>14.60000038147</ele>
        <time>2020-10-04T09:54:58.000Z</time>
      </trkpt>
      <trkpt lat="47.29471" lon="-2.38767">
        <ele>14.60000038147</ele>
        <time>2020-10-04T09:55:05.000Z</time>
      </trkpt>
      <trkpt lat="47.2947" lon="-2.3871">
        <ele>14.60000038147</ele>
        <time>2020-10-04T09:55:11.000Z</time>
      </trkpt>
      <trkpt lat="47.29467" lon="-2.38681">
        <ele>14.60000038147</ele>
        <time>2020-10-04T09:55:14.000Z</time>
      </trkpt>
      <trkpt lat="47.29462" lon="-2.38645">
        <ele>14.60000038147</ele>
        <time>2020-10-04T09:55:18.000Z</time>
      </trkpt>
      <trkpt lat="47.29462" lon="-2.38636">
        <ele>14.60000038147</ele>
        <time>2020-10-04T09:55:19.000Z</time>
      </trkpt>
      <trkpt lat="47.29463" lon="-2.38595">
        <ele>14.60000038147</ele>
        <time>2020-10-04T09:55:23.000Z</time>
      </trkpt>
      <trkpt lat="47.29462" lon="-2.38514">
        <ele>14.60000038147</ele>
        <time>2020-10-04T09:55:31.000Z</time>
      </trkpt>
      <trkpt lat="47.29462" lon="-2.38504">
        <ele>14.60000038147</ele>
        <time>2020-10-04T09:55:32.000Z</time>
      </trkpt>
      <trkpt lat="47.2946" lon="-2.38453">
        <ele>14</ele>
        <time>2020-10-04T09:55:37.000Z</time>
      </trkpt>
      <trkpt lat="47.29459" lon="-2.38442">
        <ele>13.199999809265</ele>
        <time>2020-10-04T09:55:38.000Z</time>
      </trkpt>
      <trkpt lat="47.29459" lon="-2.38432">
        <ele>12.800000190735</ele>
        <time>2020-10-04T09:55:39.000Z</time>
      </trkpt>
      <trkpt lat="47.29458" lon="-2.38422">
        <ele>12.199999809265</ele>
        <time>2020-10-04T09:55:40.000Z</time>
      </trkpt>
      <trkpt lat="47.29458" lon="-2.38411">
        <ele>12.199999809265</ele>
        <time>2020-10-04T09:55:41.000Z</time>
      </trkpt>
      <trkpt lat="47.29455" lon="-2.38367">
        <ele>12.199999809265</ele>
        <time>2020-10-04T09:55:46.000Z</time>
      </trkpt>
      <trkpt lat="47.2945" lon="-2.38357">
        <ele>12.199999809265</ele>
        <time>2020-10-04T09:55:49.000Z</time>
      </trkpt>
      <trkpt lat="47.29443" lon="-2.38358">
        <ele>12.199999809265</ele>
        <time>2020-10-04T09:55:51.000Z</time>
      </trkpt>
      <trkpt lat="47.29435" lon="-2.38361">
        <ele>12.199999809265</ele>
        <time>2020-10-04T09:55:53.000Z</time>
      </trkpt>
      <trkpt lat="47.29426" lon="-2.38364">
        <ele>12.199999809265</ele>
        <time>2020-10-04T09:55:55.000Z</time>
      </trkpt>
      <trkpt lat="47.29396" lon="-2.3837">
        <ele>12.199999809265</ele>
        <time>2020-10-04T09:56:01.000Z</time>
      </trkpt>
      <trkpt lat="47.29359" lon="-2.38371">
        <ele>12.199999809265</ele>
        <time>2020-10-04T09:56:08.000Z</time>
      </trkpt>
      <trkpt lat="47.29348" lon="-2.38375">
        <ele>12.199999809265</ele>
        <time>2020-10-04T09:56:10.000Z</time>
      </trkpt>
      <trkpt lat="47.29335" lon="-2.38384">
        <ele>12.199999809265</ele>
        <time>2020-10-04T09:56:13.000Z</time>
      </trkpt>
      <trkpt lat="47.29332" lon="-2.38387">
        <ele>11.800000190735</ele>
        <time>2020-10-04T09:56:14.000Z</time>
      </trkpt>
      <trkpt lat="47.2933" lon="-2.38388">
        <ele>11.39999961853</ele>
        <time>2020-10-04T09:56:15.000Z</time>
      </trkpt>
      <trkpt lat="47.29329" lon="-2.38389">
        <ele>11</ele>
        <time>2020-10-04T09:56:16.000Z</time>
      </trkpt>
      <trkpt lat="47.29328" lon="-2.3839">
        <ele>10.60000038147</ele>
        <time>2020-10-04T09:56:17.000Z</time>
      </trkpt>
      <trkpt lat="47.2933" lon="-2.3839">
        <ele>10.199999809265</ele>
        <time>2020-10-04T09:58:20.000Z</time>
      </trkpt>
      <trkpt lat="47.29332" lon="-2.38389">
        <ele>10.199999809265</ele>
        <time>2020-10-04T09:58:21.000Z</time>
      </trkpt>
      <trkpt lat="47.29339" lon="-2.38383">
        <ele>10.199999809265</ele>
        <time>2020-10-04T09:58:25.000Z</time>
      </trkpt>
      <trkpt lat="47.29344" lon="-2.3838">
        <ele>10.199999809265</ele>
        <time>2020-10-04T09:58:27.000Z</time>
      </trkpt>
      <trkpt lat="47.29363" lon="-2.38372">
        <ele>10.199999809265</ele>
        <time>2020-10-04T09:58:32.000Z</time>
      </trkpt>
      <trkpt lat="47.29367" lon="-2.38372">
        <ele>10.199999809265</ele>
        <time>2020-10-04T09:58:33.000Z</time>
      </trkpt>
      <trkpt lat="47.29372" lon="-2.38372">
        <ele>10.60000038147</ele>
        <time>2020-10-04T09:58:34.000Z</time>
      </trkpt>
      <trkpt lat="47.29377" lon="-2.38373">
        <ele>11</ele>
        <time>2020-10-04T09:58:35.000Z</time>
      </trkpt>
      <trkpt lat="47.29381" lon="-2.38373">
        <ele>11.39999961853</ele>
        <time>2020-10-04T09:58:36.000Z</time>
      </trkpt>
      <trkpt lat="47.29386" lon="-2.38373">
        <ele>11.800000190735</ele>
        <time>2020-10-04T09:58:37.000Z</time>
      </trkpt>
      <trkpt lat="47.2939" lon="-2.38373">
        <ele>12.199999809265</ele>
        <time>2020-10-04T09:58:38.000Z</time>
      </trkpt>
      <trkpt lat="47.29399" lon="-2.38372">
        <ele>12.199999809265</ele>
        <time>2020-10-04T09:58:40.000Z</time>
      </trkpt>
      <trkpt lat="47.29424" lon="-2.38366">
        <ele>12.199999809265</ele>
        <time>2020-10-04T09:58:45.000Z</time>
      </trkpt>
      <trkpt lat="47.29438" lon="-2.38361">
        <ele>12.199999809265</ele>
        <time>2020-10-04T09:58:48.000Z</time>
      </trkpt>
      <trkpt lat="47.29449" lon="-2.38354">
        <ele>12.199999809265</ele>
        <time>2020-10-04T09:58:51.000Z</time>
      </trkpt>
      <trkpt lat="47.29454" lon="-2.38334">
        <ele>12.199999809265</ele>
        <time>2020-10-04T09:58:55.000Z</time>
      </trkpt>
      <trkpt lat="47.29455" lon="-2.38302">
        <ele>12.199999809265</ele>
        <time>2020-10-04T09:59:00.000Z</time>
      </trkpt>
      <trkpt lat="47.29454" lon="-2.38256">
        <ele>12.60000038147</ele>
        <time>2020-10-04T09:59:07.000Z</time>
      </trkpt>
      <trkpt lat="47.29454" lon="-2.38249">
        <ele>13</ele>
        <time>2020-10-04T09:59:08.000Z</time>
      </trkpt>
      <trkpt lat="47.29454" lon="-2.38243">
        <ele>13.39999961853</ele>
        <time>2020-10-04T09:59:09.000Z</time>
      </trkpt>
      <trkpt lat="47.29453" lon="-2.38236">
        <ele>13.800000190735</ele>
        <time>2020-10-04T09:59:10.000Z</time>
      </trkpt>
      <trkpt lat="47.29453" lon="-2.38229">
        <ele>14.199999809265</ele>
        <time>2020-10-04T09:59:11.000Z</time>
      </trkpt>
      <trkpt lat="47.29447" lon="-2.38184">
        <ele>14.199999809265</ele>
        <time>2020-10-04T09:59:17.000Z</time>
      </trkpt>
      <trkpt lat="47.29437" lon="-2.38123">
        <ele>14.199999809265</ele>
        <time>2020-10-04T09:59:24.000Z</time>
      </trkpt>
      <trkpt lat="47.29418" lon="-2.38072">
        <ele>14.199999809265</ele>
        <time>2020-10-04T09:59:31.000Z</time>
      </trkpt>
      <trkpt lat="47.29403" lon="-2.38029">
        <ele>14.199999809265</ele>
        <time>2020-10-04T09:59:37.000Z</time>
      </trkpt>
      <trkpt lat="47.29382" lon="-2.37969">
        <ele>14.199999809265</ele>
        <time>2020-10-04T09:59:46.000Z</time>
      </trkpt>
      <trkpt lat="47.29364" lon="-2.37916">
        <ele>14.199999809265</ele>
        <time>2020-10-04T09:59:54.000Z</time>
      </trkpt>
      <trkpt lat="47.29343" lon="-2.37858">
        <ele>14.60000038147</ele>
        <time>2020-10-04T10:00:03.000Z</time>
      </trkpt>
      <trkpt lat="47.29341" lon="-2.37852">
        <ele>15</ele>
        <time>2020-10-04T10:00:04.000Z</time>
      </trkpt>
      <trkpt lat="47.29339" lon="-2.37844">
        <ele>15.39999961853</ele>
        <time>2020-10-04T10:00:05.000Z</time>
      </trkpt>
      <trkpt lat="47.29338" lon="-2.37837">
        <ele>15.800000190735</ele>
        <time>2020-10-04T10:00:06.000Z</time>
      </trkpt>
      <trkpt lat="47.29337" lon="-2.3783">
        <ele>16.39999961853</ele>
        <time>2020-10-04T10:00:07.000Z</time>
      </trkpt>
      <trkpt lat="47.29334" lon="-2.37802">
        <ele>16.39999961853</ele>
        <time>2020-10-04T10:00:11.000Z</time>
      </trkpt>
      <trkpt lat="47.29333" lon="-2.37765">
        <ele>16.799999237061</ele>
        <time>2020-10-04T10:00:17.000Z</time>
      </trkpt>
      <trkpt lat="47.29333" lon="-2.3776">
        <ele>17.200000762939</ele>
        <time>2020-10-04T10:00:18.000Z</time>
      </trkpt>
      <trkpt lat="47.29332" lon="-2.37754">
        <ele>17.60000038147</ele>
        <time>2020-10-04T10:00:19.000Z</time>
      </trkpt>
      <trkpt lat="47.29332" lon="-2.3775">
        <ele>18</ele>
        <time>2020-10-04T10:00:20.000Z</time>
      </trkpt>
      <trkpt lat="47.29332" lon="-2.37745">
        <ele>18.39999961853</ele>
        <time>2020-10-04T10:00:21.000Z</time>
      </trkpt>
      <trkpt lat="47.29331" lon="-2.37735">
        <ele>18.39999961853</ele>
        <time>2020-10-04T10:00:24.000Z</time>
      </trkpt>
      <trkpt lat="47.29325" lon="-2.37735">
        <ele>18.799999237061</ele>
        <time>2020-10-04T10:00:27.000Z</time>
      </trkpt>
      <trkpt lat="47.29323" lon="-2.37736">
        <ele>19.200000762939</ele>
        <time>2020-10-04T10:00:28.000Z</time>
      </trkpt>
      <trkpt lat="47.2932" lon="-2.37737">
        <ele>19.60000038147</ele>
        <time>2020-10-04T10:00:29.000Z</time>
      </trkpt>
      <trkpt lat="47.29317" lon="-2.3774">
        <ele>20</ele>
        <time>2020-10-04T10:00:30.000Z</time>
      </trkpt>
      <trkpt lat="47.29313" lon="-2.37742">
        <ele>20.39999961853</ele>
        <time>2020-10-04T10:00:31.000Z</time>
      </trkpt>
      <trkpt lat="47.29309" lon="-2.37743">
        <ele>20.39999961853</ele>
        <time>2020-10-04T10:00:32.000Z</time>
      </trkpt>
      <trkpt lat="47.293" lon="-2.37743">
        <ele>20.39999961853</ele>
        <time>2020-10-04T10:00:34.000Z</time>
      </trkpt>
      <trkpt lat="47.29289" lon="-2.37741">
        <ele>20</ele>
        <time>2020-10-04T10:00:36.000Z</time>
      </trkpt>
      <trkpt lat="47.29283" lon="-2.3774">
        <ele>19.60000038147</ele>
        <time>2020-10-04T10:00:37.000Z</time>
      </trkpt>
      <trkpt lat="47.29277" lon="-2.37738">
        <ele>19</ele>
        <time>2020-10-04T10:00:38.000Z</time>
      </trkpt>
      <trkpt lat="47.29271" lon="-2.37736">
        <ele>18.60000038147</ele>
        <time>2020-10-04T10:00:39.000Z</time>
      </trkpt>
      <trkpt lat="47.29266" lon="-2.37734">
        <ele>18.200000762939</ele>
        <time>2020-10-04T10:00:40.000Z</time>
      </trkpt>
      <trkpt lat="47.29255" lon="-2.37729">
        <ele>18.200000762939</ele>
        <time>2020-10-04T10:00:42.000Z</time>
      </trkpt>
      <trkpt lat="47.29249" lon="-2.37728">
        <ele>18.200000762939</ele>
        <time>2020-10-04T10:00:43.000Z</time>
      </trkpt>
      <trkpt lat="47.29232" lon="-2.37726">
        <ele>18.200000762939</ele>
        <time>2020-10-04T10:00:46.000Z</time>
      </trkpt>
      <trkpt lat="47.29214" lon="-2.37734">
        <ele>18.200000762939</ele>
        <time>2020-10-04T10:00:49.000Z</time>
      </trkpt>
      <trkpt lat="47.29198" lon="-2.37755">
        <ele>17.799999237061</ele>
        <time>2020-10-04T10:00:52.000Z</time>
      </trkpt>
      <trkpt lat="47.29192" lon="-2.37764">
        <ele>17.39999961853</ele>
        <time>2020-10-04T10:00:53.000Z</time>
      </trkpt>
      <trkpt lat="47.29188" lon="-2.37774">
        <ele>17</ele>
        <time>2020-10-04T10:00:54.000Z</time>
      </trkpt>
      <trkpt lat="47.29183" lon="-2.37783">
        <ele>16.60000038147</ele>
        <time>2020-10-04T10:00:55.000Z</time>
      </trkpt>
      <trkpt lat="47.29179" lon="-2.37793">
        <ele>16.200000762939</ele>
        <time>2020-10-04T10:00:56.000Z</time>
      </trkpt>
      <trkpt lat="47.29167" lon="-2.3782">
        <ele>16.200000762939</ele>
        <time>2020-10-04T10:00:59.000Z</time>
      </trkpt>
      <trkpt lat="47.29159" lon="-2.37834">
        <ele>15.60000038147</ele>
        <time>2020-10-04T10:01:01.000Z</time>
      </trkpt>
      <trkpt lat="47.29155" lon="-2.37841">
        <ele>15.199999809265</ele>
        <time>2020-10-04T10:01:02.000Z</time>
      </trkpt>
      <trkpt lat="47.29151" lon="-2.37846">
        <ele>14.60000038147</ele>
        <time>2020-10-04T10:01:03.000Z</time>
      </trkpt>
      <trkpt lat="47.29146" lon="-2.37848">
        <ele>14.199999809265</ele>
        <time>2020-10-04T10:01:04.000Z</time>
      </trkpt>
      <trkpt lat="47.29141" lon="-2.37849">
        <ele>13.800000190735</ele>
        <time>2020-10-04T10:01:05.000Z</time>
      </trkpt>
      <trkpt lat="47.2913" lon="-2.37843">
        <ele>13.800000190735</ele>
        <time>2020-10-04T10:01:07.000Z</time>
      </trkpt>
      <trkpt lat="47.2912" lon="-2.37834">
        <ele>13.800000190735</ele>
        <time>2020-10-04T10:01:09.000Z</time>
      </trkpt>
      <trkpt lat="47.291" lon="-2.37813">
        <ele>13.800000190735</ele>
        <time>2020-10-04T10:01:13.000Z</time>
      </trkpt>
      <trkpt lat="47.29065" lon="-2.37782">
        <ele>13.800000190735</ele>
        <time>2020-10-04T10:01:20.000Z</time>
      </trkpt>
      <trkpt lat="47.29035" lon="-2.37748">
        <ele>13.800000190735</ele>
        <time>2020-10-04T10:01:27.000Z</time>
      </trkpt>
      <trkpt lat="47.29014" lon="-2.3772">
        <ele>13.800000190735</ele>
        <time>2020-10-04T10:01:32.000Z</time>
      </trkpt>
      <trkpt lat="47.28986" lon="-2.37679">
        <ele>13.800000190735</ele>
        <time>2020-10-04T10:01:39.000Z</time>
      </trkpt>
      <trkpt lat="47.28955" lon="-2.37643">
        <ele>13.800000190735</ele>
        <time>2020-10-04T10:01:47.000Z</time>
      </trkpt>
      <trkpt lat="47.28951" lon="-2.3764">
        <ele>13.800000190735</ele>
        <time>2020-10-04T10:01:48.000Z</time>
      </trkpt>
      <trkpt lat="47.28944" lon="-2.37642">
        <ele>13.800000190735</ele>
        <time>2020-10-04T10:01:50.000Z</time>
      </trkpt>
      <trkpt lat="47.28938" lon="-2.37645">
        <ele>13.800000190735</ele>
        <time>2020-10-04T10:01:52.000Z</time>
      </trkpt>
      <trkpt lat="47.28925" lon="-2.37646">
        <ele>13.800000190735</ele>
        <time>2020-10-04T10:01:56.000Z</time>
      </trkpt>
      <trkpt lat="47.28901" lon="-2.37648">
        <ele>13.800000190735</ele>
        <time>2020-10-04T10:02:01.000Z</time>
      </trkpt>
      <trkpt lat="47.28868" lon="-2.37654">
        <ele>13.800000190735</ele>
        <time>2020-10-04T10:02:08.000Z</time>
      </trkpt>
      <trkpt lat="47.28864" lon="-2.37652">
        <ele>14.199999809265</ele>
        <time>2020-10-04T10:02:09.000Z</time>
      </trkpt>
      <trkpt lat="47.28861" lon="-2.37648">
        <ele>14.60000038147</ele>
        <time>2020-10-04T10:02:10.000Z</time>
      </trkpt>
      <trkpt lat="47.28858" lon="-2.37644">
        <ele>15</ele>
        <time>2020-10-04T10:02:11.000Z</time>
      </trkpt>
      <trkpt lat="47.28856" lon="-2.3764">
        <ele>15.800000190735</ele>
        <time>2020-10-04T10:02:12.000Z</time>
      </trkpt>
      <trkpt lat="47.28856" lon="-2.37638">
        <ele>15.39999961853</ele>
        <time>2020-10-04T10:02:13.000Z</time>
      </trkpt>
      <trkpt lat="47.28856" lon="-2.37636">
        <ele>15</ele>
        <time>2020-10-04T10:02:14.000Z</time>
      </trkpt>
      <trkpt lat="47.28856" lon="-2.37635">
        <ele>14.60000038147</ele>
        <time>2020-10-04T10:02:15.000Z</time>
      </trkpt>
      <trkpt lat="47.28856" lon="-2.3763">
        <ele>13.800000190735</ele>
        <time>2020-10-04T10:02:33.000Z</time>
      </trkpt>
      <trkpt lat="47.28855" lon="-2.37627">
        <ele>13.800000190735</ele>
        <time>2020-10-04T10:02:34.000Z</time>
      </trkpt>
      <trkpt lat="47.28854" lon="-2.37603">
        <ele>13.800000190735</ele>
        <time>2020-10-04T10:02:39.000Z</time>
      </trkpt>
      <trkpt lat="47.28858" lon="-2.37592">
        <ele>13.800000190735</ele>
        <time>2020-10-04T10:02:41.000Z</time>
      </trkpt>
      <trkpt lat="47.28864" lon="-2.37574">
        <ele>13.800000190735</ele>
        <time>2020-10-04T10:02:44.000Z</time>
      </trkpt>
      <trkpt lat="47.28869" lon="-2.37562">
        <ele>13.800000190735</ele>
        <time>2020-10-04T10:02:46.000Z</time>
      </trkpt>
      <trkpt lat="47.2888" lon="-2.3754">
        <ele>13.800000190735</ele>
        <time>2020-10-04T10:02:50.000Z</time>
      </trkpt>
      <trkpt lat="47.28882" lon="-2.37534">
        <ele>13.800000190735</ele>
        <time>2020-10-04T10:02:51.000Z</time>
      </trkpt>
      <trkpt lat="47.28882" lon="-2.37521">
        <ele>13.800000190735</ele>
        <time>2020-10-04T10:02:53.000Z</time>
      </trkpt>
      <trkpt lat="47.28878" lon="-2.37501">
        <ele>13.800000190735</ele>
        <time>2020-10-04T10:02:56.000Z</time>
      </trkpt>
      <trkpt lat="47.28875" lon="-2.37479">
        <ele>13.800000190735</ele>
        <time>2020-10-04T10:02:59.000Z</time>
      </trkpt>
      <trkpt lat="47.28869" lon="-2.37435">
        <ele>13.800000190735</ele>
        <time>2020-10-04T10:03:05.000Z</time>
      </trkpt>
      <trkpt lat="47.28865" lon="-2.37397">
        <ele>14.199999809265</ele>
        <time>2020-10-04T10:03:10.000Z</time>
      </trkpt>
      <trkpt lat="47.28864" lon="-2.3739">
        <ele>14.60000038147</ele>
        <time>2020-10-04T10:03:11.000Z</time>
      </trkpt>
      <trkpt lat="47.28864" lon="-2.37383">
        <ele>15</ele>
        <time>2020-10-04T10:03:12.000Z</time>
      </trkpt>
      <trkpt lat="47.28864" lon="-2.37376">
        <ele>15.60000038147</ele>
        <time>2020-10-04T10:03:13.000Z</time>
      </trkpt>
      <trkpt lat="47.28863" lon="-2.37369">
        <ele>16</ele>
        <time>2020-10-04T10:03:14.000Z</time>
      </trkpt>
      <trkpt lat="47.28862" lon="-2.37348">
        <ele>16</ele>
        <time>2020-10-04T10:03:17.000Z</time>
      </trkpt>
      <trkpt lat="47.28859" lon="-2.37327">
        <ele>16</ele>
        <time>2020-10-04T10:03:20.000Z</time>
      </trkpt>
      <trkpt lat="47.28854" lon="-2.37277">
        <ele>16</ele>
        <time>2020-10-04T10:03:27.000Z</time>
      </trkpt>
      <trkpt lat="47.28851" lon="-2.37256">
        <ele>16</ele>
        <time>2020-10-04T10:03:30.000Z</time>
      </trkpt>
      <trkpt lat="47.28847" lon="-2.37243">
        <ele>16</ele>
        <time>2020-10-04T10:03:32.000Z</time>
      </trkpt>
      <trkpt lat="47.2884" lon="-2.37214">
        <ele>16</ele>
        <time>2020-10-04T10:03:37.000Z</time>
      </trkpt>
      <trkpt lat="47.28839" lon="-2.37208">
        <ele>16</ele>
        <time>2020-10-04T10:03:38.000Z</time>
      </trkpt>
      <trkpt lat="47.28832" lon="-2.37173">
        <ele>16</ele>
        <time>2020-10-04T10:03:43.000Z</time>
      </trkpt>
      <trkpt lat="47.28827" lon="-2.37135">
        <ele>16.39999961853</ele>
        <time>2020-10-04T10:03:49.000Z</time>
      </trkpt>
      <trkpt lat="47.28827" lon="-2.3713">
        <ele>16.799999237061</ele>
        <time>2020-10-04T10:03:50.000Z</time>
      </trkpt>
      <trkpt lat="47.28827" lon="-2.37126">
        <ele>17.60000038147</ele>
        <time>2020-10-04T10:03:51.000Z</time>
      </trkpt>
      <trkpt lat="47.28827" lon="-2.37123">
        <ele>18</ele>
        <time>2020-10-04T10:03:52.000Z</time>
      </trkpt>
      <trkpt lat="47.28827" lon="-2.3712">
        <ele>18</ele>
        <time>2020-10-04T10:03:53.000Z</time>
      </trkpt>
      <trkpt lat="47.28827" lon="-2.37112">
        <ele>18</ele>
        <time>2020-10-04T10:03:57.000Z</time>
      </trkpt>
      <trkpt lat="47.28826" lon="-2.37114">
        <ele>18</ele>
        <time>2020-10-04T10:04:02.000Z</time>
      </trkpt>
      <trkpt lat="47.28822" lon="-2.37117">
        <ele>18.39999961853</ele>
        <time>2020-10-04T10:04:05.000Z</time>
      </trkpt>
      <trkpt lat="47.28821" lon="-2.37118">
        <ele>18.799999237061</ele>
        <time>2020-10-04T10:04:06.000Z</time>
      </trkpt>
      <trkpt lat="47.28819" lon="-2.37118">
        <ele>19.200000762939</ele>
        <time>2020-10-04T10:04:07.000Z</time>
      </trkpt>
      <trkpt lat="47.28817" lon="-2.37119">
        <ele>19.60000038147</ele>
        <time>2020-10-04T10:04:08.000Z</time>
      </trkpt>
      <trkpt lat="47.28815" lon="-2.37119">
        <ele>20</ele>
        <time>2020-10-04T10:04:09.000Z</time>
      </trkpt>
      <trkpt lat="47.2881" lon="-2.37119">
        <ele>20.60000038147</ele>
        <time>2020-10-04T10:04:12.000Z</time>
      </trkpt>
      <trkpt lat="47.28808" lon="-2.37118">
        <ele>21</ele>
        <time>2020-10-04T10:04:13.000Z</time>
      </trkpt>
      <trkpt lat="47.28807" lon="-2.37117">
        <ele>21.39999961853</ele>
        <time>2020-10-04T10:04:14.000Z</time>
      </trkpt>
      <trkpt lat="47.28806" lon="-2.37115">
        <ele>22</ele>
        <time>2020-10-04T10:04:15.000Z</time>
      </trkpt>
      <trkpt lat="47.28804" lon="-2.37112">
        <ele>22.39999961853</ele>
        <time>2020-10-04T10:04:16.000Z</time>
      </trkpt>
      <trkpt lat="47.288" lon="-2.37098">
        <ele>22.39999961853</ele>
        <time>2020-10-04T10:04:20.000Z</time>
      </trkpt>
      <trkpt lat="47.28799" lon="-2.37089">
        <ele>22.799999237061</ele>
        <time>2020-10-04T10:04:22.000Z</time>
      </trkpt>
      <trkpt lat="47.28797" lon="-2.37084">
        <ele>23.200000762939</ele>
        <time>2020-10-04T10:04:23.000Z</time>
      </trkpt>
      <trkpt lat="47.28796" lon="-2.37079">
        <ele>23.60000038147</ele>
        <time>2020-10-04T10:04:24.000Z</time>
      </trkpt>
      <trkpt lat="47.28795" lon="-2.37074">
        <ele>24</ele>
        <time>2020-10-04T10:04:25.000Z</time>
      </trkpt>
      <trkpt lat="47.28795" lon="-2.3707">
        <ele>24.39999961853</ele>
        <time>2020-10-04T10:04:26.000Z</time>
      </trkpt>
      <trkpt lat="47.28793" lon="-2.37064">
        <ele>25</ele>
        <time>2020-10-04T10:04:28.000Z</time>
      </trkpt>
      <trkpt lat="47.28792" lon="-2.37061">
        <ele>25.39999961853</ele>
        <time>2020-10-04T10:04:29.000Z</time>
      </trkpt>
      <trkpt lat="47.28791" lon="-2.37058">
        <ele>25.799999237061</ele>
        <time>2020-10-04T10:04:30.000Z</time>
      </trkpt>
      <trkpt lat="47.2879" lon="-2.37054">
        <ele>26.200000762939</ele>
        <time>2020-10-04T10:04:31.000Z</time>
      </trkpt>
      <trkpt lat="47.28789" lon="-2.37051">
        <ele>26.60000038147</ele>
        <time>2020-10-04T10:04:32.000Z</time>
      </trkpt>
      <trkpt lat="47.28783" lon="-2.37035">
        <ele>26.60000038147</ele>
        <time>2020-10-04T10:04:37.000Z</time>
      </trkpt>
      <trkpt lat="47.28783" lon="-2.37031">
        <ele>27</ele>
        <time>2020-10-04T10:04:38.000Z</time>
      </trkpt>
      <trkpt lat="47.28782" lon="-2.37027">
        <ele>27.39999961853</ele>
        <time>2020-10-04T10:04:39.000Z</time>
      </trkpt>
      <trkpt lat="47.2878" lon="-2.37022">
        <ele>27.799999237061</ele>
        <time>2020-10-04T10:04:40.000Z</time>
      </trkpt>
      <trkpt lat="47.28779" lon="-2.37018">
        <ele>28.799999237061</ele>
        <time>2020-10-04T10:04:41.000Z</time>
      </trkpt>
      <trkpt lat="47.28775" lon="-2.37011">
        <ele>28.799999237061</ele>
        <time>2020-10-04T10:04:44.000Z</time>
      </trkpt>
      <trkpt lat="47.2876" lon="-2.36992">
        <ele>28.799999237061</ele>
        <time>2020-10-04T10:04:50.000Z</time>
      </trkpt>
      <trkpt lat="47.28755" lon="-2.36968">
        <ele>28.799999237061</ele>
        <time>2020-10-04T10:04:55.000Z</time>
      </trkpt>
      <trkpt lat="47.28753" lon="-2.36954">
        <ele>28.200000762939</ele>
        <time>2020-10-04T10:04:58.000Z</time>
      </trkpt>
      <trkpt lat="47.28751" lon="-2.3695">
        <ele>27.799999237061</ele>
        <time>2020-10-04T10:04:59.000Z</time>
      </trkpt>
      <trkpt lat="47.2875" lon="-2.36945">
        <ele>27.39999961853</ele>
        <time>2020-10-04T10:05:00.000Z</time>
      </trkpt>
      <trkpt lat="47.28748" lon="-2.36941">
        <ele>27</ele>
        <time>2020-10-04T10:05:01.000Z</time>
      </trkpt>
      <trkpt lat="47.28745" lon="-2.36937">
        <ele>26.60000038147</ele>
        <time>2020-10-04T10:05:02.000Z</time>
      </trkpt>
      <trkpt lat="47.28741" lon="-2.36933">
        <ele>26.200000762939</ele>
        <time>2020-10-04T10:05:03.000Z</time>
      </trkpt>
      <trkpt lat="47.28737" lon="-2.3693">
        <ele>25.60000038147</ele>
        <time>2020-10-04T10:05:04.000Z</time>
      </trkpt>
      <trkpt lat="47.28734" lon="-2.36927">
        <ele>25.200000762939</ele>
        <time>2020-10-04T10:05:05.000Z</time>
      </trkpt>
      <trkpt lat="47.28731" lon="-2.36924">
        <ele>24.60000038147</ele>
        <time>2020-10-04T10:05:06.000Z</time>
      </trkpt>
      <trkpt lat="47.28722" lon="-2.36911">
        <ele>24.60000038147</ele>
        <time>2020-10-04T10:05:09.000Z</time>
      </trkpt>
      <trkpt lat="47.28713" lon="-2.36896">
        <ele>25.200000762939</ele>
        <time>2020-10-04T10:05:13.000Z</time>
      </trkpt>
      <trkpt lat="47.28711" lon="-2.36892">
        <ele>25.60000038147</ele>
        <time>2020-10-04T10:05:14.000Z</time>
      </trkpt>
      <trkpt lat="47.28709" lon="-2.36888">
        <ele>26</ele>
        <time>2020-10-04T10:05:15.000Z</time>
      </trkpt>
      <trkpt lat="47.28707" lon="-2.36883">
        <ele>26.39999961853</ele>
        <time>2020-10-04T10:05:16.000Z</time>
      </trkpt>
      <trkpt lat="47.28704" lon="-2.36879">
        <ele>26.799999237061</ele>
        <time>2020-10-04T10:05:17.000Z</time>
      </trkpt>
      <trkpt lat="47.28691" lon="-2.36857">
        <ele>26.799999237061</ele>
        <time>2020-10-04T10:05:22.000Z</time>
      </trkpt>
      <trkpt lat="47.2868" lon="-2.36833">
        <ele>27.200000762939</ele>
        <time>2020-10-04T10:05:27.000Z</time>
      </trkpt>
      <trkpt lat="47.28678" lon="-2.36829">
        <ele>27.60000038147</ele>
        <time>2020-10-04T10:05:28.000Z</time>
      </trkpt>
      <trkpt lat="47.28676" lon="-2.36824">
        <ele>28.200000762939</ele>
        <time>2020-10-04T10:05:29.000Z</time>
      </trkpt>
      <trkpt lat="47.28673" lon="-2.36821">
        <ele>29</ele>
        <time>2020-10-04T10:05:30.000Z</time>
      </trkpt>
      <trkpt lat="47.2866" lon="-2.368">
        <ele>29</ele>
        <time>2020-10-04T10:05:37.000Z</time>
      </trkpt>
      <trkpt lat="47.28649" lon="-2.36805">
        <ele>29</ele>
        <time>2020-10-04T10:05:40.000Z</time>
      </trkpt>
      <trkpt lat="47.28644" lon="-2.36807">
        <ele>29</ele>
        <time>2020-10-04T10:05:41.000Z</time>
      </trkpt>
      <trkpt lat="47.28633" lon="-2.36819">
        <ele>29</ele>
        <time>2020-10-04T10:05:44.000Z</time>
      </trkpt>
      <trkpt lat="47.28626" lon="-2.36829">
        <ele>29</ele>
        <time>2020-10-04T10:05:46.000Z</time>
      </trkpt>
      <trkpt lat="47.28611" lon="-2.36839">
        <ele>29</ele>
        <time>2020-10-04T10:05:49.000Z</time>
      </trkpt>
      <trkpt lat="47.28606" lon="-2.36841">
        <ele>29</ele>
        <time>2020-10-04T10:05:50.000Z</time>
      </trkpt>
      <trkpt lat="47.28592" lon="-2.36835">
        <ele>29</ele>
        <time>2020-10-04T10:05:53.000Z</time>
      </trkpt>
      <trkpt lat="47.28578" lon="-2.36815">
        <ele>29</ele>
        <time>2020-10-04T10:05:57.000Z</time>
      </trkpt>
      <trkpt lat="47.28554" lon="-2.3677">
        <ele>29</ele>
        <time>2020-10-04T10:06:05.000Z</time>
      </trkpt>
      <trkpt lat="47.28529" lon="-2.36725">
        <ele>29</ele>
        <time>2020-10-04T10:06:14.000Z</time>
      </trkpt>
      <trkpt lat="47.28519" lon="-2.36702">
        <ele>29.799999237061</ele>
        <time>2020-10-04T10:06:19.000Z</time>
      </trkpt>
      <trkpt lat="47.28517" lon="-2.36699">
        <ele>30.200000762939</ele>
        <time>2020-10-04T10:06:20.000Z</time>
      </trkpt>
      <trkpt lat="47.28515" lon="-2.36696">
        <ele>30.799999237061</ele>
        <time>2020-10-04T10:06:21.000Z</time>
      </trkpt>
      <trkpt lat="47.28513" lon="-2.36693">
        <ele>31.200000762939</ele>
        <time>2020-10-04T10:06:22.000Z</time>
      </trkpt>
      <trkpt lat="47.2851" lon="-2.36688">
        <ele>31.60000038147</ele>
        <time>2020-10-04T10:06:24.000Z</time>
      </trkpt>
      <trkpt lat="47.28508" lon="-2.36684">
        <ele>32</ele>
        <time>2020-10-04T10:06:25.000Z</time>
      </trkpt>
      <trkpt lat="47.28506" lon="-2.36682">
        <ele>32.400001525879</ele>
        <time>2020-10-04T10:06:26.000Z</time>
      </trkpt>
      <trkpt lat="47.28503" lon="-2.36679">
        <ele>32.799999237061</ele>
        <time>2020-10-04T10:06:27.000Z</time>
      </trkpt>
      <trkpt lat="47.28501" lon="-2.36676">
        <ele>33.200000762939</ele>
        <time>2020-10-04T10:06:28.000Z</time>
      </trkpt>
      <trkpt lat="47.2849" lon="-2.36655">
        <ele>33.200000762939</ele>
        <time>2020-10-04T10:06:33.000Z</time>
      </trkpt>
      <trkpt lat="47.28479" lon="-2.36616">
        <ele>33.200000762939</ele>
        <time>2020-10-04T10:06:41.000Z</time>
      </trkpt>
      <trkpt lat="47.28468" lon="-2.3657">
        <ele>33.200000762939</ele>
        <time>2020-10-04T10:06:50.000Z</time>
      </trkpt>
      <trkpt lat="47.28469" lon="-2.36565">
        <ele>33.200000762939</ele>
        <time>2020-10-04T10:06:51.000Z</time>
      </trkpt>
      <trkpt lat="47.28475" lon="-2.36556">
        <ele>33.200000762939</ele>
        <time>2020-10-04T10:06:53.000Z</time>
      </trkpt>
      <trkpt lat="47.28496" lon="-2.36532">
        <ele>33.599998474121</ele>
        <time>2020-10-04T10:07:00.000Z</time>
      </trkpt>
      <trkpt lat="47.28499" lon="-2.36529">
        <ele>34</ele>
        <time>2020-10-04T10:07:01.000Z</time>
      </trkpt>
      <trkpt lat="47.28502" lon="-2.36526">
        <ele>34.400001525879</ele>
        <time>2020-10-04T10:07:02.000Z</time>
      </trkpt>
      <trkpt lat="47.28505" lon="-2.36522">
        <ele>34.799999237061</ele>
        <time>2020-10-04T10:07:03.000Z</time>
      </trkpt>
      <trkpt lat="47.28508" lon="-2.36518">
        <ele>35.200000762939</ele>
        <time>2020-10-04T10:07:04.000Z</time>
      </trkpt>
      <trkpt lat="47.28514" lon="-2.3651">
        <ele>35.200000762939</ele>
        <time>2020-10-04T10:07:06.000Z</time>
      </trkpt>
      <trkpt lat="47.28517" lon="-2.36507">
        <ele>35.200000762939</ele>
        <time>2020-10-04T10:07:07.000Z</time>
      </trkpt>
      <trkpt lat="47.2852" lon="-2.36498">
        <ele>36</ele>
        <time>2020-10-04T10:07:09.000Z</time>
      </trkpt>
      <trkpt lat="47.28519" lon="-2.36492">
        <ele>36.400001525879</ele>
        <time>2020-10-04T10:07:10.000Z</time>
      </trkpt>
      <trkpt lat="47.28518" lon="-2.36486">
        <ele>37</ele>
        <time>2020-10-04T10:07:11.000Z</time>
      </trkpt>
      <trkpt lat="47.28517" lon="-2.36481">
        <ele>37.400001525879</ele>
        <time>2020-10-04T10:07:12.000Z</time>
      </trkpt>
      <trkpt lat="47.28513" lon="-2.3646">
        <ele>37.400001525879</ele>
        <time>2020-10-04T10:07:16.000Z</time>
      </trkpt>
      <trkpt lat="47.2851" lon="-2.36455">
        <ele>37.400001525879</ele>
        <time>2020-10-04T10:07:17.000Z</time>
      </trkpt>
      <trkpt lat="47.28499" lon="-2.36444">
        <ele>37.400001525879</ele>
        <time>2020-10-04T10:07:20.000Z</time>
      </trkpt>
      <trkpt lat="47.28481" lon="-2.36428">
        <ele>37.400001525879</ele>
        <time>2020-10-04T10:07:25.000Z</time>
      </trkpt>
      <trkpt lat="47.28478" lon="-2.36425">
        <ele>37.799999237061</ele>
        <time>2020-10-04T10:07:26.000Z</time>
      </trkpt>
      <trkpt lat="47.28475" lon="-2.36422">
        <ele>38.200000762939</ele>
        <time>2020-10-04T10:07:27.000Z</time>
      </trkpt>
      <trkpt lat="47.28472" lon="-2.36419">
        <ele>38.799999237061</ele>
        <time>2020-10-04T10:07:28.000Z</time>
      </trkpt>
      <trkpt lat="47.2847" lon="-2.36415">
        <ele>39.200000762939</ele>
        <time>2020-10-04T10:07:29.000Z</time>
      </trkpt>
      <trkpt lat="47.28468" lon="-2.36412">
        <ele>39.599998474121</ele>
        <time>2020-10-04T10:07:30.000Z</time>
      </trkpt>
      <trkpt lat="47.28466" lon="-2.36409">
        <ele>39.599998474121</ele>
        <time>2020-10-04T10:07:31.000Z</time>
      </trkpt>
      <trkpt lat="47.28447" lon="-2.36387">
        <ele>39.599998474121</ele>
        <time>2020-10-04T10:07:37.000Z</time>
      </trkpt>
      <trkpt lat="47.28429" lon="-2.36373">
        <ele>39.599998474121</ele>
        <time>2020-10-04T10:07:42.000Z</time>
      </trkpt>
      <trkpt lat="47.2842" lon="-2.36355">
        <ele>39.200000762939</ele>
        <time>2020-10-04T10:07:47.000Z</time>
      </trkpt>
      <trkpt lat="47.28417" lon="-2.36353">
        <ele>38.799999237061</ele>
        <time>2020-10-04T10:07:48.000Z</time>
      </trkpt>
      <trkpt lat="47.28415" lon="-2.3635">
        <ele>38.400001525879</ele>
        <time>2020-10-04T10:07:49.000Z</time>
      </trkpt>
      <trkpt lat="47.28412" lon="-2.36348">
        <ele>38</ele>
        <time>2020-10-04T10:07:50.000Z</time>
      </trkpt>
      <trkpt lat="47.28409" lon="-2.36344">
        <ele>37.599998474121</ele>
        <time>2020-10-04T10:07:51.000Z</time>
      </trkpt>
      <trkpt lat="47.28402" lon="-2.36336">
        <ele>37.599998474121</ele>
        <time>2020-10-04T10:07:53.000Z</time>
      </trkpt>
      <trkpt lat="47.28387" lon="-2.36324">
        <ele>37.599998474121</ele>
        <time>2020-10-04T10:07:57.000Z</time>
      </trkpt>
      <trkpt lat="47.28385" lon="-2.36321">
        <ele>37.200000762939</ele>
        <time>2020-10-04T10:07:58.000Z</time>
      </trkpt>
      <trkpt lat="47.28383" lon="-2.3632">
        <ele>36.599998474121</ele>
        <time>2020-10-04T10:07:59.000Z</time>
      </trkpt>
      <trkpt lat="47.28381" lon="-2.36318">
        <ele>36.200000762939</ele>
        <time>2020-10-04T10:08:00.000Z</time>
      </trkpt>
      <trkpt lat="47.2838" lon="-2.36316">
        <ele>35.799999237061</ele>
        <time>2020-10-04T10:08:01.000Z</time>
      </trkpt>
      <trkpt lat="47.28379" lon="-2.36313">
        <ele>35.200000762939</ele>
        <time>2020-10-04T10:08:02.000Z</time>
      </trkpt>
      <trkpt lat="47.28373" lon="-2.36296">
        <ele>35.200000762939</ele>
        <time>2020-10-04T10:08:07.000Z</time>
      </trkpt>
      <trkpt lat="47.28373" lon="-2.36292">
        <ele>35.200000762939</ele>
        <time>2020-10-04T10:08:08.000Z</time>
      </trkpt>
      <trkpt lat="47.28373" lon="-2.36269">
        <ele>35.200000762939</ele>
        <time>2020-10-04T10:08:12.000Z</time>
      </trkpt>
      <trkpt lat="47.28377" lon="-2.36252">
        <ele>35.200000762939</ele>
        <time>2020-10-04T10:08:16.000Z</time>
      </trkpt>
      <trkpt lat="47.2839" lon="-2.36233">
        <ele>35.599998474121</ele>
        <time>2020-10-04T10:08:21.000Z</time>
      </trkpt>
      <trkpt lat="47.28393" lon="-2.3623">
        <ele>36.200000762939</ele>
        <time>2020-10-04T10:08:22.000Z</time>
      </trkpt>
      <trkpt lat="47.28396" lon="-2.36226">
        <ele>36.599998474121</ele>
        <time>2020-10-04T10:08:23.000Z</time>
      </trkpt>
      <trkpt lat="47.28399" lon="-2.36223">
        <ele>37.400001525879</ele>
        <time>2020-10-04T10:08:24.000Z</time>
      </trkpt>
      <trkpt lat="47.28408" lon="-2.36214">
        <ele>37.400001525879</ele>
        <time>2020-10-04T10:08:29.000Z</time>
      </trkpt>
      <trkpt lat="47.28415" lon="-2.36212">
        <ele>38.200000762939</ele>
        <time>2020-10-04T10:08:47.000Z</time>
      </trkpt>
      <trkpt lat="47.28417" lon="-2.36211">
        <ele>39</ele>
        <time>2020-10-04T10:08:48.000Z</time>
      </trkpt>
      <trkpt lat="47.2842" lon="-2.3621">
        <ele>39.599998474121</ele>
        <time>2020-10-04T10:08:49.000Z</time>
      </trkpt>
      <trkpt lat="47.28425" lon="-2.36208">
        <ele>39.599998474121</ele>
        <time>2020-10-04T10:08:51.000Z</time>
      </trkpt>
      <trkpt lat="47.28436" lon="-2.36203">
        <ele>39.599998474121</ele>
        <time>2020-10-04T10:08:58.000Z</time>
      </trkpt>
      <trkpt lat="47.28453" lon="-2.36195">
        <ele>42.200000762939</ele>
        <time>2020-10-04T10:09:38.000Z</time>
      </trkpt>
      <trkpt lat="47.28461" lon="-2.3619">
        <ele>42.200000762939</ele>
        <time>2020-10-04T10:09:41.000Z</time>
      </trkpt>
      <trkpt lat="47.28475" lon="-2.36174">
        <ele>42.200000762939</ele>
        <time>2020-10-04T10:09:47.000Z</time>
      </trkpt>
      <trkpt lat="47.28486" lon="-2.36158">
        <ele>42.200000762939</ele>
        <time>2020-10-04T10:09:53.000Z</time>
      </trkpt>
      <trkpt lat="47.28494" lon="-2.36152">
        <ele>42.599998474121</ele>
        <time>2020-10-04T10:09:56.000Z</time>
      </trkpt>
      <trkpt lat="47.28496" lon="-2.36151">
        <ele>43.200000762939</ele>
        <time>2020-10-04T10:09:57.000Z</time>
      </trkpt>
      <trkpt lat="47.28499" lon="-2.36149">
        <ele>43.599998474121</ele>
        <time>2020-10-04T10:09:58.000Z</time>
      </trkpt>
      <trkpt lat="47.28502" lon="-2.36149">
        <ele>44</ele>
        <time>2020-10-04T10:09:59.000Z</time>
      </trkpt>
      <trkpt lat="47.28505" lon="-2.36148">
        <ele>44.400001525879</ele>
        <time>2020-10-04T10:10:00.000Z</time>
      </trkpt>
      <trkpt lat="47.28514" lon="-2.36152">
        <ele>44.400001525879</ele>
        <time>2020-10-04T10:10:04.000Z</time>
      </trkpt>
      <trkpt lat="47.28521" lon="-2.36156">
        <ele>44.799999237061</ele>
        <time>2020-10-04T10:10:07.000Z</time>
      </trkpt>
      <trkpt lat="47.28523" lon="-2.36156">
        <ele>45.200000762939</ele>
        <time>2020-10-04T10:10:08.000Z</time>
      </trkpt>
      <trkpt lat="47.28525" lon="-2.36156">
        <ele>45.599998474121</ele>
        <time>2020-10-04T10:10:09.000Z</time>
      </trkpt>
      <trkpt lat="47.28527" lon="-2.36157">
        <ele>46</ele>
        <time>2020-10-04T10:10:10.000Z</time>
      </trkpt>
      <trkpt lat="47.28529" lon="-2.36157">
        <ele>46.400001525879</ele>
        <time>2020-10-04T10:10:11.000Z</time>
      </trkpt>
      <trkpt lat="47.28536" lon="-2.3616">
        <ele>47</ele>
        <time>2020-10-04T10:10:15.000Z</time>
      </trkpt>
      <trkpt lat="47.28538" lon="-2.3616">
        <ele>47.400001525879</ele>
        <time>2020-10-04T10:10:16.000Z</time>
      </trkpt>
      <trkpt lat="47.28539" lon="-2.3616">
        <ele>47.799999237061</ele>
        <time>2020-10-04T10:10:17.000Z</time>
      </trkpt>
      <trkpt lat="47.2854" lon="-2.36159">
        <ele>48.200000762939</ele>
        <time>2020-10-04T10:10:18.000Z</time>
      </trkpt>
      <trkpt lat="47.28542" lon="-2.36157">
        <ele>48.799999237061</ele>
        <time>2020-10-04T10:10:19.000Z</time>
      </trkpt>
      <trkpt lat="47.28543" lon="-2.36156">
        <ele>48.799999237061</ele>
        <time>2020-10-04T10:10:20.000Z</time>
      </trkpt>
      <trkpt lat="47.28544" lon="-2.36155">
        <ele>49.200000762939</ele>
        <time>2020-10-04T10:10:21.000Z</time>
      </trkpt>
      <trkpt lat="47.28545" lon="-2.36155">
        <ele>49.599998474121</ele>
        <time>2020-10-04T10:10:22.000Z</time>
      </trkpt>
      <trkpt lat="47.28546" lon="-2.36154">
        <ele>50</ele>
        <time>2020-10-04T10:10:23.000Z</time>
      </trkpt>
      <trkpt lat="47.28548" lon="-2.36153">
        <ele>50.400001525879</ele>
        <time>2020-10-04T10:10:24.000Z</time>
      </trkpt>
      <trkpt lat="47.28549" lon="-2.36152">
        <ele>50.799999237061</ele>
        <time>2020-10-04T10:10:25.000Z</time>
      </trkpt>
      <trkpt lat="47.28555" lon="-2.3615">
        <ele>51.599998474121</ele>
        <time>2020-10-04T10:10:28.000Z</time>
      </trkpt>
      <trkpt lat="47.28556" lon="-2.3615">
        <ele>52</ele>
        <time>2020-10-04T10:10:29.000Z</time>
      </trkpt>
      <trkpt lat="47.28559" lon="-2.36149">
        <ele>52.599998474121</ele>
        <time>2020-10-04T10:10:30.000Z</time>
      </trkpt>
      <trkpt lat="47.28562" lon="-2.36148">
        <ele>53</ele>
        <time>2020-10-04T10:10:31.000Z</time>
      </trkpt>
      <trkpt lat="47.28568" lon="-2.36147">
        <ele>53.400001525879</ele>
        <time>2020-10-04T10:10:34.000Z</time>
      </trkpt>
      <trkpt lat="47.28569" lon="-2.36146">
        <ele>53.799999237061</ele>
        <time>2020-10-04T10:10:35.000Z</time>
      </trkpt>
      <trkpt lat="47.28575" lon="-2.36149">
        <ele>55</ele>
        <time>2020-10-04T10:10:44.000Z</time>
      </trkpt>
      <trkpt lat="47.28593" lon="-2.36155">
        <ele>55</ele>
        <time>2020-10-04T10:10:51.000Z</time>
      </trkpt>
      <trkpt lat="47.28605" lon="-2.36143">
        <ele>55</ele>
        <time>2020-10-04T10:10:56.000Z</time>
      </trkpt>
      <trkpt lat="47.2862" lon="-2.36137">
        <ele>55</ele>
        <time>2020-10-04T10:11:02.000Z</time>
      </trkpt>
      <trkpt lat="47.28627" lon="-2.36152">
        <ele>55</ele>
        <time>2020-10-04T10:11:06.000Z</time>
      </trkpt>
      <trkpt lat="47.28634" lon="-2.3616">
        <ele>55</ele>
        <time>2020-10-04T10:11:09.000Z</time>
      </trkpt>
      <trkpt lat="47.28639" lon="-2.36165">
        <ele>55</ele>
        <time>2020-10-04T10:11:11.000Z</time>
      </trkpt>
      <trkpt lat="47.28644" lon="-2.36173">
        <ele>54.599998474121</ele>
        <time>2020-10-04T10:11:14.000Z</time>
      </trkpt>
      <trkpt lat="47.28646" lon="-2.36176">
        <ele>54.200000762939</ele>
        <time>2020-10-04T10:11:15.000Z</time>
      </trkpt>
      <trkpt lat="47.28647" lon="-2.36178">
        <ele>53.799999237061</ele>
        <time>2020-10-04T10:11:16.000Z</time>
      </trkpt>
      <trkpt lat="47.28649" lon="-2.36181">
        <ele>52.799999237061</ele>
        <time>2020-10-04T10:11:17.000Z</time>
      </trkpt>
      <trkpt lat="47.28653" lon="-2.36185">
        <ele>52.799999237061</ele>
        <time>2020-10-04T10:11:20.000Z</time>
      </trkpt>
      <trkpt lat="47.28664" lon="-2.36197">
        <ele>52.799999237061</ele>
        <time>2020-10-04T10:11:28.000Z</time>
      </trkpt>
      <trkpt lat="47.28668" lon="-2.36203">
        <ele>52.799999237061</ele>
        <time>2020-10-04T10:11:29.000Z</time>
      </trkpt>
      <trkpt lat="47.28675" lon="-2.36212">
        <ele>52.400001525879</ele>
        <time>2020-10-04T10:11:32.000Z</time>
      </trkpt>
      <trkpt lat="47.28676" lon="-2.36214">
        <ele>52</ele>
        <time>2020-10-04T10:11:33.000Z</time>
      </trkpt>
      <trkpt lat="47.28677" lon="-2.36215">
        <ele>51.400001525879</ele>
        <time>2020-10-04T10:11:34.000Z</time>
      </trkpt>
      <trkpt lat="47.28679" lon="-2.36215">
        <ele>51</ele>
        <time>2020-10-04T10:11:35.000Z</time>
      </trkpt>
      <trkpt lat="47.28681" lon="-2.36216">
        <ele>50.400001525879</ele>
        <time>2020-10-04T10:11:36.000Z</time>
      </trkpt>
      <trkpt lat="47.28685" lon="-2.36218">
        <ele>50</ele>
        <time>2020-10-04T10:11:38.000Z</time>
      </trkpt>
      <trkpt lat="47.28687" lon="-2.36221">
        <ele>49.599998474121</ele>
        <time>2020-10-04T10:11:39.000Z</time>
      </trkpt>
      <trkpt lat="47.2869" lon="-2.36222">
        <ele>49.200000762939</ele>
        <time>2020-10-04T10:11:40.000Z</time>
      </trkpt>
      <trkpt lat="47.28692" lon="-2.36223">
        <ele>48.400001525879</ele>
        <time>2020-10-04T10:11:41.000Z</time>
      </trkpt>
      <trkpt lat="47.28703" lon="-2.3622">
        <ele>47.799999237061</ele>
        <time>2020-10-04T10:11:45.000Z</time>
      </trkpt>
      <trkpt lat="47.28706" lon="-2.36219">
        <ele>47.400001525879</ele>
        <time>2020-10-04T10:11:46.000Z</time>
      </trkpt>
      <trkpt lat="47.28708" lon="-2.36218">
        <ele>47</ele>
        <time>2020-10-04T10:11:47.000Z</time>
      </trkpt>
      <trkpt lat="47.28711" lon="-2.36217">
        <ele>46.599998474121</ele>
        <time>2020-10-04T10:11:48.000Z</time>
      </trkpt>
      <trkpt lat="47.28714" lon="-2.36215">
        <ele>46.200000762939</ele>
        <time>2020-10-04T10:11:49.000Z</time>
      </trkpt>
      <trkpt lat="47.28725" lon="-2.36208">
        <ele>46.200000762939</ele>
        <time>2020-10-04T10:11:52.000Z</time>
      </trkpt>
      <trkpt lat="47.28737" lon="-2.36199">
        <ele>46.200000762939</ele>
        <time>2020-10-04T10:11:56.000Z</time>
      </trkpt>
      <trkpt lat="47.2874" lon="-2.36194">
        <ele>46.200000762939</ele>
        <time>2020-10-04T10:11:57.000Z</time>
      </trkpt>
      <trkpt lat="47.2874" lon="-2.36189">
        <ele>46.200000762939</ele>
        <time>2020-10-04T10:11:58.000Z</time>
      </trkpt>
      <trkpt lat="47.2874" lon="-2.36183">
        <ele>46.200000762939</ele>
        <time>2020-10-04T10:11:59.000Z</time>
      </trkpt>
      <trkpt lat="47.28735" lon="-2.36137">
        <ele>46.200000762939</ele>
        <time>2020-10-04T10:12:05.000Z</time>
      </trkpt>
      <trkpt lat="47.28718" lon="-2.36081">
        <ele>46.200000762939</ele>
        <time>2020-10-04T10:12:13.000Z</time>
      </trkpt>
      <trkpt lat="47.287" lon="-2.36033">
        <ele>46.200000762939</ele>
        <time>2020-10-04T10:12:21.000Z</time>
      </trkpt>
      <trkpt lat="47.28677" lon="-2.35979">
        <ele>46.200000762939</ele>
        <time>2020-10-04T10:12:29.000Z</time>
      </trkpt>
      <trkpt lat="47.28669" lon="-2.35963">
        <ele>46.200000762939</ele>
        <time>2020-10-04T10:12:32.000Z</time>
      </trkpt>
      <trkpt lat="47.28665" lon="-2.35961">
        <ele>46.200000762939</ele>
        <time>2020-10-04T10:12:33.000Z</time>
      </trkpt>
      <trkpt lat="47.28647" lon="-2.35961">
        <ele>46.200000762939</ele>
        <time>2020-10-04T10:12:37.000Z</time>
      </trkpt>
      <trkpt lat="47.28642" lon="-2.35961">
        <ele>46.200000762939</ele>
        <time>2020-10-04T10:12:38.000Z</time>
      </trkpt>
      <trkpt lat="47.28626" lon="-2.35959">
        <ele>46.200000762939</ele>
        <time>2020-10-04T10:12:41.000Z</time>
      </trkpt>
      <trkpt lat="47.28616" lon="-2.35953">
        <ele>46.200000762939</ele>
        <time>2020-10-04T10:12:43.000Z</time>
      </trkpt>
      <trkpt lat="47.28596" lon="-2.35935">
        <ele>46.200000762939</ele>
        <time>2020-10-04T10:12:47.000Z</time>
      </trkpt>
      <trkpt lat="47.28588" lon="-2.35923">
        <ele>46.200000762939</ele>
        <time>2020-10-04T10:12:49.000Z</time>
      </trkpt>
      <trkpt lat="47.28584" lon="-2.35916">
        <ele>45.799999237061</ele>
        <time>2020-10-04T10:12:50.000Z</time>
      </trkpt>
      <trkpt lat="47.28581" lon="-2.35909">
        <ele>45.400001525879</ele>
        <time>2020-10-04T10:12:51.000Z</time>
      </trkpt>
      <trkpt lat="47.28578" lon="-2.35901">
        <ele>45</ele>
        <time>2020-10-04T10:12:52.000Z</time>
      </trkpt>
      <trkpt lat="47.28575" lon="-2.35893">
        <ele>44.599998474121</ele>
        <time>2020-10-04T10:12:53.000Z</time>
      </trkpt>
      <trkpt lat="47.28572" lon="-2.35885">
        <ele>44.200000762939</ele>
        <time>2020-10-04T10:12:54.000Z</time>
      </trkpt>
      <trkpt lat="47.28565" lon="-2.3587">
        <ele>44.200000762939</ele>
        <time>2020-10-04T10:12:56.000Z</time>
      </trkpt>
      <trkpt lat="47.28552" lon="-2.35849">
        <ele>44.200000762939</ele>
        <time>2020-10-04T10:12:59.000Z</time>
      </trkpt>
      <trkpt lat="47.28529" lon="-2.35833">
        <ele>44.200000762939</ele>
        <time>2020-10-04T10:13:03.000Z</time>
      </trkpt>
      <trkpt lat="47.28522" lon="-2.35829">
        <ele>43.799999237061</ele>
        <time>2020-10-04T10:13:04.000Z</time>
      </trkpt>
      <trkpt lat="47.28516" lon="-2.35827">
        <ele>43.400001525879</ele>
        <time>2020-10-04T10:13:05.000Z</time>
      </trkpt>
      <trkpt lat="47.28509" lon="-2.35824">
        <ele>43</ele>
        <time>2020-10-04T10:13:06.000Z</time>
      </trkpt>
      <trkpt lat="47.28503" lon="-2.35823">
        <ele>42.599998474121</ele>
        <time>2020-10-04T10:13:07.000Z</time>
      </trkpt>
      <trkpt lat="47.28496" lon="-2.35821">
        <ele>42.200000762939</ele>
        <time>2020-10-04T10:13:08.000Z</time>
      </trkpt>
      <trkpt lat="47.28459" lon="-2.35808">
        <ele>42.200000762939</ele>
        <time>2020-10-04T10:13:14.000Z</time>
      </trkpt>
      <trkpt lat="47.28442" lon="-2.358">
        <ele>42.200000762939</ele>
        <time>2020-10-04T10:13:17.000Z</time>
      </trkpt>
      <trkpt lat="47.2843" lon="-2.35795">
        <ele>42.200000762939</ele>
        <time>2020-10-04T10:13:19.000Z</time>
      </trkpt>
      <trkpt lat="47.28394" lon="-2.35783">
        <ele>42.200000762939</ele>
        <time>2020-10-04T10:13:25.000Z</time>
      </trkpt>
      <trkpt lat="47.28356" lon="-2.35768">
        <ele>42.200000762939</ele>
        <time>2020-10-04T10:13:31.000Z</time>
      </trkpt>
      <trkpt lat="47.28326" lon="-2.3575">
        <ele>41.799999237061</ele>
        <time>2020-10-04T10:13:36.000Z</time>
      </trkpt>
      <trkpt lat="47.28319" lon="-2.35746">
        <ele>41.400001525879</ele>
        <time>2020-10-04T10:13:37.000Z</time>
      </trkpt>
      <trkpt lat="47.28313" lon="-2.35743">
        <ele>41</ele>
        <time>2020-10-04T10:13:38.000Z</time>
      </trkpt>
      <trkpt lat="47.28307" lon="-2.35738">
        <ele>40.599998474121</ele>
        <time>2020-10-04T10:13:39.000Z</time>
      </trkpt>
      <trkpt lat="47.28301" lon="-2.35734">
        <ele>40.200000762939</ele>
        <time>2020-10-04T10:13:40.000Z</time>
      </trkpt>
      <trkpt lat="47.2829" lon="-2.35722">
        <ele>40.200000762939</ele>
        <time>2020-10-04T10:13:42.000Z</time>
      </trkpt>
      <trkpt lat="47.28251" lon="-2.35676">
        <ele>39.799999237061</ele>
        <time>2020-10-04T10:13:50.000Z</time>
      </trkpt>
      <trkpt lat="47.28246" lon="-2.35669">
        <ele>39.200000762939</ele>
        <time>2020-10-04T10:13:51.000Z</time>
      </trkpt>
      <trkpt lat="47.28241" lon="-2.35661">
        <ele>38.799999237061</ele>
        <time>2020-10-04T10:13:52.000Z</time>
      </trkpt>
      <trkpt lat="47.28235" lon="-2.35654">
        <ele>38.400001525879</ele>
        <time>2020-10-04T10:13:53.000Z</time>
      </trkpt>
      <trkpt lat="47.28229" lon="-2.35646">
        <ele>38</ele>
        <time>2020-10-04T10:13:54.000Z</time>
      </trkpt>
      <trkpt lat="47.28214" lon="-2.35622">
        <ele>38</ele>
        <time>2020-10-04T10:13:57.000Z</time>
      </trkpt>
      <trkpt lat="47.28187" lon="-2.35588">
        <ele>38</ele>
        <time>2020-10-04T10:14:02.000Z</time>
      </trkpt>
      <trkpt lat="47.28176" lon="-2.35578">
        <ele>38</ele>
        <time>2020-10-04T10:14:04.000Z</time>
      </trkpt>
      <trkpt lat="47.28159" lon="-2.35566">
        <ele>37.599998474121</ele>
        <time>2020-10-04T10:14:07.000Z</time>
      </trkpt>
      <trkpt lat="47.28153" lon="-2.35563">
        <ele>37.200000762939</ele>
        <time>2020-10-04T10:14:08.000Z</time>
      </trkpt>
      <trkpt lat="47.28146" lon="-2.3556">
        <ele>36.799999237061</ele>
        <time>2020-10-04T10:14:09.000Z</time>
      </trkpt>
      <trkpt lat="47.2814" lon="-2.35558">
        <ele>36.400001525879</ele>
        <time>2020-10-04T10:14:10.000Z</time>
      </trkpt>
      <trkpt lat="47.28133" lon="-2.35556">
        <ele>35.799999237061</ele>
        <time>2020-10-04T10:14:11.000Z</time>
      </trkpt>
      <trkpt lat="47.28104" lon="-2.35553">
        <ele>35.400001525879</ele>
        <time>2020-10-04T10:14:15.000Z</time>
      </trkpt>
      <trkpt lat="47.28096" lon="-2.35552">
        <ele>35</ele>
        <time>2020-10-04T10:14:16.000Z</time>
      </trkpt>
      <trkpt lat="47.28089" lon="-2.35552">
        <ele>34.599998474121</ele>
        <time>2020-10-04T10:14:17.000Z</time>
      </trkpt>
      <trkpt lat="47.28082" lon="-2.35552">
        <ele>34.200000762939</ele>
        <time>2020-10-04T10:14:18.000Z</time>
      </trkpt>
      <trkpt lat="47.28074" lon="-2.35552">
        <ele>33.799999237061</ele>
        <time>2020-10-04T10:14:19.000Z</time>
      </trkpt>
      <trkpt lat="47.28055" lon="-2.35553">
        <ele>33.799999237061</ele>
        <time>2020-10-04T10:14:22.000Z</time>
      </trkpt>
      <trkpt lat="47.2805" lon="-2.35555">
        <ele>33.200000762939</ele>
        <time>2020-10-04T10:14:23.000Z</time>
      </trkpt>
      <trkpt lat="47.28046" lon="-2.35557">
        <ele>32.799999237061</ele>
        <time>2020-10-04T10:14:24.000Z</time>
      </trkpt>
      <trkpt lat="47.28042" lon="-2.35558">
        <ele>32.400001525879</ele>
        <time>2020-10-04T10:14:25.000Z</time>
      </trkpt>
      <trkpt lat="47.28037" lon="-2.35559">
        <ele>32</ele>
        <time>2020-10-04T10:14:26.000Z</time>
      </trkpt>
      <trkpt lat="47.28032" lon="-2.3556">
        <ele>31.60000038147</ele>
        <time>2020-10-04T10:14:27.000Z</time>
      </trkpt>
      <trkpt lat="47.28018" lon="-2.3556">
        <ele>31.60000038147</ele>
        <time>2020-10-04T10:14:31.000Z</time>
      </trkpt>
      <trkpt lat="47.28016" lon="-2.35561">
        <ele>31.60000038147</ele>
        <time>2020-10-04T10:14:33.000Z</time>
      </trkpt>
      <trkpt lat="47.28015" lon="-2.35562">
        <ele>29.60000038147</ele>
        <time>2020-10-04T10:17:47.000Z</time>
      </trkpt>
      <trkpt lat="47.28013" lon="-2.35563">
        <ele>29.60000038147</ele>
        <time>2020-10-04T10:17:48.000Z</time>
      </trkpt>
      <trkpt lat="47.27996" lon="-2.35568">
        <ele>29.60000038147</ele>
        <time>2020-10-04T10:17:53.000Z</time>
      </trkpt>
      <trkpt lat="47.27974" lon="-2.35575">
        <ele>29.60000038147</ele>
        <time>2020-10-04T10:17:58.000Z</time>
      </trkpt>
      <trkpt lat="47.2796" lon="-2.35577">
        <ele>29.60000038147</ele>
        <time>2020-10-04T10:18:01.000Z</time>
      </trkpt>
      <trkpt lat="47.2795" lon="-2.35578">
        <ele>29.60000038147</ele>
        <time>2020-10-04T10:18:03.000Z</time>
      </trkpt>
      <trkpt lat="47.27929" lon="-2.35585">
        <ele>29.60000038147</ele>
        <time>2020-10-04T10:18:07.000Z</time>
      </trkpt>
      <trkpt lat="47.27917" lon="-2.35588">
        <ele>29.60000038147</ele>
        <time>2020-10-04T10:18:09.000Z</time>
      </trkpt>
      <trkpt lat="47.2788" lon="-2.35596">
        <ele>29.60000038147</ele>
        <time>2020-10-04T10:18:15.000Z</time>
      </trkpt>
      <trkpt lat="47.27846" lon="-2.35606">
        <ele>29.200000762939</ele>
        <time>2020-10-04T10:18:20.000Z</time>
      </trkpt>
      <trkpt lat="47.27839" lon="-2.35607">
        <ele>28.799999237061</ele>
        <time>2020-10-04T10:18:21.000Z</time>
      </trkpt>
      <trkpt lat="47.27833" lon="-2.35609">
        <ele>28.39999961853</ele>
        <time>2020-10-04T10:18:22.000Z</time>
      </trkpt>
      <trkpt lat="47.27826" lon="-2.35611">
        <ele>28</ele>
        <time>2020-10-04T10:18:23.000Z</time>
      </trkpt>
      <trkpt lat="47.27819" lon="-2.35612">
        <ele>27.39999961853</ele>
        <time>2020-10-04T10:18:24.000Z</time>
      </trkpt>
      <trkpt lat="47.27785" lon="-2.35626">
        <ele>27.39999961853</ele>
        <time>2020-10-04T10:18:29.000Z</time>
      </trkpt>
      <trkpt lat="47.27765" lon="-2.35642">
        <ele>27.39999961853</ele>
        <time>2020-10-04T10:18:32.000Z</time>
      </trkpt>
      <trkpt lat="47.27754" lon="-2.35654">
        <ele>27</ele>
        <time>2020-10-04T10:18:34.000Z</time>
      </trkpt>
      <trkpt lat="47.27749" lon="-2.35661">
        <ele>26.60000038147</ele>
        <time>2020-10-04T10:18:35.000Z</time>
      </trkpt>
      <trkpt lat="47.27745" lon="-2.35668">
        <ele>26.200000762939</ele>
        <time>2020-10-04T10:18:36.000Z</time>
      </trkpt>
      <trkpt lat="47.2774" lon="-2.35676">
        <ele>25.799999237061</ele>
        <time>2020-10-04T10:18:37.000Z</time>
      </trkpt>
      <trkpt lat="47.27736" lon="-2.35683">
        <ele>25.39999961853</ele>
        <time>2020-10-04T10:18:38.000Z</time>
      </trkpt>
      <trkpt lat="47.27727" lon="-2.35698">
        <ele>25.39999961853</ele>
        <time>2020-10-04T10:18:40.000Z</time>
      </trkpt>
      <trkpt lat="47.27701" lon="-2.35725">
        <ele>25</ele>
        <time>2020-10-04T10:18:45.000Z</time>
      </trkpt>
      <trkpt lat="47.27695" lon="-2.3573">
        <ele>24.60000038147</ele>
        <time>2020-10-04T10:18:46.000Z</time>
      </trkpt>
      <trkpt lat="47.2769" lon="-2.35734">
        <ele>24.200000762939</ele>
        <time>2020-10-04T10:18:47.000Z</time>
      </trkpt>
      <trkpt lat="47.27685" lon="-2.35739">
        <ele>23.799999237061</ele>
        <time>2020-10-04T10:18:48.000Z</time>
      </trkpt>
      <trkpt lat="47.27681" lon="-2.35743">
        <ele>23.200000762939</ele>
        <time>2020-10-04T10:18:49.000Z</time>
      </trkpt>
      <trkpt lat="47.27676" lon="-2.35745">
        <ele>23.200000762939</ele>
        <time>2020-10-04T10:18:50.000Z</time>
      </trkpt>
      <trkpt lat="47.27667" lon="-2.3574">
        <ele>22.799999237061</ele>
        <time>2020-10-04T10:18:52.000Z</time>
      </trkpt>
      <trkpt lat="47.27663" lon="-2.35735">
        <ele>22.39999961853</ele>
        <time>2020-10-04T10:18:53.000Z</time>
      </trkpt>
      <trkpt lat="47.27659" lon="-2.35729">
        <ele>22</ele>
        <time>2020-10-04T10:18:54.000Z</time>
      </trkpt>
      <trkpt lat="47.27654" lon="-2.35725">
        <ele>21.39999961853</ele>
        <time>2020-10-04T10:18:55.000Z</time>
      </trkpt>
      <trkpt lat="47.27649" lon="-2.35721">
        <ele>21</ele>
        <time>2020-10-04T10:18:56.000Z</time>
      </trkpt>
      <trkpt lat="47.27643" lon="-2.35718">
        <ele>21</ele>
        <time>2020-10-04T10:18:57.000Z</time>
      </trkpt>
      <trkpt lat="47.27608" lon="-2.35709">
        <ele>21</ele>
        <time>2020-10-04T10:19:02.000Z</time>
      </trkpt>
      <trkpt lat="47.27561" lon="-2.35696">
        <ele>21</ele>
        <time>2020-10-04T10:19:09.000Z</time>
      </trkpt>
      <trkpt lat="47.27554" lon="-2.35695">
        <ele>20.60000038147</ele>
        <time>2020-10-04T10:19:10.000Z</time>
      </trkpt>
      <trkpt lat="47.27547" lon="-2.35694">
        <ele>20.200000762939</ele>
        <time>2020-10-04T10:19:11.000Z</time>
      </trkpt>
      <trkpt lat="47.27541" lon="-2.35692">
        <ele>19.799999237061</ele>
        <time>2020-10-04T10:19:12.000Z</time>
      </trkpt>
      <trkpt lat="47.27534" lon="-2.35691">
        <ele>19.200000762939</ele>
        <time>2020-10-04T10:19:13.000Z</time>
      </trkpt>
      <trkpt lat="47.27528" lon="-2.35689">
        <ele>18.799999237061</ele>
        <time>2020-10-04T10:19:14.000Z</time>
      </trkpt>
      <trkpt lat="47.27515" lon="-2.35686">
        <ele>18.799999237061</ele>
        <time>2020-10-04T10:19:16.000Z</time>
      </trkpt>
      <trkpt lat="47.27475" lon="-2.35676">
        <ele>18.39999961853</ele>
        <time>2020-10-04T10:19:22.000Z</time>
      </trkpt>
      <trkpt lat="47.27469" lon="-2.35675">
        <ele>18</ele>
        <time>2020-10-04T10:19:23.000Z</time>
      </trkpt>
      <trkpt lat="47.27462" lon="-2.35674">
        <ele>17.60000038147</ele>
        <time>2020-10-04T10:19:24.000Z</time>
      </trkpt>
      <trkpt lat="47.27456" lon="-2.35673">
        <ele>17.200000762939</ele>
        <time>2020-10-04T10:19:25.000Z</time>
      </trkpt>
      <trkpt lat="47.2745" lon="-2.35671">
        <ele>16.799999237061</ele>
        <time>2020-10-04T10:19:26.000Z</time>
      </trkpt>
      <trkpt lat="47.27444" lon="-2.35669">
        <ele>16.799999237061</ele>
        <time>2020-10-04T10:19:27.000Z</time>
      </trkpt>
      <trkpt lat="47.27428" lon="-2.35665">
        <ele>16.799999237061</ele>
        <time>2020-10-04T10:19:30.000Z</time>
      </trkpt>
      <trkpt lat="47.27416" lon="-2.35663">
        <ele>16.799999237061</ele>
        <time>2020-10-04T10:19:32.000Z</time>
      </trkpt>
      <trkpt lat="47.27403" lon="-2.35667">
        <ele>16.799999237061</ele>
        <time>2020-10-04T10:19:34.000Z</time>
      </trkpt>
      <trkpt lat="47.27373" lon="-2.35685">
        <ele>16.799999237061</ele>
        <time>2020-10-04T10:19:39.000Z</time>
      </trkpt>
      <trkpt lat="47.27335" lon="-2.35716">
        <ele>16.799999237061</ele>
        <time>2020-10-04T10:19:46.000Z</time>
      </trkpt>
      <trkpt lat="47.27323" lon="-2.3573">
        <ele>16.799999237061</ele>
        <time>2020-10-04T10:19:49.000Z</time>
      </trkpt>
      <trkpt lat="47.27317" lon="-2.35738">
        <ele>16.799999237061</ele>
        <time>2020-10-04T10:19:51.000Z</time>
      </trkpt>
      <trkpt lat="47.27307" lon="-2.35733">
        <ele>16.799999237061</ele>
        <time>2020-10-04T10:19:54.000Z</time>
      </trkpt>
      <trkpt lat="47.27302" lon="-2.35723">
        <ele>16.799999237061</ele>
        <time>2020-10-04T10:19:56.000Z</time>
      </trkpt>
      <trkpt lat="47.27299" lon="-2.35712">
        <ele>16.799999237061</ele>
        <time>2020-10-04T10:19:58.000Z</time>
      </trkpt>
      <trkpt lat="47.27282" lon="-2.35678">
        <ele>16.799999237061</ele>
        <time>2020-10-04T10:20:04.000Z</time>
      </trkpt>
      <trkpt lat="47.27264" lon="-2.35637">
        <ele>16.799999237061</ele>
        <time>2020-10-04T10:20:12.000Z</time>
      </trkpt>
      <trkpt lat="47.27244" lon="-2.35592">
        <ele>16.799999237061</ele>
        <time>2020-10-04T10:20:22.000Z</time>
      </trkpt>
      <trkpt lat="47.27222" lon="-2.35545">
        <ele>16.799999237061</ele>
        <time>2020-10-04T10:20:31.000Z</time>
      </trkpt>
      <trkpt lat="47.272" lon="-2.35494">
        <ele>16.799999237061</ele>
        <time>2020-10-04T10:20:40.000Z</time>
      </trkpt>
      <trkpt lat="47.27178" lon="-2.35448">
        <ele>16.799999237061</ele>
        <time>2020-10-04T10:20:48.000Z</time>
      </trkpt>
      <trkpt lat="47.27156" lon="-2.35405">
        <ele>16.799999237061</ele>
        <time>2020-10-04T10:20:56.000Z</time>
      </trkpt>
      <trkpt lat="47.27129" lon="-2.35359">
        <ele>16.799999237061</ele>
        <time>2020-10-04T10:21:04.000Z</time>
      </trkpt>
      <trkpt lat="47.271" lon="-2.35313">
        <ele>16.799999237061</ele>
        <time>2020-10-04T10:21:12.000Z</time>
      </trkpt>
      <trkpt lat="47.27065" lon="-2.35259">
        <ele>16.799999237061</ele>
        <time>2020-10-04T10:21:21.000Z</time>
      </trkpt>
      <trkpt lat="47.2703" lon="-2.35203">
        <ele>16.799999237061</ele>
        <time>2020-10-04T10:21:30.000Z</time>
      </trkpt>
      <trkpt lat="47.26998" lon="-2.35156">
        <ele>16.799999237061</ele>
        <time>2020-10-04T10:21:38.000Z</time>
      </trkpt>
      <trkpt lat="47.26966" lon="-2.35106">
        <ele>16.799999237061</ele>
        <time>2020-10-04T10:21:46.000Z</time>
      </trkpt>
      <trkpt lat="47.26929" lon="-2.35051">
        <ele>16.799999237061</ele>
        <time>2020-10-04T10:21:55.000Z</time>
      </trkpt>
      <trkpt lat="47.26889" lon="-2.34991">
        <ele>16.799999237061</ele>
        <time>2020-10-04T10:22:05.000Z</time>
      </trkpt>
      <trkpt lat="47.26851" lon="-2.34933">
        <ele>16.799999237061</ele>
        <time>2020-10-04T10:22:14.000Z</time>
      </trkpt>
      <trkpt lat="47.26843" lon="-2.3492">
        <ele>16.799999237061</ele>
        <time>2020-10-04T10:22:16.000Z</time>
      </trkpt>
      <trkpt lat="47.26818" lon="-2.34881">
        <ele>16.799999237061</ele>
        <time>2020-10-04T10:22:22.000Z</time>
      </trkpt>
      <trkpt lat="47.2678" lon="-2.34825">
        <ele>16.799999237061</ele>
        <time>2020-10-04T10:22:31.000Z</time>
      </trkpt>
      <trkpt lat="47.26747" lon="-2.34784">
        <ele>16.799999237061</ele>
        <time>2020-10-04T10:22:38.000Z</time>
      </trkpt>
      <trkpt lat="47.2671" lon="-2.34739">
        <ele>16.799999237061</ele>
        <time>2020-10-04T10:22:46.000Z</time>
      </trkpt>
      <trkpt lat="47.26669" lon="-2.34689">
        <ele>16.799999237061</ele>
        <time>2020-10-04T10:22:55.000Z</time>
      </trkpt>
      <trkpt lat="47.26649" lon="-2.34665">
        <ele>16.39999961853</ele>
        <time>2020-10-04T10:22:59.000Z</time>
      </trkpt>
      <trkpt lat="47.26645" lon="-2.34659">
        <ele>16</ele>
        <time>2020-10-04T10:23:00.000Z</time>
      </trkpt>
      <trkpt lat="47.2664" lon="-2.34654">
        <ele>15.60000038147</ele>
        <time>2020-10-04T10:23:01.000Z</time>
      </trkpt>
      <trkpt lat="47.26636" lon="-2.34648">
        <ele>15.199999809265</ele>
        <time>2020-10-04T10:23:02.000Z</time>
      </trkpt>
      <trkpt lat="47.26631" lon="-2.34642">
        <ele>14.800000190735</ele>
        <time>2020-10-04T10:23:03.000Z</time>
      </trkpt>
      <trkpt lat="47.26622" lon="-2.34631">
        <ele>14.800000190735</ele>
        <time>2020-10-04T10:23:05.000Z</time>
      </trkpt>
      <trkpt lat="47.2658" lon="-2.34582">
        <ele>14.800000190735</ele>
        <time>2020-10-04T10:23:14.000Z</time>
      </trkpt>
      <trkpt lat="47.26535" lon="-2.34535">
        <ele>14.800000190735</ele>
        <time>2020-10-04T10:23:23.000Z</time>
      </trkpt>
      <trkpt lat="47.26496" lon="-2.34504">
        <ele>14.800000190735</ele>
        <time>2020-10-04T10:23:30.000Z</time>
      </trkpt>
      <trkpt lat="47.26445" lon="-2.34467">
        <ele>14.800000190735</ele>
        <time>2020-10-04T10:23:39.000Z</time>
      </trkpt>
      <trkpt lat="47.2644" lon="-2.34464">
        <ele>14.800000190735</ele>
        <time>2020-10-04T10:23:40.000Z</time>
      </trkpt>
      <trkpt lat="47.2639" lon="-2.34426">
        <ele>14.800000190735</ele>
        <time>2020-10-04T10:23:49.000Z</time>
      </trkpt>
      <trkpt lat="47.26343" lon="-2.34384">
        <ele>14.800000190735</ele>
        <time>2020-10-04T10:23:58.000Z</time>
      </trkpt>
      <trkpt lat="47.26331" lon="-2.34377">
        <ele>14.800000190735</ele>
        <time>2020-10-04T10:24:00.000Z</time>
      </trkpt>
      <trkpt lat="47.2632" lon="-2.34369">
        <ele>14.800000190735</ele>
        <time>2020-10-04T10:24:02.000Z</time>
      </trkpt>
      <trkpt lat="47.26302" lon="-2.34345">
        <ele>14.800000190735</ele>
        <time>2020-10-04T10:24:06.000Z</time>
      </trkpt>
      <trkpt lat="47.26297" lon="-2.3434">
        <ele>14.800000190735</ele>
        <time>2020-10-04T10:24:07.000Z</time>
      </trkpt>
      <trkpt lat="47.26262" lon="-2.34303">
        <ele>14.800000190735</ele>
        <time>2020-10-04T10:24:14.000Z</time>
      </trkpt>
      <trkpt lat="47.26226" lon="-2.34266">
        <ele>14.800000190735</ele>
        <time>2020-10-04T10:24:22.000Z</time>
      </trkpt>
      <trkpt lat="47.26186" lon="-2.34224">
        <ele>14.800000190735</ele>
        <time>2020-10-04T10:24:31.000Z</time>
      </trkpt>
      <trkpt lat="47.26152" lon="-2.34191">
        <ele>14.800000190735</ele>
        <time>2020-10-04T10:24:39.000Z</time>
      </trkpt>
      <trkpt lat="47.26142" lon="-2.34184">
        <ele>14.800000190735</ele>
        <time>2020-10-04T10:24:41.000Z</time>
      </trkpt>
      <trkpt lat="47.26132" lon="-2.34179">
        <ele>14.800000190735</ele>
        <time>2020-10-04T10:24:43.000Z</time>
      </trkpt>
      <trkpt lat="47.26112" lon="-2.34161">
        <ele>14.800000190735</ele>
        <time>2020-10-04T10:24:47.000Z</time>
      </trkpt>
      <trkpt lat="47.26101" lon="-2.34155">
        <ele>14.800000190735</ele>
        <time>2020-10-04T10:24:49.000Z</time>
      </trkpt>
      <trkpt lat="47.26078" lon="-2.34144">
        <ele>14.800000190735</ele>
        <time>2020-10-04T10:24:53.000Z</time>
      </trkpt>
      <trkpt lat="47.26032" lon="-2.3412">
        <ele>14.800000190735</ele>
        <time>2020-10-04T10:25:01.000Z</time>
      </trkpt>
      <trkpt lat="47.25992" lon="-2.34101">
        <ele>14.800000190735</ele>
        <time>2020-10-04T10:25:08.000Z</time>
      </trkpt>
      <trkpt lat="47.25957" lon="-2.34083">
        <ele>14.800000190735</ele>
        <time>2020-10-04T10:25:15.000Z</time>
      </trkpt>
      <trkpt lat="47.25929" lon="-2.34074">
        <ele>14.800000190735</ele>
        <time>2020-10-04T10:25:21.000Z</time>
      </trkpt>
      <trkpt lat="47.25924" lon="-2.34074">
        <ele>14.800000190735</ele>
        <time>2020-10-04T10:25:22.000Z</time>
      </trkpt>
      <trkpt lat="47.25905" lon="-2.34088">
        <ele>14.800000190735</ele>
        <time>2020-10-04T10:25:26.000Z</time>
      </trkpt>
      <trkpt lat="47.25898" lon="-2.34101">
        <ele>14.800000190735</ele>
        <time>2020-10-04T10:25:28.000Z</time>
      </trkpt>
      <trkpt lat="47.25889" lon="-2.34117">
        <ele>14.800000190735</ele>
        <time>2020-10-04T10:25:31.000Z</time>
      </trkpt>
      <trkpt lat="47.25887" lon="-2.34123">
        <ele>14.800000190735</ele>
        <time>2020-10-04T10:25:32.000Z</time>
      </trkpt>
      <trkpt lat="47.25881" lon="-2.34142">
        <ele>14.800000190735</ele>
        <time>2020-10-04T10:25:35.000Z</time>
      </trkpt>
      <trkpt lat="47.25871" lon="-2.34166">
        <ele>14.800000190735</ele>
        <time>2020-10-04T10:25:40.000Z</time>
      </trkpt>
      <trkpt lat="47.25868" lon="-2.34165">
        <ele>14.800000190735</ele>
        <time>2020-10-04T10:25:41.000Z</time>
      </trkpt>
      <trkpt lat="47.25861" lon="-2.34162">
        <ele>14.800000190735</ele>
        <time>2020-10-04T10:25:43.000Z</time>
      </trkpt>
      <trkpt lat="47.25846" lon="-2.34158">
        <ele>14.800000190735</ele>
        <time>2020-10-04T10:25:48.000Z</time>
      </trkpt>
      <trkpt lat="47.25835" lon="-2.34158">
        <ele>14.800000190735</ele>
        <time>2020-10-04T10:25:52.000Z</time>
      </trkpt>
      <trkpt lat="47.25835" lon="-2.34163">
        <ele>14.800000190735</ele>
        <time>2020-10-04T10:25:53.000Z</time>
      </trkpt>
      <trkpt lat="47.25828" lon="-2.34176">
        <ele>14.800000190735</ele>
        <time>2020-10-04T10:25:56.000Z</time>
      </trkpt>
      <trkpt lat="47.25824" lon="-2.34177">
        <ele>14.800000190735</ele>
        <time>2020-10-04T10:25:57.000Z</time>
      </trkpt>
      <trkpt lat="47.25804" lon="-2.34174">
        <ele>14.800000190735</ele>
        <time>2020-10-04T10:26:01.000Z</time>
      </trkpt>
      <trkpt lat="47.25789" lon="-2.34173">
        <ele>14.800000190735</ele>
        <time>2020-10-04T10:26:04.000Z</time>
      </trkpt>
      <trkpt lat="47.2577" lon="-2.34175">
        <ele>14.800000190735</ele>
        <time>2020-10-04T10:26:08.000Z</time>
      </trkpt>
      <trkpt lat="47.25755" lon="-2.34177">
        <ele>14.800000190735</ele>
        <time>2020-10-04T10:26:11.000Z</time>
      </trkpt>
      <trkpt lat="47.25746" lon="-2.3418">
        <ele>14.800000190735</ele>
        <time>2020-10-04T10:26:13.000Z</time>
      </trkpt>
      <trkpt lat="47.25722" lon="-2.34183">
        <ele>14.800000190735</ele>
        <time>2020-10-04T10:26:18.000Z</time>
      </trkpt>
      <trkpt lat="47.25691" lon="-2.34189">
        <ele>15.199999809265</ele>
        <time>2020-10-04T10:26:25.000Z</time>
      </trkpt>
      <trkpt lat="47.25686" lon="-2.34189">
        <ele>15.800000190735</ele>
        <time>2020-10-04T10:26:26.000Z</time>
      </trkpt>
      <trkpt lat="47.25682" lon="-2.34189">
        <ele>16.200000762939</ele>
        <time>2020-10-04T10:26:27.000Z</time>
      </trkpt>
      <trkpt lat="47.25678" lon="-2.34189">
        <ele>16.60000038147</ele>
        <time>2020-10-04T10:26:28.000Z</time>
      </trkpt>
      <trkpt lat="47.25674" lon="-2.34187">
        <ele>17</ele>
        <time>2020-10-04T10:26:29.000Z</time>
      </trkpt>
      <trkpt lat="47.25664" lon="-2.34175">
        <ele>17</ele>
        <time>2020-10-04T10:26:32.000Z</time>
      </trkpt>
      <trkpt lat="47.25658" lon="-2.34163">
        <ele>17</ele>
        <time>2020-10-04T10:26:34.000Z</time>
      </trkpt>
      <trkpt lat="47.25649" lon="-2.34145">
        <ele>17</ele>
        <time>2020-10-04T10:26:38.000Z</time>
      </trkpt>
      <trkpt lat="47.25644" lon="-2.34128">
        <ele>17</ele>
        <time>2020-10-04T10:26:41.000Z</time>
      </trkpt>
      <trkpt lat="47.2564" lon="-2.3411">
        <ele>17</ele>
        <time>2020-10-04T10:26:44.000Z</time>
      </trkpt>
      <trkpt lat="47.25639" lon="-2.34079">
        <ele>17</ele>
        <time>2020-10-04T10:26:49.000Z</time>
      </trkpt>
      <trkpt lat="47.2564" lon="-2.34072">
        <ele>17</ele>
        <time>2020-10-04T10:26:50.000Z</time>
      </trkpt>
      <trkpt lat="47.25647" lon="-2.34029">
        <ele>17</ele>
        <time>2020-10-04T10:26:56.000Z</time>
      </trkpt>
      <trkpt lat="47.25656" lon="-2.33976">
        <ele>17</ele>
        <time>2020-10-04T10:27:04.000Z</time>
      </trkpt>
      <trkpt lat="47.25659" lon="-2.33949">
        <ele>17</ele>
        <time>2020-10-04T10:27:08.000Z</time>
      </trkpt>
      <trkpt lat="47.25658" lon="-2.33941">
        <ele>17</ele>
        <time>2020-10-04T10:27:09.000Z</time>
      </trkpt>
      <trkpt lat="47.25652" lon="-2.33909">
        <ele>17</ele>
        <time>2020-10-04T10:27:13.000Z</time>
      </trkpt>
      <trkpt lat="47.25651" lon="-2.33901">
        <ele>17</ele>
        <time>2020-10-04T10:27:14.000Z</time>
      </trkpt>
      <trkpt lat="47.25639" lon="-2.33836">
        <ele>17</ele>
        <time>2020-10-04T10:27:22.000Z</time>
      </trkpt>
      <trkpt lat="47.25632" lon="-2.33792">
        <ele>17</ele>
        <time>2020-10-04T10:27:28.000Z</time>
      </trkpt>
      <trkpt lat="47.2563" lon="-2.33786">
        <ele>17</ele>
        <time>2020-10-04T10:27:29.000Z</time>
      </trkpt>
      <trkpt lat="47.25623" lon="-2.33771">
        <ele>17</ele>
        <time>2020-10-04T10:27:32.000Z</time>
      </trkpt>
      <trkpt lat="47.25607" lon="-2.33761">
        <ele>17</ele>
        <time>2020-10-04T10:27:36.000Z</time>
      </trkpt>
      <trkpt lat="47.25596" lon="-2.3376">
        <ele>17</ele>
        <time>2020-10-04T10:27:38.000Z</time>
      </trkpt>
      <trkpt lat="47.25579" lon="-2.3376">
        <ele>17</ele>
        <time>2020-10-04T10:27:41.000Z</time>
      </trkpt>
      <trkpt lat="47.25526" lon="-2.33759">
        <ele>17</ele>
        <time>2020-10-04T10:27:50.000Z</time>
      </trkpt>
      <trkpt lat="47.25488" lon="-2.33757">
        <ele>17</ele>
        <time>2020-10-04T10:27:56.000Z</time>
      </trkpt>
      <trkpt lat="47.25475" lon="-2.33753">
        <ele>17</ele>
        <time>2020-10-04T10:27:58.000Z</time>
      </trkpt>
      <trkpt lat="47.25459" lon="-2.33743">
        <ele>17</ele>
        <time>2020-10-04T10:28:01.000Z</time>
      </trkpt>
      <trkpt lat="47.25451" lon="-2.33723">
        <ele>17</ele>
        <time>2020-10-04T10:28:04.000Z</time>
      </trkpt>
      <trkpt lat="47.25449" lon="-2.33708">
        <ele>17</ele>
        <time>2020-10-04T10:28:06.000Z</time>
      </trkpt>
      <trkpt lat="47.25447" lon="-2.33685">
        <ele>17</ele>
        <time>2020-10-04T10:28:09.000Z</time>
      </trkpt>
      <trkpt lat="47.25442" lon="-2.33648">
        <ele>17</ele>
        <time>2020-10-04T10:28:14.000Z</time>
      </trkpt>
      <trkpt lat="47.2544" lon="-2.33634">
        <ele>17</ele>
        <time>2020-10-04T10:28:16.000Z</time>
      </trkpt>
      <trkpt lat="47.25438" lon="-2.33605">
        <ele>17</ele>
        <time>2020-10-04T10:28:20.000Z</time>
      </trkpt>
      <trkpt lat="47.25438" lon="-2.33587">
        <ele>17</ele>
        <time>2020-10-04T10:28:23.000Z</time>
      </trkpt>
      <trkpt lat="47.2544" lon="-2.33583">
        <ele>17</ele>
        <time>2020-10-04T10:28:24.000Z</time>
      </trkpt>
      <trkpt lat="47.25447" lon="-2.33582">
        <ele>17</ele>
        <time>2020-10-04T10:28:26.000Z</time>
      </trkpt>
      <trkpt lat="47.25456" lon="-2.33571">
        <ele>17</ele>
        <time>2020-10-04T10:28:29.000Z</time>
      </trkpt>
      <trkpt lat="47.25452" lon="-2.33554">
        <ele>17</ele>
        <time>2020-10-04T10:28:32.000Z</time>
      </trkpt>
      <trkpt lat="47.25451" lon="-2.33547">
        <ele>17</ele>
        <time>2020-10-04T10:28:33.000Z</time>
      </trkpt>
      <trkpt lat="47.25446" lon="-2.33528">
        <ele>17</ele>
        <time>2020-10-04T10:28:36.000Z</time>
      </trkpt>
      <trkpt lat="47.25444" lon="-2.33521">
        <ele>17</ele>
        <time>2020-10-04T10:28:37.000Z</time>
      </trkpt>
      <trkpt lat="47.25438" lon="-2.33485">
        <ele>17</ele>
        <time>2020-10-04T10:28:42.000Z</time>
      </trkpt>
      <trkpt lat="47.25435" lon="-2.33478">
        <ele>17</ele>
        <time>2020-10-04T10:28:43.000Z</time>
      </trkpt>
      <trkpt lat="47.25433" lon="-2.33472">
        <ele>17</ele>
        <time>2020-10-04T10:28:44.000Z</time>
      </trkpt>
      <trkpt lat="47.25429" lon="-2.33449">
        <ele>17</ele>
        <time>2020-10-04T10:28:47.000Z</time>
      </trkpt>
      <trkpt lat="47.25429" lon="-2.33424">
        <ele>17</ele>
        <time>2020-10-04T10:28:50.000Z</time>
      </trkpt>
      <trkpt lat="47.25428" lon="-2.33406">
        <ele>17</ele>
        <time>2020-10-04T10:28:52.000Z</time>
      </trkpt>
      <trkpt lat="47.25429" lon="-2.33343">
        <ele>17</ele>
        <time>2020-10-04T10:28:59.000Z</time>
      </trkpt>
      <trkpt lat="47.25438" lon="-2.33321">
        <ele>17</ele>
        <time>2020-10-04T10:29:02.000Z</time>
      </trkpt>
      <trkpt lat="47.25447" lon="-2.33288">
        <ele>17</ele>
        <time>2020-10-04T10:29:06.000Z</time>
      </trkpt>
      <trkpt lat="47.25445" lon="-2.33279">
        <ele>17</ele>
        <time>2020-10-04T10:29:07.000Z</time>
      </trkpt>
      <trkpt lat="47.25437" lon="-2.33256">
        <ele>17</ele>
        <time>2020-10-04T10:29:10.000Z</time>
      </trkpt>
      <trkpt lat="47.25434" lon="-2.33248">
        <ele>17</ele>
        <time>2020-10-04T10:29:11.000Z</time>
      </trkpt>
      <trkpt lat="47.25412" lon="-2.33195">
        <ele>17</ele>
        <time>2020-10-04T10:29:18.000Z</time>
      </trkpt>
      <trkpt lat="47.25393" lon="-2.33155">
        <ele>17</ele>
        <time>2020-10-04T10:29:24.000Z</time>
      </trkpt>
      <trkpt lat="47.25387" lon="-2.33146">
        <ele>17</ele>
        <time>2020-10-04T10:29:26.000Z</time>
      </trkpt>
      <trkpt lat="47.25382" lon="-2.33138">
        <ele>17</ele>
        <time>2020-10-04T10:29:28.000Z</time>
      </trkpt>
      <trkpt lat="47.25378" lon="-2.33125">
        <ele>17</ele>
        <time>2020-10-04T10:29:31.000Z</time>
      </trkpt>
      <trkpt lat="47.25375" lon="-2.33118">
        <ele>17</ele>
        <time>2020-10-04T10:29:33.000Z</time>
      </trkpt>
      <trkpt lat="47.25372" lon="-2.33111">
        <ele>17</ele>
        <time>2020-10-04T10:29:38.000Z</time>
      </trkpt>
      <trkpt lat="47.25368" lon="-2.33107">
        <ele>17</ele>
        <time>2020-10-04T10:42:06.000Z</time>
      </trkpt>
      <trkpt lat="47.25366" lon="-2.331">
        <ele>17</ele>
        <time>2020-10-04T10:42:09.000Z</time>
      </trkpt>
      <trkpt lat="47.25364" lon="-2.33096">
        <ele>17</ele>
        <time>2020-10-04T10:42:12.000Z</time>
      </trkpt>
      <trkpt lat="47.25362" lon="-2.3309">
        <ele>17</ele>
        <time>2020-10-04T10:42:20.000Z</time>
      </trkpt>
      <trkpt lat="47.25361" lon="-2.33088">
        <ele>17</ele>
        <time>2020-10-04T10:42:21.000Z</time>
      </trkpt>
      <trkpt lat="47.25354" lon="-2.3307">
        <ele>17</ele>
        <time>2020-10-04T10:42:27.000Z</time>
      </trkpt>
      <trkpt lat="47.25345" lon="-2.33042">
        <ele>17</ele>
        <time>2020-10-04T10:42:33.000Z</time>
      </trkpt>
      <trkpt lat="47.25335" lon="-2.33015">
        <ele>17</ele>
        <time>2020-10-04T10:42:38.000Z</time>
      </trkpt>
      <trkpt lat="47.2533" lon="-2.33004">
        <ele>17</ele>
        <time>2020-10-04T10:42:40.000Z</time>
      </trkpt>
      <trkpt lat="47.25309" lon="-2.3295">
        <ele>17</ele>
        <time>2020-10-04T10:42:49.000Z</time>
      </trkpt>
      <trkpt lat="47.25305" lon="-2.32938">
        <ele>17</ele>
        <time>2020-10-04T10:42:51.000Z</time>
      </trkpt>
      <trkpt lat="47.25308" lon="-2.32919">
        <ele>17</ele>
        <time>2020-10-04T10:42:54.000Z</time>
      </trkpt>
      <trkpt lat="47.25324" lon="-2.32903">
        <ele>17</ele>
        <time>2020-10-04T10:42:58.000Z</time>
      </trkpt>
      <trkpt lat="47.25328" lon="-2.32899">
        <ele>17</ele>
        <time>2020-10-04T10:42:59.000Z</time>
      </trkpt>
      <trkpt lat="47.25357" lon="-2.3287">
        <ele>17</ele>
        <time>2020-10-04T10:43:06.000Z</time>
      </trkpt>
      <trkpt lat="47.25394" lon="-2.32832">
        <ele>17.39999961853</ele>
        <time>2020-10-04T10:43:15.000Z</time>
      </trkpt>
      <trkpt lat="47.25398" lon="-2.32827">
        <ele>18</ele>
        <time>2020-10-04T10:43:16.000Z</time>
      </trkpt>
      <trkpt lat="47.25401" lon="-2.32822">
        <ele>18.39999961853</ele>
        <time>2020-10-04T10:43:17.000Z</time>
      </trkpt>
      <trkpt lat="47.25405" lon="-2.32817">
        <ele>18.799999237061</ele>
        <time>2020-10-04T10:43:18.000Z</time>
      </trkpt>
      <trkpt lat="47.25408" lon="-2.32812">
        <ele>19.200000762939</ele>
        <time>2020-10-04T10:43:19.000Z</time>
      </trkpt>
      <trkpt lat="47.25421" lon="-2.3279">
        <ele>19.200000762939</ele>
        <time>2020-10-04T10:43:23.000Z</time>
      </trkpt>
      <trkpt lat="47.25424" lon="-2.32784">
        <ele>19.200000762939</ele>
        <time>2020-10-04T10:43:24.000Z</time>
      </trkpt>
      <trkpt lat="47.25433" lon="-2.32767">
        <ele>19.200000762939</ele>
        <time>2020-10-04T10:43:27.000Z</time>
      </trkpt>
      <trkpt lat="47.25436" lon="-2.32761">
        <ele>19.200000762939</ele>
        <time>2020-10-04T10:43:28.000Z</time>
      </trkpt>
      <trkpt lat="47.25463" lon="-2.32725">
        <ele>19.200000762939</ele>
        <time>2020-10-04T10:43:35.000Z</time>
      </trkpt>
      <trkpt lat="47.25478" lon="-2.32704">
        <ele>19.60000038147</ele>
        <time>2020-10-04T10:43:39.000Z</time>
      </trkpt>
      <trkpt lat="47.25482" lon="-2.32699">
        <ele>20</ele>
        <time>2020-10-04T10:43:40.000Z</time>
      </trkpt>
      <trkpt lat="47.25485" lon="-2.32693">
        <ele>20.39999961853</ele>
        <time>2020-10-04T10:43:41.000Z</time>
      </trkpt>
      <trkpt lat="47.25487" lon="-2.32686">
        <ele>20.799999237061</ele>
        <time>2020-10-04T10:43:42.000Z</time>
      </trkpt>
      <trkpt lat="47.25488" lon="-2.32679">
        <ele>21.200000762939</ele>
        <time>2020-10-04T10:43:43.000Z</time>
      </trkpt>
      <trkpt lat="47.25488" lon="-2.32663">
        <ele>21.200000762939</ele>
        <time>2020-10-04T10:43:45.000Z</time>
      </trkpt>
      <trkpt lat="47.25484" lon="-2.32641">
        <ele>21.200000762939</ele>
        <time>2020-10-04T10:43:48.000Z</time>
      </trkpt>
      <trkpt lat="47.25481" lon="-2.32626">
        <ele>21.200000762939</ele>
        <time>2020-10-04T10:43:50.000Z</time>
      </trkpt>
      <trkpt lat="47.25479" lon="-2.32611">
        <ele>21.200000762939</ele>
        <time>2020-10-04T10:43:52.000Z</time>
      </trkpt>
      <trkpt lat="47.25475" lon="-2.3258">
        <ele>21.200000762939</ele>
        <time>2020-10-04T10:43:56.000Z</time>
      </trkpt>
      <trkpt lat="47.2548" lon="-2.3256">
        <ele>21.200000762939</ele>
        <time>2020-10-04T10:43:59.000Z</time>
      </trkpt>
      <trkpt lat="47.25497" lon="-2.32542">
        <ele>21.200000762939</ele>
        <time>2020-10-04T10:44:03.000Z</time>
      </trkpt>
      <trkpt lat="47.25542" lon="-2.32499">
        <ele>21.200000762939</ele>
        <time>2020-10-04T10:44:12.000Z</time>
      </trkpt>
      <trkpt lat="47.25554" lon="-2.3249">
        <ele>20.799999237061</ele>
        <time>2020-10-04T10:44:14.000Z</time>
      </trkpt>
      <trkpt lat="47.2556" lon="-2.32484">
        <ele>20.200000762939</ele>
        <time>2020-10-04T10:44:15.000Z</time>
      </trkpt>
      <trkpt lat="47.25565" lon="-2.32478">
        <ele>19.799999237061</ele>
        <time>2020-10-04T10:44:16.000Z</time>
      </trkpt>
      <trkpt lat="47.25572" lon="-2.32472">
        <ele>19.39999961853</ele>
        <time>2020-10-04T10:44:17.000Z</time>
      </trkpt>
      <trkpt lat="47.25578" lon="-2.32466">
        <ele>18.799999237061</ele>
        <time>2020-10-04T10:44:18.000Z</time>
      </trkpt>
      <trkpt lat="47.25614" lon="-2.32426">
        <ele>18.39999961853</ele>
        <time>2020-10-04T10:44:24.000Z</time>
      </trkpt>
      <trkpt lat="47.25621" lon="-2.3242">
        <ele>17.799999237061</ele>
        <time>2020-10-04T10:44:25.000Z</time>
      </trkpt>
      <trkpt lat="47.25628" lon="-2.32414">
        <ele>17.39999961853</ele>
        <time>2020-10-04T10:44:26.000Z</time>
      </trkpt>
      <trkpt lat="47.25634" lon="-2.32408">
        <ele>17</ele>
        <time>2020-10-04T10:44:27.000Z</time>
      </trkpt>
      <trkpt lat="47.25641" lon="-2.32404">
        <ele>16.39999961853</ele>
        <time>2020-10-04T10:44:28.000Z</time>
      </trkpt>
      <trkpt lat="47.25655" lon="-2.324">
        <ele>16.39999961853</ele>
        <time>2020-10-04T10:44:30.000Z</time>
      </trkpt>
      <trkpt lat="47.25671" lon="-2.32407">
        <ele>16.39999961853</ele>
        <time>2020-10-04T10:44:33.000Z</time>
      </trkpt>
      <trkpt lat="47.25691" lon="-2.32419">
        <ele>16.39999961853</ele>
        <time>2020-10-04T10:44:37.000Z</time>
      </trkpt>
      <trkpt lat="47.25697" lon="-2.32419">
        <ele>15.60000038147</ele>
        <time>2020-10-04T10:44:38.000Z</time>
      </trkpt>
      <trkpt lat="47.25703" lon="-2.32419">
        <ele>15.199999809265</ele>
        <time>2020-10-04T10:44:39.000Z</time>
      </trkpt>
      <trkpt lat="47.25709" lon="-2.3242">
        <ele>14.800000190735</ele>
        <time>2020-10-04T10:44:40.000Z</time>
      </trkpt>
      <trkpt lat="47.25715" lon="-2.3242">
        <ele>14.39999961853</ele>
        <time>2020-10-04T10:44:41.000Z</time>
      </trkpt>
      <trkpt lat="47.25726" lon="-2.32421">
        <ele>14.39999961853</ele>
        <time>2020-10-04T10:44:43.000Z</time>
      </trkpt>
      <trkpt lat="47.25757" lon="-2.3242">
        <ele>14.39999961853</ele>
        <time>2020-10-04T10:44:49.000Z</time>
      </trkpt>
      <trkpt lat="47.25761" lon="-2.32418">
        <ele>14.39999961853</ele>
        <time>2020-10-04T10:44:50.000Z</time>
      </trkpt>
      <trkpt lat="47.25776" lon="-2.32412">
        <ele>14.39999961853</ele>
        <time>2020-10-04T10:44:54.000Z</time>
      </trkpt>
      <trkpt lat="47.25779" lon="-2.32414">
        <ele>14.39999961853</ele>
        <time>2020-10-04T10:44:55.000Z</time>
      </trkpt>
      <trkpt lat="47.25785" lon="-2.32421">
        <ele>14.39999961853</ele>
        <time>2020-10-04T10:44:57.000Z</time>
      </trkpt>
      <trkpt lat="47.25801" lon="-2.32449">
        <ele>14.39999961853</ele>
        <time>2020-10-04T10:45:02.000Z</time>
      </trkpt>
      <trkpt lat="47.25805" lon="-2.32453">
        <ele>14.39999961853</ele>
        <time>2020-10-04T10:45:03.000Z</time>
      </trkpt>
      <trkpt lat="47.25818" lon="-2.32461">
        <ele>14.39999961853</ele>
        <time>2020-10-04T10:45:06.000Z</time>
      </trkpt>
      <trkpt lat="47.25838" lon="-2.32471">
        <ele>14.39999961853</ele>
        <time>2020-10-04T10:45:10.000Z</time>
      </trkpt>
      <trkpt lat="47.25848" lon="-2.32474">
        <ele>14.39999961853</ele>
        <time>2020-10-04T10:45:12.000Z</time>
      </trkpt>
      <trkpt lat="47.25854" lon="-2.32474">
        <ele>14.39999961853</ele>
        <time>2020-10-04T10:45:13.000Z</time>
      </trkpt>
      <trkpt lat="47.25874" lon="-2.32471">
        <ele>14.39999961853</ele>
        <time>2020-10-04T10:45:17.000Z</time>
      </trkpt>
      <trkpt lat="47.2589" lon="-2.32468">
        <ele>14.39999961853</ele>
        <time>2020-10-04T10:45:20.000Z</time>
      </trkpt>
      <trkpt lat="47.25899" lon="-2.3246">
        <ele>14.39999961853</ele>
        <time>2020-10-04T10:45:22.000Z</time>
      </trkpt>
      <trkpt lat="47.25908" lon="-2.3245">
        <ele>14.39999961853</ele>
        <time>2020-10-04T10:45:24.000Z</time>
      </trkpt>
      <trkpt lat="47.25917" lon="-2.3244">
        <ele>14.39999961853</ele>
        <time>2020-10-04T10:45:26.000Z</time>
      </trkpt>
      <trkpt lat="47.25925" lon="-2.32428">
        <ele>14.39999961853</ele>
        <time>2020-10-04T10:45:28.000Z</time>
      </trkpt>
      <trkpt lat="47.25954" lon="-2.3239">
        <ele>14.39999961853</ele>
        <time>2020-10-04T10:45:35.000Z</time>
      </trkpt>
      <trkpt lat="47.25986" lon="-2.32348">
        <ele>14.39999961853</ele>
        <time>2020-10-04T10:45:43.000Z</time>
      </trkpt>
      <trkpt lat="47.26021" lon="-2.32301">
        <ele>14.39999961853</ele>
        <time>2020-10-04T10:45:52.000Z</time>
      </trkpt>
      <trkpt lat="47.26054" lon="-2.32264">
        <ele>14.39999961853</ele>
        <time>2020-10-04T10:46:00.000Z</time>
      </trkpt>
      <trkpt lat="47.26057" lon="-2.32259">
        <ele>14.39999961853</ele>
        <time>2020-10-04T10:46:01.000Z</time>
      </trkpt>
      <trkpt lat="47.26071" lon="-2.32242">
        <ele>14.39999961853</ele>
        <time>2020-10-04T10:46:05.000Z</time>
      </trkpt>
      <trkpt lat="47.26096" lon="-2.32207">
        <ele>14.39999961853</ele>
        <time>2020-10-04T10:46:12.000Z</time>
      </trkpt>
      <trkpt lat="47.261" lon="-2.32202">
        <ele>14.39999961853</ele>
        <time>2020-10-04T10:46:13.000Z</time>
      </trkpt>
      <trkpt lat="47.26111" lon="-2.32177">
        <ele>14.39999961853</ele>
        <time>2020-10-04T10:46:17.000Z</time>
      </trkpt>
      <trkpt lat="47.26123" lon="-2.32144">
        <ele>14</ele>
        <time>2020-10-04T10:46:22.000Z</time>
      </trkpt>
      <trkpt lat="47.26125" lon="-2.32137">
        <ele>13.60000038147</ele>
        <time>2020-10-04T10:46:23.000Z</time>
      </trkpt>
      <trkpt lat="47.26127" lon="-2.3213">
        <ele>13.199999809265</ele>
        <time>2020-10-04T10:46:24.000Z</time>
      </trkpt>
      <trkpt lat="47.26129" lon="-2.32124">
        <ele>12.800000190735</ele>
        <time>2020-10-04T10:46:25.000Z</time>
      </trkpt>
      <trkpt lat="47.26131" lon="-2.32117">
        <ele>12.39999961853</ele>
        <time>2020-10-04T10:46:26.000Z</time>
      </trkpt>
      <trkpt lat="47.26136" lon="-2.32098">
        <ele>12.39999961853</ele>
        <time>2020-10-04T10:46:29.000Z</time>
      </trkpt>
      <trkpt lat="47.26144" lon="-2.32073">
        <ele>12.39999961853</ele>
        <time>2020-10-04T10:46:33.000Z</time>
      </trkpt>
      <trkpt lat="47.26151" lon="-2.32053">
        <ele>12.39999961853</ele>
        <time>2020-10-04T10:46:36.000Z</time>
      </trkpt>
      <trkpt lat="47.26163" lon="-2.32026">
        <ele>12.39999961853</ele>
        <time>2020-10-04T10:46:41.000Z</time>
      </trkpt>
      <trkpt lat="47.26176" lon="-2.32021">
        <ele>12.39999961853</ele>
        <time>2020-10-04T10:46:45.000Z</time>
      </trkpt>
      <trkpt lat="47.2619" lon="-2.32023">
        <ele>12.39999961853</ele>
        <time>2020-10-04T10:46:51.000Z</time>
      </trkpt>
      <trkpt lat="47.26195" lon="-2.32022">
        <ele>12.39999961853</ele>
        <time>2020-10-04T10:46:54.000Z</time>
      </trkpt>
      <trkpt lat="47.26195" lon="-2.32018">
        <ele>12.39999961853</ele>
        <time>2020-10-04T10:46:56.000Z</time>
      </trkpt>
      <trkpt lat="47.26197" lon="-2.32009">
        <ele>12.39999961853</ele>
        <time>2020-10-04T10:46:59.000Z</time>
      </trkpt>
      <trkpt lat="47.26199" lon="-2.32005">
        <ele>12.39999961853</ele>
        <time>2020-10-04T10:47:01.000Z</time>
      </trkpt>
      <trkpt lat="47.2621" lon="-2.31994">
        <ele>12.39999961853</ele>
        <time>2020-10-04T10:47:07.000Z</time>
      </trkpt>
      <trkpt lat="47.26225" lon="-2.31976">
        <ele>12.39999961853</ele>
        <time>2020-10-04T10:47:13.000Z</time>
      </trkpt>
      <trkpt lat="47.2624" lon="-2.31958">
        <ele>12.39999961853</ele>
        <time>2020-10-04T10:47:18.000Z</time>
      </trkpt>
      <trkpt lat="47.2625" lon="-2.31938">
        <ele>12.39999961853</ele>
        <time>2020-10-04T10:47:24.000Z</time>
      </trkpt>
      <trkpt lat="47.26275" lon="-2.31908">
        <ele>12.39999961853</ele>
        <time>2020-10-04T10:47:31.000Z</time>
      </trkpt>
      <trkpt lat="47.26294" lon="-2.31887">
        <ele>12.39999961853</ele>
        <time>2020-10-04T10:47:37.000Z</time>
      </trkpt>
      <trkpt lat="47.26296" lon="-2.31866">
        <ele>12.39999961853</ele>
        <time>2020-10-04T10:47:41.000Z</time>
      </trkpt>
      <trkpt lat="47.26297" lon="-2.31842">
        <ele>12.39999961853</ele>
        <time>2020-10-04T10:47:46.000Z</time>
      </trkpt>
      <trkpt lat="47.26298" lon="-2.31811">
        <ele>12.39999961853</ele>
        <time>2020-10-04T10:47:52.000Z</time>
      </trkpt>
      <trkpt lat="47.26299" lon="-2.31778">
        <ele>12.39999961853</ele>
        <time>2020-10-04T10:47:58.000Z</time>
      </trkpt>
      <trkpt lat="47.26293" lon="-2.31743">
        <ele>12.39999961853</ele>
        <time>2020-10-04T10:48:04.000Z</time>
      </trkpt>
      <trkpt lat="47.26295" lon="-2.31732">
        <ele>12.39999961853</ele>
        <time>2020-10-04T10:48:06.000Z</time>
      </trkpt>
      <trkpt lat="47.26298" lon="-2.31728">
        <ele>12.39999961853</ele>
        <time>2020-10-04T10:48:07.000Z</time>
      </trkpt>
      <trkpt lat="47.26308" lon="-2.31721">
        <ele>12.39999961853</ele>
        <time>2020-10-04T10:48:10.000Z</time>
      </trkpt>
      <trkpt lat="47.26311" lon="-2.3172">
        <ele>12.39999961853</ele>
        <time>2020-10-04T10:48:11.000Z</time>
      </trkpt>
      <trkpt lat="47.26325" lon="-2.31707">
        <ele>12.39999961853</ele>
        <time>2020-10-04T10:48:16.000Z</time>
      </trkpt>
      <trkpt lat="47.26335" lon="-2.31692">
        <ele>12.800000190735</ele>
        <time>2020-10-04T10:48:20.000Z</time>
      </trkpt>
      <trkpt lat="47.26338" lon="-2.31691">
        <ele>13.199999809265</ele>
        <time>2020-10-04T10:48:21.000Z</time>
      </trkpt>
      <trkpt lat="47.26341" lon="-2.31689">
        <ele>13.60000038147</ele>
        <time>2020-10-04T10:48:22.000Z</time>
      </trkpt>
      <trkpt lat="47.26344" lon="-2.31687">
        <ele>14.199999809265</ele>
        <time>2020-10-04T10:48:23.000Z</time>
      </trkpt>
      <trkpt lat="47.26347" lon="-2.31685">
        <ele>14.60000038147</ele>
        <time>2020-10-04T10:48:24.000Z</time>
      </trkpt>
      <trkpt lat="47.26355" lon="-2.3168">
        <ele>14.60000038147</ele>
        <time>2020-10-04T10:48:27.000Z</time>
      </trkpt>
      <trkpt lat="47.26362" lon="-2.31677">
        <ele>15</ele>
        <time>2020-10-04T10:48:29.000Z</time>
      </trkpt>
      <trkpt lat="47.26366" lon="-2.31675">
        <ele>15.39999961853</ele>
        <time>2020-10-04T10:48:30.000Z</time>
      </trkpt>
      <trkpt lat="47.26369" lon="-2.31674">
        <ele>15.800000190735</ele>
        <time>2020-10-04T10:48:31.000Z</time>
      </trkpt>
      <trkpt lat="47.26372" lon="-2.31673">
        <ele>16.200000762939</ele>
        <time>2020-10-04T10:48:32.000Z</time>
      </trkpt>
      <trkpt lat="47.26375" lon="-2.31671">
        <ele>16.60000038147</ele>
        <time>2020-10-04T10:48:33.000Z</time>
      </trkpt>
      <trkpt lat="47.26393" lon="-2.31659">
        <ele>16.60000038147</ele>
        <time>2020-10-04T10:48:40.000Z</time>
      </trkpt>
      <trkpt lat="47.26407" lon="-2.31649">
        <ele>16.60000038147</ele>
        <time>2020-10-04T10:48:45.000Z</time>
      </trkpt>
      <trkpt lat="47.26408" lon="-2.31646">
        <ele>16.60000038147</ele>
        <time>2020-10-04T10:48:46.000Z</time>
      </trkpt>
      <trkpt lat="47.26406" lon="-2.31631">
        <ele>16.60000038147</ele>
        <time>2020-10-04T10:48:50.000Z</time>
      </trkpt>
      <trkpt lat="47.26405" lon="-2.31616">
        <ele>16.60000038147</ele>
        <time>2020-10-04T10:48:53.000Z</time>
      </trkpt>
      <trkpt lat="47.26405" lon="-2.31612">
        <ele>16.60000038147</ele>
        <time>2020-10-04T10:48:54.000Z</time>
      </trkpt>
      <trkpt lat="47.26405" lon="-2.31572">
        <ele>16.60000038147</ele>
        <time>2020-10-04T10:49:01.000Z</time>
      </trkpt>
      <trkpt lat="47.26407" lon="-2.31554">
        <ele>16.60000038147</ele>
        <time>2020-10-04T10:49:06.000Z</time>
      </trkpt>
      <trkpt lat="47.26415" lon="-2.31553">
        <ele>16.60000038147</ele>
        <time>2020-10-04T10:49:10.000Z</time>
      </trkpt>
      <trkpt lat="47.26415" lon="-2.31554">
        <ele>17.200000762939</ele>
        <time>2020-10-04T10:49:11.000Z</time>
      </trkpt>
      <trkpt lat="47.26415" lon="-2.31554">
        <ele>17.60000038147</ele>
        <time>2020-10-04T10:49:12.000Z</time>
      </trkpt>
    </trkseg>
  </trk>
</gpx>